<?xml version="1.0" encoding="UTF-8" standalone="no" ?>
<gpx xmlns="http://www.topografix.com/GPX/1/1" xmlns:xsi="http://www.w3.org/2001/XMLSchema-instance" xsi:schemaLocation="http://www.topografix.com/GPX/1/1 http://www.topografix.com/GPX/1/1/gpx.xsd" version="1.1" creator="VisuGPX - https://www.visugpx.com">
  <metadata>
    <name>Grand Ballon- Petit Ballon</name>
  </metadata>
  <trk>
    <name><![CDATA[Grand Ballon- Petit Ballon_1]]></name>
    <trkseg>
      <trkpt lat="47.92099" lon="7.17102">
        <ele>384.4</ele>
        <time>2021-08-21T04:26:16.000Z</time>
      </trkpt>
      <trkpt lat="47.92099" lon="7.17102">
        <ele>384.6</ele>
        <time>2021-08-21T04:26:17.000Z</time>
      </trkpt>
      <trkpt lat="47.92098" lon="7.17112">
        <ele>384.6</ele>
        <time>2021-08-21T04:26:46.000Z</time>
      </trkpt>
      <trkpt lat="47.92097" lon="7.17112">
        <ele>384.6</ele>
        <time>2021-08-21T04:27:02.000Z</time>
      </trkpt>
      <trkpt lat="47.92089" lon="7.17119">
        <ele>384.4</ele>
        <time>2021-08-21T04:27:09.000Z</time>
      </trkpt>
      <trkpt lat="47.92088" lon="7.1712">
        <ele>384.4</ele>
        <time>2021-08-21T04:27:10.000Z</time>
      </trkpt>
      <trkpt lat="47.92078" lon="7.1712">
        <ele>385</ele>
        <time>2021-08-21T04:27:21.000Z</time>
      </trkpt>
      <trkpt lat="47.92078" lon="7.17119">
        <ele>385</ele>
        <time>2021-08-21T04:27:22.000Z</time>
      </trkpt>
      <trkpt lat="47.92077" lon="7.17118">
        <ele>385</ele>
        <time>2021-08-21T04:27:23.000Z</time>
      </trkpt>
      <trkpt lat="47.92073" lon="7.17099">
        <ele>385.8</ele>
        <time>2021-08-21T04:27:37.000Z</time>
      </trkpt>
      <trkpt lat="47.92063" lon="7.17081">
        <ele>387</ele>
        <time>2021-08-21T04:27:54.000Z</time>
      </trkpt>
      <trkpt lat="47.92062" lon="7.17069">
        <ele>387.4</ele>
        <time>2021-08-21T04:28:05.000Z</time>
      </trkpt>
      <trkpt lat="47.92051" lon="7.17054">
        <ele>388.6</ele>
        <time>2021-08-21T04:28:18.000Z</time>
      </trkpt>
      <trkpt lat="47.9205" lon="7.17052">
        <ele>388.8</ele>
        <time>2021-08-21T04:28:20.000Z</time>
      </trkpt>
      <trkpt lat="47.9205" lon="7.1705">
        <ele>388.8</ele>
        <time>2021-08-21T04:28:21.000Z</time>
      </trkpt>
      <trkpt lat="47.92041" lon="7.17039">
        <ele>390</ele>
        <time>2021-08-21T04:28:33.000Z</time>
      </trkpt>
      <trkpt lat="47.92036" lon="7.17022">
        <ele>391.2</ele>
        <time>2021-08-21T04:28:45.000Z</time>
      </trkpt>
      <trkpt lat="47.92034" lon="7.17014">
        <ele>391.8</ele>
        <time>2021-08-21T04:28:50.000Z</time>
      </trkpt>
      <trkpt lat="47.92036" lon="7.17005">
        <ele>392.4</ele>
        <time>2021-08-21T04:28:55.000Z</time>
      </trkpt>
      <trkpt lat="47.92029" lon="7.16991">
        <ele>393.2</ele>
        <time>2021-08-21T04:29:05.000Z</time>
      </trkpt>
      <trkpt lat="47.92023" lon="7.16969">
        <ele>394.8</ele>
        <time>2021-08-21T04:29:21.000Z</time>
      </trkpt>
      <trkpt lat="47.92022" lon="7.16962">
        <ele>395.2</ele>
        <time>2021-08-21T04:29:25.000Z</time>
      </trkpt>
      <trkpt lat="47.9202" lon="7.16941">
        <ele>396</ele>
        <time>2021-08-21T04:29:37.000Z</time>
      </trkpt>
      <trkpt lat="47.92019" lon="7.1691">
        <ele>397.2</ele>
        <time>2021-08-21T04:29:54.000Z</time>
      </trkpt>
      <trkpt lat="47.92016" lon="7.16896">
        <ele>398</ele>
        <time>2021-08-21T04:30:04.000Z</time>
      </trkpt>
      <trkpt lat="47.92013" lon="7.16884">
        <ele>398.8</ele>
        <time>2021-08-21T04:30:12.000Z</time>
      </trkpt>
      <trkpt lat="47.92011" lon="7.16871">
        <ele>399.4</ele>
        <time>2021-08-21T04:30:21.000Z</time>
      </trkpt>
      <trkpt lat="47.92008" lon="7.16857">
        <ele>400.2</ele>
        <time>2021-08-21T04:30:31.000Z</time>
      </trkpt>
      <trkpt lat="47.92004" lon="7.1684">
        <ele>401.4</ele>
        <time>2021-08-21T04:30:44.000Z</time>
      </trkpt>
      <trkpt lat="47.91998" lon="7.1683">
        <ele>402.2</ele>
        <time>2021-08-21T04:30:52.000Z</time>
      </trkpt>
      <trkpt lat="47.91998" lon="7.16829">
        <ele>402.2</ele>
        <time>2021-08-21T04:30:53.000Z</time>
      </trkpt>
      <trkpt lat="47.91998" lon="7.16826">
        <ele>402.6</ele>
        <time>2021-08-21T04:30:55.000Z</time>
      </trkpt>
      <trkpt lat="47.91998" lon="7.16822">
        <ele>402.8</ele>
        <time>2021-08-21T04:30:57.000Z</time>
      </trkpt>
      <trkpt lat="47.91996" lon="7.16818">
        <ele>403.2</ele>
        <time>2021-08-21T04:31:00.000Z</time>
      </trkpt>
      <trkpt lat="47.91992" lon="7.16813">
        <ele>403.6</ele>
        <time>2021-08-21T04:31:04.000Z</time>
      </trkpt>
      <trkpt lat="47.91986" lon="7.16801">
        <ele>404.4</ele>
        <time>2021-08-21T04:31:13.000Z</time>
      </trkpt>
      <trkpt lat="47.91986" lon="7.16799">
        <ele>404.4</ele>
        <time>2021-08-21T04:31:14.000Z</time>
      </trkpt>
      <trkpt lat="47.91985" lon="7.16797">
        <ele>404.6</ele>
        <time>2021-08-21T04:31:15.000Z</time>
      </trkpt>
      <trkpt lat="47.91983" lon="7.16793">
        <ele>404.8</ele>
        <time>2021-08-21T04:31:19.000Z</time>
      </trkpt>
      <trkpt lat="47.91983" lon="7.16792">
        <ele>404.8</ele>
        <time>2021-08-21T04:31:20.000Z</time>
      </trkpt>
      <trkpt lat="47.91982" lon="7.16788">
        <ele>405</ele>
        <time>2021-08-21T04:31:22.000Z</time>
      </trkpt>
      <trkpt lat="47.9198" lon="7.16783">
        <ele>405.4</ele>
        <time>2021-08-21T04:31:26.000Z</time>
      </trkpt>
      <trkpt lat="47.91973" lon="7.16771">
        <ele>406.4</ele>
        <time>2021-08-21T04:31:36.000Z</time>
      </trkpt>
      <trkpt lat="47.9197" lon="7.16756">
        <ele>407.6</ele>
        <time>2021-08-21T04:31:47.000Z</time>
      </trkpt>
      <trkpt lat="47.91969" lon="7.16752">
        <ele>407.8</ele>
        <time>2021-08-21T04:31:50.000Z</time>
      </trkpt>
      <trkpt lat="47.91966" lon="7.16741">
        <ele>408.8</ele>
        <time>2021-08-21T04:31:58.000Z</time>
      </trkpt>
      <trkpt lat="47.91963" lon="7.16734">
        <ele>409.6</ele>
        <time>2021-08-21T04:32:04.000Z</time>
      </trkpt>
      <trkpt lat="47.9196" lon="7.16725">
        <ele>410.4</ele>
        <time>2021-08-21T04:32:12.000Z</time>
      </trkpt>
      <trkpt lat="47.9196" lon="7.16715">
        <ele>411.2</ele>
        <time>2021-08-21T04:32:18.000Z</time>
      </trkpt>
      <trkpt lat="47.91957" lon="7.16703">
        <ele>412.4</ele>
        <time>2021-08-21T04:32:27.000Z</time>
      </trkpt>
      <trkpt lat="47.91948" lon="7.16681">
        <ele>414.2</ele>
        <time>2021-08-21T04:32:42.000Z</time>
      </trkpt>
      <trkpt lat="47.91936" lon="7.16656">
        <ele>416.6</ele>
        <time>2021-08-21T04:33:01.000Z</time>
      </trkpt>
      <trkpt lat="47.91925" lon="7.16649">
        <ele>418</ele>
        <time>2021-08-21T04:33:14.000Z</time>
      </trkpt>
      <trkpt lat="47.91924" lon="7.16648">
        <ele>418</ele>
        <time>2021-08-21T04:33:15.000Z</time>
      </trkpt>
      <trkpt lat="47.91903" lon="7.16623">
        <ele>421.2</ele>
        <time>2021-08-21T04:33:41.000Z</time>
      </trkpt>
      <trkpt lat="47.91898" lon="7.1662">
        <ele>421.8</ele>
        <time>2021-08-21T04:33:47.000Z</time>
      </trkpt>
      <trkpt lat="47.91884" lon="7.16598">
        <ele>425</ele>
        <time>2021-08-21T04:34:11.000Z</time>
      </trkpt>
      <trkpt lat="47.91875" lon="7.16585">
        <ele>426.4</ele>
        <time>2021-08-21T04:34:22.000Z</time>
      </trkpt>
      <trkpt lat="47.91869" lon="7.16578">
        <ele>427.2</ele>
        <time>2021-08-21T04:34:30.000Z</time>
      </trkpt>
      <trkpt lat="47.9185" lon="7.16567">
        <ele>430</ele>
        <time>2021-08-21T04:34:54.000Z</time>
      </trkpt>
      <trkpt lat="47.91842" lon="7.16557">
        <ele>430.6</ele>
        <time>2021-08-21T04:35:02.000Z</time>
      </trkpt>
      <trkpt lat="47.91841" lon="7.16556">
        <ele>430.6</ele>
        <time>2021-08-21T04:35:03.000Z</time>
      </trkpt>
      <trkpt lat="47.9182" lon="7.16507">
        <ele>433.2</ele>
        <time>2021-08-21T04:35:41.000Z</time>
      </trkpt>
      <trkpt lat="47.91815" lon="7.16502">
        <ele>433.6</ele>
        <time>2021-08-21T04:35:46.000Z</time>
      </trkpt>
      <trkpt lat="47.91809" lon="7.16497">
        <ele>434.2</ele>
        <time>2021-08-21T04:35:52.000Z</time>
      </trkpt>
      <trkpt lat="47.91802" lon="7.16482">
        <ele>435.2</ele>
        <time>2021-08-21T04:36:05.000Z</time>
      </trkpt>
      <trkpt lat="47.91794" lon="7.16471">
        <ele>435.8</ele>
        <time>2021-08-21T04:36:14.000Z</time>
      </trkpt>
      <trkpt lat="47.9179" lon="7.16463">
        <ele>436.2</ele>
        <time>2021-08-21T04:36:20.000Z</time>
      </trkpt>
      <trkpt lat="47.91788" lon="7.1646">
        <ele>436.4</ele>
        <time>2021-08-21T04:36:23.000Z</time>
      </trkpt>
      <trkpt lat="47.91782" lon="7.16437">
        <ele>438.2</ele>
        <time>2021-08-21T04:36:40.000Z</time>
      </trkpt>
      <trkpt lat="47.91785" lon="7.16427">
        <ele>439.4</ele>
        <time>2021-08-21T04:36:47.000Z</time>
      </trkpt>
      <trkpt lat="47.91794" lon="7.16402">
        <ele>441.4</ele>
        <time>2021-08-21T04:37:03.000Z</time>
      </trkpt>
      <trkpt lat="47.91794" lon="7.16377">
        <ele>443.6</ele>
        <time>2021-08-21T04:37:22.000Z</time>
      </trkpt>
      <trkpt lat="47.9179" lon="7.16367">
        <ele>444.8</ele>
        <time>2021-08-21T04:37:33.000Z</time>
      </trkpt>
      <trkpt lat="47.91789" lon="7.16365">
        <ele>445</ele>
        <time>2021-08-21T04:37:34.000Z</time>
      </trkpt>
      <trkpt lat="47.91767" lon="7.16331">
        <ele>447.6</ele>
        <time>2021-08-21T04:37:59.000Z</time>
      </trkpt>
      <trkpt lat="47.91764" lon="7.16326">
        <ele>448.4</ele>
        <time>2021-08-21T04:38:05.000Z</time>
      </trkpt>
      <trkpt lat="47.91751" lon="7.16312">
        <ele>450.6</ele>
        <time>2021-08-21T04:38:23.000Z</time>
      </trkpt>
      <trkpt lat="47.91731" lon="7.163">
        <ele>452.8</ele>
        <time>2021-08-21T04:38:44.000Z</time>
      </trkpt>
      <trkpt lat="47.91727" lon="7.16298">
        <ele>453.2</ele>
        <time>2021-08-21T04:38:47.000Z</time>
      </trkpt>
      <trkpt lat="47.91709" lon="7.1628">
        <ele>455.8</ele>
        <time>2021-08-21T04:39:09.000Z</time>
      </trkpt>
      <trkpt lat="47.91684" lon="7.16267">
        <ele>458.8</ele>
        <time>2021-08-21T04:39:34.000Z</time>
      </trkpt>
      <trkpt lat="47.91672" lon="7.16262">
        <ele>460.2</ele>
        <time>2021-08-21T04:39:45.000Z</time>
      </trkpt>
      <trkpt lat="47.91669" lon="7.16259">
        <ele>460.6</ele>
        <time>2021-08-21T04:39:49.000Z</time>
      </trkpt>
      <trkpt lat="47.91655" lon="7.16246">
        <ele>463</ele>
        <time>2021-08-21T04:40:10.000Z</time>
      </trkpt>
      <trkpt lat="47.91653" lon="7.16245">
        <ele>463.2</ele>
        <time>2021-08-21T04:40:12.000Z</time>
      </trkpt>
      <trkpt lat="47.91648" lon="7.16237">
        <ele>463.8</ele>
        <time>2021-08-21T04:40:19.000Z</time>
      </trkpt>
      <trkpt lat="47.91639" lon="7.16227">
        <ele>465</ele>
        <time>2021-08-21T04:40:31.000Z</time>
      </trkpt>
      <trkpt lat="47.91633" lon="7.16214">
        <ele>466.6</ele>
        <time>2021-08-21T04:40:44.000Z</time>
      </trkpt>
      <trkpt lat="47.91625" lon="7.16205">
        <ele>468.2</ele>
        <time>2021-08-21T04:40:58.000Z</time>
      </trkpt>
      <trkpt lat="47.91615" lon="7.1618">
        <ele>471.2</ele>
        <time>2021-08-21T04:41:25.000Z</time>
      </trkpt>
      <trkpt lat="47.91611" lon="7.16155">
        <ele>472.6</ele>
        <time>2021-08-21T04:41:38.000Z</time>
      </trkpt>
      <trkpt lat="47.91611" lon="7.16152">
        <ele>472.8</ele>
        <time>2021-08-21T04:41:40.000Z</time>
      </trkpt>
      <trkpt lat="47.9161" lon="7.1614">
        <ele>473.6</ele>
        <time>2021-08-21T04:41:49.000Z</time>
      </trkpt>
      <trkpt lat="47.9161" lon="7.16138">
        <ele>473.8</ele>
        <time>2021-08-21T04:41:50.000Z</time>
      </trkpt>
      <trkpt lat="47.9161" lon="7.16137">
        <ele>474</ele>
        <time>2021-08-21T04:41:51.000Z</time>
      </trkpt>
      <trkpt lat="47.91608" lon="7.16123">
        <ele>475</ele>
        <time>2021-08-21T04:41:59.000Z</time>
      </trkpt>
      <trkpt lat="47.91602" lon="7.16119">
        <ele>475.6</ele>
        <time>2021-08-21T04:42:05.000Z</time>
      </trkpt>
      <trkpt lat="47.91588" lon="7.16118">
        <ele>477.2</ele>
        <time>2021-08-21T04:42:23.000Z</time>
      </trkpt>
      <trkpt lat="47.91588" lon="7.16118">
        <ele>477.2</ele>
        <time>2021-08-21T04:42:50.000Z</time>
      </trkpt>
      <trkpt lat="47.91587" lon="7.1612">
        <ele>477.4</ele>
        <time>2021-08-21T04:42:52.000Z</time>
      </trkpt>
      <trkpt lat="47.91585" lon="7.16137">
        <ele>478.6</ele>
        <time>2021-08-21T04:43:05.000Z</time>
      </trkpt>
      <trkpt lat="47.91584" lon="7.16162">
        <ele>479.8</ele>
        <time>2021-08-21T04:43:18.000Z</time>
      </trkpt>
      <trkpt lat="47.91584" lon="7.16165">
        <ele>480</ele>
        <time>2021-08-21T04:43:20.000Z</time>
      </trkpt>
      <trkpt lat="47.91585" lon="7.16175">
        <ele>480.6</ele>
        <time>2021-08-21T04:43:27.000Z</time>
      </trkpt>
      <trkpt lat="47.91581" lon="7.16197">
        <ele>482</ele>
        <time>2021-08-21T04:43:39.000Z</time>
      </trkpt>
      <trkpt lat="47.91577" lon="7.1621">
        <ele>483.2</ele>
        <time>2021-08-21T04:43:50.000Z</time>
      </trkpt>
      <trkpt lat="47.91573" lon="7.16218">
        <ele>484</ele>
        <time>2021-08-21T04:43:57.000Z</time>
      </trkpt>
      <trkpt lat="47.91565" lon="7.16238">
        <ele>485.8</ele>
        <time>2021-08-21T04:44:12.000Z</time>
      </trkpt>
      <trkpt lat="47.91562" lon="7.16244">
        <ele>486.4</ele>
        <time>2021-08-21T04:44:16.000Z</time>
      </trkpt>
      <trkpt lat="47.91561" lon="7.16246">
        <ele>486.4</ele>
        <time>2021-08-21T04:44:17.000Z</time>
      </trkpt>
      <trkpt lat="47.9156" lon="7.16248">
        <ele>487</ele>
        <time>2021-08-21T04:44:19.000Z</time>
      </trkpt>
      <trkpt lat="47.91556" lon="7.16262">
        <ele>489</ele>
        <time>2021-08-21T04:44:33.000Z</time>
      </trkpt>
      <trkpt lat="47.91555" lon="7.16268">
        <ele>489.2</ele>
        <time>2021-08-21T04:44:36.000Z</time>
      </trkpt>
      <trkpt lat="47.91554" lon="7.16272">
        <ele>489.6</ele>
        <time>2021-08-21T04:44:40.000Z</time>
      </trkpt>
      <trkpt lat="47.91549" lon="7.16282">
        <ele>490.4</ele>
        <time>2021-08-21T04:44:46.000Z</time>
      </trkpt>
      <trkpt lat="47.91546" lon="7.16305">
        <ele>492</ele>
        <time>2021-08-21T04:45:00.000Z</time>
      </trkpt>
      <trkpt lat="47.91546" lon="7.16306">
        <ele>492.2</ele>
        <time>2021-08-21T04:45:01.000Z</time>
      </trkpt>
      <trkpt lat="47.91547" lon="7.16312">
        <ele>492.6</ele>
        <time>2021-08-21T04:45:04.000Z</time>
      </trkpt>
      <trkpt lat="47.91547" lon="7.16314">
        <ele>492.6</ele>
        <time>2021-08-21T04:45:05.000Z</time>
      </trkpt>
      <trkpt lat="47.91549" lon="7.16325">
        <ele>493.2</ele>
        <time>2021-08-21T04:45:10.000Z</time>
      </trkpt>
      <trkpt lat="47.9155" lon="7.16327">
        <ele>493.2</ele>
        <time>2021-08-21T04:45:11.000Z</time>
      </trkpt>
      <trkpt lat="47.91552" lon="7.1633">
        <ele>493.4</ele>
        <time>2021-08-21T04:45:13.000Z</time>
      </trkpt>
      <trkpt lat="47.91554" lon="7.16334">
        <ele>493.6</ele>
        <time>2021-08-21T04:45:16.000Z</time>
      </trkpt>
      <trkpt lat="47.91555" lon="7.16336">
        <ele>493.6</ele>
        <time>2021-08-21T04:45:17.000Z</time>
      </trkpt>
      <trkpt lat="47.91555" lon="7.16337">
        <ele>493.6</ele>
        <time>2021-08-21T04:45:18.000Z</time>
      </trkpt>
      <trkpt lat="47.91556" lon="7.16338">
        <ele>493.6</ele>
        <time>2021-08-21T04:45:19.000Z</time>
      </trkpt>
      <trkpt lat="47.91557" lon="7.16339">
        <ele>493.8</ele>
        <time>2021-08-21T04:45:20.000Z</time>
      </trkpt>
      <trkpt lat="47.91558" lon="7.16344">
        <ele>494.2</ele>
        <time>2021-08-21T04:45:23.000Z</time>
      </trkpt>
      <trkpt lat="47.91561" lon="7.16348">
        <ele>494.8</ele>
        <time>2021-08-21T04:45:26.000Z</time>
      </trkpt>
      <trkpt lat="47.91567" lon="7.16359">
        <ele>496.4</ele>
        <time>2021-08-21T04:45:36.000Z</time>
      </trkpt>
      <trkpt lat="47.91569" lon="7.16366">
        <ele>497.2</ele>
        <time>2021-08-21T04:45:43.000Z</time>
      </trkpt>
      <trkpt lat="47.91563" lon="7.16376">
        <ele>499.2</ele>
        <time>2021-08-21T04:45:56.000Z</time>
      </trkpt>
      <trkpt lat="47.91558" lon="7.16383">
        <ele>501.4</ele>
        <time>2021-08-21T04:46:13.000Z</time>
      </trkpt>
      <trkpt lat="47.91559" lon="7.16378">
        <ele>500.8</ele>
        <time>2021-08-21T04:46:39.000Z</time>
      </trkpt>
      <trkpt lat="47.91563" lon="7.16375">
        <ele>500.2</ele>
        <time>2021-08-21T04:47:36.000Z</time>
      </trkpt>
      <trkpt lat="47.9156" lon="7.16376">
        <ele>500.2</ele>
        <time>2021-08-21T04:47:39.000Z</time>
      </trkpt>
      <trkpt lat="47.91569" lon="7.16355">
        <ele>497.4</ele>
        <time>2021-08-21T04:47:58.000Z</time>
      </trkpt>
      <trkpt lat="47.91559" lon="7.16336">
        <ele>494.4</ele>
        <time>2021-08-21T04:48:18.000Z</time>
      </trkpt>
      <trkpt lat="47.9155" lon="7.16319">
        <ele>493</ele>
        <time>2021-08-21T04:48:39.000Z</time>
      </trkpt>
      <trkpt lat="47.91557" lon="7.16289">
        <ele>490.8</ele>
        <time>2021-08-21T04:49:00.000Z</time>
      </trkpt>
      <trkpt lat="47.91559" lon="7.16281">
        <ele>490.2</ele>
        <time>2021-08-21T04:49:04.000Z</time>
      </trkpt>
      <trkpt lat="47.91562" lon="7.16271">
        <ele>489</ele>
        <time>2021-08-21T04:49:11.000Z</time>
      </trkpt>
      <trkpt lat="47.91566" lon="7.1626">
        <ele>487.4</ele>
        <time>2021-08-21T04:49:20.000Z</time>
      </trkpt>
      <trkpt lat="47.91566" lon="7.16256">
        <ele>487.2</ele>
        <time>2021-08-21T04:49:22.000Z</time>
      </trkpt>
      <trkpt lat="47.91567" lon="7.16249">
        <ele>486.4</ele>
        <time>2021-08-21T04:49:27.000Z</time>
      </trkpt>
      <trkpt lat="47.91567" lon="7.16247">
        <ele>486.2</ele>
        <time>2021-08-21T04:49:28.000Z</time>
      </trkpt>
      <trkpt lat="47.91578" lon="7.16218">
        <ele>483.4</ele>
        <time>2021-08-21T04:49:47.000Z</time>
      </trkpt>
      <trkpt lat="47.91579" lon="7.16214">
        <ele>482.8</ele>
        <time>2021-08-21T04:49:50.000Z</time>
      </trkpt>
      <trkpt lat="47.91584" lon="7.16156">
        <ele>478.8</ele>
        <time>2021-08-21T04:50:21.000Z</time>
      </trkpt>
      <trkpt lat="47.91586" lon="7.16143">
        <ele>478</ele>
        <time>2021-08-21T04:50:29.000Z</time>
      </trkpt>
      <trkpt lat="47.91584" lon="7.16122">
        <ele>478.2</ele>
        <time>2021-08-21T04:50:50.000Z</time>
      </trkpt>
      <trkpt lat="47.91573" lon="7.16116">
        <ele>480.2</ele>
        <time>2021-08-21T04:51:02.000Z</time>
      </trkpt>
      <trkpt lat="47.91563" lon="7.16098">
        <ele>482.2</ele>
        <time>2021-08-21T04:51:16.000Z</time>
      </trkpt>
      <trkpt lat="47.91551" lon="7.16091">
        <ele>485.4</ele>
        <time>2021-08-21T04:51:37.000Z</time>
      </trkpt>
      <trkpt lat="47.91534" lon="7.16087">
        <ele>488.4</ele>
        <time>2021-08-21T04:51:55.000Z</time>
      </trkpt>
      <trkpt lat="47.91521" lon="7.16083">
        <ele>491.2</ele>
        <time>2021-08-21T04:52:12.000Z</time>
      </trkpt>
      <trkpt lat="47.91515" lon="7.16083">
        <ele>492.4</ele>
        <time>2021-08-21T04:52:19.000Z</time>
      </trkpt>
      <trkpt lat="47.91513" lon="7.16083">
        <ele>492.8</ele>
        <time>2021-08-21T04:52:22.000Z</time>
      </trkpt>
      <trkpt lat="47.91508" lon="7.16079">
        <ele>494.4</ele>
        <time>2021-08-21T04:52:33.000Z</time>
      </trkpt>
      <trkpt lat="47.91499" lon="7.16068">
        <ele>497.6</ele>
        <time>2021-08-21T04:52:54.000Z</time>
      </trkpt>
      <trkpt lat="47.9149" lon="7.16058">
        <ele>499.6</ele>
        <time>2021-08-21T04:53:04.000Z</time>
      </trkpt>
      <trkpt lat="47.91485" lon="7.16051">
        <ele>501.6</ele>
        <time>2021-08-21T04:53:16.000Z</time>
      </trkpt>
      <trkpt lat="47.91484" lon="7.1605">
        <ele>501.8</ele>
        <time>2021-08-21T04:53:17.000Z</time>
      </trkpt>
      <trkpt lat="47.91479" lon="7.16042">
        <ele>502.8</ele>
        <time>2021-08-21T04:53:25.000Z</time>
      </trkpt>
      <trkpt lat="47.91476" lon="7.16039">
        <ele>503.6</ele>
        <time>2021-08-21T04:53:30.000Z</time>
      </trkpt>
      <trkpt lat="47.91467" lon="7.16037">
        <ele>506.8</ele>
        <time>2021-08-21T04:53:47.000Z</time>
      </trkpt>
      <trkpt lat="47.91452" lon="7.16031">
        <ele>509.6</ele>
        <time>2021-08-21T04:54:05.000Z</time>
      </trkpt>
      <trkpt lat="47.91441" lon="7.16023">
        <ele>511.2</ele>
        <time>2021-08-21T04:54:27.000Z</time>
      </trkpt>
      <trkpt lat="47.91435" lon="7.16012">
        <ele>513.8</ele>
        <time>2021-08-21T04:54:42.000Z</time>
      </trkpt>
      <trkpt lat="47.91426" lon="7.16007">
        <ele>517</ele>
        <time>2021-08-21T04:54:59.000Z</time>
      </trkpt>
      <trkpt lat="47.91413" lon="7.15988">
        <ele>519.2</ele>
        <time>2021-08-21T04:55:21.000Z</time>
      </trkpt>
      <trkpt lat="47.91412" lon="7.15985">
        <ele>519.2</ele>
        <time>2021-08-21T04:55:23.000Z</time>
      </trkpt>
      <trkpt lat="47.9141" lon="7.15983">
        <ele>519.4</ele>
        <time>2021-08-21T04:55:26.000Z</time>
      </trkpt>
      <trkpt lat="47.91408" lon="7.15976">
        <ele>520.2</ele>
        <time>2021-08-21T04:55:33.000Z</time>
      </trkpt>
      <trkpt lat="47.91406" lon="7.15972">
        <ele>520.8</ele>
        <time>2021-08-21T04:55:41.000Z</time>
      </trkpt>
      <trkpt lat="47.91397" lon="7.15959">
        <ele>524</ele>
        <time>2021-08-21T04:55:58.000Z</time>
      </trkpt>
      <trkpt lat="47.91382" lon="7.15961">
        <ele>527</ele>
        <time>2021-08-21T04:56:16.000Z</time>
      </trkpt>
      <trkpt lat="47.91376" lon="7.1596">
        <ele>527.8</ele>
        <time>2021-08-21T04:56:21.000Z</time>
      </trkpt>
      <trkpt lat="47.9136" lon="7.15953">
        <ele>530.8</ele>
        <time>2021-08-21T04:56:41.000Z</time>
      </trkpt>
      <trkpt lat="47.91348" lon="7.15949">
        <ele>533</ele>
        <time>2021-08-21T04:56:54.000Z</time>
      </trkpt>
      <trkpt lat="47.9134" lon="7.15944">
        <ele>536</ele>
        <time>2021-08-21T04:57:12.000Z</time>
      </trkpt>
      <trkpt lat="47.91323" lon="7.1594">
        <ele>539.2</ele>
        <time>2021-08-21T04:57:34.000Z</time>
      </trkpt>
      <trkpt lat="47.91312" lon="7.15941">
        <ele>542.4</ele>
        <time>2021-08-21T04:57:52.000Z</time>
      </trkpt>
      <trkpt lat="47.91297" lon="7.15953">
        <ele>545.4</ele>
        <time>2021-08-21T04:58:11.000Z</time>
      </trkpt>
      <trkpt lat="47.91284" lon="7.15944">
        <ele>547.4</ele>
        <time>2021-08-21T04:58:35.000Z</time>
      </trkpt>
      <trkpt lat="47.91278" lon="7.15939">
        <ele>550.2</ele>
        <time>2021-08-21T04:58:57.000Z</time>
      </trkpt>
      <trkpt lat="47.91255" lon="7.15943">
        <ele>554.8</ele>
        <time>2021-08-21T04:59:26.000Z</time>
      </trkpt>
      <trkpt lat="47.91251" lon="7.15939">
        <ele>556.8</ele>
        <time>2021-08-21T04:59:35.000Z</time>
      </trkpt>
      <trkpt lat="47.91253" lon="7.15924">
        <ele>560</ele>
        <time>2021-08-21T04:59:56.000Z</time>
      </trkpt>
      <trkpt lat="47.91254" lon="7.1592">
        <ele>563</ele>
        <time>2021-08-21T05:00:13.000Z</time>
      </trkpt>
      <trkpt lat="47.91263" lon="7.15908">
        <ele>564.2</ele>
        <time>2021-08-21T05:00:24.000Z</time>
      </trkpt>
      <trkpt lat="47.91275" lon="7.15893">
        <ele>566.6</ele>
        <time>2021-08-21T05:00:38.000Z</time>
      </trkpt>
      <trkpt lat="47.91277" lon="7.15889">
        <ele>566.8</ele>
        <time>2021-08-21T05:00:41.000Z</time>
      </trkpt>
      <trkpt lat="47.91284" lon="7.15882">
        <ele>568</ele>
        <time>2021-08-21T05:00:48.000Z</time>
      </trkpt>
      <trkpt lat="47.91285" lon="7.15868">
        <ele>570.2</ele>
        <time>2021-08-21T05:01:00.000Z</time>
      </trkpt>
      <trkpt lat="47.91281" lon="7.15852">
        <ele>572</ele>
        <time>2021-08-21T05:01:13.000Z</time>
      </trkpt>
      <trkpt lat="47.91274" lon="7.15851">
        <ele>574.6</ele>
        <time>2021-08-21T05:01:29.000Z</time>
      </trkpt>
      <trkpt lat="47.91265" lon="7.15859">
        <ele>576.6</ele>
        <time>2021-08-21T05:01:43.000Z</time>
      </trkpt>
      <trkpt lat="47.91257" lon="7.15863">
        <ele>578.8</ele>
        <time>2021-08-21T05:01:57.000Z</time>
      </trkpt>
      <trkpt lat="47.91256" lon="7.15852">
        <ele>580.6</ele>
        <time>2021-08-21T05:02:11.000Z</time>
      </trkpt>
      <trkpt lat="47.91256" lon="7.15841">
        <ele>583.6</ele>
        <time>2021-08-21T05:02:31.000Z</time>
      </trkpt>
      <trkpt lat="47.9125" lon="7.15851">
        <ele>586.6</ele>
        <time>2021-08-21T05:02:48.000Z</time>
      </trkpt>
      <trkpt lat="47.91236" lon="7.1586">
        <ele>589.2</ele>
        <time>2021-08-21T05:03:05.000Z</time>
      </trkpt>
      <trkpt lat="47.91224" lon="7.15865">
        <ele>592.4</ele>
        <time>2021-08-21T05:03:24.000Z</time>
      </trkpt>
      <trkpt lat="47.91217" lon="7.15865">
        <ele>593.4</ele>
        <time>2021-08-21T05:03:33.000Z</time>
      </trkpt>
      <trkpt lat="47.91187" lon="7.15865">
        <ele>598.6</ele>
        <time>2021-08-21T05:04:13.000Z</time>
      </trkpt>
      <trkpt lat="47.91175" lon="7.15867">
        <ele>601.8</ele>
        <time>2021-08-21T05:04:33.000Z</time>
      </trkpt>
      <trkpt lat="47.91157" lon="7.15868">
        <ele>604.8</ele>
        <time>2021-08-21T05:04:56.000Z</time>
      </trkpt>
      <trkpt lat="47.9115" lon="7.1587">
        <ele>608</ele>
        <time>2021-08-21T05:05:15.000Z</time>
      </trkpt>
      <trkpt lat="47.91131" lon="7.15888">
        <ele>611.2</ele>
        <time>2021-08-21T05:05:40.000Z</time>
      </trkpt>
      <trkpt lat="47.91125" lon="7.15901">
        <ele>612.8</ele>
        <time>2021-08-21T05:05:52.000Z</time>
      </trkpt>
      <trkpt lat="47.91124" lon="7.15901">
        <ele>613</ele>
        <time>2021-08-21T05:05:53.000Z</time>
      </trkpt>
      <trkpt lat="47.9112" lon="7.15902">
        <ele>613.8</ele>
        <time>2021-08-21T05:05:57.000Z</time>
      </trkpt>
      <trkpt lat="47.91121" lon="7.1589">
        <ele>616.6</ele>
        <time>2021-08-21T05:06:12.000Z</time>
      </trkpt>
      <trkpt lat="47.91129" lon="7.15869">
        <ele>619</ele>
        <time>2021-08-21T05:06:30.000Z</time>
      </trkpt>
      <trkpt lat="47.91132" lon="7.15859">
        <ele>620.8</ele>
        <time>2021-08-21T05:06:42.000Z</time>
      </trkpt>
      <trkpt lat="47.91133" lon="7.15848">
        <ele>622.4</ele>
        <time>2021-08-21T05:06:55.000Z</time>
      </trkpt>
      <trkpt lat="47.91139" lon="7.15839">
        <ele>624.8</ele>
        <time>2021-08-21T05:07:11.000Z</time>
      </trkpt>
      <trkpt lat="47.91143" lon="7.15831">
        <ele>627</ele>
        <time>2021-08-21T05:07:27.000Z</time>
      </trkpt>
      <trkpt lat="47.91142" lon="7.15823">
        <ele>629.2</ele>
        <time>2021-08-21T05:07:44.000Z</time>
      </trkpt>
      <trkpt lat="47.9113" lon="7.15819">
        <ele>632.4</ele>
        <time>2021-08-21T05:08:03.000Z</time>
      </trkpt>
      <trkpt lat="47.91119" lon="7.15823">
        <ele>635</ele>
        <time>2021-08-21T05:08:22.000Z</time>
      </trkpt>
      <trkpt lat="47.91101" lon="7.15836">
        <ele>638.2</ele>
        <time>2021-08-21T05:08:46.000Z</time>
      </trkpt>
      <trkpt lat="47.9109" lon="7.15839">
        <ele>641.2</ele>
        <time>2021-08-21T05:09:05.000Z</time>
      </trkpt>
      <trkpt lat="47.91067" lon="7.15874">
        <ele>647</ele>
        <time>2021-08-21T05:09:46.000Z</time>
      </trkpt>
      <trkpt lat="47.91057" lon="7.15874">
        <ele>649.6</ele>
        <time>2021-08-21T05:10:01.000Z</time>
      </trkpt>
      <trkpt lat="47.91043" lon="7.15866">
        <ele>652.6</ele>
        <time>2021-08-21T05:10:24.000Z</time>
      </trkpt>
      <trkpt lat="47.91038" lon="7.1586">
        <ele>653.4</ele>
        <time>2021-08-21T05:10:38.000Z</time>
      </trkpt>
      <trkpt lat="47.91023" lon="7.15881">
        <ele>653.8</ele>
        <time>2021-08-21T05:11:05.000Z</time>
      </trkpt>
      <trkpt lat="47.91022" lon="7.1589">
        <ele>654.6</ele>
        <time>2021-08-21T05:11:17.000Z</time>
      </trkpt>
      <trkpt lat="47.91024" lon="7.15897">
        <ele>654.8</ele>
        <time>2021-08-21T05:11:34.000Z</time>
      </trkpt>
      <trkpt lat="47.91027" lon="7.15899">
        <ele>654.8</ele>
        <time>2021-08-21T05:11:55.000Z</time>
      </trkpt>
      <trkpt lat="47.91033" lon="7.15895">
        <ele>654.2</ele>
        <time>2021-08-21T05:12:23.000Z</time>
      </trkpt>
      <trkpt lat="47.91029" lon="7.15864">
        <ele>654.2</ele>
        <time>2021-08-21T05:13:17.000Z</time>
      </trkpt>
      <trkpt lat="47.91028" lon="7.15861">
        <ele>655</ele>
        <time>2021-08-21T05:13:29.000Z</time>
      </trkpt>
      <trkpt lat="47.91034" lon="7.15859">
        <ele>655.2</ele>
        <time>2021-08-21T05:13:49.000Z</time>
      </trkpt>
      <trkpt lat="47.91037" lon="7.15849">
        <ele>656</ele>
        <time>2021-08-21T05:14:09.000Z</time>
      </trkpt>
      <trkpt lat="47.91026" lon="7.15823">
        <ele>658.4</ele>
        <time>2021-08-21T05:14:27.000Z</time>
      </trkpt>
      <trkpt lat="47.91014" lon="7.15811">
        <ele>660.4</ele>
        <time>2021-08-21T05:14:45.000Z</time>
      </trkpt>
      <trkpt lat="47.91007" lon="7.15791">
        <ele>663.2</ele>
        <time>2021-08-21T05:15:04.000Z</time>
      </trkpt>
      <trkpt lat="47.91001" lon="7.15786">
        <ele>664</ele>
        <time>2021-08-21T05:15:22.000Z</time>
      </trkpt>
      <trkpt lat="47.90994" lon="7.15776">
        <ele>664.8</ele>
        <time>2021-08-21T05:15:32.000Z</time>
      </trkpt>
      <trkpt lat="47.9099" lon="7.15764">
        <ele>665.6</ele>
        <time>2021-08-21T05:15:40.000Z</time>
      </trkpt>
      <trkpt lat="47.9099" lon="7.15762">
        <ele>665.8</ele>
        <time>2021-08-21T05:15:41.000Z</time>
      </trkpt>
      <trkpt lat="47.90983" lon="7.15753">
        <ele>667.2</ele>
        <time>2021-08-21T05:15:51.000Z</time>
      </trkpt>
      <trkpt lat="47.90983" lon="7.15741">
        <ele>668.8</ele>
        <time>2021-08-21T05:16:03.000Z</time>
      </trkpt>
      <trkpt lat="47.90982" lon="7.15724">
        <ele>670.8</ele>
        <time>2021-08-21T05:16:18.000Z</time>
      </trkpt>
      <trkpt lat="47.90981" lon="7.15719">
        <ele>671.6</ele>
        <time>2021-08-21T05:16:22.000Z</time>
      </trkpt>
      <trkpt lat="47.9098" lon="7.157">
        <ele>673.2</ele>
        <time>2021-08-21T05:16:33.000Z</time>
      </trkpt>
      <trkpt lat="47.90981" lon="7.15698">
        <ele>673.4</ele>
        <time>2021-08-21T05:16:34.000Z</time>
      </trkpt>
      <trkpt lat="47.90978" lon="7.15676">
        <ele>675.4</ele>
        <time>2021-08-21T05:16:50.000Z</time>
      </trkpt>
      <trkpt lat="47.90976" lon="7.15651">
        <ele>678</ele>
        <time>2021-08-21T05:17:12.000Z</time>
      </trkpt>
      <trkpt lat="47.90971" lon="7.15638">
        <ele>679.2</ele>
        <time>2021-08-21T05:17:23.000Z</time>
      </trkpt>
      <trkpt lat="47.90967" lon="7.15623">
        <ele>680.8</ele>
        <time>2021-08-21T05:17:34.000Z</time>
      </trkpt>
      <trkpt lat="47.9096" lon="7.15611">
        <ele>682.4</ele>
        <time>2021-08-21T05:17:47.000Z</time>
      </trkpt>
      <trkpt lat="47.90953" lon="7.15588">
        <ele>685.2</ele>
        <time>2021-08-21T05:18:07.000Z</time>
      </trkpt>
      <trkpt lat="47.90954" lon="7.1558">
        <ele>686</ele>
        <time>2021-08-21T05:18:13.000Z</time>
      </trkpt>
      <trkpt lat="47.90953" lon="7.15572">
        <ele>687.2</ele>
        <time>2021-08-21T05:18:20.000Z</time>
      </trkpt>
      <trkpt lat="47.9095" lon="7.1556">
        <ele>690.2</ele>
        <time>2021-08-21T05:18:37.000Z</time>
      </trkpt>
      <trkpt lat="47.90942" lon="7.15542">
        <ele>694.2</ele>
        <time>2021-08-21T05:18:51.000Z</time>
      </trkpt>
      <trkpt lat="47.90933" lon="7.15523">
        <ele>698.4</ele>
        <time>2021-08-21T05:19:17.000Z</time>
      </trkpt>
      <trkpt lat="47.90925" lon="7.15506">
        <ele>701.2</ele>
        <time>2021-08-21T05:19:38.000Z</time>
      </trkpt>
      <trkpt lat="47.90926" lon="7.15492">
        <ele>703.4</ele>
        <time>2021-08-21T05:19:51.000Z</time>
      </trkpt>
      <trkpt lat="47.9093" lon="7.15481">
        <ele>706</ele>
        <time>2021-08-21T05:20:04.000Z</time>
      </trkpt>
      <trkpt lat="47.90932" lon="7.15469">
        <ele>708</ele>
        <time>2021-08-21T05:20:18.000Z</time>
      </trkpt>
      <trkpt lat="47.90932" lon="7.15457">
        <ele>711</ele>
        <time>2021-08-21T05:20:37.000Z</time>
      </trkpt>
      <trkpt lat="47.90934" lon="7.15441">
        <ele>714.2</ele>
        <time>2021-08-21T05:20:56.000Z</time>
      </trkpt>
      <trkpt lat="47.90934" lon="7.15432">
        <ele>717.2</ele>
        <time>2021-08-21T05:21:13.000Z</time>
      </trkpt>
      <trkpt lat="47.90934" lon="7.15411">
        <ele>720.4</ele>
        <time>2021-08-21T05:21:34.000Z</time>
      </trkpt>
      <trkpt lat="47.90931" lon="7.15394">
        <ele>723.4</ele>
        <time>2021-08-21T05:21:55.000Z</time>
      </trkpt>
      <trkpt lat="47.90935" lon="7.15381">
        <ele>726.6</ele>
        <time>2021-08-21T05:22:15.000Z</time>
      </trkpt>
      <trkpt lat="47.90929" lon="7.15364">
        <ele>729.8</ele>
        <time>2021-08-21T05:22:36.000Z</time>
      </trkpt>
      <trkpt lat="47.90927" lon="7.15338">
        <ele>734</ele>
        <time>2021-08-21T05:23:01.000Z</time>
      </trkpt>
      <trkpt lat="47.90913" lon="7.153">
        <ele>740</ele>
        <time>2021-08-21T05:23:37.000Z</time>
      </trkpt>
      <trkpt lat="47.90908" lon="7.1529">
        <ele>743</ele>
        <time>2021-08-21T05:23:55.000Z</time>
      </trkpt>
      <trkpt lat="47.90905" lon="7.15284">
        <ele>746.2</ele>
        <time>2021-08-21T05:24:13.000Z</time>
      </trkpt>
      <trkpt lat="47.90897" lon="7.15278">
        <ele>749.2</ele>
        <time>2021-08-21T05:24:30.000Z</time>
      </trkpt>
      <trkpt lat="47.90884" lon="7.15274">
        <ele>752.2</ele>
        <time>2021-08-21T05:24:49.000Z</time>
      </trkpt>
      <trkpt lat="47.90877" lon="7.15275">
        <ele>753.8</ele>
        <time>2021-08-21T05:24:59.000Z</time>
      </trkpt>
      <trkpt lat="47.90875" lon="7.15274">
        <ele>754.6</ele>
        <time>2021-08-21T05:25:04.000Z</time>
      </trkpt>
      <trkpt lat="47.90866" lon="7.15266">
        <ele>757.8</ele>
        <time>2021-08-21T05:25:23.000Z</time>
      </trkpt>
      <trkpt lat="47.90851" lon="7.1526">
        <ele>760.8</ele>
        <time>2021-08-21T05:25:42.000Z</time>
      </trkpt>
      <trkpt lat="47.90843" lon="7.15263">
        <ele>761.8</ele>
        <time>2021-08-21T05:25:49.000Z</time>
      </trkpt>
      <trkpt lat="47.9084" lon="7.15262">
        <ele>762.2</ele>
        <time>2021-08-21T05:25:52.000Z</time>
      </trkpt>
      <trkpt lat="47.90829" lon="7.15252">
        <ele>764</ele>
        <time>2021-08-21T05:26:06.000Z</time>
      </trkpt>
      <trkpt lat="47.90825" lon="7.1525">
        <ele>764.6</ele>
        <time>2021-08-21T05:26:10.000Z</time>
      </trkpt>
      <trkpt lat="47.90821" lon="7.15245">
        <ele>765</ele>
        <time>2021-08-21T05:26:16.000Z</time>
      </trkpt>
      <trkpt lat="47.90814" lon="7.15237">
        <ele>765.8</ele>
        <time>2021-08-21T05:26:25.000Z</time>
      </trkpt>
      <trkpt lat="47.90814" lon="7.15236">
        <ele>766</ele>
        <time>2021-08-21T05:26:26.000Z</time>
      </trkpt>
      <trkpt lat="47.90813" lon="7.15234">
        <ele>766.2</ele>
        <time>2021-08-21T05:26:27.000Z</time>
      </trkpt>
      <trkpt lat="47.90812" lon="7.1523">
        <ele>766.8</ele>
        <time>2021-08-21T05:26:30.000Z</time>
      </trkpt>
      <trkpt lat="47.90805" lon="7.1521">
        <ele>768.8</ele>
        <time>2021-08-21T05:26:44.000Z</time>
      </trkpt>
      <trkpt lat="47.90803" lon="7.15203">
        <ele>769.6</ele>
        <time>2021-08-21T05:26:49.000Z</time>
      </trkpt>
      <trkpt lat="47.90801" lon="7.152">
        <ele>770</ele>
        <time>2021-08-21T05:26:52.000Z</time>
      </trkpt>
      <trkpt lat="47.90795" lon="7.15189">
        <ele>771.8</ele>
        <time>2021-08-21T05:27:05.000Z</time>
      </trkpt>
      <trkpt lat="47.90794" lon="7.15177">
        <ele>772.6</ele>
        <time>2021-08-21T05:27:12.000Z</time>
      </trkpt>
      <trkpt lat="47.90794" lon="7.15159">
        <ele>772.6</ele>
        <time>2021-08-21T05:27:27.000Z</time>
      </trkpt>
      <trkpt lat="47.90796" lon="7.15147">
        <ele>772.8</ele>
        <time>2021-08-21T05:27:34.000Z</time>
      </trkpt>
      <trkpt lat="47.908" lon="7.15141">
        <ele>773</ele>
        <time>2021-08-21T05:27:38.000Z</time>
      </trkpt>
      <trkpt lat="47.90798" lon="7.15056">
        <ele>776</ele>
        <time>2021-08-21T05:28:25.000Z</time>
      </trkpt>
      <trkpt lat="47.90796" lon="7.15045">
        <ele>776</ele>
        <time>2021-08-21T05:28:32.000Z</time>
      </trkpt>
      <trkpt lat="47.90789" lon="7.14908">
        <ele>782</ele>
        <time>2021-08-21T05:29:46.000Z</time>
      </trkpt>
      <trkpt lat="47.90796" lon="7.14877">
        <ele>783.4</ele>
        <time>2021-08-21T05:30:02.000Z</time>
      </trkpt>
      <trkpt lat="47.90797" lon="7.14869">
        <ele>784</ele>
        <time>2021-08-21T05:30:07.000Z</time>
      </trkpt>
      <trkpt lat="47.90798" lon="7.14836">
        <ele>785.8</ele>
        <time>2021-08-21T05:30:25.000Z</time>
      </trkpt>
      <trkpt lat="47.90805" lon="7.1481">
        <ele>788.4</ele>
        <time>2021-08-21T05:30:43.000Z</time>
      </trkpt>
      <trkpt lat="47.90811" lon="7.14791">
        <ele>790.8</ele>
        <time>2021-08-21T05:30:58.000Z</time>
      </trkpt>
      <trkpt lat="47.90816" lon="7.14784">
        <ele>791.8</ele>
        <time>2021-08-21T05:31:04.000Z</time>
      </trkpt>
      <trkpt lat="47.90821" lon="7.14778">
        <ele>793.8</ele>
        <time>2021-08-21T05:31:14.000Z</time>
      </trkpt>
      <trkpt lat="47.90831" lon="7.14764">
        <ele>795.8</ele>
        <time>2021-08-21T05:31:26.000Z</time>
      </trkpt>
      <trkpt lat="47.90844" lon="7.14748">
        <ele>797.8</ele>
        <time>2021-08-21T05:31:42.000Z</time>
      </trkpt>
      <trkpt lat="47.90845" lon="7.14747">
        <ele>798.2</ele>
        <time>2021-08-21T05:31:43.000Z</time>
      </trkpt>
      <trkpt lat="47.90853" lon="7.14739">
        <ele>800</ele>
        <time>2021-08-21T05:31:55.000Z</time>
      </trkpt>
      <trkpt lat="47.9086" lon="7.14733">
        <ele>801</ele>
        <time>2021-08-21T05:32:05.000Z</time>
      </trkpt>
      <trkpt lat="47.90869" lon="7.14725">
        <ele>802</ele>
        <time>2021-08-21T05:32:16.000Z</time>
      </trkpt>
      <trkpt lat="47.90881" lon="7.14718">
        <ele>803</ele>
        <time>2021-08-21T05:32:29.000Z</time>
      </trkpt>
      <trkpt lat="47.90892" lon="7.14717">
        <ele>804.4</ele>
        <time>2021-08-21T05:32:44.000Z</time>
      </trkpt>
      <trkpt lat="47.90894" lon="7.14717">
        <ele>804.6</ele>
        <time>2021-08-21T05:32:46.000Z</time>
      </trkpt>
      <trkpt lat="47.90897" lon="7.14715">
        <ele>805.4</ele>
        <time>2021-08-21T05:32:49.000Z</time>
      </trkpt>
      <trkpt lat="47.90901" lon="7.14709">
        <ele>806</ele>
        <time>2021-08-21T05:32:54.000Z</time>
      </trkpt>
      <trkpt lat="47.90901" lon="7.14708">
        <ele>806.2</ele>
        <time>2021-08-21T05:32:55.000Z</time>
      </trkpt>
      <trkpt lat="47.90902" lon="7.14707">
        <ele>806.4</ele>
        <time>2021-08-21T05:32:56.000Z</time>
      </trkpt>
      <trkpt lat="47.90907" lon="7.14701">
        <ele>806.8</ele>
        <time>2021-08-21T05:33:01.000Z</time>
      </trkpt>
      <trkpt lat="47.90908" lon="7.14699">
        <ele>807</ele>
        <time>2021-08-21T05:33:02.000Z</time>
      </trkpt>
      <trkpt lat="47.90907" lon="7.14689">
        <ele>808.4</ele>
        <time>2021-08-21T05:33:11.000Z</time>
      </trkpt>
      <trkpt lat="47.90906" lon="7.1468">
        <ele>810.8</ele>
        <time>2021-08-21T05:33:23.000Z</time>
      </trkpt>
      <trkpt lat="47.90903" lon="7.14667">
        <ele>813.8</ele>
        <time>2021-08-21T05:33:41.000Z</time>
      </trkpt>
      <trkpt lat="47.90902" lon="7.14655">
        <ele>816.2</ele>
        <time>2021-08-21T05:33:53.000Z</time>
      </trkpt>
      <trkpt lat="47.909" lon="7.14638">
        <ele>818.4</ele>
        <time>2021-08-21T05:34:06.000Z</time>
      </trkpt>
      <trkpt lat="47.90899" lon="7.14632">
        <ele>818.8</ele>
        <time>2021-08-21T05:34:10.000Z</time>
      </trkpt>
      <trkpt lat="47.90897" lon="7.1462">
        <ele>819.8</ele>
        <time>2021-08-21T05:34:19.000Z</time>
      </trkpt>
      <trkpt lat="47.90896" lon="7.14604">
        <ele>821.2</ele>
        <time>2021-08-21T05:34:29.000Z</time>
      </trkpt>
      <trkpt lat="47.90895" lon="7.14594">
        <ele>822.4</ele>
        <time>2021-08-21T05:34:36.000Z</time>
      </trkpt>
      <trkpt lat="47.90894" lon="7.1459">
        <ele>822.6</ele>
        <time>2021-08-21T05:34:38.000Z</time>
      </trkpt>
      <trkpt lat="47.90893" lon="7.14586">
        <ele>823.2</ele>
        <time>2021-08-21T05:34:56.000Z</time>
      </trkpt>
      <trkpt lat="47.90899" lon="7.14577">
        <ele>823.6</ele>
        <time>2021-08-21T05:35:20.000Z</time>
      </trkpt>
      <trkpt lat="47.90896" lon="7.14566">
        <ele>824</ele>
        <time>2021-08-21T05:35:27.000Z</time>
      </trkpt>
      <trkpt lat="47.90896" lon="7.14564">
        <ele>824.2</ele>
        <time>2021-08-21T05:35:28.000Z</time>
      </trkpt>
      <trkpt lat="47.90894" lon="7.14561">
        <ele>824.4</ele>
        <time>2021-08-21T05:35:30.000Z</time>
      </trkpt>
      <trkpt lat="47.90893" lon="7.14557">
        <ele>824.4</ele>
        <time>2021-08-21T05:35:33.000Z</time>
      </trkpt>
      <trkpt lat="47.90886" lon="7.1454">
        <ele>825.2</ele>
        <time>2021-08-21T05:35:45.000Z</time>
      </trkpt>
      <trkpt lat="47.90886" lon="7.14529">
        <ele>827.4</ele>
        <time>2021-08-21T05:35:55.000Z</time>
      </trkpt>
      <trkpt lat="47.90886" lon="7.14523">
        <ele>828.4</ele>
        <time>2021-08-21T05:35:59.000Z</time>
      </trkpt>
      <trkpt lat="47.90885" lon="7.14495">
        <ele>831.4</ele>
        <time>2021-08-21T05:36:15.000Z</time>
      </trkpt>
      <trkpt lat="47.90884" lon="7.14483">
        <ele>833.8</ele>
        <time>2021-08-21T05:36:26.000Z</time>
      </trkpt>
      <trkpt lat="47.90878" lon="7.1447">
        <ele>835.8</ele>
        <time>2021-08-21T05:36:40.000Z</time>
      </trkpt>
      <trkpt lat="47.90871" lon="7.14448">
        <ele>836.6</ele>
        <time>2021-08-21T05:36:50.000Z</time>
      </trkpt>
      <trkpt lat="47.9087" lon="7.14446">
        <ele>836.8</ele>
        <time>2021-08-21T05:36:51.000Z</time>
      </trkpt>
      <trkpt lat="47.90869" lon="7.14443">
        <ele>837</ele>
        <time>2021-08-21T05:36:53.000Z</time>
      </trkpt>
      <trkpt lat="47.90856" lon="7.14411">
        <ele>841.2</ele>
        <time>2021-08-21T05:37:18.000Z</time>
      </trkpt>
      <trkpt lat="47.90853" lon="7.14389">
        <ele>843.2</ele>
        <time>2021-08-21T05:37:37.000Z</time>
      </trkpt>
      <trkpt lat="47.9085" lon="7.14374">
        <ele>845</ele>
        <time>2021-08-21T05:37:53.000Z</time>
      </trkpt>
      <trkpt lat="47.90851" lon="7.14367">
        <ele>847</ele>
        <time>2021-08-21T05:38:09.000Z</time>
      </trkpt>
      <trkpt lat="47.90856" lon="7.14369">
        <ele>847</ele>
        <time>2021-08-21T05:38:31.000Z</time>
      </trkpt>
      <trkpt lat="47.90856" lon="7.1437">
        <ele>847</ele>
        <time>2021-08-21T05:38:54.000Z</time>
      </trkpt>
      <trkpt lat="47.90851" lon="7.14369">
        <ele>846.8</ele>
        <time>2021-08-21T05:39:20.000Z</time>
      </trkpt>
      <trkpt lat="47.90848" lon="7.14366">
        <ele>846.8</ele>
        <time>2021-08-21T05:39:31.000Z</time>
      </trkpt>
      <trkpt lat="47.9084" lon="7.14356">
        <ele>846.8</ele>
        <time>2021-08-21T05:39:43.000Z</time>
      </trkpt>
      <trkpt lat="47.90837" lon="7.14345">
        <ele>849.8</ele>
        <time>2021-08-21T05:39:58.000Z</time>
      </trkpt>
      <trkpt lat="47.90835" lon="7.14336">
        <ele>851.4</ele>
        <time>2021-08-21T05:40:07.000Z</time>
      </trkpt>
      <trkpt lat="47.90833" lon="7.14319">
        <ele>853.6</ele>
        <time>2021-08-21T05:40:21.000Z</time>
      </trkpt>
      <trkpt lat="47.90827" lon="7.143">
        <ele>856</ele>
        <time>2021-08-21T05:40:38.000Z</time>
      </trkpt>
      <trkpt lat="47.90826" lon="7.14297">
        <ele>856.2</ele>
        <time>2021-08-21T05:40:40.000Z</time>
      </trkpt>
      <trkpt lat="47.90826" lon="7.14285">
        <ele>858.6</ele>
        <time>2021-08-21T05:40:51.000Z</time>
      </trkpt>
      <trkpt lat="47.90829" lon="7.14282">
        <ele>859.8</ele>
        <time>2021-08-21T05:40:56.000Z</time>
      </trkpt>
      <trkpt lat="47.90835" lon="7.1427">
        <ele>862.2</ele>
        <time>2021-08-21T05:41:11.000Z</time>
      </trkpt>
      <trkpt lat="47.90841" lon="7.14257">
        <ele>865.2</ele>
        <time>2021-08-21T05:41:28.000Z</time>
      </trkpt>
      <trkpt lat="47.90846" lon="7.1424">
        <ele>868.4</ele>
        <time>2021-08-21T05:41:49.000Z</time>
      </trkpt>
      <trkpt lat="47.90853" lon="7.14225">
        <ele>870.8</ele>
        <time>2021-08-21T05:42:05.000Z</time>
      </trkpt>
      <trkpt lat="47.90852" lon="7.14213">
        <ele>872.2</ele>
        <time>2021-08-21T05:42:17.000Z</time>
      </trkpt>
      <trkpt lat="47.9085" lon="7.142">
        <ele>873.4</ele>
        <time>2021-08-21T05:42:47.000Z</time>
      </trkpt>
      <trkpt lat="47.90855" lon="7.1419">
        <ele>875</ele>
        <time>2021-08-21T05:43:03.000Z</time>
      </trkpt>
      <trkpt lat="47.9086" lon="7.14173">
        <ele>878.2</ele>
        <time>2021-08-21T05:43:20.000Z</time>
      </trkpt>
      <trkpt lat="47.90863" lon="7.14164">
        <ele>881.2</ele>
        <time>2021-08-21T05:43:36.000Z</time>
      </trkpt>
      <trkpt lat="47.90861" lon="7.14155">
        <ele>883.8</ele>
        <time>2021-08-21T05:44:01.000Z</time>
      </trkpt>
      <trkpt lat="47.90863" lon="7.1414">
        <ele>886.8</ele>
        <time>2021-08-21T05:44:19.000Z</time>
      </trkpt>
      <trkpt lat="47.90862" lon="7.14134">
        <ele>888</ele>
        <time>2021-08-21T05:44:26.000Z</time>
      </trkpt>
      <trkpt lat="47.9086" lon="7.1413">
        <ele>888.6</ele>
        <time>2021-08-21T05:44:30.000Z</time>
      </trkpt>
      <trkpt lat="47.90866" lon="7.1412">
        <ele>890</ele>
        <time>2021-08-21T05:44:40.000Z</time>
      </trkpt>
      <trkpt lat="47.90855" lon="7.14114">
        <ele>892.4</ele>
        <time>2021-08-21T05:44:58.000Z</time>
      </trkpt>
      <trkpt lat="47.90852" lon="7.14112">
        <ele>892.8</ele>
        <time>2021-08-21T05:45:01.000Z</time>
      </trkpt>
      <trkpt lat="47.90841" lon="7.14105">
        <ele>895.6</ele>
        <time>2021-08-21T05:45:17.000Z</time>
      </trkpt>
      <trkpt lat="47.90829" lon="7.14097">
        <ele>896.8</ele>
        <time>2021-08-21T05:45:30.000Z</time>
      </trkpt>
      <trkpt lat="47.90822" lon="7.14089">
        <ele>898.6</ele>
        <time>2021-08-21T05:45:43.000Z</time>
      </trkpt>
      <trkpt lat="47.90817" lon="7.14086">
        <ele>899</ele>
        <time>2021-08-21T05:45:48.000Z</time>
      </trkpt>
      <trkpt lat="47.90813" lon="7.14083">
        <ele>899</ele>
        <time>2021-08-21T05:45:52.000Z</time>
      </trkpt>
      <trkpt lat="47.90803" lon="7.14077">
        <ele>900.8</ele>
        <time>2021-08-21T05:46:01.000Z</time>
      </trkpt>
      <trkpt lat="47.9079" lon="7.14074">
        <ele>902.6</ele>
        <time>2021-08-21T05:46:14.000Z</time>
      </trkpt>
      <trkpt lat="47.90777" lon="7.1407">
        <ele>901.8</ele>
        <time>2021-08-21T05:46:26.000Z</time>
      </trkpt>
      <trkpt lat="47.90759" lon="7.14062">
        <ele>900.8</ele>
        <time>2021-08-21T05:46:42.000Z</time>
      </trkpt>
      <trkpt lat="47.90754" lon="7.14061">
        <ele>900.4</ele>
        <time>2021-08-21T05:46:46.000Z</time>
      </trkpt>
      <trkpt lat="47.90743" lon="7.14049">
        <ele>900.4</ele>
        <time>2021-08-21T05:46:57.000Z</time>
      </trkpt>
      <trkpt lat="47.9074" lon="7.14027">
        <ele>902</ele>
        <time>2021-08-21T05:47:09.000Z</time>
      </trkpt>
      <trkpt lat="47.90736" lon="7.14013">
        <ele>901.6</ele>
        <time>2021-08-21T05:47:18.000Z</time>
      </trkpt>
      <trkpt lat="47.90729" lon="7.13988">
        <ele>901.4</ele>
        <time>2021-08-21T05:47:34.000Z</time>
      </trkpt>
      <trkpt lat="47.90727" lon="7.13976">
        <ele>900.8</ele>
        <time>2021-08-21T05:47:41.000Z</time>
      </trkpt>
      <trkpt lat="47.90732" lon="7.13955">
        <ele>899.8</ele>
        <time>2021-08-21T05:47:52.000Z</time>
      </trkpt>
      <trkpt lat="47.90732" lon="7.13951">
        <ele>899.2</ele>
        <time>2021-08-21T05:47:54.000Z</time>
      </trkpt>
      <trkpt lat="47.90735" lon="7.13941">
        <ele>897.6</ele>
        <time>2021-08-21T05:48:01.000Z</time>
      </trkpt>
      <trkpt lat="47.90729" lon="7.13905">
        <ele>897</ele>
        <time>2021-08-21T05:48:20.000Z</time>
      </trkpt>
      <trkpt lat="47.90719" lon="7.13889">
        <ele>898.8</ele>
        <time>2021-08-21T05:48:29.000Z</time>
      </trkpt>
      <trkpt lat="47.90718" lon="7.13888">
        <ele>899</ele>
        <time>2021-08-21T05:48:30.000Z</time>
      </trkpt>
      <trkpt lat="47.90718" lon="7.13886">
        <ele>899.2</ele>
        <time>2021-08-21T05:48:31.000Z</time>
      </trkpt>
      <trkpt lat="47.90718" lon="7.13885">
        <ele>899.2</ele>
        <time>2021-08-21T05:48:32.000Z</time>
      </trkpt>
      <trkpt lat="47.90717" lon="7.13866">
        <ele>900</ele>
        <time>2021-08-21T05:48:46.000Z</time>
      </trkpt>
      <trkpt lat="47.90719" lon="7.13838">
        <ele>900.6</ele>
        <time>2021-08-21T05:49:02.000Z</time>
      </trkpt>
      <trkpt lat="47.90719" lon="7.13836">
        <ele>900.6</ele>
        <time>2021-08-21T05:49:03.000Z</time>
      </trkpt>
      <trkpt lat="47.90709" lon="7.13808">
        <ele>901.6</ele>
        <time>2021-08-21T05:49:16.000Z</time>
      </trkpt>
      <trkpt lat="47.90696" lon="7.13769">
        <ele>904.6</ele>
        <time>2021-08-21T05:49:42.000Z</time>
      </trkpt>
      <trkpt lat="47.90696" lon="7.13767">
        <ele>904.6</ele>
        <time>2021-08-21T05:49:43.000Z</time>
      </trkpt>
      <trkpt lat="47.90697" lon="7.13759">
        <ele>904.6</ele>
        <time>2021-08-21T05:49:48.000Z</time>
      </trkpt>
      <trkpt lat="47.90699" lon="7.13757">
        <ele>904.6</ele>
        <time>2021-08-21T05:49:50.000Z</time>
      </trkpt>
      <trkpt lat="47.90699" lon="7.13755">
        <ele>904.6</ele>
        <time>2021-08-21T05:49:51.000Z</time>
      </trkpt>
      <trkpt lat="47.90685" lon="7.13706">
        <ele>907.6</ele>
        <time>2021-08-21T05:50:34.000Z</time>
      </trkpt>
      <trkpt lat="47.9066" lon="7.1365">
        <ele>910</ele>
        <time>2021-08-21T05:51:01.000Z</time>
      </trkpt>
      <trkpt lat="47.90662" lon="7.13631">
        <ele>913</ele>
        <time>2021-08-21T05:51:22.000Z</time>
      </trkpt>
      <trkpt lat="47.90665" lon="7.13607">
        <ele>915</ele>
        <time>2021-08-21T05:51:37.000Z</time>
      </trkpt>
      <trkpt lat="47.90665" lon="7.136">
        <ele>915.6</ele>
        <time>2021-08-21T05:51:41.000Z</time>
      </trkpt>
      <trkpt lat="47.90667" lon="7.13584">
        <ele>917.6</ele>
        <time>2021-08-21T05:51:55.000Z</time>
      </trkpt>
      <trkpt lat="47.90669" lon="7.13576">
        <ele>918.6</ele>
        <time>2021-08-21T05:52:02.000Z</time>
      </trkpt>
      <trkpt lat="47.90669" lon="7.13574">
        <ele>918.8</ele>
        <time>2021-08-21T05:52:03.000Z</time>
      </trkpt>
      <trkpt lat="47.9067" lon="7.1356">
        <ele>921.8</ele>
        <time>2021-08-21T05:52:21.000Z</time>
      </trkpt>
      <trkpt lat="47.90675" lon="7.13546">
        <ele>924.8</ele>
        <time>2021-08-21T05:52:42.000Z</time>
      </trkpt>
      <trkpt lat="47.90675" lon="7.13544">
        <ele>925</ele>
        <time>2021-08-21T05:52:43.000Z</time>
      </trkpt>
      <trkpt lat="47.90678" lon="7.13531">
        <ele>928.2</ele>
        <time>2021-08-21T05:53:02.000Z</time>
      </trkpt>
      <trkpt lat="47.90682" lon="7.13521">
        <ele>931.2</ele>
        <time>2021-08-21T05:53:20.000Z</time>
      </trkpt>
      <trkpt lat="47.90686" lon="7.13503">
        <ele>934.2</ele>
        <time>2021-08-21T05:53:39.000Z</time>
      </trkpt>
      <trkpt lat="47.90692" lon="7.13482">
        <ele>937.4</ele>
        <time>2021-08-21T05:53:58.000Z</time>
      </trkpt>
      <trkpt lat="47.90695" lon="7.13473">
        <ele>938.2</ele>
        <time>2021-08-21T05:54:07.000Z</time>
      </trkpt>
      <trkpt lat="47.90691" lon="7.13456">
        <ele>941.4</ele>
        <time>2021-08-21T05:54:30.000Z</time>
      </trkpt>
      <trkpt lat="47.90695" lon="7.1345">
        <ele>942</ele>
        <time>2021-08-21T05:54:35.000Z</time>
      </trkpt>
      <trkpt lat="47.90698" lon="7.13434">
        <ele>944.4</ele>
        <time>2021-08-21T05:54:52.000Z</time>
      </trkpt>
      <trkpt lat="47.907" lon="7.13428">
        <ele>945.4</ele>
        <time>2021-08-21T05:54:57.000Z</time>
      </trkpt>
      <trkpt lat="47.9071" lon="7.13388">
        <ele>948.6</ele>
        <time>2021-08-21T05:55:28.000Z</time>
      </trkpt>
      <trkpt lat="47.90712" lon="7.13375">
        <ele>949.6</ele>
        <time>2021-08-21T05:55:35.000Z</time>
      </trkpt>
      <trkpt lat="47.90712" lon="7.13373">
        <ele>949.8</ele>
        <time>2021-08-21T05:55:36.000Z</time>
      </trkpt>
      <trkpt lat="47.90713" lon="7.13372">
        <ele>950</ele>
        <time>2021-08-21T05:55:37.000Z</time>
      </trkpt>
      <trkpt lat="47.90713" lon="7.1337">
        <ele>950</ele>
        <time>2021-08-21T05:55:38.000Z</time>
      </trkpt>
      <trkpt lat="47.90718" lon="7.13348">
        <ele>950.8</ele>
        <time>2021-08-21T05:55:58.000Z</time>
      </trkpt>
      <trkpt lat="47.90721" lon="7.13342">
        <ele>951</ele>
        <time>2021-08-21T05:56:03.000Z</time>
      </trkpt>
      <trkpt lat="47.90722" lon="7.13334">
        <ele>951</ele>
        <time>2021-08-21T05:56:11.000Z</time>
      </trkpt>
      <trkpt lat="47.90726" lon="7.13314">
        <ele>949.4</ele>
        <time>2021-08-21T05:56:22.000Z</time>
      </trkpt>
      <trkpt lat="47.90732" lon="7.13277">
        <ele>948.4</ele>
        <time>2021-08-21T05:56:39.000Z</time>
      </trkpt>
      <trkpt lat="47.90754" lon="7.13216">
        <ele>942.8</ele>
        <time>2021-08-21T05:57:16.000Z</time>
      </trkpt>
      <trkpt lat="47.90764" lon="7.13207">
        <ele>941.4</ele>
        <time>2021-08-21T05:57:23.000Z</time>
      </trkpt>
      <trkpt lat="47.90768" lon="7.13199">
        <ele>940.4</ele>
        <time>2021-08-21T05:57:28.000Z</time>
      </trkpt>
      <trkpt lat="47.90772" lon="7.13182">
        <ele>939.8</ele>
        <time>2021-08-21T05:57:40.000Z</time>
      </trkpt>
      <trkpt lat="47.90778" lon="7.13168">
        <ele>939.8</ele>
        <time>2021-08-21T05:57:48.000Z</time>
      </trkpt>
      <trkpt lat="47.90778" lon="7.13166">
        <ele>939.8</ele>
        <time>2021-08-21T05:57:49.000Z</time>
      </trkpt>
      <trkpt lat="47.90787" lon="7.13136">
        <ele>941.2</ele>
        <time>2021-08-21T05:58:05.000Z</time>
      </trkpt>
      <trkpt lat="47.90787" lon="7.13129">
        <ele>941.8</ele>
        <time>2021-08-21T05:58:09.000Z</time>
      </trkpt>
      <trkpt lat="47.90788" lon="7.13121">
        <ele>942.2</ele>
        <time>2021-08-21T05:58:13.000Z</time>
      </trkpt>
      <trkpt lat="47.9079" lon="7.13103">
        <ele>943.6</ele>
        <time>2021-08-21T05:58:25.000Z</time>
      </trkpt>
      <trkpt lat="47.90792" lon="7.13096">
        <ele>944.2</ele>
        <time>2021-08-21T05:58:30.000Z</time>
      </trkpt>
      <trkpt lat="47.90792" lon="7.13085">
        <ele>945.2</ele>
        <time>2021-08-21T05:58:36.000Z</time>
      </trkpt>
      <trkpt lat="47.90792" lon="7.13082">
        <ele>945.4</ele>
        <time>2021-08-21T05:58:38.000Z</time>
      </trkpt>
      <trkpt lat="47.90792" lon="7.13074">
        <ele>945.6</ele>
        <time>2021-08-21T05:58:43.000Z</time>
      </trkpt>
      <trkpt lat="47.90792" lon="7.13071">
        <ele>945.8</ele>
        <time>2021-08-21T05:58:45.000Z</time>
      </trkpt>
      <trkpt lat="47.90794" lon="7.1306">
        <ele>946.6</ele>
        <time>2021-08-21T05:58:52.000Z</time>
      </trkpt>
      <trkpt lat="47.90794" lon="7.13058">
        <ele>946.6</ele>
        <time>2021-08-21T05:58:53.000Z</time>
      </trkpt>
      <trkpt lat="47.90797" lon="7.1305">
        <ele>947.6</ele>
        <time>2021-08-21T05:58:58.000Z</time>
      </trkpt>
      <trkpt lat="47.90803" lon="7.13025">
        <ele>950.8</ele>
        <time>2021-08-21T05:59:19.000Z</time>
      </trkpt>
      <trkpt lat="47.90804" lon="7.13016">
        <ele>951.8</ele>
        <time>2021-08-21T05:59:27.000Z</time>
      </trkpt>
      <trkpt lat="47.90805" lon="7.13011">
        <ele>952.4</ele>
        <time>2021-08-21T05:59:30.000Z</time>
      </trkpt>
      <trkpt lat="47.90808" lon="7.13">
        <ele>953.2</ele>
        <time>2021-08-21T05:59:37.000Z</time>
      </trkpt>
      <trkpt lat="47.90809" lon="7.12989">
        <ele>954</ele>
        <time>2021-08-21T05:59:42.000Z</time>
      </trkpt>
      <trkpt lat="47.9081" lon="7.12987">
        <ele>954</ele>
        <time>2021-08-21T05:59:43.000Z</time>
      </trkpt>
      <trkpt lat="47.90809" lon="7.12984">
        <ele>954.6</ele>
        <time>2021-08-21T05:59:45.000Z</time>
      </trkpt>
      <trkpt lat="47.90814" lon="7.12972">
        <ele>955.6</ele>
        <time>2021-08-21T05:59:55.000Z</time>
      </trkpt>
      <trkpt lat="47.90814" lon="7.12966">
        <ele>956</ele>
        <time>2021-08-21T06:00:00.000Z</time>
      </trkpt>
      <trkpt lat="47.90819" lon="7.12934">
        <ele>957.4</ele>
        <time>2021-08-21T06:00:18.000Z</time>
      </trkpt>
      <trkpt lat="47.90819" lon="7.12913">
        <ele>958</ele>
        <time>2021-08-21T06:00:28.000Z</time>
      </trkpt>
      <trkpt lat="47.90819" lon="7.12905">
        <ele>958.4</ele>
        <time>2021-08-21T06:00:32.000Z</time>
      </trkpt>
      <trkpt lat="47.90821" lon="7.1288">
        <ele>959.6</ele>
        <time>2021-08-21T06:00:47.000Z</time>
      </trkpt>
      <trkpt lat="47.90822" lon="7.12872">
        <ele>960.4</ele>
        <time>2021-08-21T06:00:53.000Z</time>
      </trkpt>
      <trkpt lat="47.90823" lon="7.12869">
        <ele>960.4</ele>
        <time>2021-08-21T06:00:54.000Z</time>
      </trkpt>
      <trkpt lat="47.90822" lon="7.12856">
        <ele>961</ele>
        <time>2021-08-21T06:01:02.000Z</time>
      </trkpt>
      <trkpt lat="47.90822" lon="7.12854">
        <ele>961</ele>
        <time>2021-08-21T06:01:03.000Z</time>
      </trkpt>
      <trkpt lat="47.90826" lon="7.12841">
        <ele>961.6</ele>
        <time>2021-08-21T06:01:13.000Z</time>
      </trkpt>
      <trkpt lat="47.90827" lon="7.1284">
        <ele>961.8</ele>
        <time>2021-08-21T06:01:14.000Z</time>
      </trkpt>
      <trkpt lat="47.9083" lon="7.1283">
        <ele>963</ele>
        <time>2021-08-21T06:01:23.000Z</time>
      </trkpt>
      <trkpt lat="47.90835" lon="7.12812">
        <ele>965.4</ele>
        <time>2021-08-21T06:01:37.000Z</time>
      </trkpt>
      <trkpt lat="47.90843" lon="7.12803">
        <ele>967.6</ele>
        <time>2021-08-21T06:01:50.000Z</time>
      </trkpt>
      <trkpt lat="47.90845" lon="7.12798">
        <ele>969.4</ele>
        <time>2021-08-21T06:02:14.000Z</time>
      </trkpt>
      <trkpt lat="47.9083" lon="7.12815">
        <ele>966.8</ele>
        <time>2021-08-21T06:02:34.000Z</time>
      </trkpt>
      <trkpt lat="47.90828" lon="7.12818">
        <ele>966.2</ele>
        <time>2021-08-21T06:02:37.000Z</time>
      </trkpt>
      <trkpt lat="47.90827" lon="7.1282">
        <ele>965.8</ele>
        <time>2021-08-21T06:02:38.000Z</time>
      </trkpt>
      <trkpt lat="47.90826" lon="7.1282">
        <ele>965.6</ele>
        <time>2021-08-21T06:02:39.000Z</time>
      </trkpt>
      <trkpt lat="47.90825" lon="7.12821">
        <ele>965.4</ele>
        <time>2021-08-21T06:02:40.000Z</time>
      </trkpt>
      <trkpt lat="47.90817" lon="7.12814">
        <ele>964.8</ele>
        <time>2021-08-21T06:02:49.000Z</time>
      </trkpt>
      <trkpt lat="47.9081" lon="7.12817">
        <ele>963.8</ele>
        <time>2021-08-21T06:02:56.000Z</time>
      </trkpt>
      <trkpt lat="47.90807" lon="7.12815">
        <ele>962.4</ele>
        <time>2021-08-21T06:03:10.000Z</time>
      </trkpt>
      <trkpt lat="47.90805" lon="7.12817">
        <ele>963.2</ele>
        <time>2021-08-21T06:03:19.000Z</time>
      </trkpt>
      <trkpt lat="47.90793" lon="7.12797">
        <ele>964.2</ele>
        <time>2021-08-21T06:03:39.000Z</time>
      </trkpt>
      <trkpt lat="47.90786" lon="7.12781">
        <ele>964.8</ele>
        <time>2021-08-21T06:03:50.000Z</time>
      </trkpt>
      <trkpt lat="47.90772" lon="7.12735">
        <ele>967.2</ele>
        <time>2021-08-21T06:04:24.000Z</time>
      </trkpt>
      <trkpt lat="47.90766" lon="7.12704">
        <ele>970.2</ele>
        <time>2021-08-21T06:04:44.000Z</time>
      </trkpt>
      <trkpt lat="47.90766" lon="7.12697">
        <ele>970.8</ele>
        <time>2021-08-21T06:04:49.000Z</time>
      </trkpt>
      <trkpt lat="47.90766" lon="7.12696">
        <ele>971</ele>
        <time>2021-08-21T06:04:50.000Z</time>
      </trkpt>
      <trkpt lat="47.90761" lon="7.12674">
        <ele>973.2</ele>
        <time>2021-08-21T06:05:07.000Z</time>
      </trkpt>
      <trkpt lat="47.90757" lon="7.12661">
        <ele>975.4</ele>
        <time>2021-08-21T06:05:24.000Z</time>
      </trkpt>
      <trkpt lat="47.90751" lon="7.12641">
        <ele>977.8</ele>
        <time>2021-08-21T06:05:41.000Z</time>
      </trkpt>
      <trkpt lat="47.90752" lon="7.12627">
        <ele>979.2</ele>
        <time>2021-08-21T06:05:52.000Z</time>
      </trkpt>
      <trkpt lat="47.90751" lon="7.12626">
        <ele>979.4</ele>
        <time>2021-08-21T06:05:53.000Z</time>
      </trkpt>
      <trkpt lat="47.90752" lon="7.12624">
        <ele>979.6</ele>
        <time>2021-08-21T06:05:54.000Z</time>
      </trkpt>
      <trkpt lat="47.90752" lon="7.12622">
        <ele>979.6</ele>
        <time>2021-08-21T06:05:55.000Z</time>
      </trkpt>
      <trkpt lat="47.90753" lon="7.12613">
        <ele>980.6</ele>
        <time>2021-08-21T06:06:03.000Z</time>
      </trkpt>
      <trkpt lat="47.90754" lon="7.12595">
        <ele>983.8</ele>
        <time>2021-08-21T06:06:24.000Z</time>
      </trkpt>
      <trkpt lat="47.90753" lon="7.12576">
        <ele>985</ele>
        <time>2021-08-21T06:06:35.000Z</time>
      </trkpt>
      <trkpt lat="47.90748" lon="7.12539">
        <ele>989</ele>
        <time>2021-08-21T06:06:59.000Z</time>
      </trkpt>
      <trkpt lat="47.90747" lon="7.12537">
        <ele>989.2</ele>
        <time>2021-08-21T06:07:01.000Z</time>
      </trkpt>
      <trkpt lat="47.90744" lon="7.12529">
        <ele>990.2</ele>
        <time>2021-08-21T06:07:09.000Z</time>
      </trkpt>
      <trkpt lat="47.90743" lon="7.12527">
        <ele>990.4</ele>
        <time>2021-08-21T06:07:10.000Z</time>
      </trkpt>
      <trkpt lat="47.90744" lon="7.12519">
        <ele>992.2</ele>
        <time>2021-08-21T06:07:23.000Z</time>
      </trkpt>
      <trkpt lat="47.90749" lon="7.12507">
        <ele>993</ele>
        <time>2021-08-21T06:07:30.000Z</time>
      </trkpt>
      <trkpt lat="47.90749" lon="7.125">
        <ele>993.8</ele>
        <time>2021-08-21T06:07:36.000Z</time>
      </trkpt>
      <trkpt lat="47.90747" lon="7.12478">
        <ele>996.8</ele>
        <time>2021-08-21T06:07:59.000Z</time>
      </trkpt>
      <trkpt lat="47.90747" lon="7.12474">
        <ele>997.2</ele>
        <time>2021-08-21T06:08:01.000Z</time>
      </trkpt>
      <trkpt lat="47.90747" lon="7.12473">
        <ele>997.4</ele>
        <time>2021-08-21T06:08:02.000Z</time>
      </trkpt>
      <trkpt lat="47.90744" lon="7.12453">
        <ele>999.6</ele>
        <time>2021-08-21T06:08:17.000Z</time>
      </trkpt>
      <trkpt lat="47.90745" lon="7.12432">
        <ele>1002.2</ele>
        <time>2021-08-21T06:08:33.000Z</time>
      </trkpt>
      <trkpt lat="47.90745" lon="7.12431">
        <ele>1002.4</ele>
        <time>2021-08-21T06:08:34.000Z</time>
      </trkpt>
      <trkpt lat="47.90737" lon="7.12403">
        <ele>1005.4</ele>
        <time>2021-08-21T06:08:58.000Z</time>
      </trkpt>
      <trkpt lat="47.90738" lon="7.12393">
        <ele>1006.6</ele>
        <time>2021-08-21T06:09:05.000Z</time>
      </trkpt>
      <trkpt lat="47.90731" lon="7.12373">
        <ele>1009.6</ele>
        <time>2021-08-21T06:09:22.000Z</time>
      </trkpt>
      <trkpt lat="47.90732" lon="7.12363">
        <ele>1011.4</ele>
        <time>2021-08-21T06:09:31.000Z</time>
      </trkpt>
      <trkpt lat="47.90721" lon="7.12326">
        <ele>1014.6</ele>
        <time>2021-08-21T06:10:01.000Z</time>
      </trkpt>
      <trkpt lat="47.90715" lon="7.12314">
        <ele>1016</ele>
        <time>2021-08-21T06:10:12.000Z</time>
      </trkpt>
      <trkpt lat="47.90691" lon="7.12291">
        <ele>1019</ele>
        <time>2021-08-21T06:10:37.000Z</time>
      </trkpt>
      <trkpt lat="47.90691" lon="7.12275">
        <ele>1022</ele>
        <time>2021-08-21T06:10:55.000Z</time>
      </trkpt>
      <trkpt lat="47.90683" lon="7.12257">
        <ele>1025.2</ele>
        <time>2021-08-21T06:11:11.000Z</time>
      </trkpt>
      <trkpt lat="47.90668" lon="7.12242">
        <ele>1028.2</ele>
        <time>2021-08-21T06:11:31.000Z</time>
      </trkpt>
      <trkpt lat="47.90652" lon="7.12214">
        <ele>1031.4</ele>
        <time>2021-08-21T06:11:57.000Z</time>
      </trkpt>
      <trkpt lat="47.90639" lon="7.12195">
        <ele>1034.4</ele>
        <time>2021-08-21T06:12:17.000Z</time>
      </trkpt>
      <trkpt lat="47.90636" lon="7.12192">
        <ele>1035</ele>
        <time>2021-08-21T06:12:21.000Z</time>
      </trkpt>
      <trkpt lat="47.90635" lon="7.12188">
        <ele>1035.2</ele>
        <time>2021-08-21T06:12:24.000Z</time>
      </trkpt>
      <trkpt lat="47.90634" lon="7.1218">
        <ele>1036</ele>
        <time>2021-08-21T06:12:30.000Z</time>
      </trkpt>
      <trkpt lat="47.9063" lon="7.1216">
        <ele>1039</ele>
        <time>2021-08-21T06:12:46.000Z</time>
      </trkpt>
      <trkpt lat="47.90623" lon="7.12136">
        <ele>1041.2</ele>
        <time>2021-08-21T06:13:05.000Z</time>
      </trkpt>
      <trkpt lat="47.9062" lon="7.12129">
        <ele>1042.2</ele>
        <time>2021-08-21T06:13:12.000Z</time>
      </trkpt>
      <trkpt lat="47.90618" lon="7.12125">
        <ele>1042.8</ele>
        <time>2021-08-21T06:13:16.000Z</time>
      </trkpt>
      <trkpt lat="47.90603" lon="7.12091">
        <ele>1046.8</ele>
        <time>2021-08-21T06:13:46.000Z</time>
      </trkpt>
      <trkpt lat="47.90596" lon="7.12077">
        <ele>1049.8</ele>
        <time>2021-08-21T06:14:07.000Z</time>
      </trkpt>
      <trkpt lat="47.90587" lon="7.12067">
        <ele>1052</ele>
        <time>2021-08-21T06:14:17.000Z</time>
      </trkpt>
      <trkpt lat="47.90586" lon="7.12067">
        <ele>1052.2</ele>
        <time>2021-08-21T06:14:18.000Z</time>
      </trkpt>
      <trkpt lat="47.90584" lon="7.12062">
        <ele>1052.6</ele>
        <time>2021-08-21T06:14:22.000Z</time>
      </trkpt>
      <trkpt lat="47.90581" lon="7.12045">
        <ele>1055.4</ele>
        <time>2021-08-21T06:14:38.000Z</time>
      </trkpt>
      <trkpt lat="47.90581" lon="7.12043">
        <ele>1055.6</ele>
        <time>2021-08-21T06:14:39.000Z</time>
      </trkpt>
      <trkpt lat="47.9058" lon="7.12041">
        <ele>1056.2</ele>
        <time>2021-08-21T06:14:41.000Z</time>
      </trkpt>
      <trkpt lat="47.90578" lon="7.12035">
        <ele>1057.2</ele>
        <time>2021-08-21T06:14:47.000Z</time>
      </trkpt>
      <trkpt lat="47.90575" lon="7.12022">
        <ele>1059.8</ele>
        <time>2021-08-21T06:15:05.000Z</time>
      </trkpt>
      <trkpt lat="47.90572" lon="7.12003">
        <ele>1062.4</ele>
        <time>2021-08-21T06:15:25.000Z</time>
      </trkpt>
      <trkpt lat="47.90571" lon="7.11993">
        <ele>1065.4</ele>
        <time>2021-08-21T06:15:44.000Z</time>
      </trkpt>
      <trkpt lat="47.90576" lon="7.11989">
        <ele>1068.4</ele>
        <time>2021-08-21T06:16:04.000Z</time>
      </trkpt>
      <trkpt lat="47.90577" lon="7.11979">
        <ele>1071.6</ele>
        <time>2021-08-21T06:16:25.000Z</time>
      </trkpt>
      <trkpt lat="47.90578" lon="7.11969">
        <ele>1073.8</ele>
        <time>2021-08-21T06:16:39.000Z</time>
      </trkpt>
      <trkpt lat="47.9058" lon="7.11953">
        <ele>1076.8</ele>
        <time>2021-08-21T06:16:56.000Z</time>
      </trkpt>
      <trkpt lat="47.9058" lon="7.11935">
        <ele>1080</ele>
        <time>2021-08-21T06:17:17.000Z</time>
      </trkpt>
      <trkpt lat="47.90578" lon="7.11924">
        <ele>1081.2</ele>
        <time>2021-08-21T06:17:24.000Z</time>
      </trkpt>
      <trkpt lat="47.90574" lon="7.1191">
        <ele>1083</ele>
        <time>2021-08-21T06:17:33.000Z</time>
      </trkpt>
      <trkpt lat="47.9057" lon="7.11894">
        <ele>1086.2</ele>
        <time>2021-08-21T06:17:54.000Z</time>
      </trkpt>
      <trkpt lat="47.90562" lon="7.11877">
        <ele>1089.2</ele>
        <time>2021-08-21T06:18:12.000Z</time>
      </trkpt>
      <trkpt lat="47.90554" lon="7.11856">
        <ele>1090</ele>
        <time>2021-08-21T06:18:32.000Z</time>
      </trkpt>
      <trkpt lat="47.90543" lon="7.11842">
        <ele>1090.4</ele>
        <time>2021-08-21T06:18:45.000Z</time>
      </trkpt>
      <trkpt lat="47.90539" lon="7.11853">
        <ele>1090.6</ele>
        <time>2021-08-21T06:19:28.000Z</time>
      </trkpt>
      <trkpt lat="47.90539" lon="7.11853">
        <ele>1090.6</ele>
        <time>2021-08-21T06:19:50.000Z</time>
      </trkpt>
      <trkpt lat="47.90488" lon="7.11698">
        <ele>1097.6</ele>
        <time>2021-08-21T06:21:26.000Z</time>
      </trkpt>
      <trkpt lat="47.90488" lon="7.11685">
        <ele>1100.6</ele>
        <time>2021-08-21T06:21:41.000Z</time>
      </trkpt>
      <trkpt lat="47.90487" lon="7.11672">
        <ele>1102.6</ele>
        <time>2021-08-21T06:21:57.000Z</time>
      </trkpt>
      <trkpt lat="47.90489" lon="7.11661">
        <ele>1103.8</ele>
        <time>2021-08-21T06:22:04.000Z</time>
      </trkpt>
      <trkpt lat="47.90491" lon="7.1165">
        <ele>1104.8</ele>
        <time>2021-08-21T06:22:13.000Z</time>
      </trkpt>
      <trkpt lat="47.90493" lon="7.11639">
        <ele>1106.8</ele>
        <time>2021-08-21T06:22:27.000Z</time>
      </trkpt>
      <trkpt lat="47.90496" lon="7.11611">
        <ele>1109.8</ele>
        <time>2021-08-21T06:22:54.000Z</time>
      </trkpt>
      <trkpt lat="47.90503" lon="7.1158">
        <ele>1113</ele>
        <time>2021-08-21T06:23:15.000Z</time>
      </trkpt>
      <trkpt lat="47.90504" lon="7.11558">
        <ele>1114.2</ele>
        <time>2021-08-21T06:23:28.000Z</time>
      </trkpt>
      <trkpt lat="47.90507" lon="7.11546">
        <ele>1116</ele>
        <time>2021-08-21T06:23:39.000Z</time>
      </trkpt>
      <trkpt lat="47.90512" lon="7.11539">
        <ele>1116.8</ele>
        <time>2021-08-21T06:23:47.000Z</time>
      </trkpt>
      <trkpt lat="47.90515" lon="7.11532">
        <ele>1117.8</ele>
        <time>2021-08-21T06:23:54.000Z</time>
      </trkpt>
      <trkpt lat="47.90517" lon="7.11521">
        <ele>1119</ele>
        <time>2021-08-21T06:24:03.000Z</time>
      </trkpt>
      <trkpt lat="47.9052" lon="7.11497">
        <ele>1122.2</ele>
        <time>2021-08-21T06:24:25.000Z</time>
      </trkpt>
      <trkpt lat="47.90524" lon="7.11488">
        <ele>1123.8</ele>
        <time>2021-08-21T06:24:37.000Z</time>
      </trkpt>
      <trkpt lat="47.90524" lon="7.11465">
        <ele>1126.4</ele>
        <time>2021-08-21T06:24:57.000Z</time>
      </trkpt>
      <trkpt lat="47.90523" lon="7.11456">
        <ele>1127.2</ele>
        <time>2021-08-21T06:25:03.000Z</time>
      </trkpt>
      <trkpt lat="47.90523" lon="7.11438">
        <ele>1129.4</ele>
        <time>2021-08-21T06:25:17.000Z</time>
      </trkpt>
      <trkpt lat="47.90523" lon="7.11419">
        <ele>1132.6</ele>
        <time>2021-08-21T06:25:39.000Z</time>
      </trkpt>
      <trkpt lat="47.90526" lon="7.11409">
        <ele>1134</ele>
        <time>2021-08-21T06:25:51.000Z</time>
      </trkpt>
      <trkpt lat="47.90526" lon="7.11403">
        <ele>1134.6</ele>
        <time>2021-08-21T06:25:56.000Z</time>
      </trkpt>
      <trkpt lat="47.90522" lon="7.11375">
        <ele>1136.6</ele>
        <time>2021-08-21T06:26:14.000Z</time>
      </trkpt>
      <trkpt lat="47.90532" lon="7.11351">
        <ele>1138.6</ele>
        <time>2021-08-21T06:26:32.000Z</time>
      </trkpt>
      <trkpt lat="47.90532" lon="7.11348">
        <ele>1138.8</ele>
        <time>2021-08-21T06:26:34.000Z</time>
      </trkpt>
      <trkpt lat="47.90531" lon="7.11332">
        <ele>1140.6</ele>
        <time>2021-08-21T06:26:48.000Z</time>
      </trkpt>
      <trkpt lat="47.90533" lon="7.11317">
        <ele>1143.4</ele>
        <time>2021-08-21T06:27:10.000Z</time>
      </trkpt>
      <trkpt lat="47.90534" lon="7.113">
        <ele>1145.2</ele>
        <time>2021-08-21T06:27:21.000Z</time>
      </trkpt>
      <trkpt lat="47.9053" lon="7.11271">
        <ele>1148.4</ele>
        <time>2021-08-21T06:27:43.000Z</time>
      </trkpt>
      <trkpt lat="47.9053" lon="7.11264">
        <ele>1149</ele>
        <time>2021-08-21T06:27:47.000Z</time>
      </trkpt>
      <trkpt lat="47.90527" lon="7.11255">
        <ele>1149.6</ele>
        <time>2021-08-21T06:27:54.000Z</time>
      </trkpt>
      <trkpt lat="47.9052" lon="7.11233">
        <ele>1152.8</ele>
        <time>2021-08-21T06:28:20.000Z</time>
      </trkpt>
      <trkpt lat="47.90501" lon="7.11198">
        <ele>1156.4</ele>
        <time>2021-08-21T06:28:44.000Z</time>
      </trkpt>
      <trkpt lat="47.90484" lon="7.11181">
        <ele>1159.6</ele>
        <time>2021-08-21T06:29:06.000Z</time>
      </trkpt>
      <trkpt lat="47.90473" lon="7.11165">
        <ele>1161.6</ele>
        <time>2021-08-21T06:29:22.000Z</time>
      </trkpt>
      <trkpt lat="47.90471" lon="7.11145">
        <ele>1164</ele>
        <time>2021-08-21T06:29:36.000Z</time>
      </trkpt>
      <trkpt lat="47.90468" lon="7.11133">
        <ele>1167</ele>
        <time>2021-08-21T06:29:55.000Z</time>
      </trkpt>
      <trkpt lat="47.90467" lon="7.11129">
        <ele>1167.4</ele>
        <time>2021-08-21T06:29:58.000Z</time>
      </trkpt>
      <trkpt lat="47.90465" lon="7.11115">
        <ele>1168.8</ele>
        <time>2021-08-21T06:30:09.000Z</time>
      </trkpt>
      <trkpt lat="47.90453" lon="7.11097">
        <ele>1170.2</ele>
        <time>2021-08-21T06:30:25.000Z</time>
      </trkpt>
      <trkpt lat="47.90445" lon="7.1109">
        <ele>1171.8</ele>
        <time>2021-08-21T06:30:34.000Z</time>
      </trkpt>
      <trkpt lat="47.9044" lon="7.11077">
        <ele>1173.6</ele>
        <time>2021-08-21T06:30:47.000Z</time>
      </trkpt>
      <trkpt lat="47.9043" lon="7.11058">
        <ele>1176.2</ele>
        <time>2021-08-21T06:31:07.000Z</time>
      </trkpt>
      <trkpt lat="47.90423" lon="7.11043">
        <ele>1179.2</ele>
        <time>2021-08-21T06:31:26.000Z</time>
      </trkpt>
      <trkpt lat="47.90417" lon="7.11033">
        <ele>1182.2</ele>
        <time>2021-08-21T06:31:44.000Z</time>
      </trkpt>
      <trkpt lat="47.90398" lon="7.11012">
        <ele>1184.6</ele>
        <time>2021-08-21T06:32:02.000Z</time>
      </trkpt>
      <trkpt lat="47.90391" lon="7.10995">
        <ele>1187.8</ele>
        <time>2021-08-21T06:32:26.000Z</time>
      </trkpt>
      <trkpt lat="47.90381" lon="7.10978">
        <ele>1190.6</ele>
        <time>2021-08-21T06:32:46.000Z</time>
      </trkpt>
      <trkpt lat="47.90368" lon="7.10965">
        <ele>1192.4</ele>
        <time>2021-08-21T06:33:00.000Z</time>
      </trkpt>
      <trkpt lat="47.90359" lon="7.10945">
        <ele>1195.4</ele>
        <time>2021-08-21T06:33:18.000Z</time>
      </trkpt>
      <trkpt lat="47.90348" lon="7.10923">
        <ele>1198.4</ele>
        <time>2021-08-21T06:33:42.000Z</time>
      </trkpt>
      <trkpt lat="47.90341" lon="7.10904">
        <ele>1201.6</ele>
        <time>2021-08-21T06:34:03.000Z</time>
      </trkpt>
      <trkpt lat="47.90332" lon="7.10884">
        <ele>1203.2</ele>
        <time>2021-08-21T06:34:20.000Z</time>
      </trkpt>
      <trkpt lat="47.9033" lon="7.1088">
        <ele>1203.6</ele>
        <time>2021-08-21T06:34:23.000Z</time>
      </trkpt>
      <trkpt lat="47.90321" lon="7.10863">
        <ele>1206.6</ele>
        <time>2021-08-21T06:34:43.000Z</time>
      </trkpt>
      <trkpt lat="47.9031" lon="7.10845">
        <ele>1209.6</ele>
        <time>2021-08-21T06:35:04.000Z</time>
      </trkpt>
      <trkpt lat="47.90304" lon="7.10827">
        <ele>1212.6</ele>
        <time>2021-08-21T06:35:24.000Z</time>
      </trkpt>
      <trkpt lat="47.90296" lon="7.10807">
        <ele>1215.8</ele>
        <time>2021-08-21T06:35:45.000Z</time>
      </trkpt>
      <trkpt lat="47.90282" lon="7.10783">
        <ele>1218.8</ele>
        <time>2021-08-21T06:36:10.000Z</time>
      </trkpt>
      <trkpt lat="47.90272" lon="7.10753">
        <ele>1221.4</ele>
        <time>2021-08-21T06:36:30.000Z</time>
      </trkpt>
      <trkpt lat="47.90267" lon="7.10744">
        <ele>1222</ele>
        <time>2021-08-21T06:36:36.000Z</time>
      </trkpt>
      <trkpt lat="47.90262" lon="7.10726">
        <ele>1224.8</ele>
        <time>2021-08-21T06:37:01.000Z</time>
      </trkpt>
      <trkpt lat="47.90262" lon="7.10706">
        <ele>1227.2</ele>
        <time>2021-08-21T06:37:15.000Z</time>
      </trkpt>
      <trkpt lat="47.9026" lon="7.10701">
        <ele>1228</ele>
        <time>2021-08-21T06:37:20.000Z</time>
      </trkpt>
      <trkpt lat="47.90259" lon="7.107">
        <ele>1228.2</ele>
        <time>2021-08-21T06:37:21.000Z</time>
      </trkpt>
      <trkpt lat="47.90258" lon="7.10699">
        <ele>1228.2</ele>
        <time>2021-08-21T06:37:22.000Z</time>
      </trkpt>
      <trkpt lat="47.90257" lon="7.10697">
        <ele>1228.4</ele>
        <time>2021-08-21T06:37:24.000Z</time>
      </trkpt>
      <trkpt lat="47.90256" lon="7.10687">
        <ele>1229.2</ele>
        <time>2021-08-21T06:37:31.000Z</time>
      </trkpt>
      <trkpt lat="47.90266" lon="7.10686">
        <ele>1231.2</ele>
        <time>2021-08-21T06:37:47.000Z</time>
      </trkpt>
      <trkpt lat="47.9028" lon="7.10675">
        <ele>1234.2</ele>
        <time>2021-08-21T06:38:09.000Z</time>
      </trkpt>
      <trkpt lat="47.90288" lon="7.10675">
        <ele>1235.6</ele>
        <time>2021-08-21T06:38:21.000Z</time>
      </trkpt>
      <trkpt lat="47.90299" lon="7.10676">
        <ele>1237.4</ele>
        <time>2021-08-21T06:38:38.000Z</time>
      </trkpt>
      <trkpt lat="47.90311" lon="7.10672">
        <ele>1239.2</ele>
        <time>2021-08-21T06:38:50.000Z</time>
      </trkpt>
      <trkpt lat="47.90337" lon="7.1066">
        <ele>1242.8</ele>
        <time>2021-08-21T06:39:17.000Z</time>
      </trkpt>
      <trkpt lat="47.90351" lon="7.10657">
        <ele>1246</ele>
        <time>2021-08-21T06:39:38.000Z</time>
      </trkpt>
      <trkpt lat="47.90355" lon="7.10655">
        <ele>1247</ele>
        <time>2021-08-21T06:39:44.000Z</time>
      </trkpt>
      <trkpt lat="47.90367" lon="7.10658">
        <ele>1249.2</ele>
        <time>2021-08-21T06:40:03.000Z</time>
      </trkpt>
      <trkpt lat="47.90377" lon="7.1066">
        <ele>1250.6</ele>
        <time>2021-08-21T06:40:13.000Z</time>
      </trkpt>
      <trkpt lat="47.90389" lon="7.10663">
        <ele>1253.8</ele>
        <time>2021-08-21T06:40:32.000Z</time>
      </trkpt>
      <trkpt lat="47.90399" lon="7.10668">
        <ele>1255.6</ele>
        <time>2021-08-21T06:40:49.000Z</time>
      </trkpt>
      <trkpt lat="47.90409" lon="7.10671">
        <ele>1257.2</ele>
        <time>2021-08-21T06:41:01.000Z</time>
      </trkpt>
      <trkpt lat="47.90414" lon="7.1067">
        <ele>1258.2</ele>
        <time>2021-08-21T06:41:07.000Z</time>
      </trkpt>
      <trkpt lat="47.90429" lon="7.10671">
        <ele>1260.8</ele>
        <time>2021-08-21T06:41:24.000Z</time>
      </trkpt>
      <trkpt lat="47.90434" lon="7.10672">
        <ele>1262</ele>
        <time>2021-08-21T06:41:30.000Z</time>
      </trkpt>
      <trkpt lat="47.90444" lon="7.10668">
        <ele>1263.6</ele>
        <time>2021-08-21T06:41:44.000Z</time>
      </trkpt>
      <trkpt lat="47.90457" lon="7.10673">
        <ele>1265.4</ele>
        <time>2021-08-21T06:42:00.000Z</time>
      </trkpt>
      <trkpt lat="47.90468" lon="7.1068">
        <ele>1267.2</ele>
        <time>2021-08-21T06:42:12.000Z</time>
      </trkpt>
      <trkpt lat="47.90481" lon="7.1068">
        <ele>1268.8</ele>
        <time>2021-08-21T06:42:24.000Z</time>
      </trkpt>
      <trkpt lat="47.9049" lon="7.10679">
        <ele>1270.2</ele>
        <time>2021-08-21T06:42:32.000Z</time>
      </trkpt>
      <trkpt lat="47.90502" lon="7.10678">
        <ele>1271.2</ele>
        <time>2021-08-21T06:42:43.000Z</time>
      </trkpt>
      <trkpt lat="47.90511" lon="7.10674">
        <ele>1273.2</ele>
        <time>2021-08-21T06:42:58.000Z</time>
      </trkpt>
      <trkpt lat="47.90506" lon="7.10659">
        <ele>1275.6</ele>
        <time>2021-08-21T06:43:12.000Z</time>
      </trkpt>
      <trkpt lat="47.90502" lon="7.10641">
        <ele>1277.6</ele>
        <time>2021-08-21T06:43:28.000Z</time>
      </trkpt>
      <trkpt lat="47.90498" lon="7.10628">
        <ele>1279.2</ele>
        <time>2021-08-21T06:43:43.000Z</time>
      </trkpt>
      <trkpt lat="47.90491" lon="7.10616">
        <ele>1281.4</ele>
        <time>2021-08-21T06:43:57.000Z</time>
      </trkpt>
      <trkpt lat="47.90469" lon="7.10589">
        <ele>1285.6</ele>
        <time>2021-08-21T06:44:21.000Z</time>
      </trkpt>
      <trkpt lat="47.90463" lon="7.10574">
        <ele>1287.2</ele>
        <time>2021-08-21T06:44:33.000Z</time>
      </trkpt>
      <trkpt lat="47.90455" lon="7.10552">
        <ele>1289.6</ele>
        <time>2021-08-21T06:44:53.000Z</time>
      </trkpt>
      <trkpt lat="47.9045" lon="7.10538">
        <ele>1291.2</ele>
        <time>2021-08-21T06:45:08.000Z</time>
      </trkpt>
      <trkpt lat="47.90444" lon="7.1052">
        <ele>1294</ele>
        <time>2021-08-21T06:45:26.000Z</time>
      </trkpt>
      <trkpt lat="47.90441" lon="7.10496">
        <ele>1296.2</ele>
        <time>2021-08-21T06:45:45.000Z</time>
      </trkpt>
      <trkpt lat="47.90442" lon="7.10488">
        <ele>1297</ele>
        <time>2021-08-21T06:45:51.000Z</time>
      </trkpt>
      <trkpt lat="47.90441" lon="7.10482">
        <ele>1297.4</ele>
        <time>2021-08-21T06:45:55.000Z</time>
      </trkpt>
      <trkpt lat="47.90439" lon="7.10473">
        <ele>1297.8</ele>
        <time>2021-08-21T06:46:00.000Z</time>
      </trkpt>
      <trkpt lat="47.9044" lon="7.10457">
        <ele>1299.8</ele>
        <time>2021-08-21T06:46:13.000Z</time>
      </trkpt>
      <trkpt lat="47.90442" lon="7.10446">
        <ele>1302.4</ele>
        <time>2021-08-21T06:46:25.000Z</time>
      </trkpt>
      <trkpt lat="47.90445" lon="7.10443">
        <ele>1303.2</ele>
        <time>2021-08-21T06:46:30.000Z</time>
      </trkpt>
      <trkpt lat="47.90451" lon="7.10439">
        <ele>1305</ele>
        <time>2021-08-21T06:46:43.000Z</time>
      </trkpt>
      <trkpt lat="47.90455" lon="7.10427">
        <ele>1307.6</ele>
        <time>2021-08-21T06:46:59.000Z</time>
      </trkpt>
      <trkpt lat="47.90461" lon="7.10418">
        <ele>1310</ele>
        <time>2021-08-21T06:47:13.000Z</time>
      </trkpt>
      <trkpt lat="47.90469" lon="7.10409">
        <ele>1311.6</ele>
        <time>2021-08-21T06:47:25.000Z</time>
      </trkpt>
      <trkpt lat="47.90479" lon="7.10388">
        <ele>1313.4</ele>
        <time>2021-08-21T06:47:45.000Z</time>
      </trkpt>
      <trkpt lat="47.90476" lon="7.10361">
        <ele>1314.4</ele>
        <time>2021-08-21T06:48:02.000Z</time>
      </trkpt>
      <trkpt lat="47.90479" lon="7.10337">
        <ele>1315</ele>
        <time>2021-08-21T06:48:18.000Z</time>
      </trkpt>
      <trkpt lat="47.90478" lon="7.10329">
        <ele>1315</ele>
        <time>2021-08-21T06:48:23.000Z</time>
      </trkpt>
      <trkpt lat="47.90478" lon="7.10327">
        <ele>1315</ele>
        <time>2021-08-21T06:48:24.000Z</time>
      </trkpt>
      <trkpt lat="47.90482" lon="7.10306">
        <ele>1315.4</ele>
        <time>2021-08-21T06:48:35.000Z</time>
      </trkpt>
      <trkpt lat="47.90482" lon="7.10305">
        <ele>1315.4</ele>
        <time>2021-08-21T06:48:36.000Z</time>
      </trkpt>
      <trkpt lat="47.90476" lon="7.10298">
        <ele>1316.4</ele>
        <time>2021-08-21T06:48:44.000Z</time>
      </trkpt>
      <trkpt lat="47.90475" lon="7.1029">
        <ele>1317.2</ele>
        <time>2021-08-21T06:48:49.000Z</time>
      </trkpt>
      <trkpt lat="47.9047" lon="7.10271">
        <ele>1319.2</ele>
        <time>2021-08-21T06:49:03.000Z</time>
      </trkpt>
      <trkpt lat="47.90461" lon="7.1026">
        <ele>1321</ele>
        <time>2021-08-21T06:49:15.000Z</time>
      </trkpt>
      <trkpt lat="47.90458" lon="7.10259">
        <ele>1321.4</ele>
        <time>2021-08-21T06:49:18.000Z</time>
      </trkpt>
      <trkpt lat="47.90457" lon="7.10259">
        <ele>1321.6</ele>
        <time>2021-08-21T06:49:19.000Z</time>
      </trkpt>
      <trkpt lat="47.90445" lon="7.10254">
        <ele>1323</ele>
        <time>2021-08-21T06:49:30.000Z</time>
      </trkpt>
      <trkpt lat="47.90436" lon="7.10249">
        <ele>1323</ele>
        <time>2021-08-21T06:49:38.000Z</time>
      </trkpt>
      <trkpt lat="47.90431" lon="7.10249">
        <ele>1323.4</ele>
        <time>2021-08-21T06:49:43.000Z</time>
      </trkpt>
      <trkpt lat="47.90424" lon="7.10245">
        <ele>1324.8</ele>
        <time>2021-08-21T06:49:53.000Z</time>
      </trkpt>
      <trkpt lat="47.90424" lon="7.10241">
        <ele>1325.6</ele>
        <time>2021-08-21T06:50:13.000Z</time>
      </trkpt>
      <trkpt lat="47.90415" lon="7.10233">
        <ele>1326.6</ele>
        <time>2021-08-21T06:50:32.000Z</time>
      </trkpt>
      <trkpt lat="47.90405" lon="7.10227">
        <ele>1328.6</ele>
        <time>2021-08-21T06:50:47.000Z</time>
      </trkpt>
      <trkpt lat="47.90395" lon="7.10228">
        <ele>1331.2</ele>
        <time>2021-08-21T06:51:02.000Z</time>
      </trkpt>
      <trkpt lat="47.90393" lon="7.10229">
        <ele>1331.4</ele>
        <time>2021-08-21T06:51:04.000Z</time>
      </trkpt>
      <trkpt lat="47.90381" lon="7.10231">
        <ele>1333.6</ele>
        <time>2021-08-21T06:51:19.000Z</time>
      </trkpt>
      <trkpt lat="47.90371" lon="7.10233">
        <ele>1334.8</ele>
        <time>2021-08-21T06:51:30.000Z</time>
      </trkpt>
      <trkpt lat="47.9036" lon="7.10233">
        <ele>1336.6</ele>
        <time>2021-08-21T06:51:42.000Z</time>
      </trkpt>
      <trkpt lat="47.90346" lon="7.10227">
        <ele>1338.2</ele>
        <time>2021-08-21T06:51:57.000Z</time>
      </trkpt>
      <trkpt lat="47.90339" lon="7.10224">
        <ele>1340.4</ele>
        <time>2021-08-21T06:52:09.000Z</time>
      </trkpt>
      <trkpt lat="47.90328" lon="7.10221">
        <ele>1342.2</ele>
        <time>2021-08-21T06:52:28.000Z</time>
      </trkpt>
      <trkpt lat="47.90314" lon="7.10211">
        <ele>1344.6</ele>
        <time>2021-08-21T06:52:48.000Z</time>
      </trkpt>
      <trkpt lat="47.90297" lon="7.102">
        <ele>1347.6</ele>
        <time>2021-08-21T06:53:11.000Z</time>
      </trkpt>
      <trkpt lat="47.9029" lon="7.10191">
        <ele>1349.4</ele>
        <time>2021-08-21T06:53:23.000Z</time>
      </trkpt>
      <trkpt lat="47.90287" lon="7.10186">
        <ele>1350.2</ele>
        <time>2021-08-21T06:53:28.000Z</time>
      </trkpt>
      <trkpt lat="47.90281" lon="7.10179">
        <ele>1351.4</ele>
        <time>2021-08-21T06:53:38.000Z</time>
      </trkpt>
      <trkpt lat="47.90276" lon="7.10174">
        <ele>1352.4</ele>
        <time>2021-08-21T06:53:46.000Z</time>
      </trkpt>
      <trkpt lat="47.90271" lon="7.10157">
        <ele>1355</ele>
        <time>2021-08-21T06:54:03.000Z</time>
      </trkpt>
      <trkpt lat="47.90271" lon="7.10142">
        <ele>1357.2</ele>
        <time>2021-08-21T06:54:17.000Z</time>
      </trkpt>
      <trkpt lat="47.90267" lon="7.10132">
        <ele>1358.4</ele>
        <time>2021-08-21T06:54:24.000Z</time>
      </trkpt>
      <trkpt lat="47.90263" lon="7.10118">
        <ele>1360.4</ele>
        <time>2021-08-21T06:54:37.000Z</time>
      </trkpt>
      <trkpt lat="47.90256" lon="7.10113">
        <ele>1362.4</ele>
        <time>2021-08-21T06:54:51.000Z</time>
      </trkpt>
      <trkpt lat="47.90214" lon="7.1006">
        <ele>1363</ele>
        <time>2021-08-21T06:55:34.000Z</time>
      </trkpt>
      <trkpt lat="47.90205" lon="7.1005">
        <ele>1364.6</ele>
        <time>2021-08-21T06:55:47.000Z</time>
      </trkpt>
      <trkpt lat="47.90198" lon="7.1004">
        <ele>1365.8</ele>
        <time>2021-08-21T06:55:58.000Z</time>
      </trkpt>
      <trkpt lat="47.90188" lon="7.1003">
        <ele>1367.2</ele>
        <time>2021-08-21T06:56:11.000Z</time>
      </trkpt>
      <trkpt lat="47.90172" lon="7.10012">
        <ele>1370.4</ele>
        <time>2021-08-21T06:56:32.000Z</time>
      </trkpt>
      <trkpt lat="47.90159" lon="7.10004">
        <ele>1372.2</ele>
        <time>2021-08-21T06:56:47.000Z</time>
      </trkpt>
      <trkpt lat="47.90141" lon="7.09995">
        <ele>1375</ele>
        <time>2021-08-21T06:57:07.000Z</time>
      </trkpt>
      <trkpt lat="47.90128" lon="7.09987">
        <ele>1376.4</ele>
        <time>2021-08-21T06:57:20.000Z</time>
      </trkpt>
      <trkpt lat="47.90119" lon="7.0998">
        <ele>1377.8</ele>
        <time>2021-08-21T06:57:29.000Z</time>
      </trkpt>
      <trkpt lat="47.901" lon="7.0997">
        <ele>1380.8</ele>
        <time>2021-08-21T06:57:50.000Z</time>
      </trkpt>
      <trkpt lat="47.9008" lon="7.09961">
        <ele>1383.2</ele>
        <time>2021-08-21T06:58:12.000Z</time>
      </trkpt>
      <trkpt lat="47.90063" lon="7.09944">
        <ele>1385</ele>
        <time>2021-08-21T06:58:30.000Z</time>
      </trkpt>
      <trkpt lat="47.9005" lon="7.09923">
        <ele>1385.6</ele>
        <time>2021-08-21T06:58:46.000Z</time>
      </trkpt>
      <trkpt lat="47.90051" lon="7.09898">
        <ele>1388.4</ele>
        <time>2021-08-21T06:59:03.000Z</time>
      </trkpt>
      <trkpt lat="47.90062" lon="7.09888">
        <ele>1390.4</ele>
        <time>2021-08-21T06:59:17.000Z</time>
      </trkpt>
      <trkpt lat="47.90078" lon="7.0988">
        <ele>1392.6</ele>
        <time>2021-08-21T06:59:31.000Z</time>
      </trkpt>
      <trkpt lat="47.90093" lon="7.09864">
        <ele>1395.8</ele>
        <time>2021-08-21T06:59:49.000Z</time>
      </trkpt>
      <trkpt lat="47.90096" lon="7.09855">
        <ele>1396.8</ele>
        <time>2021-08-21T06:59:57.000Z</time>
      </trkpt>
      <trkpt lat="47.90101" lon="7.09846">
        <ele>1397.2</ele>
        <time>2021-08-21T07:00:25.000Z</time>
      </trkpt>
      <trkpt lat="47.90104" lon="7.09845">
        <ele>1397.4</ele>
        <time>2021-08-21T07:00:27.000Z</time>
      </trkpt>
      <trkpt lat="47.90105" lon="7.09844">
        <ele>1397.4</ele>
        <time>2021-08-21T07:00:28.000Z</time>
      </trkpt>
      <trkpt lat="47.90115" lon="7.09844">
        <ele>1398</ele>
        <time>2021-08-21T07:00:37.000Z</time>
      </trkpt>
      <trkpt lat="47.90116" lon="7.09845">
        <ele>1398</ele>
        <time>2021-08-21T07:00:38.000Z</time>
      </trkpt>
      <trkpt lat="47.90118" lon="7.09846">
        <ele>1398</ele>
        <time>2021-08-21T07:00:39.000Z</time>
      </trkpt>
      <trkpt lat="47.90119" lon="7.09846">
        <ele>1397.8</ele>
        <time>2021-08-21T07:00:40.000Z</time>
      </trkpt>
      <trkpt lat="47.9012" lon="7.09846">
        <ele>1397.8</ele>
        <time>2021-08-21T07:00:41.000Z</time>
      </trkpt>
      <trkpt lat="47.90124" lon="7.09841">
        <ele>1397.4</ele>
        <time>2021-08-21T07:00:47.000Z</time>
      </trkpt>
      <trkpt lat="47.90122" lon="7.09838">
        <ele>1397.4</ele>
        <time>2021-08-21T07:00:49.000Z</time>
      </trkpt>
      <trkpt lat="47.90121" lon="7.09838">
        <ele>1397.4</ele>
        <time>2021-08-21T07:00:50.000Z</time>
      </trkpt>
      <trkpt lat="47.9012" lon="7.09837">
        <ele>1397.6</ele>
        <time>2021-08-21T07:00:51.000Z</time>
      </trkpt>
      <trkpt lat="47.90119" lon="7.09837">
        <ele>1397.6</ele>
        <time>2021-08-21T07:00:52.000Z</time>
      </trkpt>
      <trkpt lat="47.90118" lon="7.09836">
        <ele>1397.6</ele>
        <time>2021-08-21T07:00:53.000Z</time>
      </trkpt>
      <trkpt lat="47.90111" lon="7.09832">
        <ele>1400.8</ele>
        <time>2021-08-21T07:01:01.000Z</time>
      </trkpt>
      <trkpt lat="47.90106" lon="7.09827">
        <ele>1403.8</ele>
        <time>2021-08-21T07:01:10.000Z</time>
      </trkpt>
      <trkpt lat="47.90103" lon="7.09822">
        <ele>1403.8</ele>
        <time>2021-08-21T07:01:29.000Z</time>
      </trkpt>
      <trkpt lat="47.901" lon="7.09825">
        <ele>1404.4</ele>
        <time>2021-08-21T07:01:57.000Z</time>
      </trkpt>
      <trkpt lat="47.90096" lon="7.09827">
        <ele>1405.2</ele>
        <time>2021-08-21T07:02:30.000Z</time>
      </trkpt>
      <trkpt lat="47.90098" lon="7.09823">
        <ele>1404.2</ele>
        <time>2021-08-21T07:02:48.000Z</time>
      </trkpt>
      <trkpt lat="47.90103" lon="7.09825">
        <ele>1405</ele>
        <time>2021-08-21T07:02:58.000Z</time>
      </trkpt>
      <trkpt lat="47.90111" lon="7.0983">
        <ele>1403.2</ele>
        <time>2021-08-21T07:03:05.000Z</time>
      </trkpt>
      <trkpt lat="47.90112" lon="7.09831">
        <ele>1402.8</ele>
        <time>2021-08-21T07:03:06.000Z</time>
      </trkpt>
      <trkpt lat="47.90119" lon="7.09835">
        <ele>1399.6</ele>
        <time>2021-08-21T07:03:16.000Z</time>
      </trkpt>
      <trkpt lat="47.9012" lon="7.09836">
        <ele>1399.2</ele>
        <time>2021-08-21T07:03:17.000Z</time>
      </trkpt>
      <trkpt lat="47.90121" lon="7.09837">
        <ele>1398.6</ele>
        <time>2021-08-21T07:03:18.000Z</time>
      </trkpt>
      <trkpt lat="47.90125" lon="7.09839">
        <ele>1397.4</ele>
        <time>2021-08-21T07:03:21.000Z</time>
      </trkpt>
      <trkpt lat="47.90126" lon="7.0984">
        <ele>1397.4</ele>
        <time>2021-08-21T07:03:22.000Z</time>
      </trkpt>
      <trkpt lat="47.90142" lon="7.09851">
        <ele>1395.8</ele>
        <time>2021-08-21T07:03:37.000Z</time>
      </trkpt>
      <trkpt lat="47.90145" lon="7.09853">
        <ele>1395.4</ele>
        <time>2021-08-21T07:03:40.000Z</time>
      </trkpt>
      <trkpt lat="47.90146" lon="7.09854">
        <ele>1395.4</ele>
        <time>2021-08-21T07:03:41.000Z</time>
      </trkpt>
      <trkpt lat="47.90149" lon="7.09856">
        <ele>1395.2</ele>
        <time>2021-08-21T07:03:43.000Z</time>
      </trkpt>
      <trkpt lat="47.9015" lon="7.09857">
        <ele>1395.2</ele>
        <time>2021-08-21T07:03:44.000Z</time>
      </trkpt>
      <trkpt lat="47.90172" lon="7.09874">
        <ele>1392.2</ele>
        <time>2021-08-21T07:04:02.000Z</time>
      </trkpt>
      <trkpt lat="47.90187" lon="7.09881">
        <ele>1389.4</ele>
        <time>2021-08-21T07:04:20.000Z</time>
      </trkpt>
      <trkpt lat="47.90192" lon="7.09885">
        <ele>1388.8</ele>
        <time>2021-08-21T07:04:28.000Z</time>
      </trkpt>
      <trkpt lat="47.90193" lon="7.09886">
        <ele>1388.6</ele>
        <time>2021-08-21T07:04:29.000Z</time>
      </trkpt>
      <trkpt lat="47.90209" lon="7.09895">
        <ele>1387</ele>
        <time>2021-08-21T07:04:44.000Z</time>
      </trkpt>
      <trkpt lat="47.90227" lon="7.09905">
        <ele>1385</ele>
        <time>2021-08-21T07:04:57.000Z</time>
      </trkpt>
      <trkpt lat="47.90251" lon="7.09916">
        <ele>1382</ele>
        <time>2021-08-21T07:05:15.000Z</time>
      </trkpt>
      <trkpt lat="47.90267" lon="7.09925">
        <ele>1383.2</ele>
        <time>2021-08-21T07:05:33.000Z</time>
      </trkpt>
      <trkpt lat="47.90268" lon="7.09925">
        <ele>1383.4</ele>
        <time>2021-08-21T07:05:34.000Z</time>
      </trkpt>
      <trkpt lat="47.90277" lon="7.09924">
        <ele>1382.4</ele>
        <time>2021-08-21T07:05:51.000Z</time>
      </trkpt>
      <trkpt lat="47.90282" lon="7.09922">
        <ele>1382.6</ele>
        <time>2021-08-21T07:05:57.000Z</time>
      </trkpt>
      <trkpt lat="47.90283" lon="7.09921">
        <ele>1382.6</ele>
        <time>2021-08-21T07:05:58.000Z</time>
      </trkpt>
      <trkpt lat="47.90284" lon="7.09921">
        <ele>1382.6</ele>
        <time>2021-08-21T07:05:59.000Z</time>
      </trkpt>
      <trkpt lat="47.90285" lon="7.0992">
        <ele>1382.6</ele>
        <time>2021-08-21T07:06:00.000Z</time>
      </trkpt>
      <trkpt lat="47.90286" lon="7.0992">
        <ele>1382.6</ele>
        <time>2021-08-21T07:06:01.000Z</time>
      </trkpt>
      <trkpt lat="47.90302" lon="7.09906">
        <ele>1379.6</ele>
        <time>2021-08-21T07:06:18.000Z</time>
      </trkpt>
      <trkpt lat="47.90304" lon="7.09904">
        <ele>1379</ele>
        <time>2021-08-21T07:06:20.000Z</time>
      </trkpt>
      <trkpt lat="47.90305" lon="7.09903">
        <ele>1378.8</ele>
        <time>2021-08-21T07:06:21.000Z</time>
      </trkpt>
      <trkpt lat="47.90306" lon="7.09902">
        <ele>1378.6</ele>
        <time>2021-08-21T07:06:22.000Z</time>
      </trkpt>
      <trkpt lat="47.90307" lon="7.09901">
        <ele>1378.4</ele>
        <time>2021-08-21T07:06:23.000Z</time>
      </trkpt>
      <trkpt lat="47.90309" lon="7.099">
        <ele>1378.2</ele>
        <time>2021-08-21T07:06:24.000Z</time>
      </trkpt>
      <trkpt lat="47.9031" lon="7.09899">
        <ele>1377.8</ele>
        <time>2021-08-21T07:06:25.000Z</time>
      </trkpt>
      <trkpt lat="47.90311" lon="7.09898">
        <ele>1377.6</ele>
        <time>2021-08-21T07:06:26.000Z</time>
      </trkpt>
      <trkpt lat="47.90313" lon="7.09897">
        <ele>1377.2</ele>
        <time>2021-08-21T07:06:27.000Z</time>
      </trkpt>
      <trkpt lat="47.90314" lon="7.09896">
        <ele>1377</ele>
        <time>2021-08-21T07:06:28.000Z</time>
      </trkpt>
      <trkpt lat="47.90332" lon="7.09898">
        <ele>1374</ele>
        <time>2021-08-21T07:06:42.000Z</time>
      </trkpt>
      <trkpt lat="47.90346" lon="7.09904">
        <ele>1372</ele>
        <time>2021-08-21T07:06:56.000Z</time>
      </trkpt>
      <trkpt lat="47.90353" lon="7.09912">
        <ele>1370.6</ele>
        <time>2021-08-21T07:07:10.000Z</time>
      </trkpt>
      <trkpt lat="47.90354" lon="7.09913">
        <ele>1370.4</ele>
        <time>2021-08-21T07:07:11.000Z</time>
      </trkpt>
      <trkpt lat="47.90358" lon="7.09916">
        <ele>1370</ele>
        <time>2021-08-21T07:07:16.000Z</time>
      </trkpt>
      <trkpt lat="47.90359" lon="7.09917">
        <ele>1369.8</ele>
        <time>2021-08-21T07:07:17.000Z</time>
      </trkpt>
      <trkpt lat="47.9036" lon="7.09918">
        <ele>1369.4</ele>
        <time>2021-08-21T07:07:18.000Z</time>
      </trkpt>
      <trkpt lat="47.90374" lon="7.09929">
        <ele>1366.2</ele>
        <time>2021-08-21T07:07:30.000Z</time>
      </trkpt>
      <trkpt lat="47.90383" lon="7.09948">
        <ele>1363.8</ele>
        <time>2021-08-21T07:07:43.000Z</time>
      </trkpt>
      <trkpt lat="47.90389" lon="7.09972">
        <ele>1361</ele>
        <time>2021-08-21T07:07:55.000Z</time>
      </trkpt>
      <trkpt lat="47.9039" lon="7.09974">
        <ele>1360.6</ele>
        <time>2021-08-21T07:07:56.000Z</time>
      </trkpt>
      <trkpt lat="47.90392" lon="7.09987">
        <ele>1359.2</ele>
        <time>2021-08-21T07:08:03.000Z</time>
      </trkpt>
      <trkpt lat="47.90392" lon="7.09989">
        <ele>1358.8</ele>
        <time>2021-08-21T07:08:04.000Z</time>
      </trkpt>
      <trkpt lat="47.90392" lon="7.09991">
        <ele>1358.6</ele>
        <time>2021-08-21T07:08:05.000Z</time>
      </trkpt>
      <trkpt lat="47.90393" lon="7.09992">
        <ele>1358.2</ele>
        <time>2021-08-21T07:08:06.000Z</time>
      </trkpt>
      <trkpt lat="47.90393" lon="7.09994">
        <ele>1358</ele>
        <time>2021-08-21T07:08:07.000Z</time>
      </trkpt>
      <trkpt lat="47.90393" lon="7.09996">
        <ele>1357.8</ele>
        <time>2021-08-21T07:08:08.000Z</time>
      </trkpt>
      <trkpt lat="47.90394" lon="7.09997">
        <ele>1357.6</ele>
        <time>2021-08-21T07:08:09.000Z</time>
      </trkpt>
      <trkpt lat="47.90395" lon="7.09999">
        <ele>1357.4</ele>
        <time>2021-08-21T07:08:10.000Z</time>
      </trkpt>
      <trkpt lat="47.90395" lon="7.1">
        <ele>1357.2</ele>
        <time>2021-08-21T07:08:11.000Z</time>
      </trkpt>
      <trkpt lat="47.90395" lon="7.10001">
        <ele>1357</ele>
        <time>2021-08-21T07:08:12.000Z</time>
      </trkpt>
      <trkpt lat="47.90396" lon="7.10004">
        <ele>1356.6</ele>
        <time>2021-08-21T07:08:14.000Z</time>
      </trkpt>
      <trkpt lat="47.90403" lon="7.10025">
        <ele>1353.4</ele>
        <time>2021-08-21T07:08:26.000Z</time>
      </trkpt>
      <trkpt lat="47.90408" lon="7.10046">
        <ele>1350.2</ele>
        <time>2021-08-21T07:08:39.000Z</time>
      </trkpt>
      <trkpt lat="47.90412" lon="7.1006">
        <ele>1348.6</ele>
        <time>2021-08-21T07:08:47.000Z</time>
      </trkpt>
      <trkpt lat="47.90413" lon="7.10061">
        <ele>1348.2</ele>
        <time>2021-08-21T07:08:48.000Z</time>
      </trkpt>
      <trkpt lat="47.90413" lon="7.10063">
        <ele>1347.8</ele>
        <time>2021-08-21T07:08:49.000Z</time>
      </trkpt>
      <trkpt lat="47.90419" lon="7.10079">
        <ele>1344.6</ele>
        <time>2021-08-21T07:09:00.000Z</time>
      </trkpt>
      <trkpt lat="47.90423" lon="7.10097">
        <ele>1341.6</ele>
        <time>2021-08-21T07:09:13.000Z</time>
      </trkpt>
      <trkpt lat="47.90425" lon="7.10107">
        <ele>1340.8</ele>
        <time>2021-08-21T07:09:17.000Z</time>
      </trkpt>
      <trkpt lat="47.90419" lon="7.10139">
        <ele>1340</ele>
        <time>2021-08-21T07:09:33.000Z</time>
      </trkpt>
      <trkpt lat="47.90417" lon="7.10167">
        <ele>1337.2</ele>
        <time>2021-08-21T07:09:46.000Z</time>
      </trkpt>
      <trkpt lat="47.90414" lon="7.10186">
        <ele>1334</ele>
        <time>2021-08-21T07:09:57.000Z</time>
      </trkpt>
      <trkpt lat="47.9041" lon="7.10204">
        <ele>1330.8</ele>
        <time>2021-08-21T07:10:10.000Z</time>
      </trkpt>
      <trkpt lat="47.90415" lon="7.10226">
        <ele>1327.6</ele>
        <time>2021-08-21T07:10:22.000Z</time>
      </trkpt>
      <trkpt lat="47.90428" lon="7.10246">
        <ele>1325.4</ele>
        <time>2021-08-21T07:10:36.000Z</time>
      </trkpt>
      <trkpt lat="47.90431" lon="7.10253">
        <ele>1324.6</ele>
        <time>2021-08-21T07:10:40.000Z</time>
      </trkpt>
      <trkpt lat="47.90433" lon="7.10253">
        <ele>1324.4</ele>
        <time>2021-08-21T07:10:41.000Z</time>
      </trkpt>
      <trkpt lat="47.90434" lon="7.10253">
        <ele>1324.2</ele>
        <time>2021-08-21T07:10:42.000Z</time>
      </trkpt>
      <trkpt lat="47.90435" lon="7.10253">
        <ele>1324</ele>
        <time>2021-08-21T07:10:43.000Z</time>
      </trkpt>
      <trkpt lat="47.9044" lon="7.10256">
        <ele>1323.2</ele>
        <time>2021-08-21T07:10:49.000Z</time>
      </trkpt>
      <trkpt lat="47.90441" lon="7.10281">
        <ele>1321.4</ele>
        <time>2021-08-21T07:11:03.000Z</time>
      </trkpt>
      <trkpt lat="47.90441" lon="7.10283">
        <ele>1321.4</ele>
        <time>2021-08-21T07:11:04.000Z</time>
      </trkpt>
      <trkpt lat="47.90441" lon="7.10285">
        <ele>1321.2</ele>
        <time>2021-08-21T07:11:05.000Z</time>
      </trkpt>
      <trkpt lat="47.90442" lon="7.10286">
        <ele>1321.2</ele>
        <time>2021-08-21T07:11:06.000Z</time>
      </trkpt>
      <trkpt lat="47.90443" lon="7.10289">
        <ele>1320</ele>
        <time>2021-08-21T07:11:23.000Z</time>
      </trkpt>
      <trkpt lat="47.90445" lon="7.1029">
        <ele>1320.2</ele>
        <time>2021-08-21T07:11:28.000Z</time>
      </trkpt>
      <trkpt lat="47.90447" lon="7.10291">
        <ele>1320.2</ele>
        <time>2021-08-21T07:11:29.000Z</time>
      </trkpt>
      <trkpt lat="47.90469" lon="7.10289">
        <ele>1318.6</ele>
        <time>2021-08-21T07:11:46.000Z</time>
      </trkpt>
      <trkpt lat="47.90486" lon="7.10308">
        <ele>1316.4</ele>
        <time>2021-08-21T07:12:02.000Z</time>
      </trkpt>
      <trkpt lat="47.90491" lon="7.10313">
        <ele>1315</ele>
        <time>2021-08-21T07:12:20.000Z</time>
      </trkpt>
      <trkpt lat="47.90493" lon="7.10312">
        <ele>1315</ele>
        <time>2021-08-21T07:12:22.000Z</time>
      </trkpt>
      <trkpt lat="47.90494" lon="7.10311">
        <ele>1315</ele>
        <time>2021-08-21T07:12:23.000Z</time>
      </trkpt>
      <trkpt lat="47.90495" lon="7.10309">
        <ele>1314.8</ele>
        <time>2021-08-21T07:12:24.000Z</time>
      </trkpt>
      <trkpt lat="47.90496" lon="7.10308">
        <ele>1314.8</ele>
        <time>2021-08-21T07:12:25.000Z</time>
      </trkpt>
      <trkpt lat="47.90497" lon="7.10307">
        <ele>1314.6</ele>
        <time>2021-08-21T07:12:26.000Z</time>
      </trkpt>
      <trkpt lat="47.90497" lon="7.10306">
        <ele>1314.6</ele>
        <time>2021-08-21T07:12:27.000Z</time>
      </trkpt>
      <trkpt lat="47.90498" lon="7.10305">
        <ele>1314.4</ele>
        <time>2021-08-21T07:12:28.000Z</time>
      </trkpt>
      <trkpt lat="47.905" lon="7.10304">
        <ele>1314.2</ele>
        <time>2021-08-21T07:12:29.000Z</time>
      </trkpt>
      <trkpt lat="47.90501" lon="7.10303">
        <ele>1314</ele>
        <time>2021-08-21T07:12:30.000Z</time>
      </trkpt>
      <trkpt lat="47.90502" lon="7.10302">
        <ele>1313.8</ele>
        <time>2021-08-21T07:12:31.000Z</time>
      </trkpt>
      <trkpt lat="47.90504" lon="7.10301">
        <ele>1313.8</ele>
        <time>2021-08-21T07:12:32.000Z</time>
      </trkpt>
      <trkpt lat="47.90521" lon="7.10302">
        <ele>1312.2</ele>
        <time>2021-08-21T07:12:44.000Z</time>
      </trkpt>
      <trkpt lat="47.90522" lon="7.10303">
        <ele>1312.2</ele>
        <time>2021-08-21T07:12:45.000Z</time>
      </trkpt>
      <trkpt lat="47.90524" lon="7.10303">
        <ele>1312</ele>
        <time>2021-08-21T07:12:46.000Z</time>
      </trkpt>
      <trkpt lat="47.90536" lon="7.10322">
        <ele>1310.4</ele>
        <time>2021-08-21T07:13:00.000Z</time>
      </trkpt>
      <trkpt lat="47.90552" lon="7.10344">
        <ele>1308.2</ele>
        <time>2021-08-21T07:13:15.000Z</time>
      </trkpt>
      <trkpt lat="47.90574" lon="7.10361">
        <ele>1306.6</ele>
        <time>2021-08-21T07:13:32.000Z</time>
      </trkpt>
      <trkpt lat="47.90588" lon="7.10383">
        <ele>1304.4</ele>
        <time>2021-08-21T07:13:47.000Z</time>
      </trkpt>
      <trkpt lat="47.90599" lon="7.1039">
        <ele>1303.4</ele>
        <time>2021-08-21T07:13:56.000Z</time>
      </trkpt>
      <trkpt lat="47.90604" lon="7.10392">
        <ele>1303.2</ele>
        <time>2021-08-21T07:13:59.000Z</time>
      </trkpt>
      <trkpt lat="47.90625" lon="7.10406">
        <ele>1301.4</ele>
        <time>2021-08-21T07:14:15.000Z</time>
      </trkpt>
      <trkpt lat="47.90644" lon="7.10419">
        <ele>1299.8</ele>
        <time>2021-08-21T07:14:30.000Z</time>
      </trkpt>
      <trkpt lat="47.90648" lon="7.10421">
        <ele>1299.6</ele>
        <time>2021-08-21T07:14:33.000Z</time>
      </trkpt>
      <trkpt lat="47.90674" lon="7.1043">
        <ele>1297.6</ele>
        <time>2021-08-21T07:14:53.000Z</time>
      </trkpt>
      <trkpt lat="47.90693" lon="7.10413">
        <ele>1297</ele>
        <time>2021-08-21T07:15:10.000Z</time>
      </trkpt>
      <trkpt lat="47.90694" lon="7.10411">
        <ele>1296.6</ele>
        <time>2021-08-21T07:15:27.000Z</time>
      </trkpt>
      <trkpt lat="47.90704" lon="7.10413">
        <ele>1296.4</ele>
        <time>2021-08-21T07:15:44.000Z</time>
      </trkpt>
      <trkpt lat="47.90705" lon="7.10413">
        <ele>1296.4</ele>
        <time>2021-08-21T07:15:45.000Z</time>
      </trkpt>
      <trkpt lat="47.90706" lon="7.10413">
        <ele>1296.2</ele>
        <time>2021-08-21T07:15:46.000Z</time>
      </trkpt>
      <trkpt lat="47.90707" lon="7.10413">
        <ele>1296.2</ele>
        <time>2021-08-21T07:15:47.000Z</time>
      </trkpt>
      <trkpt lat="47.90708" lon="7.10413">
        <ele>1296</ele>
        <time>2021-08-21T07:15:48.000Z</time>
      </trkpt>
      <trkpt lat="47.90709" lon="7.10413">
        <ele>1295.8</ele>
        <time>2021-08-21T07:15:49.000Z</time>
      </trkpt>
      <trkpt lat="47.90711" lon="7.10413">
        <ele>1295.4</ele>
        <time>2021-08-21T07:15:50.000Z</time>
      </trkpt>
      <trkpt lat="47.90724" lon="7.10419">
        <ele>1293.4</ele>
        <time>2021-08-21T07:16:03.000Z</time>
      </trkpt>
      <trkpt lat="47.90725" lon="7.1042">
        <ele>1293.4</ele>
        <time>2021-08-21T07:16:04.000Z</time>
      </trkpt>
      <trkpt lat="47.90728" lon="7.1042">
        <ele>1293.2</ele>
        <time>2021-08-21T07:16:07.000Z</time>
      </trkpt>
      <trkpt lat="47.90729" lon="7.1042">
        <ele>1293.2</ele>
        <time>2021-08-21T07:16:08.000Z</time>
      </trkpt>
      <trkpt lat="47.90739" lon="7.10427">
        <ele>1292.2</ele>
        <time>2021-08-21T07:16:18.000Z</time>
      </trkpt>
      <trkpt lat="47.90749" lon="7.10436">
        <ele>1291.6</ele>
        <time>2021-08-21T07:16:26.000Z</time>
      </trkpt>
      <trkpt lat="47.90762" lon="7.10447">
        <ele>1290.6</ele>
        <time>2021-08-21T07:16:36.000Z</time>
      </trkpt>
      <trkpt lat="47.90767" lon="7.10451">
        <ele>1289.6</ele>
        <time>2021-08-21T07:16:42.000Z</time>
      </trkpt>
      <trkpt lat="47.90772" lon="7.10452">
        <ele>1288.8</ele>
        <time>2021-08-21T07:16:46.000Z</time>
      </trkpt>
      <trkpt lat="47.90779" lon="7.10452">
        <ele>1288.2</ele>
        <time>2021-08-21T07:16:52.000Z</time>
      </trkpt>
      <trkpt lat="47.90784" lon="7.10453">
        <ele>1287.8</ele>
        <time>2021-08-21T07:16:55.000Z</time>
      </trkpt>
      <trkpt lat="47.90787" lon="7.10456">
        <ele>1287.6</ele>
        <time>2021-08-21T07:16:57.000Z</time>
      </trkpt>
      <trkpt lat="47.9079" lon="7.10458">
        <ele>1287.2</ele>
        <time>2021-08-21T07:16:59.000Z</time>
      </trkpt>
      <trkpt lat="47.90792" lon="7.10459">
        <ele>1287</ele>
        <time>2021-08-21T07:17:00.000Z</time>
      </trkpt>
      <trkpt lat="47.90793" lon="7.1046">
        <ele>1287</ele>
        <time>2021-08-21T07:17:01.000Z</time>
      </trkpt>
      <trkpt lat="47.90795" lon="7.1046">
        <ele>1286.8</ele>
        <time>2021-08-21T07:17:02.000Z</time>
      </trkpt>
      <trkpt lat="47.90798" lon="7.10462">
        <ele>1286.6</ele>
        <time>2021-08-21T07:17:04.000Z</time>
      </trkpt>
      <trkpt lat="47.90803" lon="7.10464">
        <ele>1286.2</ele>
        <time>2021-08-21T07:17:08.000Z</time>
      </trkpt>
      <trkpt lat="47.90805" lon="7.10464">
        <ele>1286.2</ele>
        <time>2021-08-21T07:17:09.000Z</time>
      </trkpt>
      <trkpt lat="47.90807" lon="7.10465">
        <ele>1286.2</ele>
        <time>2021-08-21T07:17:10.000Z</time>
      </trkpt>
      <trkpt lat="47.90808" lon="7.10465">
        <ele>1286</ele>
        <time>2021-08-21T07:17:11.000Z</time>
      </trkpt>
      <trkpt lat="47.9081" lon="7.10465">
        <ele>1285.8</ele>
        <time>2021-08-21T07:17:12.000Z</time>
      </trkpt>
      <trkpt lat="47.90812" lon="7.10466">
        <ele>1285.8</ele>
        <time>2021-08-21T07:17:13.000Z</time>
      </trkpt>
      <trkpt lat="47.90813" lon="7.10467">
        <ele>1285.8</ele>
        <time>2021-08-21T07:17:14.000Z</time>
      </trkpt>
      <trkpt lat="47.90815" lon="7.10468">
        <ele>1285.6</ele>
        <time>2021-08-21T07:17:15.000Z</time>
      </trkpt>
      <trkpt lat="47.90827" lon="7.1047">
        <ele>1284.6</ele>
        <time>2021-08-21T07:17:25.000Z</time>
      </trkpt>
      <trkpt lat="47.90836" lon="7.10471">
        <ele>1283.8</ele>
        <time>2021-08-21T07:17:31.000Z</time>
      </trkpt>
      <trkpt lat="47.90837" lon="7.10472">
        <ele>1283.6</ele>
        <time>2021-08-21T07:17:32.000Z</time>
      </trkpt>
      <trkpt lat="47.90839" lon="7.10473">
        <ele>1283.4</ele>
        <time>2021-08-21T07:17:33.000Z</time>
      </trkpt>
      <trkpt lat="47.90863" lon="7.10481">
        <ele>1282.6</ele>
        <time>2021-08-21T07:17:47.000Z</time>
      </trkpt>
      <trkpt lat="47.90877" lon="7.10486">
        <ele>1281.6</ele>
        <time>2021-08-21T07:17:59.000Z</time>
      </trkpt>
      <trkpt lat="47.90885" lon="7.1049">
        <ele>1280.8</ele>
        <time>2021-08-21T07:18:04.000Z</time>
      </trkpt>
      <trkpt lat="47.90889" lon="7.10492">
        <ele>1280.6</ele>
        <time>2021-08-21T07:18:07.000Z</time>
      </trkpt>
      <trkpt lat="47.9091" lon="7.10493">
        <ele>1278.8</ele>
        <time>2021-08-21T07:18:23.000Z</time>
      </trkpt>
      <trkpt lat="47.9093" lon="7.10491">
        <ele>1275.8</ele>
        <time>2021-08-21T07:18:39.000Z</time>
      </trkpt>
      <trkpt lat="47.90946" lon="7.10489">
        <ele>1272.6</ele>
        <time>2021-08-21T07:18:52.000Z</time>
      </trkpt>
      <trkpt lat="47.90952" lon="7.10489">
        <ele>1271.2</ele>
        <time>2021-08-21T07:19:10.000Z</time>
      </trkpt>
      <trkpt lat="47.90957" lon="7.1049">
        <ele>1270.6</ele>
        <time>2021-08-21T07:19:19.000Z</time>
      </trkpt>
      <trkpt lat="47.90959" lon="7.1049">
        <ele>1270.4</ele>
        <time>2021-08-21T07:19:21.000Z</time>
      </trkpt>
      <trkpt lat="47.9098" lon="7.10487">
        <ele>1267.2</ele>
        <time>2021-08-21T07:19:37.000Z</time>
      </trkpt>
      <trkpt lat="47.90982" lon="7.10487">
        <ele>1266.8</ele>
        <time>2021-08-21T07:19:39.000Z</time>
      </trkpt>
      <trkpt lat="47.90984" lon="7.10485">
        <ele>1265.4</ele>
        <time>2021-08-21T07:19:54.000Z</time>
      </trkpt>
      <trkpt lat="47.90985" lon="7.10486">
        <ele>1264.6</ele>
        <time>2021-08-21T07:20:25.000Z</time>
      </trkpt>
      <trkpt lat="47.90984" lon="7.10487">
        <ele>1264.4</ele>
        <time>2021-08-21T07:21:00.000Z</time>
      </trkpt>
      <trkpt lat="47.90985" lon="7.10486">
        <ele>1264.4</ele>
        <time>2021-08-21T07:21:35.000Z</time>
      </trkpt>
      <trkpt lat="47.90984" lon="7.10487">
        <ele>1264.4</ele>
        <time>2021-08-21T07:22:05.000Z</time>
      </trkpt>
      <trkpt lat="47.90985" lon="7.10484">
        <ele>1264.4</ele>
        <time>2021-08-21T07:22:37.000Z</time>
      </trkpt>
      <trkpt lat="47.90987" lon="7.10484">
        <ele>1264.4</ele>
        <time>2021-08-21T07:23:11.000Z</time>
      </trkpt>
      <trkpt lat="47.90984" lon="7.10484">
        <ele>1264.4</ele>
        <time>2021-08-21T07:23:46.000Z</time>
      </trkpt>
      <trkpt lat="47.90985" lon="7.10487">
        <ele>1264.4</ele>
        <time>2021-08-21T07:24:15.000Z</time>
      </trkpt>
      <trkpt lat="47.90983" lon="7.10483">
        <ele>1264.4</ele>
        <time>2021-08-21T07:24:42.000Z</time>
      </trkpt>
      <trkpt lat="47.91123" lon="7.1052">
        <ele>1241.6</ele>
        <time>2021-08-21T07:28:45.000Z</time>
      </trkpt>
      <trkpt lat="47.91126" lon="7.10523">
        <ele>1241.6</ele>
        <time>2021-08-21T07:29:02.000Z</time>
      </trkpt>
      <trkpt lat="47.91127" lon="7.10523">
        <ele>1241.6</ele>
        <time>2021-08-21T07:29:03.000Z</time>
      </trkpt>
      <trkpt lat="47.91131" lon="7.10524">
        <ele>1241.6</ele>
        <time>2021-08-21T07:29:06.000Z</time>
      </trkpt>
      <trkpt lat="47.91132" lon="7.10524">
        <ele>1241.4</ele>
        <time>2021-08-21T07:29:07.000Z</time>
      </trkpt>
      <trkpt lat="47.91133" lon="7.10525">
        <ele>1241.2</ele>
        <time>2021-08-21T07:29:08.000Z</time>
      </trkpt>
      <trkpt lat="47.91134" lon="7.10525">
        <ele>1240.8</ele>
        <time>2021-08-21T07:29:09.000Z</time>
      </trkpt>
      <trkpt lat="47.91135" lon="7.10525">
        <ele>1240.4</ele>
        <time>2021-08-21T07:29:10.000Z</time>
      </trkpt>
      <trkpt lat="47.91136" lon="7.10526">
        <ele>1240.2</ele>
        <time>2021-08-21T07:29:11.000Z</time>
      </trkpt>
      <trkpt lat="47.91137" lon="7.10527">
        <ele>1240</ele>
        <time>2021-08-21T07:29:12.000Z</time>
      </trkpt>
      <trkpt lat="47.91138" lon="7.10529">
        <ele>1239.8</ele>
        <time>2021-08-21T07:29:13.000Z</time>
      </trkpt>
      <trkpt lat="47.91153" lon="7.10542">
        <ele>1236.6</ele>
        <time>2021-08-21T07:29:27.000Z</time>
      </trkpt>
      <trkpt lat="47.91169" lon="7.10555">
        <ele>1233.6</ele>
        <time>2021-08-21T07:29:42.000Z</time>
      </trkpt>
      <trkpt lat="47.91177" lon="7.10576">
        <ele>1231.6</ele>
        <time>2021-08-21T07:29:54.000Z</time>
      </trkpt>
      <trkpt lat="47.91176" lon="7.10584">
        <ele>1230.8</ele>
        <time>2021-08-21T07:29:58.000Z</time>
      </trkpt>
      <trkpt lat="47.91176" lon="7.10586">
        <ele>1230.8</ele>
        <time>2021-08-21T07:29:59.000Z</time>
      </trkpt>
      <trkpt lat="47.91172" lon="7.10616">
        <ele>1227.6</ele>
        <time>2021-08-21T07:30:14.000Z</time>
      </trkpt>
      <trkpt lat="47.91172" lon="7.10618">
        <ele>1227.6</ele>
        <time>2021-08-21T07:30:15.000Z</time>
      </trkpt>
      <trkpt lat="47.91172" lon="7.10619">
        <ele>1227.4</ele>
        <time>2021-08-21T07:30:16.000Z</time>
      </trkpt>
      <trkpt lat="47.91172" lon="7.10621">
        <ele>1227</ele>
        <time>2021-08-21T07:30:17.000Z</time>
      </trkpt>
      <trkpt lat="47.91166" lon="7.10649">
        <ele>1224</ele>
        <time>2021-08-21T07:30:30.000Z</time>
      </trkpt>
      <trkpt lat="47.91159" lon="7.10667">
        <ele>1222</ele>
        <time>2021-08-21T07:30:40.000Z</time>
      </trkpt>
      <trkpt lat="47.91159" lon="7.10669">
        <ele>1222</ele>
        <time>2021-08-21T07:30:41.000Z</time>
      </trkpt>
      <trkpt lat="47.91159" lon="7.10671">
        <ele>1221.8</ele>
        <time>2021-08-21T07:30:42.000Z</time>
      </trkpt>
      <trkpt lat="47.91159" lon="7.10672">
        <ele>1221.6</ele>
        <time>2021-08-21T07:30:43.000Z</time>
      </trkpt>
      <trkpt lat="47.91149" lon="7.10703">
        <ele>1218.8</ele>
        <time>2021-08-21T07:31:00.000Z</time>
      </trkpt>
      <trkpt lat="47.91147" lon="7.10704">
        <ele>1218.8</ele>
        <time>2021-08-21T07:31:01.000Z</time>
      </trkpt>
      <trkpt lat="47.91146" lon="7.10705">
        <ele>1218.6</ele>
        <time>2021-08-21T07:31:02.000Z</time>
      </trkpt>
      <trkpt lat="47.91142" lon="7.10712">
        <ele>1217.8</ele>
        <time>2021-08-21T07:31:07.000Z</time>
      </trkpt>
      <trkpt lat="47.91141" lon="7.10714">
        <ele>1217.6</ele>
        <time>2021-08-21T07:31:08.000Z</time>
      </trkpt>
      <trkpt lat="47.9114" lon="7.10718">
        <ele>1217.2</ele>
        <time>2021-08-21T07:31:10.000Z</time>
      </trkpt>
      <trkpt lat="47.91139" lon="7.1072">
        <ele>1217</ele>
        <time>2021-08-21T07:31:11.000Z</time>
      </trkpt>
      <trkpt lat="47.91138" lon="7.10721">
        <ele>1216.8</ele>
        <time>2021-08-21T07:31:12.000Z</time>
      </trkpt>
      <trkpt lat="47.91137" lon="7.10723">
        <ele>1216.8</ele>
        <time>2021-08-21T07:31:13.000Z</time>
      </trkpt>
      <trkpt lat="47.91137" lon="7.10726">
        <ele>1216.6</ele>
        <time>2021-08-21T07:31:14.000Z</time>
      </trkpt>
      <trkpt lat="47.91127" lon="7.10761">
        <ele>1213.8</ele>
        <time>2021-08-21T07:31:30.000Z</time>
      </trkpt>
      <trkpt lat="47.91126" lon="7.10765">
        <ele>1213.6</ele>
        <time>2021-08-21T07:31:32.000Z</time>
      </trkpt>
      <trkpt lat="47.91126" lon="7.10767">
        <ele>1213.4</ele>
        <time>2021-08-21T07:31:33.000Z</time>
      </trkpt>
      <trkpt lat="47.91123" lon="7.10778">
        <ele>1212.6</ele>
        <time>2021-08-21T07:31:39.000Z</time>
      </trkpt>
      <trkpt lat="47.91123" lon="7.1078">
        <ele>1212.4</ele>
        <time>2021-08-21T07:31:40.000Z</time>
      </trkpt>
      <trkpt lat="47.91124" lon="7.10782">
        <ele>1212.2</ele>
        <time>2021-08-21T07:31:41.000Z</time>
      </trkpt>
      <trkpt lat="47.91123" lon="7.10784">
        <ele>1212.2</ele>
        <time>2021-08-21T07:31:42.000Z</time>
      </trkpt>
      <trkpt lat="47.91123" lon="7.10787">
        <ele>1211.8</ele>
        <time>2021-08-21T07:31:44.000Z</time>
      </trkpt>
      <trkpt lat="47.91121" lon="7.10793">
        <ele>1211.4</ele>
        <time>2021-08-21T07:31:47.000Z</time>
      </trkpt>
      <trkpt lat="47.9112" lon="7.10795">
        <ele>1211.2</ele>
        <time>2021-08-21T07:31:48.000Z</time>
      </trkpt>
      <trkpt lat="47.9112" lon="7.10798">
        <ele>1211</ele>
        <time>2021-08-21T07:31:49.000Z</time>
      </trkpt>
      <trkpt lat="47.91118" lon="7.10801">
        <ele>1210.8</ele>
        <time>2021-08-21T07:31:51.000Z</time>
      </trkpt>
      <trkpt lat="47.91114" lon="7.1081">
        <ele>1210.2</ele>
        <time>2021-08-21T07:31:55.000Z</time>
      </trkpt>
      <trkpt lat="47.91111" lon="7.1082">
        <ele>1209.6</ele>
        <time>2021-08-21T07:31:59.000Z</time>
      </trkpt>
      <trkpt lat="47.9111" lon="7.10826">
        <ele>1209.2</ele>
        <time>2021-08-21T07:32:02.000Z</time>
      </trkpt>
      <trkpt lat="47.9111" lon="7.10828">
        <ele>1209</ele>
        <time>2021-08-21T07:32:03.000Z</time>
      </trkpt>
      <trkpt lat="47.91109" lon="7.1083">
        <ele>1209</ele>
        <time>2021-08-21T07:32:04.000Z</time>
      </trkpt>
      <trkpt lat="47.91109" lon="7.10832">
        <ele>1208.8</ele>
        <time>2021-08-21T07:32:05.000Z</time>
      </trkpt>
      <trkpt lat="47.91109" lon="7.10836">
        <ele>1208.6</ele>
        <time>2021-08-21T07:32:07.000Z</time>
      </trkpt>
      <trkpt lat="47.91108" lon="7.10838">
        <ele>1208.4</ele>
        <time>2021-08-21T07:32:08.000Z</time>
      </trkpt>
      <trkpt lat="47.91107" lon="7.10839">
        <ele>1208.4</ele>
        <time>2021-08-21T07:32:09.000Z</time>
      </trkpt>
      <trkpt lat="47.91107" lon="7.10842">
        <ele>1208</ele>
        <time>2021-08-21T07:32:11.000Z</time>
      </trkpt>
      <trkpt lat="47.91106" lon="7.10844">
        <ele>1207.8</ele>
        <time>2021-08-21T07:32:12.000Z</time>
      </trkpt>
      <trkpt lat="47.91104" lon="7.10851">
        <ele>1207.4</ele>
        <time>2021-08-21T07:32:16.000Z</time>
      </trkpt>
      <trkpt lat="47.91104" lon="7.10853">
        <ele>1207.2</ele>
        <time>2021-08-21T07:32:17.000Z</time>
      </trkpt>
      <trkpt lat="47.91103" lon="7.10854">
        <ele>1207</ele>
        <time>2021-08-21T07:32:18.000Z</time>
      </trkpt>
      <trkpt lat="47.91103" lon="7.10856">
        <ele>1207</ele>
        <time>2021-08-21T07:32:19.000Z</time>
      </trkpt>
      <trkpt lat="47.91103" lon="7.10858">
        <ele>1206.8</ele>
        <time>2021-08-21T07:32:20.000Z</time>
      </trkpt>
      <trkpt lat="47.91102" lon="7.10866">
        <ele>1206.4</ele>
        <time>2021-08-21T07:32:24.000Z</time>
      </trkpt>
      <trkpt lat="47.91101" lon="7.10868">
        <ele>1206.4</ele>
        <time>2021-08-21T07:32:25.000Z</time>
      </trkpt>
      <trkpt lat="47.91101" lon="7.1087">
        <ele>1206.2</ele>
        <time>2021-08-21T07:32:26.000Z</time>
      </trkpt>
      <trkpt lat="47.911" lon="7.10871">
        <ele>1206.2</ele>
        <time>2021-08-21T07:32:27.000Z</time>
      </trkpt>
      <trkpt lat="47.91098" lon="7.10877">
        <ele>1205.8</ele>
        <time>2021-08-21T07:32:30.000Z</time>
      </trkpt>
      <trkpt lat="47.91098" lon="7.10879">
        <ele>1205.6</ele>
        <time>2021-08-21T07:32:31.000Z</time>
      </trkpt>
      <trkpt lat="47.91097" lon="7.10889">
        <ele>1205</ele>
        <time>2021-08-21T07:32:36.000Z</time>
      </trkpt>
      <trkpt lat="47.91097" lon="7.10891">
        <ele>1205</ele>
        <time>2021-08-21T07:32:37.000Z</time>
      </trkpt>
      <trkpt lat="47.91097" lon="7.10893">
        <ele>1204.8</ele>
        <time>2021-08-21T07:32:38.000Z</time>
      </trkpt>
      <trkpt lat="47.91096" lon="7.10896">
        <ele>1204.8</ele>
        <time>2021-08-21T07:32:39.000Z</time>
      </trkpt>
      <trkpt lat="47.91096" lon="7.10898">
        <ele>1204.8</ele>
        <time>2021-08-21T07:32:40.000Z</time>
      </trkpt>
      <trkpt lat="47.91093" lon="7.10906">
        <ele>1204.6</ele>
        <time>2021-08-21T07:32:44.000Z</time>
      </trkpt>
      <trkpt lat="47.91092" lon="7.10908">
        <ele>1204.4</ele>
        <time>2021-08-21T07:32:45.000Z</time>
      </trkpt>
      <trkpt lat="47.91091" lon="7.10912">
        <ele>1204.4</ele>
        <time>2021-08-21T07:32:47.000Z</time>
      </trkpt>
      <trkpt lat="47.91091" lon="7.10941">
        <ele>1202.6</ele>
        <time>2021-08-21T07:33:04.000Z</time>
      </trkpt>
      <trkpt lat="47.91093" lon="7.10961">
        <ele>1201</ele>
        <time>2021-08-21T07:33:15.000Z</time>
      </trkpt>
      <trkpt lat="47.91094" lon="7.10988">
        <ele>1199.2</ele>
        <time>2021-08-21T07:33:30.000Z</time>
      </trkpt>
      <trkpt lat="47.91091" lon="7.11027">
        <ele>1197</ele>
        <time>2021-08-21T07:33:46.000Z</time>
      </trkpt>
      <trkpt lat="47.91095" lon="7.11064">
        <ele>1194.8</ele>
        <time>2021-08-21T07:34:03.000Z</time>
      </trkpt>
      <trkpt lat="47.91095" lon="7.111">
        <ele>1192.2</ele>
        <time>2021-08-21T07:34:20.000Z</time>
      </trkpt>
      <trkpt lat="47.91098" lon="7.11123">
        <ele>1190.4</ele>
        <time>2021-08-21T07:34:31.000Z</time>
      </trkpt>
      <trkpt lat="47.911" lon="7.11141">
        <ele>1189.2</ele>
        <time>2021-08-21T07:34:41.000Z</time>
      </trkpt>
      <trkpt lat="47.91096" lon="7.11164">
        <ele>1187.8</ele>
        <time>2021-08-21T07:34:53.000Z</time>
      </trkpt>
      <trkpt lat="47.91099" lon="7.11183">
        <ele>1186.2</ele>
        <time>2021-08-21T07:35:04.000Z</time>
      </trkpt>
      <trkpt lat="47.91099" lon="7.1119">
        <ele>1186</ele>
        <time>2021-08-21T07:35:07.000Z</time>
      </trkpt>
      <trkpt lat="47.91101" lon="7.11201">
        <ele>1185.4</ele>
        <time>2021-08-21T07:35:12.000Z</time>
      </trkpt>
      <trkpt lat="47.91102" lon="7.11203">
        <ele>1185.4</ele>
        <time>2021-08-21T07:35:13.000Z</time>
      </trkpt>
      <trkpt lat="47.91106" lon="7.11209">
        <ele>1184.8</ele>
        <time>2021-08-21T07:35:17.000Z</time>
      </trkpt>
      <trkpt lat="47.91107" lon="7.11211">
        <ele>1184.6</ele>
        <time>2021-08-21T07:35:18.000Z</time>
      </trkpt>
      <trkpt lat="47.91109" lon="7.11214">
        <ele>1184.4</ele>
        <time>2021-08-21T07:35:20.000Z</time>
      </trkpt>
      <trkpt lat="47.9111" lon="7.11216">
        <ele>1184.2</ele>
        <time>2021-08-21T07:35:21.000Z</time>
      </trkpt>
      <trkpt lat="47.91115" lon="7.11233">
        <ele>1183</ele>
        <time>2021-08-21T07:35:29.000Z</time>
      </trkpt>
      <trkpt lat="47.9112" lon="7.11242">
        <ele>1182.4</ele>
        <time>2021-08-21T07:35:34.000Z</time>
      </trkpt>
      <trkpt lat="47.91127" lon="7.1126">
        <ele>1181.4</ele>
        <time>2021-08-21T07:35:44.000Z</time>
      </trkpt>
      <trkpt lat="47.91138" lon="7.11271">
        <ele>1180.4</ele>
        <time>2021-08-21T07:35:53.000Z</time>
      </trkpt>
      <trkpt lat="47.91141" lon="7.11273">
        <ele>1180.2</ele>
        <time>2021-08-21T07:35:56.000Z</time>
      </trkpt>
      <trkpt lat="47.91142" lon="7.11275">
        <ele>1180.2</ele>
        <time>2021-08-21T07:35:57.000Z</time>
      </trkpt>
      <trkpt lat="47.91147" lon="7.11281">
        <ele>1179.4</ele>
        <time>2021-08-21T07:36:03.000Z</time>
      </trkpt>
      <trkpt lat="47.91149" lon="7.11283">
        <ele>1179.4</ele>
        <time>2021-08-21T07:36:04.000Z</time>
      </trkpt>
      <trkpt lat="47.9115" lon="7.11285">
        <ele>1179.2</ele>
        <time>2021-08-21T07:36:05.000Z</time>
      </trkpt>
      <trkpt lat="47.91151" lon="7.11287">
        <ele>1179</ele>
        <time>2021-08-21T07:36:06.000Z</time>
      </trkpt>
      <trkpt lat="47.91154" lon="7.11293">
        <ele>1178.4</ele>
        <time>2021-08-21T07:36:10.000Z</time>
      </trkpt>
      <trkpt lat="47.91166" lon="7.11303">
        <ele>1177</ele>
        <time>2021-08-21T07:36:20.000Z</time>
      </trkpt>
      <trkpt lat="47.91172" lon="7.11307">
        <ele>1176.6</ele>
        <time>2021-08-21T07:36:24.000Z</time>
      </trkpt>
      <trkpt lat="47.91174" lon="7.11307">
        <ele>1176.4</ele>
        <time>2021-08-21T07:36:25.000Z</time>
      </trkpt>
      <trkpt lat="47.91185" lon="7.11317">
        <ele>1174.8</ele>
        <time>2021-08-21T07:36:34.000Z</time>
      </trkpt>
      <trkpt lat="47.91195" lon="7.1133">
        <ele>1173.4</ele>
        <time>2021-08-21T07:36:46.000Z</time>
      </trkpt>
      <trkpt lat="47.91201" lon="7.11336">
        <ele>1172.6</ele>
        <time>2021-08-21T07:36:52.000Z</time>
      </trkpt>
      <trkpt lat="47.91203" lon="7.11337">
        <ele>1172.4</ele>
        <time>2021-08-21T07:36:54.000Z</time>
      </trkpt>
      <trkpt lat="47.91205" lon="7.11338">
        <ele>1172.4</ele>
        <time>2021-08-21T07:36:55.000Z</time>
      </trkpt>
      <trkpt lat="47.91206" lon="7.11339">
        <ele>1172.2</ele>
        <time>2021-08-21T07:36:56.000Z</time>
      </trkpt>
      <trkpt lat="47.91208" lon="7.1134">
        <ele>1172</ele>
        <time>2021-08-21T07:36:57.000Z</time>
      </trkpt>
      <trkpt lat="47.91216" lon="7.11345">
        <ele>1170.6</ele>
        <time>2021-08-21T07:37:03.000Z</time>
      </trkpt>
      <trkpt lat="47.91222" lon="7.1135">
        <ele>1169.8</ele>
        <time>2021-08-21T07:37:08.000Z</time>
      </trkpt>
      <trkpt lat="47.91228" lon="7.11357">
        <ele>1169</ele>
        <time>2021-08-21T07:37:14.000Z</time>
      </trkpt>
      <trkpt lat="47.91237" lon="7.11366">
        <ele>1167</ele>
        <time>2021-08-21T07:37:24.000Z</time>
      </trkpt>
      <trkpt lat="47.91239" lon="7.11367">
        <ele>1166.6</ele>
        <time>2021-08-21T07:37:26.000Z</time>
      </trkpt>
      <trkpt lat="47.91244" lon="7.11372">
        <ele>1166</ele>
        <time>2021-08-21T07:37:30.000Z</time>
      </trkpt>
      <trkpt lat="47.91259" lon="7.11382">
        <ele>1163.8</ele>
        <time>2021-08-21T07:37:43.000Z</time>
      </trkpt>
      <trkpt lat="47.91269" lon="7.11391">
        <ele>1161.6</ele>
        <time>2021-08-21T07:37:56.000Z</time>
      </trkpt>
      <trkpt lat="47.91271" lon="7.11394">
        <ele>1161</ele>
        <time>2021-08-21T07:37:59.000Z</time>
      </trkpt>
      <trkpt lat="47.91278" lon="7.11403">
        <ele>1159.8</ele>
        <time>2021-08-21T07:38:06.000Z</time>
      </trkpt>
      <trkpt lat="47.91279" lon="7.11404">
        <ele>1159.6</ele>
        <time>2021-08-21T07:38:07.000Z</time>
      </trkpt>
      <trkpt lat="47.91285" lon="7.11409">
        <ele>1159</ele>
        <time>2021-08-21T07:38:11.000Z</time>
      </trkpt>
      <trkpt lat="47.91302" lon="7.11422">
        <ele>1156.4</ele>
        <time>2021-08-21T07:38:26.000Z</time>
      </trkpt>
      <trkpt lat="47.91318" lon="7.11439">
        <ele>1154</ele>
        <time>2021-08-21T07:38:40.000Z</time>
      </trkpt>
      <trkpt lat="47.91319" lon="7.11439">
        <ele>1153.8</ele>
        <time>2021-08-21T07:38:41.000Z</time>
      </trkpt>
      <trkpt lat="47.91328" lon="7.11444">
        <ele>1152.8</ele>
        <time>2021-08-21T07:38:47.000Z</time>
      </trkpt>
      <trkpt lat="47.91342" lon="7.11456">
        <ele>1150.8</ele>
        <time>2021-08-21T07:38:57.000Z</time>
      </trkpt>
      <trkpt lat="47.91345" lon="7.11462">
        <ele>1150</ele>
        <time>2021-08-21T07:39:02.000Z</time>
      </trkpt>
      <trkpt lat="47.91352" lon="7.11478">
        <ele>1148.4</ele>
        <time>2021-08-21T07:39:12.000Z</time>
      </trkpt>
      <trkpt lat="47.91362" lon="7.11493">
        <ele>1146.2</ele>
        <time>2021-08-21T07:39:22.000Z</time>
      </trkpt>
      <trkpt lat="47.91364" lon="7.11499">
        <ele>1145.8</ele>
        <time>2021-08-21T07:39:26.000Z</time>
      </trkpt>
      <trkpt lat="47.91367" lon="7.11515">
        <ele>1144.4</ele>
        <time>2021-08-21T07:39:36.000Z</time>
      </trkpt>
      <trkpt lat="47.91369" lon="7.11524">
        <ele>1143.6</ele>
        <time>2021-08-21T07:39:41.000Z</time>
      </trkpt>
      <trkpt lat="47.91372" lon="7.11537">
        <ele>1142.2</ele>
        <time>2021-08-21T07:39:48.000Z</time>
      </trkpt>
      <trkpt lat="47.91375" lon="7.11565">
        <ele>1141</ele>
        <time>2021-08-21T07:40:01.000Z</time>
      </trkpt>
      <trkpt lat="47.91374" lon="7.11569">
        <ele>1140.8</ele>
        <time>2021-08-21T07:40:03.000Z</time>
      </trkpt>
      <trkpt lat="47.91374" lon="7.11571">
        <ele>1140.6</ele>
        <time>2021-08-21T07:40:04.000Z</time>
      </trkpt>
      <trkpt lat="47.91372" lon="7.11587">
        <ele>1139.4</ele>
        <time>2021-08-21T07:40:12.000Z</time>
      </trkpt>
      <trkpt lat="47.9137" lon="7.11593">
        <ele>1138.8</ele>
        <time>2021-08-21T07:40:15.000Z</time>
      </trkpt>
      <trkpt lat="47.91368" lon="7.11606">
        <ele>1137.8</ele>
        <time>2021-08-21T07:40:24.000Z</time>
      </trkpt>
      <trkpt lat="47.91368" lon="7.11609">
        <ele>1137.4</ele>
        <time>2021-08-21T07:40:26.000Z</time>
      </trkpt>
      <trkpt lat="47.91369" lon="7.11632">
        <ele>1135.2</ele>
        <time>2021-08-21T07:40:39.000Z</time>
      </trkpt>
      <trkpt lat="47.91369" lon="7.1165">
        <ele>1133.2</ele>
        <time>2021-08-21T07:40:48.000Z</time>
      </trkpt>
      <trkpt lat="47.91371" lon="7.11674">
        <ele>1130.8</ele>
        <time>2021-08-21T07:40:59.000Z</time>
      </trkpt>
      <trkpt lat="47.91376" lon="7.11694">
        <ele>1128.6</ele>
        <time>2021-08-21T07:41:09.000Z</time>
      </trkpt>
      <trkpt lat="47.91376" lon="7.117">
        <ele>1128</ele>
        <time>2021-08-21T07:41:13.000Z</time>
      </trkpt>
      <trkpt lat="47.91384" lon="7.11727">
        <ele>1125.6</ele>
        <time>2021-08-21T07:41:26.000Z</time>
      </trkpt>
      <trkpt lat="47.91389" lon="7.11743">
        <ele>1123.6</ele>
        <time>2021-08-21T07:41:35.000Z</time>
      </trkpt>
      <trkpt lat="47.9139" lon="7.11746">
        <ele>1122.8</ele>
        <time>2021-08-21T07:41:37.000Z</time>
      </trkpt>
      <trkpt lat="47.91391" lon="7.11747">
        <ele>1122.6</ele>
        <time>2021-08-21T07:41:38.000Z</time>
      </trkpt>
      <trkpt lat="47.91396" lon="7.11771">
        <ele>1120</ele>
        <time>2021-08-21T07:41:49.000Z</time>
      </trkpt>
      <trkpt lat="47.91406" lon="7.11792">
        <ele>1117</ele>
        <time>2021-08-21T07:42:04.000Z</time>
      </trkpt>
      <trkpt lat="47.91411" lon="7.11785">
        <ele>1113.6</ele>
        <time>2021-08-21T07:42:21.000Z</time>
      </trkpt>
      <trkpt lat="47.91414" lon="7.11783">
        <ele>1110.2</ele>
        <time>2021-08-21T07:42:30.000Z</time>
      </trkpt>
      <trkpt lat="47.91418" lon="7.11782">
        <ele>1108.2</ele>
        <time>2021-08-21T07:42:34.000Z</time>
      </trkpt>
      <trkpt lat="47.91424" lon="7.11784">
        <ele>1106.2</ele>
        <time>2021-08-21T07:42:39.000Z</time>
      </trkpt>
      <trkpt lat="47.9143" lon="7.1178">
        <ele>1105.2</ele>
        <time>2021-08-21T07:42:45.000Z</time>
      </trkpt>
      <trkpt lat="47.9143" lon="7.11762">
        <ele>1106</ele>
        <time>2021-08-21T07:43:09.000Z</time>
      </trkpt>
      <trkpt lat="47.91425" lon="7.11748">
        <ele>1106.6</ele>
        <time>2021-08-21T07:43:17.000Z</time>
      </trkpt>
      <trkpt lat="47.91421" lon="7.11733">
        <ele>1107.2</ele>
        <time>2021-08-21T07:43:25.000Z</time>
      </trkpt>
      <trkpt lat="47.91416" lon="7.11719">
        <ele>1108.4</ele>
        <time>2021-08-21T07:43:35.000Z</time>
      </trkpt>
      <trkpt lat="47.91414" lon="7.11713">
        <ele>1108.8</ele>
        <time>2021-08-21T07:43:38.000Z</time>
      </trkpt>
      <trkpt lat="47.91408" lon="7.1169">
        <ele>1112</ele>
        <time>2021-08-21T07:44:02.000Z</time>
      </trkpt>
      <trkpt lat="47.91405" lon="7.11684">
        <ele>1111.4</ele>
        <time>2021-08-21T07:44:10.000Z</time>
      </trkpt>
      <trkpt lat="47.91413" lon="7.1167">
        <ele>1108.2</ele>
        <time>2021-08-21T07:44:23.000Z</time>
      </trkpt>
      <trkpt lat="47.91424" lon="7.1166">
        <ele>1105</ele>
        <time>2021-08-21T07:44:36.000Z</time>
      </trkpt>
      <trkpt lat="47.91429" lon="7.11655">
        <ele>1103.8</ele>
        <time>2021-08-21T07:44:40.000Z</time>
      </trkpt>
      <trkpt lat="47.91437" lon="7.1164">
        <ele>1100.6</ele>
        <time>2021-08-21T07:44:51.000Z</time>
      </trkpt>
      <trkpt lat="47.91447" lon="7.1162">
        <ele>1097.8</ele>
        <time>2021-08-21T07:45:06.000Z</time>
      </trkpt>
      <trkpt lat="47.91448" lon="7.11619">
        <ele>1097.6</ele>
        <time>2021-08-21T07:45:07.000Z</time>
      </trkpt>
      <trkpt lat="47.91453" lon="7.11602">
        <ele>1096.2</ele>
        <time>2021-08-21T07:45:17.000Z</time>
      </trkpt>
      <trkpt lat="47.91454" lon="7.11593">
        <ele>1095.6</ele>
        <time>2021-08-21T07:45:22.000Z</time>
      </trkpt>
      <trkpt lat="47.91455" lon="7.11589">
        <ele>1095.2</ele>
        <time>2021-08-21T07:45:24.000Z</time>
      </trkpt>
      <trkpt lat="47.91456" lon="7.11586">
        <ele>1094.8</ele>
        <time>2021-08-21T07:45:26.000Z</time>
      </trkpt>
      <trkpt lat="47.9146" lon="7.11579">
        <ele>1094.4</ele>
        <time>2021-08-21T07:45:30.000Z</time>
      </trkpt>
      <trkpt lat="47.91462" lon="7.11574">
        <ele>1093.8</ele>
        <time>2021-08-21T07:45:33.000Z</time>
      </trkpt>
      <trkpt lat="47.91466" lon="7.11559">
        <ele>1091.2</ele>
        <time>2021-08-21T07:45:44.000Z</time>
      </trkpt>
      <trkpt lat="47.9147" lon="7.1154">
        <ele>1089.2</ele>
        <time>2021-08-21T07:45:55.000Z</time>
      </trkpt>
      <trkpt lat="47.91475" lon="7.11523">
        <ele>1087.6</ele>
        <time>2021-08-21T07:46:05.000Z</time>
      </trkpt>
      <trkpt lat="47.91479" lon="7.1151">
        <ele>1086.6</ele>
        <time>2021-08-21T07:46:15.000Z</time>
      </trkpt>
      <trkpt lat="47.9148" lon="7.11505">
        <ele>1086.2</ele>
        <time>2021-08-21T07:46:18.000Z</time>
      </trkpt>
      <trkpt lat="47.91484" lon="7.11482">
        <ele>1083.6</ele>
        <time>2021-08-21T07:46:31.000Z</time>
      </trkpt>
      <trkpt lat="47.91484" lon="7.1148">
        <ele>1083.4</ele>
        <time>2021-08-21T07:46:32.000Z</time>
      </trkpt>
      <trkpt lat="47.91484" lon="7.11477">
        <ele>1083</ele>
        <time>2021-08-21T07:46:34.000Z</time>
      </trkpt>
      <trkpt lat="47.91487" lon="7.11454">
        <ele>1081.2</ele>
        <time>2021-08-21T07:46:48.000Z</time>
      </trkpt>
      <trkpt lat="47.91489" lon="7.11442">
        <ele>1080.4</ele>
        <time>2021-08-21T07:46:54.000Z</time>
      </trkpt>
      <trkpt lat="47.9149" lon="7.11434">
        <ele>1079</ele>
        <time>2021-08-21T07:46:59.000Z</time>
      </trkpt>
      <trkpt lat="47.91493" lon="7.1143">
        <ele>1077.8</ele>
        <time>2021-08-21T07:47:02.000Z</time>
      </trkpt>
      <trkpt lat="47.91494" lon="7.11411">
        <ele>1074.4</ele>
        <time>2021-08-21T07:47:12.000Z</time>
      </trkpt>
      <trkpt lat="47.91494" lon="7.1141">
        <ele>1074.2</ele>
        <time>2021-08-21T07:47:13.000Z</time>
      </trkpt>
      <trkpt lat="47.91496" lon="7.11406">
        <ele>1072.4</ele>
        <time>2021-08-21T07:47:17.000Z</time>
      </trkpt>
      <trkpt lat="47.91497" lon="7.11405">
        <ele>1071.8</ele>
        <time>2021-08-21T07:47:18.000Z</time>
      </trkpt>
      <trkpt lat="47.91502" lon="7.11398">
        <ele>1068.6</ele>
        <time>2021-08-21T07:47:25.000Z</time>
      </trkpt>
      <trkpt lat="47.91509" lon="7.11395">
        <ele>1065.2</ele>
        <time>2021-08-21T07:47:31.000Z</time>
      </trkpt>
      <trkpt lat="47.9152" lon="7.11393">
        <ele>1062.2</ele>
        <time>2021-08-21T07:47:37.000Z</time>
      </trkpt>
      <trkpt lat="47.91524" lon="7.11393">
        <ele>1060.4</ele>
        <time>2021-08-21T07:47:41.000Z</time>
      </trkpt>
      <trkpt lat="47.91537" lon="7.11397">
        <ele>1057.4</ele>
        <time>2021-08-21T07:47:51.000Z</time>
      </trkpt>
      <trkpt lat="47.91549" lon="7.11396">
        <ele>1054.2</ele>
        <time>2021-08-21T07:48:00.000Z</time>
      </trkpt>
      <trkpt lat="47.91559" lon="7.11398">
        <ele>1051</ele>
        <time>2021-08-21T07:48:07.000Z</time>
      </trkpt>
      <trkpt lat="47.91562" lon="7.11399">
        <ele>1050</ele>
        <time>2021-08-21T07:48:09.000Z</time>
      </trkpt>
      <trkpt lat="47.91571" lon="7.11405">
        <ele>1046.4</ele>
        <time>2021-08-21T07:48:17.000Z</time>
      </trkpt>
      <trkpt lat="47.91582" lon="7.11411">
        <ele>1043.8</ele>
        <time>2021-08-21T07:48:26.000Z</time>
      </trkpt>
      <trkpt lat="47.91591" lon="7.11414">
        <ele>1042.8</ele>
        <time>2021-08-21T07:48:36.000Z</time>
      </trkpt>
      <trkpt lat="47.91592" lon="7.11416">
        <ele>1042.6</ele>
        <time>2021-08-21T07:48:37.000Z</time>
      </trkpt>
      <trkpt lat="47.91599" lon="7.1142">
        <ele>1040.8</ele>
        <time>2021-08-21T07:48:42.000Z</time>
      </trkpt>
      <trkpt lat="47.916" lon="7.11421">
        <ele>1040.4</ele>
        <time>2021-08-21T07:48:43.000Z</time>
      </trkpt>
      <trkpt lat="47.91601" lon="7.11422">
        <ele>1040.2</ele>
        <time>2021-08-21T07:48:44.000Z</time>
      </trkpt>
      <trkpt lat="47.91602" lon="7.11423">
        <ele>1039.8</ele>
        <time>2021-08-21T07:48:45.000Z</time>
      </trkpt>
      <trkpt lat="47.91605" lon="7.11426">
        <ele>1039</ele>
        <time>2021-08-21T07:48:47.000Z</time>
      </trkpt>
      <trkpt lat="47.91605" lon="7.11427">
        <ele>1038.4</ele>
        <time>2021-08-21T07:48:48.000Z</time>
      </trkpt>
      <trkpt lat="47.91606" lon="7.11428">
        <ele>1038</ele>
        <time>2021-08-21T07:48:49.000Z</time>
      </trkpt>
      <trkpt lat="47.91609" lon="7.11432">
        <ele>1036.4</ele>
        <time>2021-08-21T07:48:52.000Z</time>
      </trkpt>
      <trkpt lat="47.91614" lon="7.11438">
        <ele>1034.6</ele>
        <time>2021-08-21T07:48:56.000Z</time>
      </trkpt>
      <trkpt lat="47.91618" lon="7.11442">
        <ele>1033</ele>
        <time>2021-08-21T07:49:00.000Z</time>
      </trkpt>
      <trkpt lat="47.9162" lon="7.11443">
        <ele>1032.6</ele>
        <time>2021-08-21T07:49:01.000Z</time>
      </trkpt>
      <trkpt lat="47.91623" lon="7.11445">
        <ele>1032.2</ele>
        <time>2021-08-21T07:49:03.000Z</time>
      </trkpt>
      <trkpt lat="47.91624" lon="7.11446">
        <ele>1032</ele>
        <time>2021-08-21T07:49:04.000Z</time>
      </trkpt>
      <trkpt lat="47.91625" lon="7.11448">
        <ele>1031.6</ele>
        <time>2021-08-21T07:49:05.000Z</time>
      </trkpt>
      <trkpt lat="47.91626" lon="7.11452">
        <ele>1031.4</ele>
        <time>2021-08-21T07:49:07.000Z</time>
      </trkpt>
      <trkpt lat="47.91627" lon="7.11458">
        <ele>1030.8</ele>
        <time>2021-08-21T07:49:10.000Z</time>
      </trkpt>
      <trkpt lat="47.91636" lon="7.11477">
        <ele>1028.8</ele>
        <time>2021-08-21T07:49:22.000Z</time>
      </trkpt>
      <trkpt lat="47.91637" lon="7.11479">
        <ele>1028.6</ele>
        <time>2021-08-21T07:49:23.000Z</time>
      </trkpt>
      <trkpt lat="47.91638" lon="7.1148">
        <ele>1028.4</ele>
        <time>2021-08-21T07:49:24.000Z</time>
      </trkpt>
      <trkpt lat="47.91642" lon="7.11496">
        <ele>1027</ele>
        <time>2021-08-21T07:49:33.000Z</time>
      </trkpt>
      <trkpt lat="47.9164" lon="7.11513">
        <ele>1025.2</ele>
        <time>2021-08-21T07:49:43.000Z</time>
      </trkpt>
      <trkpt lat="47.91639" lon="7.11515">
        <ele>1025</ele>
        <time>2021-08-21T07:49:44.000Z</time>
      </trkpt>
      <trkpt lat="47.91638" lon="7.11517">
        <ele>1024.8</ele>
        <time>2021-08-21T07:49:45.000Z</time>
      </trkpt>
      <trkpt lat="47.91635" lon="7.11525">
        <ele>1024.2</ele>
        <time>2021-08-21T07:49:50.000Z</time>
      </trkpt>
      <trkpt lat="47.9164" lon="7.11527">
        <ele>1021.4</ele>
        <time>2021-08-21T07:50:07.000Z</time>
      </trkpt>
      <trkpt lat="47.91652" lon="7.11515">
        <ele>1018.6</ele>
        <time>2021-08-21T07:50:21.000Z</time>
      </trkpt>
      <trkpt lat="47.91666" lon="7.11505">
        <ele>1016</ele>
        <time>2021-08-21T07:50:37.000Z</time>
      </trkpt>
      <trkpt lat="47.91673" lon="7.11498">
        <ele>1013.8</ele>
        <time>2021-08-21T07:50:43.000Z</time>
      </trkpt>
      <trkpt lat="47.91695" lon="7.11469">
        <ele>1007.4</ele>
        <time>2021-08-21T07:51:07.000Z</time>
      </trkpt>
      <trkpt lat="47.91695" lon="7.11469">
        <ele>1007</ele>
        <time>2021-08-21T07:51:08.000Z</time>
      </trkpt>
      <trkpt lat="47.91723" lon="7.11489">
        <ele>999</ele>
        <time>2021-08-21T07:51:39.000Z</time>
      </trkpt>
      <trkpt lat="47.9173" lon="7.11497">
        <ele>996.4</ele>
        <time>2021-08-21T07:52:01.000Z</time>
      </trkpt>
      <trkpt lat="47.9174" lon="7.11488">
        <ele>994.2</ele>
        <time>2021-08-21T07:52:22.000Z</time>
      </trkpt>
      <trkpt lat="47.91747" lon="7.11479">
        <ele>991</ele>
        <time>2021-08-21T07:52:32.000Z</time>
      </trkpt>
      <trkpt lat="47.9175" lon="7.11465">
        <ele>988.2</ele>
        <time>2021-08-21T07:52:47.000Z</time>
      </trkpt>
      <trkpt lat="47.91753" lon="7.11448">
        <ele>984.8</ele>
        <time>2021-08-21T07:53:01.000Z</time>
      </trkpt>
      <trkpt lat="47.91761" lon="7.1145">
        <ele>982.6</ele>
        <time>2021-08-21T07:53:10.000Z</time>
      </trkpt>
      <trkpt lat="47.91768" lon="7.11466">
        <ele>982.4</ele>
        <time>2021-08-21T07:53:22.000Z</time>
      </trkpt>
      <trkpt lat="47.91766" lon="7.1148">
        <ele>982.2</ele>
        <time>2021-08-21T07:53:38.000Z</time>
      </trkpt>
      <trkpt lat="47.91766" lon="7.1147">
        <ele>982.4</ele>
        <time>2021-08-21T07:53:50.000Z</time>
      </trkpt>
      <trkpt lat="47.91762" lon="7.11455">
        <ele>982</ele>
        <time>2021-08-21T07:54:04.000Z</time>
      </trkpt>
      <trkpt lat="47.91758" lon="7.11442">
        <ele>982.2</ele>
        <time>2021-08-21T07:54:16.000Z</time>
      </trkpt>
      <trkpt lat="47.9176" lon="7.11436">
        <ele>983</ele>
        <time>2021-08-21T07:54:30.000Z</time>
      </trkpt>
      <trkpt lat="47.91763" lon="7.11438">
        <ele>982.8</ele>
        <time>2021-08-21T07:55:01.000Z</time>
      </trkpt>
      <trkpt lat="47.91765" lon="7.11438">
        <ele>982.6</ele>
        <time>2021-08-21T07:55:30.000Z</time>
      </trkpt>
      <trkpt lat="47.91767" lon="7.1144">
        <ele>982.6</ele>
        <time>2021-08-21T07:55:50.000Z</time>
      </trkpt>
      <trkpt lat="47.9177" lon="7.11438">
        <ele>982.6</ele>
        <time>2021-08-21T07:56:22.000Z</time>
      </trkpt>
      <trkpt lat="47.91765" lon="7.11444">
        <ele>982.6</ele>
        <time>2021-08-21T07:57:10.000Z</time>
      </trkpt>
      <trkpt lat="47.91772" lon="7.11447">
        <ele>982.6</ele>
        <time>2021-08-21T07:57:35.000Z</time>
      </trkpt>
      <trkpt lat="47.91774" lon="7.11447">
        <ele>982.6</ele>
        <time>2021-08-21T07:58:02.000Z</time>
      </trkpt>
      <trkpt lat="47.91772" lon="7.11444">
        <ele>982.6</ele>
        <time>2021-08-21T07:58:26.000Z</time>
      </trkpt>
      <trkpt lat="47.9177" lon="7.11446">
        <ele>982.6</ele>
        <time>2021-08-21T07:58:58.000Z</time>
      </trkpt>
      <trkpt lat="47.91768" lon="7.11441">
        <ele>982.2</ele>
        <time>2021-08-21T07:59:28.000Z</time>
      </trkpt>
      <trkpt lat="47.91768" lon="7.11442">
        <ele>982</ele>
        <time>2021-08-21T07:59:46.000Z</time>
      </trkpt>
      <trkpt lat="47.91771" lon="7.11437">
        <ele>979.2</ele>
        <time>2021-08-21T08:00:11.000Z</time>
      </trkpt>
      <trkpt lat="47.91769" lon="7.1143">
        <ele>976</ele>
        <time>2021-08-21T08:00:28.000Z</time>
      </trkpt>
      <trkpt lat="47.91771" lon="7.11414">
        <ele>973</ele>
        <time>2021-08-21T08:00:50.000Z</time>
      </trkpt>
      <trkpt lat="47.91779" lon="7.11398">
        <ele>969.8</ele>
        <time>2021-08-21T08:01:31.000Z</time>
      </trkpt>
      <trkpt lat="47.91785" lon="7.11403">
        <ele>967.4</ele>
        <time>2021-08-21T08:01:45.000Z</time>
      </trkpt>
      <trkpt lat="47.91809" lon="7.11409">
        <ele>963.6</ele>
        <time>2021-08-21T08:02:26.000Z</time>
      </trkpt>
      <trkpt lat="47.91806" lon="7.11415">
        <ele>960.4</ele>
        <time>2021-08-21T08:02:38.000Z</time>
      </trkpt>
      <trkpt lat="47.91829" lon="7.11425">
        <ele>954.6</ele>
        <time>2021-08-21T08:03:20.000Z</time>
      </trkpt>
      <trkpt lat="47.91836" lon="7.11424">
        <ele>951.8</ele>
        <time>2021-08-21T08:03:37.000Z</time>
      </trkpt>
      <trkpt lat="47.91838" lon="7.11424">
        <ele>950.8</ele>
        <time>2021-08-21T08:03:41.000Z</time>
      </trkpt>
      <trkpt lat="47.91843" lon="7.11425">
        <ele>947.6</ele>
        <time>2021-08-21T08:03:53.000Z</time>
      </trkpt>
      <trkpt lat="47.91845" lon="7.11426">
        <ele>947</ele>
        <time>2021-08-21T08:03:55.000Z</time>
      </trkpt>
      <trkpt lat="47.91849" lon="7.11431">
        <ele>945.4</ele>
        <time>2021-08-21T08:04:02.000Z</time>
      </trkpt>
      <trkpt lat="47.91863" lon="7.11427">
        <ele>942</ele>
        <time>2021-08-21T08:04:19.000Z</time>
      </trkpt>
      <trkpt lat="47.91864" lon="7.11427">
        <ele>941.8</ele>
        <time>2021-08-21T08:04:21.000Z</time>
      </trkpt>
      <trkpt lat="47.91871" lon="7.11423">
        <ele>938.4</ele>
        <time>2021-08-21T08:04:35.000Z</time>
      </trkpt>
      <trkpt lat="47.91879" lon="7.11426">
        <ele>935.4</ele>
        <time>2021-08-21T08:04:47.000Z</time>
      </trkpt>
      <trkpt lat="47.91879" lon="7.11431">
        <ele>932.4</ele>
        <time>2021-08-21T08:05:01.000Z</time>
      </trkpt>
      <trkpt lat="47.91878" lon="7.1144">
        <ele>929.2</ele>
        <time>2021-08-21T08:05:23.000Z</time>
      </trkpt>
      <trkpt lat="47.91885" lon="7.11436">
        <ele>926</ele>
        <time>2021-08-21T08:05:37.000Z</time>
      </trkpt>
      <trkpt lat="47.9189" lon="7.11439">
        <ele>923.6</ele>
        <time>2021-08-21T08:05:47.000Z</time>
      </trkpt>
      <trkpt lat="47.91895" lon="7.11441">
        <ele>920.6</ele>
        <time>2021-08-21T08:05:58.000Z</time>
      </trkpt>
      <trkpt lat="47.91894" lon="7.11443">
        <ele>920.4</ele>
        <time>2021-08-21T08:05:59.000Z</time>
      </trkpt>
      <trkpt lat="47.919" lon="7.1145">
        <ele>917.2</ele>
        <time>2021-08-21T08:06:16.000Z</time>
      </trkpt>
      <trkpt lat="47.91938" lon="7.11404">
        <ele>914.2</ele>
        <time>2021-08-21T08:07:04.000Z</time>
      </trkpt>
      <trkpt lat="47.91942" lon="7.11398">
        <ele>913.8</ele>
        <time>2021-08-21T08:07:08.000Z</time>
      </trkpt>
      <trkpt lat="47.91949" lon="7.11384">
        <ele>913.2</ele>
        <time>2021-08-21T08:07:18.000Z</time>
      </trkpt>
      <trkpt lat="47.91965" lon="7.11371">
        <ele>913.4</ele>
        <time>2021-08-21T08:07:35.000Z</time>
      </trkpt>
      <trkpt lat="47.91971" lon="7.11367">
        <ele>913</ele>
        <time>2021-08-21T08:07:41.000Z</time>
      </trkpt>
      <trkpt lat="47.91987" lon="7.11364">
        <ele>913</ele>
        <time>2021-08-21T08:08:00.000Z</time>
      </trkpt>
      <trkpt lat="47.91991" lon="7.11358">
        <ele>913.2</ele>
        <time>2021-08-21T08:08:23.000Z</time>
      </trkpt>
      <trkpt lat="47.91983" lon="7.11359">
        <ele>912.8</ele>
        <time>2021-08-21T08:08:29.000Z</time>
      </trkpt>
      <trkpt lat="47.91985" lon="7.1137">
        <ele>910</ele>
        <time>2021-08-21T08:08:41.000Z</time>
      </trkpt>
      <trkpt lat="47.91987" lon="7.11376">
        <ele>908.4</ele>
        <time>2021-08-21T08:08:48.000Z</time>
      </trkpt>
      <trkpt lat="47.91994" lon="7.11388">
        <ele>905.6</ele>
        <time>2021-08-21T08:08:57.000Z</time>
      </trkpt>
      <trkpt lat="47.92007" lon="7.11392">
        <ele>904</ele>
        <time>2021-08-21T08:09:07.000Z</time>
      </trkpt>
      <trkpt lat="47.92009" lon="7.11394">
        <ele>903.6</ele>
        <time>2021-08-21T08:09:09.000Z</time>
      </trkpt>
      <trkpt lat="47.9201" lon="7.11395">
        <ele>903.4</ele>
        <time>2021-08-21T08:09:10.000Z</time>
      </trkpt>
      <trkpt lat="47.92012" lon="7.11395">
        <ele>903.2</ele>
        <time>2021-08-21T08:09:11.000Z</time>
      </trkpt>
      <trkpt lat="47.92023" lon="7.11406">
        <ele>900.2</ele>
        <time>2021-08-21T08:09:22.000Z</time>
      </trkpt>
      <trkpt lat="47.92019" lon="7.1141">
        <ele>897.4</ele>
        <time>2021-08-21T08:09:34.000Z</time>
      </trkpt>
      <trkpt lat="47.92016" lon="7.11409">
        <ele>897</ele>
        <time>2021-08-21T08:09:37.000Z</time>
      </trkpt>
      <trkpt lat="47.92007" lon="7.11408">
        <ele>893.8</ele>
        <time>2021-08-21T08:09:51.000Z</time>
      </trkpt>
      <trkpt lat="47.92013" lon="7.11425">
        <ele>890.8</ele>
        <time>2021-08-21T08:10:00.000Z</time>
      </trkpt>
      <trkpt lat="47.9202" lon="7.11442">
        <ele>888</ele>
        <time>2021-08-21T08:10:09.000Z</time>
      </trkpt>
      <trkpt lat="47.92033" lon="7.11454">
        <ele>885.2</ele>
        <time>2021-08-21T08:10:22.000Z</time>
      </trkpt>
      <trkpt lat="47.92036" lon="7.11458">
        <ele>884.4</ele>
        <time>2021-08-21T08:10:25.000Z</time>
      </trkpt>
      <trkpt lat="47.92035" lon="7.11461">
        <ele>882.2</ele>
        <time>2021-08-21T08:10:34.000Z</time>
      </trkpt>
      <trkpt lat="47.92025" lon="7.11462">
        <ele>879.4</ele>
        <time>2021-08-21T08:10:46.000Z</time>
      </trkpt>
      <trkpt lat="47.92013" lon="7.11463">
        <ele>876</ele>
        <time>2021-08-21T08:10:57.000Z</time>
      </trkpt>
      <trkpt lat="47.92039" lon="7.11485">
        <ele>869.8</ele>
        <time>2021-08-21T08:11:23.000Z</time>
      </trkpt>
      <trkpt lat="47.9204" lon="7.11486">
        <ele>869.6</ele>
        <time>2021-08-21T08:11:24.000Z</time>
      </trkpt>
      <trkpt lat="47.92048" lon="7.11491">
        <ele>867.6</ele>
        <time>2021-08-21T08:11:32.000Z</time>
      </trkpt>
      <trkpt lat="47.92045" lon="7.11496">
        <ele>864.4</ele>
        <time>2021-08-21T08:11:43.000Z</time>
      </trkpt>
      <trkpt lat="47.92021" lon="7.11509">
        <ele>861.2</ele>
        <time>2021-08-21T08:11:59.000Z</time>
      </trkpt>
      <trkpt lat="47.92012" lon="7.11511">
        <ele>857.8</ele>
        <time>2021-08-21T08:12:10.000Z</time>
      </trkpt>
      <trkpt lat="47.92012" lon="7.11512">
        <ele>857.6</ele>
        <time>2021-08-21T08:12:11.000Z</time>
      </trkpt>
      <trkpt lat="47.92007" lon="7.11523">
        <ele>854.4</ele>
        <time>2021-08-21T08:12:23.000Z</time>
      </trkpt>
      <trkpt lat="47.92009" lon="7.1154">
        <ele>851.2</ele>
        <time>2021-08-21T08:12:35.000Z</time>
      </trkpt>
      <trkpt lat="47.9201" lon="7.11542">
        <ele>851</ele>
        <time>2021-08-21T08:12:36.000Z</time>
      </trkpt>
      <trkpt lat="47.92021" lon="7.11548">
        <ele>849.4</ele>
        <time>2021-08-21T08:12:44.000Z</time>
      </trkpt>
      <trkpt lat="47.92022" lon="7.11549">
        <ele>849</ele>
        <time>2021-08-21T08:12:45.000Z</time>
      </trkpt>
      <trkpt lat="47.92024" lon="7.11551">
        <ele>848.4</ele>
        <time>2021-08-21T08:12:47.000Z</time>
      </trkpt>
      <trkpt lat="47.92025" lon="7.11553">
        <ele>848</ele>
        <time>2021-08-21T08:12:48.000Z</time>
      </trkpt>
      <trkpt lat="47.92027" lon="7.11554">
        <ele>847.8</ele>
        <time>2021-08-21T08:12:49.000Z</time>
      </trkpt>
      <trkpt lat="47.92037" lon="7.11559">
        <ele>844.8</ele>
        <time>2021-08-21T08:12:59.000Z</time>
      </trkpt>
      <trkpt lat="47.92049" lon="7.11562">
        <ele>844.2</ele>
        <time>2021-08-21T08:13:17.000Z</time>
      </trkpt>
      <trkpt lat="47.92059" lon="7.1156">
        <ele>845</ele>
        <time>2021-08-21T08:13:29.000Z</time>
      </trkpt>
      <trkpt lat="47.92064" lon="7.11562">
        <ele>844.8</ele>
        <time>2021-08-21T08:13:32.000Z</time>
      </trkpt>
      <trkpt lat="47.92066" lon="7.11564">
        <ele>844.4</ele>
        <time>2021-08-21T08:13:34.000Z</time>
      </trkpt>
      <trkpt lat="47.92073" lon="7.11566">
        <ele>842.8</ele>
        <time>2021-08-21T08:13:39.000Z</time>
      </trkpt>
      <trkpt lat="47.92083" lon="7.1157">
        <ele>841.2</ele>
        <time>2021-08-21T08:13:47.000Z</time>
      </trkpt>
      <trkpt lat="47.9209" lon="7.11562">
        <ele>841</ele>
        <time>2021-08-21T08:13:58.000Z</time>
      </trkpt>
      <trkpt lat="47.92104" lon="7.11556">
        <ele>844.2</ele>
        <time>2021-08-21T08:14:11.000Z</time>
      </trkpt>
      <trkpt lat="47.92113" lon="7.11549">
        <ele>845</ele>
        <time>2021-08-21T08:14:18.000Z</time>
      </trkpt>
      <trkpt lat="47.92115" lon="7.11548">
        <ele>845</ele>
        <time>2021-08-21T08:14:20.000Z</time>
      </trkpt>
      <trkpt lat="47.92124" lon="7.11548">
        <ele>844.8</ele>
        <time>2021-08-21T08:14:26.000Z</time>
      </trkpt>
      <trkpt lat="47.92127" lon="7.11548">
        <ele>844.6</ele>
        <time>2021-08-21T08:14:28.000Z</time>
      </trkpt>
      <trkpt lat="47.92138" lon="7.11544">
        <ele>844.6</ele>
        <time>2021-08-21T08:14:37.000Z</time>
      </trkpt>
      <trkpt lat="47.92143" lon="7.11546">
        <ele>844.4</ele>
        <time>2021-08-21T08:14:41.000Z</time>
      </trkpt>
      <trkpt lat="47.92158" lon="7.11551">
        <ele>844.2</ele>
        <time>2021-08-21T08:14:55.000Z</time>
      </trkpt>
      <trkpt lat="47.92169" lon="7.11548">
        <ele>844.2</ele>
        <time>2021-08-21T08:15:04.000Z</time>
      </trkpt>
      <trkpt lat="47.92172" lon="7.11548">
        <ele>844.2</ele>
        <time>2021-08-21T08:15:06.000Z</time>
      </trkpt>
      <trkpt lat="47.92174" lon="7.11549">
        <ele>844.2</ele>
        <time>2021-08-21T08:15:07.000Z</time>
      </trkpt>
      <trkpt lat="47.92175" lon="7.1155">
        <ele>844.2</ele>
        <time>2021-08-21T08:15:08.000Z</time>
      </trkpt>
      <trkpt lat="47.92177" lon="7.1155">
        <ele>844.2</ele>
        <time>2021-08-21T08:15:09.000Z</time>
      </trkpt>
      <trkpt lat="47.92179" lon="7.11551">
        <ele>844.2</ele>
        <time>2021-08-21T08:15:11.000Z</time>
      </trkpt>
      <trkpt lat="47.92181" lon="7.11551">
        <ele>844.2</ele>
        <time>2021-08-21T08:15:12.000Z</time>
      </trkpt>
      <trkpt lat="47.92182" lon="7.1155">
        <ele>844.2</ele>
        <time>2021-08-21T08:15:13.000Z</time>
      </trkpt>
      <trkpt lat="47.92184" lon="7.11551">
        <ele>844.2</ele>
        <time>2021-08-21T08:15:14.000Z</time>
      </trkpt>
      <trkpt lat="47.92186" lon="7.11553">
        <ele>844.2</ele>
        <time>2021-08-21T08:15:16.000Z</time>
      </trkpt>
      <trkpt lat="47.92197" lon="7.11555">
        <ele>843.2</ele>
        <time>2021-08-21T08:15:24.000Z</time>
      </trkpt>
      <trkpt lat="47.92204" lon="7.11554">
        <ele>842.8</ele>
        <time>2021-08-21T08:15:28.000Z</time>
      </trkpt>
      <trkpt lat="47.92206" lon="7.11553">
        <ele>842.6</ele>
        <time>2021-08-21T08:15:29.000Z</time>
      </trkpt>
      <trkpt lat="47.92207" lon="7.11552">
        <ele>842.6</ele>
        <time>2021-08-21T08:15:30.000Z</time>
      </trkpt>
      <trkpt lat="47.92209" lon="7.11552">
        <ele>842.4</ele>
        <time>2021-08-21T08:15:31.000Z</time>
      </trkpt>
      <trkpt lat="47.9221" lon="7.11552">
        <ele>842.4</ele>
        <time>2021-08-21T08:15:32.000Z</time>
      </trkpt>
      <trkpt lat="47.92212" lon="7.11553">
        <ele>842.4</ele>
        <time>2021-08-21T08:15:33.000Z</time>
      </trkpt>
      <trkpt lat="47.92213" lon="7.11553">
        <ele>842.4</ele>
        <time>2021-08-21T08:15:34.000Z</time>
      </trkpt>
      <trkpt lat="47.92214" lon="7.11553">
        <ele>842.2</ele>
        <time>2021-08-21T08:15:35.000Z</time>
      </trkpt>
      <trkpt lat="47.92216" lon="7.11553">
        <ele>842.2</ele>
        <time>2021-08-21T08:15:36.000Z</time>
      </trkpt>
      <trkpt lat="47.92226" lon="7.11551">
        <ele>842</ele>
        <time>2021-08-21T08:15:42.000Z</time>
      </trkpt>
      <trkpt lat="47.92227" lon="7.11551">
        <ele>842</ele>
        <time>2021-08-21T08:15:43.000Z</time>
      </trkpt>
      <trkpt lat="47.92238" lon="7.11554">
        <ele>841.2</ele>
        <time>2021-08-21T08:15:52.000Z</time>
      </trkpt>
      <trkpt lat="47.92251" lon="7.11561">
        <ele>841</ele>
        <time>2021-08-21T08:16:02.000Z</time>
      </trkpt>
      <trkpt lat="47.92265" lon="7.11562">
        <ele>840</ele>
        <time>2021-08-21T08:16:11.000Z</time>
      </trkpt>
      <trkpt lat="47.9228" lon="7.11566">
        <ele>839.2</ele>
        <time>2021-08-21T08:16:22.000Z</time>
      </trkpt>
      <trkpt lat="47.92293" lon="7.11566">
        <ele>838.6</ele>
        <time>2021-08-21T08:16:30.000Z</time>
      </trkpt>
      <trkpt lat="47.92294" lon="7.11566">
        <ele>838.6</ele>
        <time>2021-08-21T08:16:31.000Z</time>
      </trkpt>
      <trkpt lat="47.92311" lon="7.11566">
        <ele>838</ele>
        <time>2021-08-21T08:16:43.000Z</time>
      </trkpt>
      <trkpt lat="47.92322" lon="7.11572">
        <ele>837</ele>
        <time>2021-08-21T08:16:53.000Z</time>
      </trkpt>
      <trkpt lat="47.92335" lon="7.11575">
        <ele>835.4</ele>
        <time>2021-08-21T08:17:02.000Z</time>
      </trkpt>
      <trkpt lat="47.92345" lon="7.11577">
        <ele>834.2</ele>
        <time>2021-08-21T08:17:08.000Z</time>
      </trkpt>
      <trkpt lat="47.92347" lon="7.11577">
        <ele>834</ele>
        <time>2021-08-21T08:17:09.000Z</time>
      </trkpt>
      <trkpt lat="47.92352" lon="7.11576">
        <ele>834</ele>
        <time>2021-08-21T08:17:12.000Z</time>
      </trkpt>
      <trkpt lat="47.9236" lon="7.11577">
        <ele>833.6</ele>
        <time>2021-08-21T08:17:18.000Z</time>
      </trkpt>
      <trkpt lat="47.92362" lon="7.11577">
        <ele>833.6</ele>
        <time>2021-08-21T08:17:19.000Z</time>
      </trkpt>
      <trkpt lat="47.9237" lon="7.11578">
        <ele>833.4</ele>
        <time>2021-08-21T08:17:25.000Z</time>
      </trkpt>
      <trkpt lat="47.92382" lon="7.11576">
        <ele>833.4</ele>
        <time>2021-08-21T08:17:34.000Z</time>
      </trkpt>
      <trkpt lat="47.9239" lon="7.11575">
        <ele>833.8</ele>
        <time>2021-08-21T08:17:42.000Z</time>
      </trkpt>
      <trkpt lat="47.92393" lon="7.11573">
        <ele>833.8</ele>
        <time>2021-08-21T08:17:44.000Z</time>
      </trkpt>
      <trkpt lat="47.92397" lon="7.1157">
        <ele>833.6</ele>
        <time>2021-08-21T08:17:48.000Z</time>
      </trkpt>
      <trkpt lat="47.92399" lon="7.11569">
        <ele>833.6</ele>
        <time>2021-08-21T08:17:49.000Z</time>
      </trkpt>
      <trkpt lat="47.92404" lon="7.11565">
        <ele>833.8</ele>
        <time>2021-08-21T08:17:54.000Z</time>
      </trkpt>
      <trkpt lat="47.92429" lon="7.11552">
        <ele>833.2</ele>
        <time>2021-08-21T08:18:14.000Z</time>
      </trkpt>
      <trkpt lat="47.92459" lon="7.11544">
        <ele>830.2</ele>
        <time>2021-08-21T08:18:32.000Z</time>
      </trkpt>
      <trkpt lat="47.92473" lon="7.11541">
        <ele>828.2</ele>
        <time>2021-08-21T08:18:41.000Z</time>
      </trkpt>
      <trkpt lat="47.92482" lon="7.11538">
        <ele>826.2</ele>
        <time>2021-08-21T08:18:48.000Z</time>
      </trkpt>
      <trkpt lat="47.92493" lon="7.11529">
        <ele>824</ele>
        <time>2021-08-21T08:18:57.000Z</time>
      </trkpt>
      <trkpt lat="47.92497" lon="7.11523">
        <ele>823.4</ele>
        <time>2021-08-21T08:19:01.000Z</time>
      </trkpt>
      <trkpt lat="47.92505" lon="7.11506">
        <ele>821.8</ele>
        <time>2021-08-21T08:19:10.000Z</time>
      </trkpt>
      <trkpt lat="47.92507" lon="7.11495">
        <ele>820.2</ele>
        <time>2021-08-21T08:19:16.000Z</time>
      </trkpt>
      <trkpt lat="47.92508" lon="7.11492">
        <ele>819.8</ele>
        <time>2021-08-21T08:19:18.000Z</time>
      </trkpt>
      <trkpt lat="47.92509" lon="7.11484">
        <ele>818.8</ele>
        <time>2021-08-21T08:19:22.000Z</time>
      </trkpt>
      <trkpt lat="47.92508" lon="7.11479">
        <ele>818</ele>
        <time>2021-08-21T08:19:25.000Z</time>
      </trkpt>
      <trkpt lat="47.9251" lon="7.11465">
        <ele>816.6</ele>
        <time>2021-08-21T08:19:40.000Z</time>
      </trkpt>
      <trkpt lat="47.92513" lon="7.11467">
        <ele>813.2</ele>
        <time>2021-08-21T08:20:12.000Z</time>
      </trkpt>
      <trkpt lat="47.92514" lon="7.11463">
        <ele>812</ele>
        <time>2021-08-21T08:20:15.000Z</time>
      </trkpt>
      <trkpt lat="47.92516" lon="7.11458">
        <ele>810.8</ele>
        <time>2021-08-21T08:20:19.000Z</time>
      </trkpt>
      <trkpt lat="47.92524" lon="7.11439">
        <ele>808</ele>
        <time>2021-08-21T08:20:30.000Z</time>
      </trkpt>
      <trkpt lat="47.92525" lon="7.11438">
        <ele>807.6</ele>
        <time>2021-08-21T08:20:31.000Z</time>
      </trkpt>
      <trkpt lat="47.92533" lon="7.11433">
        <ele>805</ele>
        <time>2021-08-21T08:20:42.000Z</time>
      </trkpt>
      <trkpt lat="47.92539" lon="7.11416">
        <ele>802</ele>
        <time>2021-08-21T08:20:52.000Z</time>
      </trkpt>
      <trkpt lat="47.92539" lon="7.1141">
        <ele>800.6</ele>
        <time>2021-08-21T08:20:56.000Z</time>
      </trkpt>
      <trkpt lat="47.92539" lon="7.11409">
        <ele>800.2</ele>
        <time>2021-08-21T08:20:57.000Z</time>
      </trkpt>
      <trkpt lat="47.92542" lon="7.11396">
        <ele>797</ele>
        <time>2021-08-21T08:21:04.000Z</time>
      </trkpt>
      <trkpt lat="47.92544" lon="7.11364">
        <ele>793.6</ele>
        <time>2021-08-21T08:21:24.000Z</time>
      </trkpt>
      <trkpt lat="47.92547" lon="7.1134">
        <ele>790.6</ele>
        <time>2021-08-21T08:21:36.000Z</time>
      </trkpt>
      <trkpt lat="47.92536" lon="7.1126">
        <ele>790</ele>
        <time>2021-08-21T08:22:19.000Z</time>
      </trkpt>
      <trkpt lat="47.92532" lon="7.11253">
        <ele>789.4</ele>
        <time>2021-08-21T08:22:34.000Z</time>
      </trkpt>
      <trkpt lat="47.92529" lon="7.11252">
        <ele>789.4</ele>
        <time>2021-08-21T08:23:05.000Z</time>
      </trkpt>
      <trkpt lat="47.92527" lon="7.11252">
        <ele>789.4</ele>
        <time>2021-08-21T08:23:12.000Z</time>
      </trkpt>
      <trkpt lat="47.92537" lon="7.11248">
        <ele>789.4</ele>
        <time>2021-08-21T08:23:49.000Z</time>
      </trkpt>
      <trkpt lat="47.92531" lon="7.11247">
        <ele>789.2</ele>
        <time>2021-08-21T08:24:41.000Z</time>
      </trkpt>
      <trkpt lat="47.92524" lon="7.11231">
        <ele>789.4</ele>
        <time>2021-08-21T08:25:57.000Z</time>
      </trkpt>
      <trkpt lat="47.9253" lon="7.1122">
        <ele>789.2</ele>
        <time>2021-08-21T08:26:17.000Z</time>
      </trkpt>
      <trkpt lat="47.9252" lon="7.11222">
        <ele>788.6</ele>
        <time>2021-08-21T08:27:33.000Z</time>
      </trkpt>
      <trkpt lat="47.9252" lon="7.11225">
        <ele>788.6</ele>
        <time>2021-08-21T08:27:51.000Z</time>
      </trkpt>
      <trkpt lat="47.92526" lon="7.1119">
        <ele>788.8</ele>
        <time>2021-08-21T08:29:50.000Z</time>
      </trkpt>
      <trkpt lat="47.92531" lon="7.11181">
        <ele>788.4</ele>
        <time>2021-08-21T08:30:19.000Z</time>
      </trkpt>
      <trkpt lat="47.92531" lon="7.11159">
        <ele>786</ele>
        <time>2021-08-21T08:30:58.000Z</time>
      </trkpt>
      <trkpt lat="47.92528" lon="7.11162">
        <ele>785.6</ele>
        <time>2021-08-21T08:31:29.000Z</time>
      </trkpt>
      <trkpt lat="47.9253" lon="7.11168">
        <ele>785.4</ele>
        <time>2021-08-21T08:32:28.000Z</time>
      </trkpt>
      <trkpt lat="47.9253" lon="7.11173">
        <ele>785.4</ele>
        <time>2021-08-21T08:33:02.000Z</time>
      </trkpt>
      <trkpt lat="47.92531" lon="7.11178">
        <ele>785.4</ele>
        <time>2021-08-21T08:33:06.000Z</time>
      </trkpt>
      <trkpt lat="47.92533" lon="7.11182">
        <ele>785.2</ele>
        <time>2021-08-21T08:33:09.000Z</time>
      </trkpt>
      <trkpt lat="47.92535" lon="7.11191">
        <ele>784.4</ele>
        <time>2021-08-21T08:33:14.000Z</time>
      </trkpt>
      <trkpt lat="47.92536" lon="7.11196">
        <ele>784</ele>
        <time>2021-08-21T08:33:18.000Z</time>
      </trkpt>
      <trkpt lat="47.92543" lon="7.11216">
        <ele>782.8</ele>
        <time>2021-08-21T08:33:36.000Z</time>
      </trkpt>
      <trkpt lat="47.92543" lon="7.11229">
        <ele>782.4</ele>
        <time>2021-08-21T08:33:43.000Z</time>
      </trkpt>
      <trkpt lat="47.9254" lon="7.11226">
        <ele>782.4</ele>
        <time>2021-08-21T08:34:09.000Z</time>
      </trkpt>
      <trkpt lat="47.92539" lon="7.11204">
        <ele>783</ele>
        <time>2021-08-21T08:34:20.000Z</time>
      </trkpt>
      <trkpt lat="47.92539" lon="7.11202">
        <ele>783.2</ele>
        <time>2021-08-21T08:34:21.000Z</time>
      </trkpt>
      <trkpt lat="47.92529" lon="7.11161">
        <ele>784.8</ele>
        <time>2021-08-21T08:34:40.000Z</time>
      </trkpt>
      <trkpt lat="47.92528" lon="7.11142">
        <ele>786</ele>
        <time>2021-08-21T08:34:51.000Z</time>
      </trkpt>
      <trkpt lat="47.92529" lon="7.11139">
        <ele>786.4</ele>
        <time>2021-08-21T08:34:53.000Z</time>
      </trkpt>
      <trkpt lat="47.9253" lon="7.11127">
        <ele>787.2</ele>
        <time>2021-08-21T08:35:00.000Z</time>
      </trkpt>
      <trkpt lat="47.92529" lon="7.11101">
        <ele>788.6</ele>
        <time>2021-08-21T08:35:13.000Z</time>
      </trkpt>
      <trkpt lat="47.9253" lon="7.11098">
        <ele>788.8</ele>
        <time>2021-08-21T08:35:15.000Z</time>
      </trkpt>
      <trkpt lat="47.9253" lon="7.11096">
        <ele>789</ele>
        <time>2021-08-21T08:35:16.000Z</time>
      </trkpt>
      <trkpt lat="47.9253" lon="7.11094">
        <ele>789.2</ele>
        <time>2021-08-21T08:35:17.000Z</time>
      </trkpt>
      <trkpt lat="47.9253" lon="7.11088">
        <ele>789.4</ele>
        <time>2021-08-21T08:35:20.000Z</time>
      </trkpt>
      <trkpt lat="47.92531" lon="7.11077">
        <ele>790</ele>
        <time>2021-08-21T08:35:26.000Z</time>
      </trkpt>
      <trkpt lat="47.92531" lon="7.11066">
        <ele>790.6</ele>
        <time>2021-08-21T08:35:33.000Z</time>
      </trkpt>
      <trkpt lat="47.92538" lon="7.11019">
        <ele>792.8</ele>
        <time>2021-08-21T08:35:59.000Z</time>
      </trkpt>
      <trkpt lat="47.92535" lon="7.10991">
        <ele>793.8</ele>
        <time>2021-08-21T08:36:11.000Z</time>
      </trkpt>
      <trkpt lat="47.9253" lon="7.10978">
        <ele>794.6</ele>
        <time>2021-08-21T08:36:19.000Z</time>
      </trkpt>
      <trkpt lat="47.92529" lon="7.10977">
        <ele>795</ele>
        <time>2021-08-21T08:36:20.000Z</time>
      </trkpt>
      <trkpt lat="47.92523" lon="7.10953">
        <ele>795.6</ele>
        <time>2021-08-21T08:36:31.000Z</time>
      </trkpt>
      <trkpt lat="47.92523" lon="7.10949">
        <ele>795.8</ele>
        <time>2021-08-21T08:36:33.000Z</time>
      </trkpt>
      <trkpt lat="47.92522" lon="7.10934">
        <ele>796.4</ele>
        <time>2021-08-21T08:36:41.000Z</time>
      </trkpt>
      <trkpt lat="47.92521" lon="7.10925">
        <ele>797</ele>
        <time>2021-08-21T08:36:48.000Z</time>
      </trkpt>
      <trkpt lat="47.92518" lon="7.10917">
        <ele>797.4</ele>
        <time>2021-08-21T08:36:56.000Z</time>
      </trkpt>
      <trkpt lat="47.9252" lon="7.10919">
        <ele>797.2</ele>
        <time>2021-08-21T08:37:05.000Z</time>
      </trkpt>
      <trkpt lat="47.9252" lon="7.1092">
        <ele>797</ele>
        <time>2021-08-21T08:37:06.000Z</time>
      </trkpt>
      <trkpt lat="47.92522" lon="7.10923">
        <ele>796.2</ele>
        <time>2021-08-21T08:37:08.000Z</time>
      </trkpt>
      <trkpt lat="47.92525" lon="7.10928">
        <ele>794.8</ele>
        <time>2021-08-21T08:37:11.000Z</time>
      </trkpt>
      <trkpt lat="47.9253" lon="7.10937">
        <ele>791.4</ele>
        <time>2021-08-21T08:37:16.000Z</time>
      </trkpt>
      <trkpt lat="47.92534" lon="7.10951">
        <ele>788.8</ele>
        <time>2021-08-21T08:37:22.000Z</time>
      </trkpt>
      <trkpt lat="47.92542" lon="7.10967">
        <ele>786.2</ele>
        <time>2021-08-21T08:37:29.000Z</time>
      </trkpt>
      <trkpt lat="47.92546" lon="7.10984">
        <ele>784</ele>
        <time>2021-08-21T08:37:37.000Z</time>
      </trkpt>
      <trkpt lat="47.92554" lon="7.11003">
        <ele>781</ele>
        <time>2021-08-21T08:37:50.000Z</time>
      </trkpt>
      <trkpt lat="47.92558" lon="7.1102">
        <ele>777.6</ele>
        <time>2021-08-21T08:37:59.000Z</time>
      </trkpt>
      <trkpt lat="47.92566" lon="7.11031">
        <ele>774.4</ele>
        <time>2021-08-21T08:38:07.000Z</time>
      </trkpt>
      <trkpt lat="47.92573" lon="7.11049">
        <ele>771.4</ele>
        <time>2021-08-21T08:38:16.000Z</time>
      </trkpt>
      <trkpt lat="47.92576" lon="7.11065">
        <ele>769.4</ele>
        <time>2021-08-21T08:38:24.000Z</time>
      </trkpt>
      <trkpt lat="47.9258" lon="7.11094">
        <ele>767</ele>
        <time>2021-08-21T08:38:37.000Z</time>
      </trkpt>
      <trkpt lat="47.92584" lon="7.1112">
        <ele>765.6</ele>
        <time>2021-08-21T08:38:47.000Z</time>
      </trkpt>
      <trkpt lat="47.92591" lon="7.11139">
        <ele>763.8</ele>
        <time>2021-08-21T08:38:56.000Z</time>
      </trkpt>
      <trkpt lat="47.92598" lon="7.11151">
        <ele>762</ele>
        <time>2021-08-21T08:39:05.000Z</time>
      </trkpt>
      <trkpt lat="47.92607" lon="7.11168">
        <ele>758.6</ele>
        <time>2021-08-21T08:39:18.000Z</time>
      </trkpt>
      <trkpt lat="47.92615" lon="7.11179">
        <ele>755.4</ele>
        <time>2021-08-21T08:39:26.000Z</time>
      </trkpt>
      <trkpt lat="47.92622" lon="7.11194">
        <ele>752.4</ele>
        <time>2021-08-21T08:39:33.000Z</time>
      </trkpt>
      <trkpt lat="47.9263" lon="7.1121">
        <ele>749.4</ele>
        <time>2021-08-21T08:39:42.000Z</time>
      </trkpt>
      <trkpt lat="47.92633" lon="7.11212">
        <ele>748.4</ele>
        <time>2021-08-21T08:39:45.000Z</time>
      </trkpt>
      <trkpt lat="47.92634" lon="7.1122">
        <ele>746.8</ele>
        <time>2021-08-21T08:39:49.000Z</time>
      </trkpt>
      <trkpt lat="47.92644" lon="7.11236">
        <ele>743.6</ele>
        <time>2021-08-21T08:39:59.000Z</time>
      </trkpt>
      <trkpt lat="47.92645" lon="7.11237">
        <ele>743.2</ele>
        <time>2021-08-21T08:40:00.000Z</time>
      </trkpt>
      <trkpt lat="47.92647" lon="7.1124">
        <ele>742.2</ele>
        <time>2021-08-21T08:40:02.000Z</time>
      </trkpt>
      <trkpt lat="47.9266" lon="7.11256">
        <ele>739</ele>
        <time>2021-08-21T08:40:12.000Z</time>
      </trkpt>
      <trkpt lat="47.92667" lon="7.11271">
        <ele>736</ele>
        <time>2021-08-21T08:40:21.000Z</time>
      </trkpt>
      <trkpt lat="47.92668" lon="7.11274">
        <ele>735</ele>
        <time>2021-08-21T08:40:24.000Z</time>
      </trkpt>
      <trkpt lat="47.92667" lon="7.11275">
        <ele>734.6</ele>
        <time>2021-08-21T08:40:25.000Z</time>
      </trkpt>
      <trkpt lat="47.9267" lon="7.11278">
        <ele>731.4</ele>
        <time>2021-08-21T08:40:32.000Z</time>
      </trkpt>
      <trkpt lat="47.9268" lon="7.11283">
        <ele>728</ele>
        <time>2021-08-21T08:40:39.000Z</time>
      </trkpt>
      <trkpt lat="47.9269" lon="7.11302">
        <ele>725</ele>
        <time>2021-08-21T08:40:49.000Z</time>
      </trkpt>
      <trkpt lat="47.92701" lon="7.11319">
        <ele>721.8</ele>
        <time>2021-08-21T08:41:00.000Z</time>
      </trkpt>
      <trkpt lat="47.92707" lon="7.11334">
        <ele>718.6</ele>
        <time>2021-08-21T08:41:14.000Z</time>
      </trkpt>
      <trkpt lat="47.92719" lon="7.1135">
        <ele>716.6</ele>
        <time>2021-08-21T08:41:24.000Z</time>
      </trkpt>
      <trkpt lat="47.9272" lon="7.11352">
        <ele>716.2</ele>
        <time>2021-08-21T08:41:25.000Z</time>
      </trkpt>
      <trkpt lat="47.92722" lon="7.11353">
        <ele>715.8</ele>
        <time>2021-08-21T08:41:26.000Z</time>
      </trkpt>
      <trkpt lat="47.92723" lon="7.11355">
        <ele>715.4</ele>
        <time>2021-08-21T08:41:27.000Z</time>
      </trkpt>
      <trkpt lat="47.92724" lon="7.11357">
        <ele>715</ele>
        <time>2021-08-21T08:41:28.000Z</time>
      </trkpt>
      <trkpt lat="47.92731" lon="7.11372">
        <ele>712.8</ele>
        <time>2021-08-21T08:41:36.000Z</time>
      </trkpt>
      <trkpt lat="47.92737" lon="7.11391">
        <ele>709.4</ele>
        <time>2021-08-21T08:41:46.000Z</time>
      </trkpt>
      <trkpt lat="47.92737" lon="7.11393">
        <ele>709</ele>
        <time>2021-08-21T08:41:47.000Z</time>
      </trkpt>
      <trkpt lat="47.92739" lon="7.114">
        <ele>707</ele>
        <time>2021-08-21T08:41:53.000Z</time>
      </trkpt>
      <trkpt lat="47.92741" lon="7.11403">
        <ele>705.4</ele>
        <time>2021-08-21T08:41:56.000Z</time>
      </trkpt>
      <trkpt lat="47.92746" lon="7.11411">
        <ele>702.2</ele>
        <time>2021-08-21T08:42:04.000Z</time>
      </trkpt>
      <trkpt lat="47.92752" lon="7.1141">
        <ele>701.6</ele>
        <time>2021-08-21T08:42:08.000Z</time>
      </trkpt>
      <trkpt lat="47.92759" lon="7.1141">
        <ele>701.2</ele>
        <time>2021-08-21T08:42:19.000Z</time>
      </trkpt>
      <trkpt lat="47.92761" lon="7.11411">
        <ele>701.2</ele>
        <time>2021-08-21T08:42:21.000Z</time>
      </trkpt>
      <trkpt lat="47.9277" lon="7.11416">
        <ele>700.2</ele>
        <time>2021-08-21T08:42:30.000Z</time>
      </trkpt>
      <trkpt lat="47.92771" lon="7.11417">
        <ele>699.8</ele>
        <time>2021-08-21T08:42:31.000Z</time>
      </trkpt>
      <trkpt lat="47.92772" lon="7.11417">
        <ele>699.6</ele>
        <time>2021-08-21T08:42:32.000Z</time>
      </trkpt>
      <trkpt lat="47.92773" lon="7.11419">
        <ele>699</ele>
        <time>2021-08-21T08:42:34.000Z</time>
      </trkpt>
      <trkpt lat="47.92773" lon="7.1142">
        <ele>698.6</ele>
        <time>2021-08-21T08:42:35.000Z</time>
      </trkpt>
      <trkpt lat="47.92774" lon="7.11422">
        <ele>697.8</ele>
        <time>2021-08-21T08:42:37.000Z</time>
      </trkpt>
      <trkpt lat="47.92773" lon="7.11426">
        <ele>697</ele>
        <time>2021-08-21T08:42:39.000Z</time>
      </trkpt>
      <trkpt lat="47.92777" lon="7.1144">
        <ele>694</ele>
        <time>2021-08-21T08:42:48.000Z</time>
      </trkpt>
      <trkpt lat="47.92778" lon="7.11449">
        <ele>692.4</ele>
        <time>2021-08-21T08:42:53.000Z</time>
      </trkpt>
      <trkpt lat="47.92784" lon="7.11461">
        <ele>689.4</ele>
        <time>2021-08-21T08:43:02.000Z</time>
      </trkpt>
      <trkpt lat="47.92787" lon="7.11462">
        <ele>688.6</ele>
        <time>2021-08-21T08:43:04.000Z</time>
      </trkpt>
      <trkpt lat="47.92793" lon="7.11472">
        <ele>685.2</ele>
        <time>2021-08-21T08:43:14.000Z</time>
      </trkpt>
      <trkpt lat="47.92796" lon="7.11475">
        <ele>682.2</ele>
        <time>2021-08-21T08:43:22.000Z</time>
      </trkpt>
      <trkpt lat="47.92812" lon="7.11483">
        <ele>679</ele>
        <time>2021-08-21T08:43:34.000Z</time>
      </trkpt>
      <trkpt lat="47.9282" lon="7.1149">
        <ele>675.8</ele>
        <time>2021-08-21T08:43:42.000Z</time>
      </trkpt>
      <trkpt lat="47.92831" lon="7.11505">
        <ele>672</ele>
        <time>2021-08-21T08:43:55.000Z</time>
      </trkpt>
      <trkpt lat="47.92834" lon="7.11509">
        <ele>670.8</ele>
        <time>2021-08-21T08:43:58.000Z</time>
      </trkpt>
      <trkpt lat="47.92836" lon="7.11511">
        <ele>670</ele>
        <time>2021-08-21T08:44:00.000Z</time>
      </trkpt>
      <trkpt lat="47.92836" lon="7.11515">
        <ele>669.6</ele>
        <time>2021-08-21T08:44:02.000Z</time>
      </trkpt>
      <trkpt lat="47.92835" lon="7.1152">
        <ele>669.2</ele>
        <time>2021-08-21T08:44:04.000Z</time>
      </trkpt>
      <trkpt lat="47.92835" lon="7.11525">
        <ele>667.6</ele>
        <time>2021-08-21T08:44:08.000Z</time>
      </trkpt>
      <trkpt lat="47.92847" lon="7.1152">
        <ele>664.4</ele>
        <time>2021-08-21T08:44:23.000Z</time>
      </trkpt>
      <trkpt lat="47.92855" lon="7.11525">
        <ele>662</ele>
        <time>2021-08-21T08:44:37.000Z</time>
      </trkpt>
      <trkpt lat="47.92859" lon="7.11533">
        <ele>660.4</ele>
        <time>2021-08-21T08:44:49.000Z</time>
      </trkpt>
      <trkpt lat="47.92859" lon="7.11531">
        <ele>660.2</ele>
        <time>2021-08-21T08:44:50.000Z</time>
      </trkpt>
      <trkpt lat="47.92859" lon="7.11529">
        <ele>660</ele>
        <time>2021-08-21T08:44:51.000Z</time>
      </trkpt>
      <trkpt lat="47.92862" lon="7.11516">
        <ele>658.6</ele>
        <time>2021-08-21T08:44:59.000Z</time>
      </trkpt>
      <trkpt lat="47.92865" lon="7.11511">
        <ele>657.8</ele>
        <time>2021-08-21T08:45:02.000Z</time>
      </trkpt>
      <trkpt lat="47.92868" lon="7.11497">
        <ele>656.2</ele>
        <time>2021-08-21T08:45:10.000Z</time>
      </trkpt>
      <trkpt lat="47.92869" lon="7.11493">
        <ele>655.8</ele>
        <time>2021-08-21T08:45:12.000Z</time>
      </trkpt>
      <trkpt lat="47.92878" lon="7.11472">
        <ele>653.6</ele>
        <time>2021-08-21T08:45:25.000Z</time>
      </trkpt>
      <trkpt lat="47.92892" lon="7.11461">
        <ele>652.4</ele>
        <time>2021-08-21T08:45:36.000Z</time>
      </trkpt>
      <trkpt lat="47.92897" lon="7.11461">
        <ele>652.2</ele>
        <time>2021-08-21T08:45:39.000Z</time>
      </trkpt>
      <trkpt lat="47.92903" lon="7.11461">
        <ele>652.2</ele>
        <time>2021-08-21T08:45:42.000Z</time>
      </trkpt>
      <trkpt lat="47.92905" lon="7.11461">
        <ele>652.2</ele>
        <time>2021-08-21T08:45:43.000Z</time>
      </trkpt>
      <trkpt lat="47.9292" lon="7.11462">
        <ele>652.4</ele>
        <time>2021-08-21T08:45:51.000Z</time>
      </trkpt>
      <trkpt lat="47.92934" lon="7.1147">
        <ele>652.6</ele>
        <time>2021-08-21T08:46:00.000Z</time>
      </trkpt>
      <trkpt lat="47.92946" lon="7.11483">
        <ele>652.4</ele>
        <time>2021-08-21T08:46:10.000Z</time>
      </trkpt>
      <trkpt lat="47.92947" lon="7.11484">
        <ele>652.4</ele>
        <time>2021-08-21T08:46:11.000Z</time>
      </trkpt>
      <trkpt lat="47.92948" lon="7.11487">
        <ele>652.2</ele>
        <time>2021-08-21T08:46:12.000Z</time>
      </trkpt>
      <trkpt lat="47.9295" lon="7.11491">
        <ele>652.2</ele>
        <time>2021-08-21T08:46:14.000Z</time>
      </trkpt>
      <trkpt lat="47.92951" lon="7.11492">
        <ele>652.2</ele>
        <time>2021-08-21T08:46:15.000Z</time>
      </trkpt>
      <trkpt lat="47.92953" lon="7.11495">
        <ele>652.2</ele>
        <time>2021-08-21T08:46:17.000Z</time>
      </trkpt>
      <trkpt lat="47.92954" lon="7.11496">
        <ele>652</ele>
        <time>2021-08-21T08:46:18.000Z</time>
      </trkpt>
      <trkpt lat="47.92959" lon="7.11499">
        <ele>652</ele>
        <time>2021-08-21T08:46:21.000Z</time>
      </trkpt>
      <trkpt lat="47.92969" lon="7.11507">
        <ele>651.4</ele>
        <time>2021-08-21T08:46:28.000Z</time>
      </trkpt>
      <trkpt lat="47.92971" lon="7.1151">
        <ele>651.2</ele>
        <time>2021-08-21T08:46:30.000Z</time>
      </trkpt>
      <trkpt lat="47.92972" lon="7.11513">
        <ele>651.2</ele>
        <time>2021-08-21T08:46:31.000Z</time>
      </trkpt>
      <trkpt lat="47.92979" lon="7.11526">
        <ele>650.2</ele>
        <time>2021-08-21T08:46:38.000Z</time>
      </trkpt>
      <trkpt lat="47.92982" lon="7.11532">
        <ele>649.4</ele>
        <time>2021-08-21T08:46:45.000Z</time>
      </trkpt>
      <trkpt lat="47.92986" lon="7.11533">
        <ele>649.2</ele>
        <time>2021-08-21T08:46:47.000Z</time>
      </trkpt>
      <trkpt lat="47.92988" lon="7.11534">
        <ele>649.2</ele>
        <time>2021-08-21T08:46:48.000Z</time>
      </trkpt>
      <trkpt lat="47.92989" lon="7.11535">
        <ele>649.2</ele>
        <time>2021-08-21T08:46:49.000Z</time>
      </trkpt>
      <trkpt lat="47.9299" lon="7.11535">
        <ele>649</ele>
        <time>2021-08-21T08:46:50.000Z</time>
      </trkpt>
      <trkpt lat="47.93" lon="7.11546">
        <ele>647.8</ele>
        <time>2021-08-21T08:47:00.000Z</time>
      </trkpt>
      <trkpt lat="47.93004" lon="7.11548">
        <ele>647.4</ele>
        <time>2021-08-21T08:47:03.000Z</time>
      </trkpt>
      <trkpt lat="47.93015" lon="7.11559">
        <ele>646</ele>
        <time>2021-08-21T08:47:11.000Z</time>
      </trkpt>
      <trkpt lat="47.93019" lon="7.11565">
        <ele>645.4</ele>
        <time>2021-08-21T08:47:15.000Z</time>
      </trkpt>
      <trkpt lat="47.9303" lon="7.11573">
        <ele>644.4</ele>
        <time>2021-08-21T08:47:23.000Z</time>
      </trkpt>
      <trkpt lat="47.93031" lon="7.11574">
        <ele>644.2</ele>
        <time>2021-08-21T08:47:24.000Z</time>
      </trkpt>
      <trkpt lat="47.93032" lon="7.11576">
        <ele>644</ele>
        <time>2021-08-21T08:47:25.000Z</time>
      </trkpt>
      <trkpt lat="47.93033" lon="7.11577">
        <ele>643.8</ele>
        <time>2021-08-21T08:47:26.000Z</time>
      </trkpt>
      <trkpt lat="47.93034" lon="7.11578">
        <ele>643.6</ele>
        <time>2021-08-21T08:47:27.000Z</time>
      </trkpt>
      <trkpt lat="47.93038" lon="7.11581">
        <ele>643.2</ele>
        <time>2021-08-21T08:47:30.000Z</time>
      </trkpt>
      <trkpt lat="47.93039" lon="7.11581">
        <ele>643</ele>
        <time>2021-08-21T08:47:31.000Z</time>
      </trkpt>
      <trkpt lat="47.93039" lon="7.11587">
        <ele>642.6</ele>
        <time>2021-08-21T08:47:33.000Z</time>
      </trkpt>
      <trkpt lat="47.93043" lon="7.11594">
        <ele>641.6</ele>
        <time>2021-08-21T08:47:38.000Z</time>
      </trkpt>
      <trkpt lat="47.93044" lon="7.11595">
        <ele>641.6</ele>
        <time>2021-08-21T08:47:39.000Z</time>
      </trkpt>
      <trkpt lat="47.93045" lon="7.11596">
        <ele>641.4</ele>
        <time>2021-08-21T08:47:40.000Z</time>
      </trkpt>
      <trkpt lat="47.93046" lon="7.11597">
        <ele>641.2</ele>
        <time>2021-08-21T08:47:41.000Z</time>
      </trkpt>
      <trkpt lat="47.93049" lon="7.116">
        <ele>640.8</ele>
        <time>2021-08-21T08:47:43.000Z</time>
      </trkpt>
      <trkpt lat="47.93061" lon="7.1161">
        <ele>639.2</ele>
        <time>2021-08-21T08:47:52.000Z</time>
      </trkpt>
      <trkpt lat="47.93062" lon="7.11612">
        <ele>639</ele>
        <time>2021-08-21T08:47:53.000Z</time>
      </trkpt>
      <trkpt lat="47.93064" lon="7.11617">
        <ele>638.4</ele>
        <time>2021-08-21T08:48:02.000Z</time>
      </trkpt>
      <trkpt lat="47.93067" lon="7.11619">
        <ele>638.2</ele>
        <time>2021-08-21T08:48:07.000Z</time>
      </trkpt>
      <trkpt lat="47.9307" lon="7.11621">
        <ele>638</ele>
        <time>2021-08-21T08:48:09.000Z</time>
      </trkpt>
      <trkpt lat="47.93088" lon="7.11633">
        <ele>635.6</ele>
        <time>2021-08-21T08:48:25.000Z</time>
      </trkpt>
      <trkpt lat="47.9309" lon="7.11643">
        <ele>635</ele>
        <time>2021-08-21T08:48:29.000Z</time>
      </trkpt>
      <trkpt lat="47.93091" lon="7.11645">
        <ele>634.8</ele>
        <time>2021-08-21T08:48:30.000Z</time>
      </trkpt>
      <trkpt lat="47.93092" lon="7.11647">
        <ele>634.4</ele>
        <time>2021-08-21T08:48:31.000Z</time>
      </trkpt>
      <trkpt lat="47.93092" lon="7.11649">
        <ele>634.2</ele>
        <time>2021-08-21T08:48:32.000Z</time>
      </trkpt>
      <trkpt lat="47.93094" lon="7.1165">
        <ele>634</ele>
        <time>2021-08-21T08:48:33.000Z</time>
      </trkpt>
      <trkpt lat="47.93094" lon="7.11652">
        <ele>633.8</ele>
        <time>2021-08-21T08:48:34.000Z</time>
      </trkpt>
      <trkpt lat="47.93095" lon="7.11654">
        <ele>633.6</ele>
        <time>2021-08-21T08:48:35.000Z</time>
      </trkpt>
      <trkpt lat="47.93096" lon="7.11655">
        <ele>633.4</ele>
        <time>2021-08-21T08:48:36.000Z</time>
      </trkpt>
      <trkpt lat="47.93097" lon="7.11657">
        <ele>633.2</ele>
        <time>2021-08-21T08:48:37.000Z</time>
      </trkpt>
      <trkpt lat="47.931" lon="7.1166">
        <ele>632.8</ele>
        <time>2021-08-21T08:48:40.000Z</time>
      </trkpt>
      <trkpt lat="47.9314" lon="7.11666">
        <ele>626.6</ele>
        <time>2021-08-21T08:49:02.000Z</time>
      </trkpt>
      <trkpt lat="47.93164" lon="7.11666">
        <ele>623.4</ele>
        <time>2021-08-21T08:49:13.000Z</time>
      </trkpt>
      <trkpt lat="47.9319" lon="7.1168">
        <ele>619.8</ele>
        <time>2021-08-21T08:49:28.000Z</time>
      </trkpt>
      <trkpt lat="47.93197" lon="7.11683">
        <ele>619.2</ele>
        <time>2021-08-21T08:49:31.000Z</time>
      </trkpt>
      <trkpt lat="47.932" lon="7.11684">
        <ele>619</ele>
        <time>2021-08-21T08:49:32.000Z</time>
      </trkpt>
      <trkpt lat="47.93202" lon="7.11685">
        <ele>618.8</ele>
        <time>2021-08-21T08:49:33.000Z</time>
      </trkpt>
      <trkpt lat="47.93204" lon="7.11686">
        <ele>618.4</ele>
        <time>2021-08-21T08:49:34.000Z</time>
      </trkpt>
      <trkpt lat="47.93206" lon="7.11687">
        <ele>618.2</ele>
        <time>2021-08-21T08:49:35.000Z</time>
      </trkpt>
      <trkpt lat="47.93234" lon="7.11702">
        <ele>615.2</ele>
        <time>2021-08-21T08:49:48.000Z</time>
      </trkpt>
      <trkpt lat="47.93252" lon="7.11715">
        <ele>613.2</ele>
        <time>2021-08-21T08:49:57.000Z</time>
      </trkpt>
      <trkpt lat="47.93254" lon="7.11717">
        <ele>613</ele>
        <time>2021-08-21T08:49:58.000Z</time>
      </trkpt>
      <trkpt lat="47.93256" lon="7.11719">
        <ele>612.8</ele>
        <time>2021-08-21T08:49:59.000Z</time>
      </trkpt>
      <trkpt lat="47.93258" lon="7.1172">
        <ele>612.6</ele>
        <time>2021-08-21T08:50:00.000Z</time>
      </trkpt>
      <trkpt lat="47.9326" lon="7.11721">
        <ele>612.2</ele>
        <time>2021-08-21T08:50:01.000Z</time>
      </trkpt>
      <trkpt lat="47.93276" lon="7.11734">
        <ele>609.2</ele>
        <time>2021-08-21T08:50:10.000Z</time>
      </trkpt>
      <trkpt lat="47.93278" lon="7.11735">
        <ele>609</ele>
        <time>2021-08-21T08:50:11.000Z</time>
      </trkpt>
      <trkpt lat="47.9329" lon="7.11742">
        <ele>606.8</ele>
        <time>2021-08-21T08:50:18.000Z</time>
      </trkpt>
      <trkpt lat="47.93303" lon="7.11753">
        <ele>605</ele>
        <time>2021-08-21T08:50:24.000Z</time>
      </trkpt>
      <trkpt lat="47.93318" lon="7.11769">
        <ele>602.2</ele>
        <time>2021-08-21T08:50:36.000Z</time>
      </trkpt>
      <trkpt lat="47.93319" lon="7.11771">
        <ele>602.2</ele>
        <time>2021-08-21T08:50:37.000Z</time>
      </trkpt>
      <trkpt lat="47.93321" lon="7.11775">
        <ele>601.8</ele>
        <time>2021-08-21T08:50:39.000Z</time>
      </trkpt>
      <trkpt lat="47.93328" lon="7.11787">
        <ele>599.8</ele>
        <time>2021-08-21T08:50:46.000Z</time>
      </trkpt>
      <trkpt lat="47.93336" lon="7.11796">
        <ele>597.6</ele>
        <time>2021-08-21T08:50:55.000Z</time>
      </trkpt>
      <trkpt lat="47.93345" lon="7.11823">
        <ele>594.4</ele>
        <time>2021-08-21T08:51:08.000Z</time>
      </trkpt>
      <trkpt lat="47.93347" lon="7.11826">
        <ele>594</ele>
        <time>2021-08-21T08:51:10.000Z</time>
      </trkpt>
      <trkpt lat="47.93348" lon="7.11828">
        <ele>593.8</ele>
        <time>2021-08-21T08:51:11.000Z</time>
      </trkpt>
      <trkpt lat="47.93349" lon="7.11829">
        <ele>593.4</ele>
        <time>2021-08-21T08:51:12.000Z</time>
      </trkpt>
      <trkpt lat="47.93353" lon="7.11837">
        <ele>592.4</ele>
        <time>2021-08-21T08:51:17.000Z</time>
      </trkpt>
      <trkpt lat="47.93361" lon="7.11849">
        <ele>590.8</ele>
        <time>2021-08-21T08:51:24.000Z</time>
      </trkpt>
      <trkpt lat="47.93363" lon="7.11853">
        <ele>590.2</ele>
        <time>2021-08-21T08:51:27.000Z</time>
      </trkpt>
      <trkpt lat="47.93366" lon="7.11854">
        <ele>589.8</ele>
        <time>2021-08-21T08:51:29.000Z</time>
      </trkpt>
      <trkpt lat="47.93378" lon="7.11858">
        <ele>588.4</ele>
        <time>2021-08-21T08:51:37.000Z</time>
      </trkpt>
      <trkpt lat="47.93402" lon="7.11867">
        <ele>585</ele>
        <time>2021-08-21T08:51:53.000Z</time>
      </trkpt>
      <trkpt lat="47.93414" lon="7.11867">
        <ele>583.6</ele>
        <time>2021-08-21T08:52:00.000Z</time>
      </trkpt>
      <trkpt lat="47.93431" lon="7.11875">
        <ele>581</ele>
        <time>2021-08-21T08:52:11.000Z</time>
      </trkpt>
      <trkpt lat="47.9344" lon="7.11886">
        <ele>579</ele>
        <time>2021-08-21T08:52:20.000Z</time>
      </trkpt>
      <trkpt lat="47.93442" lon="7.11887">
        <ele>578.8</ele>
        <time>2021-08-21T08:52:21.000Z</time>
      </trkpt>
      <trkpt lat="47.93444" lon="7.11889">
        <ele>578.2</ele>
        <time>2021-08-21T08:52:23.000Z</time>
      </trkpt>
      <trkpt lat="47.93446" lon="7.11889">
        <ele>578</ele>
        <time>2021-08-21T08:52:24.000Z</time>
      </trkpt>
      <trkpt lat="47.93454" lon="7.11891">
        <ele>576.8</ele>
        <time>2021-08-21T08:52:30.000Z</time>
      </trkpt>
      <trkpt lat="47.93467" lon="7.11904">
        <ele>573.6</ele>
        <time>2021-08-21T08:52:41.000Z</time>
      </trkpt>
      <trkpt lat="47.9347" lon="7.11909">
        <ele>573</ele>
        <time>2021-08-21T08:52:44.000Z</time>
      </trkpt>
      <trkpt lat="47.93471" lon="7.11911">
        <ele>572.8</ele>
        <time>2021-08-21T08:52:45.000Z</time>
      </trkpt>
      <trkpt lat="47.93474" lon="7.11916">
        <ele>572.2</ele>
        <time>2021-08-21T08:52:47.000Z</time>
      </trkpt>
      <trkpt lat="47.93483" lon="7.11928">
        <ele>570.4</ele>
        <time>2021-08-21T08:52:55.000Z</time>
      </trkpt>
      <trkpt lat="47.93485" lon="7.11929">
        <ele>570</ele>
        <time>2021-08-21T08:52:56.000Z</time>
      </trkpt>
      <trkpt lat="47.93492" lon="7.11941">
        <ele>568</ele>
        <time>2021-08-21T08:53:04.000Z</time>
      </trkpt>
      <trkpt lat="47.93496" lon="7.11946">
        <ele>567.4</ele>
        <time>2021-08-21T08:53:07.000Z</time>
      </trkpt>
      <trkpt lat="47.935" lon="7.11949">
        <ele>566.8</ele>
        <time>2021-08-21T08:53:10.000Z</time>
      </trkpt>
      <trkpt lat="47.93504" lon="7.11959">
        <ele>565.6</ele>
        <time>2021-08-21T08:53:16.000Z</time>
      </trkpt>
      <trkpt lat="47.9351" lon="7.11963">
        <ele>564.8</ele>
        <time>2021-08-21T08:53:21.000Z</time>
      </trkpt>
      <trkpt lat="47.93511" lon="7.11963">
        <ele>564.6</ele>
        <time>2021-08-21T08:53:22.000Z</time>
      </trkpt>
      <trkpt lat="47.93516" lon="7.11966">
        <ele>564</ele>
        <time>2021-08-21T08:53:27.000Z</time>
      </trkpt>
      <trkpt lat="47.93523" lon="7.11968">
        <ele>563.2</ele>
        <time>2021-08-21T08:53:32.000Z</time>
      </trkpt>
      <trkpt lat="47.93556" lon="7.11982">
        <ele>560.4</ele>
        <time>2021-08-21T08:53:59.000Z</time>
      </trkpt>
      <trkpt lat="47.93589" lon="7.11994">
        <ele>558.2</ele>
        <time>2021-08-21T08:54:17.000Z</time>
      </trkpt>
      <trkpt lat="47.9359" lon="7.11995">
        <ele>558</ele>
        <time>2021-08-21T08:54:18.000Z</time>
      </trkpt>
      <trkpt lat="47.93592" lon="7.11997">
        <ele>557.6</ele>
        <time>2021-08-21T08:54:20.000Z</time>
      </trkpt>
      <trkpt lat="47.93601" lon="7.12002">
        <ele>556.4</ele>
        <time>2021-08-21T08:54:26.000Z</time>
      </trkpt>
      <trkpt lat="47.93613" lon="7.12008">
        <ele>555.6</ele>
        <time>2021-08-21T08:54:34.000Z</time>
      </trkpt>
      <trkpt lat="47.93624" lon="7.12019">
        <ele>553.6</ele>
        <time>2021-08-21T08:54:43.000Z</time>
      </trkpt>
      <trkpt lat="47.93637" lon="7.12038">
        <ele>550.6</ele>
        <time>2021-08-21T08:54:57.000Z</time>
      </trkpt>
      <trkpt lat="47.93638" lon="7.12039">
        <ele>550.4</ele>
        <time>2021-08-21T08:54:58.000Z</time>
      </trkpt>
      <trkpt lat="47.93644" lon="7.12043">
        <ele>549.2</ele>
        <time>2021-08-21T08:55:03.000Z</time>
      </trkpt>
      <trkpt lat="47.93657" lon="7.12049">
        <ele>546.8</ele>
        <time>2021-08-21T08:55:14.000Z</time>
      </trkpt>
      <trkpt lat="47.93668" lon="7.12054">
        <ele>544.8</ele>
        <time>2021-08-21T08:55:23.000Z</time>
      </trkpt>
      <trkpt lat="47.93678" lon="7.1207">
        <ele>542.6</ele>
        <time>2021-08-21T08:55:33.000Z</time>
      </trkpt>
      <trkpt lat="47.93688" lon="7.12085">
        <ele>540.4</ele>
        <time>2021-08-21T08:55:43.000Z</time>
      </trkpt>
      <trkpt lat="47.93707" lon="7.12106">
        <ele>537.4</ele>
        <time>2021-08-21T08:55:59.000Z</time>
      </trkpt>
      <trkpt lat="47.93718" lon="7.12107">
        <ele>536.4</ele>
        <time>2021-08-21T08:56:06.000Z</time>
      </trkpt>
      <trkpt lat="47.9373" lon="7.12113">
        <ele>535.6</ele>
        <time>2021-08-21T08:56:15.000Z</time>
      </trkpt>
      <trkpt lat="47.93747" lon="7.12115">
        <ele>535</ele>
        <time>2021-08-21T08:56:27.000Z</time>
      </trkpt>
      <trkpt lat="47.93775" lon="7.12114">
        <ele>533.8</ele>
        <time>2021-08-21T08:56:44.000Z</time>
      </trkpt>
      <trkpt lat="47.93782" lon="7.12117">
        <ele>533.4</ele>
        <time>2021-08-21T08:56:50.000Z</time>
      </trkpt>
      <trkpt lat="47.93786" lon="7.12119">
        <ele>533.4</ele>
        <time>2021-08-21T08:56:53.000Z</time>
      </trkpt>
      <trkpt lat="47.93787" lon="7.12119">
        <ele>533.4</ele>
        <time>2021-08-21T08:56:54.000Z</time>
      </trkpt>
      <trkpt lat="47.93789" lon="7.12119">
        <ele>533.2</ele>
        <time>2021-08-21T08:56:55.000Z</time>
      </trkpt>
      <trkpt lat="47.9379" lon="7.12119">
        <ele>533.2</ele>
        <time>2021-08-21T08:56:56.000Z</time>
      </trkpt>
      <trkpt lat="47.93792" lon="7.12119">
        <ele>533.2</ele>
        <time>2021-08-21T08:56:57.000Z</time>
      </trkpt>
      <trkpt lat="47.93796" lon="7.12116">
        <ele>533</ele>
        <time>2021-08-21T08:57:00.000Z</time>
      </trkpt>
      <trkpt lat="47.93804" lon="7.12116">
        <ele>532.8</ele>
        <time>2021-08-21T08:57:06.000Z</time>
      </trkpt>
      <trkpt lat="47.93817" lon="7.12119">
        <ele>532.6</ele>
        <time>2021-08-21T08:57:15.000Z</time>
      </trkpt>
      <trkpt lat="47.93823" lon="7.1212">
        <ele>532.4</ele>
        <time>2021-08-21T08:57:19.000Z</time>
      </trkpt>
      <trkpt lat="47.93842" lon="7.12119">
        <ele>532</ele>
        <time>2021-08-21T08:57:32.000Z</time>
      </trkpt>
      <trkpt lat="47.93844" lon="7.12119">
        <ele>532</ele>
        <time>2021-08-21T08:57:33.000Z</time>
      </trkpt>
      <trkpt lat="47.93851" lon="7.12121">
        <ele>531.6</ele>
        <time>2021-08-21T08:57:38.000Z</time>
      </trkpt>
      <trkpt lat="47.93864" lon="7.12118">
        <ele>531</ele>
        <time>2021-08-21T08:57:44.000Z</time>
      </trkpt>
      <trkpt lat="47.93868" lon="7.12117">
        <ele>530.6</ele>
        <time>2021-08-21T08:57:46.000Z</time>
      </trkpt>
      <trkpt lat="47.9387" lon="7.12117">
        <ele>530.4</ele>
        <time>2021-08-21T08:57:47.000Z</time>
      </trkpt>
      <trkpt lat="47.93875" lon="7.1212">
        <ele>529.6</ele>
        <time>2021-08-21T08:57:51.000Z</time>
      </trkpt>
      <trkpt lat="47.93882" lon="7.12127">
        <ele>528.8</ele>
        <time>2021-08-21T08:57:57.000Z</time>
      </trkpt>
      <trkpt lat="47.9389" lon="7.12135">
        <ele>528</ele>
        <time>2021-08-21T08:58:05.000Z</time>
      </trkpt>
      <trkpt lat="47.93909" lon="7.12141">
        <ele>525.8</ele>
        <time>2021-08-21T08:58:21.000Z</time>
      </trkpt>
      <trkpt lat="47.93911" lon="7.12142">
        <ele>525.6</ele>
        <time>2021-08-21T08:58:22.000Z</time>
      </trkpt>
      <trkpt lat="47.93912" lon="7.12142">
        <ele>525.6</ele>
        <time>2021-08-21T08:58:23.000Z</time>
      </trkpt>
      <trkpt lat="47.93914" lon="7.12142">
        <ele>525.4</ele>
        <time>2021-08-21T08:58:24.000Z</time>
      </trkpt>
      <trkpt lat="47.93918" lon="7.12141">
        <ele>525.2</ele>
        <time>2021-08-21T08:58:26.000Z</time>
      </trkpt>
      <trkpt lat="47.93926" lon="7.12143">
        <ele>523.8</ele>
        <time>2021-08-21T08:58:34.000Z</time>
      </trkpt>
      <trkpt lat="47.93927" lon="7.12144">
        <ele>523.6</ele>
        <time>2021-08-21T08:58:35.000Z</time>
      </trkpt>
      <trkpt lat="47.93939" lon="7.12146">
        <ele>521.4</ele>
        <time>2021-08-21T08:58:46.000Z</time>
      </trkpt>
      <trkpt lat="47.93951" lon="7.1214">
        <ele>520</ele>
        <time>2021-08-21T08:58:54.000Z</time>
      </trkpt>
      <trkpt lat="47.93954" lon="7.12138">
        <ele>519.4</ele>
        <time>2021-08-21T08:58:57.000Z</time>
      </trkpt>
      <trkpt lat="47.93957" lon="7.12136">
        <ele>518.8</ele>
        <time>2021-08-21T08:58:59.000Z</time>
      </trkpt>
      <trkpt lat="47.93958" lon="7.12135">
        <ele>518.4</ele>
        <time>2021-08-21T08:59:00.000Z</time>
      </trkpt>
      <trkpt lat="47.93961" lon="7.12132">
        <ele>517.6</ele>
        <time>2021-08-21T08:59:03.000Z</time>
      </trkpt>
      <trkpt lat="47.93964" lon="7.1213">
        <ele>517</ele>
        <time>2021-08-21T08:59:05.000Z</time>
      </trkpt>
      <trkpt lat="47.93976" lon="7.12122">
        <ele>514.4</ele>
        <time>2021-08-21T08:59:16.000Z</time>
      </trkpt>
      <trkpt lat="47.93987" lon="7.12117">
        <ele>512.2</ele>
        <time>2021-08-21T08:59:25.000Z</time>
      </trkpt>
      <trkpt lat="47.93999" lon="7.12114">
        <ele>509.8</ele>
        <time>2021-08-21T08:59:33.000Z</time>
      </trkpt>
      <trkpt lat="47.94001" lon="7.12114">
        <ele>509.6</ele>
        <time>2021-08-21T08:59:34.000Z</time>
      </trkpt>
      <trkpt lat="47.94047" lon="7.12118">
        <ele>502.4</ele>
        <time>2021-08-21T09:00:00.000Z</time>
      </trkpt>
      <trkpt lat="47.94049" lon="7.12124">
        <ele>501</ele>
        <time>2021-08-21T09:00:09.000Z</time>
      </trkpt>
      <trkpt lat="47.94058" lon="7.12131">
        <ele>499.8</ele>
        <time>2021-08-21T09:00:21.000Z</time>
      </trkpt>
      <trkpt lat="47.94062" lon="7.12135">
        <ele>498.8</ele>
        <time>2021-08-21T09:00:25.000Z</time>
      </trkpt>
      <trkpt lat="47.94063" lon="7.12137">
        <ele>498.6</ele>
        <time>2021-08-21T09:00:26.000Z</time>
      </trkpt>
      <trkpt lat="47.94064" lon="7.12138">
        <ele>498.2</ele>
        <time>2021-08-21T09:00:27.000Z</time>
      </trkpt>
      <trkpt lat="47.94065" lon="7.1214">
        <ele>498</ele>
        <time>2021-08-21T09:00:28.000Z</time>
      </trkpt>
      <trkpt lat="47.94066" lon="7.12141">
        <ele>497.8</ele>
        <time>2021-08-21T09:00:29.000Z</time>
      </trkpt>
      <trkpt lat="47.9407" lon="7.12146">
        <ele>496.8</ele>
        <time>2021-08-21T09:00:34.000Z</time>
      </trkpt>
      <trkpt lat="47.94071" lon="7.12148">
        <ele>496.6</ele>
        <time>2021-08-21T09:00:35.000Z</time>
      </trkpt>
      <trkpt lat="47.94072" lon="7.12149">
        <ele>496.4</ele>
        <time>2021-08-21T09:00:36.000Z</time>
      </trkpt>
      <trkpt lat="47.94081" lon="7.12153">
        <ele>494.4</ele>
        <time>2021-08-21T09:00:43.000Z</time>
      </trkpt>
      <trkpt lat="47.94083" lon="7.12153">
        <ele>494</ele>
        <time>2021-08-21T09:00:44.000Z</time>
      </trkpt>
      <trkpt lat="47.94085" lon="7.12153">
        <ele>493.8</ele>
        <time>2021-08-21T09:00:45.000Z</time>
      </trkpt>
      <trkpt lat="47.94086" lon="7.12153">
        <ele>493.6</ele>
        <time>2021-08-21T09:00:46.000Z</time>
      </trkpt>
      <trkpt lat="47.94088" lon="7.12153">
        <ele>493.6</ele>
        <time>2021-08-21T09:00:47.000Z</time>
      </trkpt>
      <trkpt lat="47.94089" lon="7.12153">
        <ele>493.4</ele>
        <time>2021-08-21T09:00:48.000Z</time>
      </trkpt>
      <trkpt lat="47.94096" lon="7.12153">
        <ele>492.4</ele>
        <time>2021-08-21T09:00:52.000Z</time>
      </trkpt>
      <trkpt lat="47.94103" lon="7.12154">
        <ele>491.2</ele>
        <time>2021-08-21T09:00:58.000Z</time>
      </trkpt>
      <trkpt lat="47.94105" lon="7.12155">
        <ele>490.8</ele>
        <time>2021-08-21T09:01:00.000Z</time>
      </trkpt>
      <trkpt lat="47.94106" lon="7.12156">
        <ele>490.6</ele>
        <time>2021-08-21T09:01:01.000Z</time>
      </trkpt>
      <trkpt lat="47.94108" lon="7.12156">
        <ele>490</ele>
        <time>2021-08-21T09:01:03.000Z</time>
      </trkpt>
      <trkpt lat="47.94109" lon="7.12157">
        <ele>490</ele>
        <time>2021-08-21T09:01:04.000Z</time>
      </trkpt>
      <trkpt lat="47.94112" lon="7.12157">
        <ele>489.4</ele>
        <time>2021-08-21T09:01:06.000Z</time>
      </trkpt>
      <trkpt lat="47.94128" lon="7.12155">
        <ele>487.6</ele>
        <time>2021-08-21T09:01:17.000Z</time>
      </trkpt>
      <trkpt lat="47.94129" lon="7.12156">
        <ele>487.4</ele>
        <time>2021-08-21T09:01:18.000Z</time>
      </trkpt>
      <trkpt lat="47.94137" lon="7.12159">
        <ele>486.4</ele>
        <time>2021-08-21T09:01:24.000Z</time>
      </trkpt>
      <trkpt lat="47.94153" lon="7.12164">
        <ele>483.2</ele>
        <time>2021-08-21T09:01:40.000Z</time>
      </trkpt>
      <trkpt lat="47.9418" lon="7.12181">
        <ele>480.4</ele>
        <time>2021-08-21T09:01:58.000Z</time>
      </trkpt>
      <trkpt lat="47.94187" lon="7.12184">
        <ele>479.6</ele>
        <time>2021-08-21T09:02:02.000Z</time>
      </trkpt>
      <trkpt lat="47.94201" lon="7.12188">
        <ele>477.8</ele>
        <time>2021-08-21T09:02:12.000Z</time>
      </trkpt>
      <trkpt lat="47.9421" lon="7.12188">
        <ele>476.6</ele>
        <time>2021-08-21T09:02:21.000Z</time>
      </trkpt>
      <trkpt lat="47.94213" lon="7.12188">
        <ele>476.2</ele>
        <time>2021-08-21T09:02:24.000Z</time>
      </trkpt>
      <trkpt lat="47.94219" lon="7.12189">
        <ele>474.8</ele>
        <time>2021-08-21T09:02:31.000Z</time>
      </trkpt>
      <trkpt lat="47.94228" lon="7.12191">
        <ele>474</ele>
        <time>2021-08-21T09:02:39.000Z</time>
      </trkpt>
      <trkpt lat="47.94241" lon="7.12196">
        <ele>472</ele>
        <time>2021-08-21T09:02:48.000Z</time>
      </trkpt>
      <trkpt lat="47.94245" lon="7.12214">
        <ele>471.2</ele>
        <time>2021-08-21T09:02:56.000Z</time>
      </trkpt>
      <trkpt lat="47.94247" lon="7.12219">
        <ele>470.8</ele>
        <time>2021-08-21T09:02:58.000Z</time>
      </trkpt>
      <trkpt lat="47.94247" lon="7.12221">
        <ele>470.6</ele>
        <time>2021-08-21T09:02:59.000Z</time>
      </trkpt>
      <trkpt lat="47.94248" lon="7.12222">
        <ele>470.4</ele>
        <time>2021-08-21T09:03:00.000Z</time>
      </trkpt>
      <trkpt lat="47.94249" lon="7.12224">
        <ele>470.2</ele>
        <time>2021-08-21T09:03:01.000Z</time>
      </trkpt>
      <trkpt lat="47.9425" lon="7.12225">
        <ele>470</ele>
        <time>2021-08-21T09:03:02.000Z</time>
      </trkpt>
      <trkpt lat="47.94251" lon="7.12227">
        <ele>470</ele>
        <time>2021-08-21T09:03:03.000Z</time>
      </trkpt>
      <trkpt lat="47.94252" lon="7.12233">
        <ele>469.6</ele>
        <time>2021-08-21T09:03:05.000Z</time>
      </trkpt>
      <trkpt lat="47.94256" lon="7.12244">
        <ele>468.6</ele>
        <time>2021-08-21T09:03:12.000Z</time>
      </trkpt>
      <trkpt lat="47.94259" lon="7.12249">
        <ele>468</ele>
        <time>2021-08-21T09:03:15.000Z</time>
      </trkpt>
      <trkpt lat="47.94261" lon="7.1225">
        <ele>467.8</ele>
        <time>2021-08-21T09:03:16.000Z</time>
      </trkpt>
      <trkpt lat="47.94262" lon="7.12251">
        <ele>467.8</ele>
        <time>2021-08-21T09:03:17.000Z</time>
      </trkpt>
      <trkpt lat="47.94272" lon="7.12263">
        <ele>467.2</ele>
        <time>2021-08-21T09:03:25.000Z</time>
      </trkpt>
      <trkpt lat="47.94273" lon="7.12264">
        <ele>467.2</ele>
        <time>2021-08-21T09:03:26.000Z</time>
      </trkpt>
      <trkpt lat="47.94276" lon="7.12265">
        <ele>467.2</ele>
        <time>2021-08-21T09:03:28.000Z</time>
      </trkpt>
      <trkpt lat="47.94281" lon="7.12282">
        <ele>466.4</ele>
        <time>2021-08-21T09:03:39.000Z</time>
      </trkpt>
      <trkpt lat="47.9428" lon="7.12295">
        <ele>466</ele>
        <time>2021-08-21T09:03:45.000Z</time>
      </trkpt>
      <trkpt lat="47.94283" lon="7.12318">
        <ele>465.2</ele>
        <time>2021-08-21T09:03:56.000Z</time>
      </trkpt>
      <trkpt lat="47.9429" lon="7.12327">
        <ele>464.8</ele>
        <time>2021-08-21T09:04:01.000Z</time>
      </trkpt>
      <trkpt lat="47.94294" lon="7.12334">
        <ele>464.6</ele>
        <time>2021-08-21T09:04:05.000Z</time>
      </trkpt>
      <trkpt lat="47.94294" lon="7.12337">
        <ele>464.4</ele>
        <time>2021-08-21T09:04:06.000Z</time>
      </trkpt>
      <trkpt lat="47.94295" lon="7.12338">
        <ele>464.4</ele>
        <time>2021-08-21T09:04:07.000Z</time>
      </trkpt>
      <trkpt lat="47.94306" lon="7.12374">
        <ele>462.6</ele>
        <time>2021-08-21T09:04:26.000Z</time>
      </trkpt>
      <trkpt lat="47.94317" lon="7.12399">
        <ele>461</ele>
        <time>2021-08-21T09:04:40.000Z</time>
      </trkpt>
      <trkpt lat="47.94323" lon="7.12434">
        <ele>459.6</ele>
        <time>2021-08-21T09:04:55.000Z</time>
      </trkpt>
      <trkpt lat="47.94327" lon="7.12469">
        <ele>458.6</ele>
        <time>2021-08-21T09:05:11.000Z</time>
      </trkpt>
      <trkpt lat="47.94327" lon="7.12488">
        <ele>458</ele>
        <time>2021-08-21T09:05:19.000Z</time>
      </trkpt>
      <trkpt lat="47.9433" lon="7.12506">
        <ele>457.8</ele>
        <time>2021-08-21T09:05:27.000Z</time>
      </trkpt>
      <trkpt lat="47.94329" lon="7.12527">
        <ele>457.6</ele>
        <time>2021-08-21T09:05:36.000Z</time>
      </trkpt>
      <trkpt lat="47.94326" lon="7.12536">
        <ele>457.4</ele>
        <time>2021-08-21T09:05:40.000Z</time>
      </trkpt>
      <trkpt lat="47.94324" lon="7.12538">
        <ele>457.2</ele>
        <time>2021-08-21T09:05:41.000Z</time>
      </trkpt>
      <trkpt lat="47.94323" lon="7.12541">
        <ele>457.2</ele>
        <time>2021-08-21T09:05:42.000Z</time>
      </trkpt>
      <trkpt lat="47.94324" lon="7.12544">
        <ele>457</ele>
        <time>2021-08-21T09:05:43.000Z</time>
      </trkpt>
      <trkpt lat="47.94324" lon="7.12546">
        <ele>457</ele>
        <time>2021-08-21T09:05:44.000Z</time>
      </trkpt>
      <trkpt lat="47.94329" lon="7.12553">
        <ele>456.8</ele>
        <time>2021-08-21T09:05:48.000Z</time>
      </trkpt>
      <trkpt lat="47.94331" lon="7.12556">
        <ele>456.6</ele>
        <time>2021-08-21T09:05:50.000Z</time>
      </trkpt>
      <trkpt lat="47.94336" lon="7.12561">
        <ele>456.4</ele>
        <time>2021-08-21T09:05:53.000Z</time>
      </trkpt>
      <trkpt lat="47.94337" lon="7.12567">
        <ele>456.4</ele>
        <time>2021-08-21T09:05:55.000Z</time>
      </trkpt>
      <trkpt lat="47.94338" lon="7.12571">
        <ele>456.2</ele>
        <time>2021-08-21T09:05:57.000Z</time>
      </trkpt>
      <trkpt lat="47.9434" lon="7.12571">
        <ele>456.2</ele>
        <time>2021-08-21T09:05:58.000Z</time>
      </trkpt>
      <trkpt lat="47.94341" lon="7.12571">
        <ele>456.2</ele>
        <time>2021-08-21T09:05:59.000Z</time>
      </trkpt>
      <trkpt lat="47.94363" lon="7.12564">
        <ele>455.8</ele>
        <time>2021-08-21T09:06:12.000Z</time>
      </trkpt>
      <trkpt lat="47.94371" lon="7.1256">
        <ele>455.4</ele>
        <time>2021-08-21T09:06:19.000Z</time>
      </trkpt>
      <trkpt lat="47.94374" lon="7.12558">
        <ele>455.2</ele>
        <time>2021-08-21T09:06:22.000Z</time>
      </trkpt>
      <trkpt lat="47.94374" lon="7.12556">
        <ele>455.2</ele>
        <time>2021-08-21T09:06:23.000Z</time>
      </trkpt>
      <trkpt lat="47.9441" lon="7.12577">
        <ele>453.8</ele>
        <time>2021-08-21T09:06:51.000Z</time>
      </trkpt>
      <trkpt lat="47.94421" lon="7.1259">
        <ele>453.4</ele>
        <time>2021-08-21T09:07:00.000Z</time>
      </trkpt>
      <trkpt lat="47.94422" lon="7.12594">
        <ele>453.4</ele>
        <time>2021-08-21T09:07:02.000Z</time>
      </trkpt>
      <trkpt lat="47.94423" lon="7.12595">
        <ele>453.4</ele>
        <time>2021-08-21T09:07:03.000Z</time>
      </trkpt>
      <trkpt lat="47.94424" lon="7.12596">
        <ele>453.4</ele>
        <time>2021-08-21T09:07:04.000Z</time>
      </trkpt>
      <trkpt lat="47.94429" lon="7.12602">
        <ele>453.4</ele>
        <time>2021-08-21T09:07:09.000Z</time>
      </trkpt>
      <trkpt lat="47.94432" lon="7.12605">
        <ele>453.4</ele>
        <time>2021-08-21T09:07:11.000Z</time>
      </trkpt>
      <trkpt lat="47.94433" lon="7.12606">
        <ele>453.2</ele>
        <time>2021-08-21T09:07:12.000Z</time>
      </trkpt>
      <trkpt lat="47.94441" lon="7.12615">
        <ele>453</ele>
        <time>2021-08-21T09:07:19.000Z</time>
      </trkpt>
      <trkpt lat="47.94442" lon="7.12617">
        <ele>453</ele>
        <time>2021-08-21T09:07:20.000Z</time>
      </trkpt>
      <trkpt lat="47.94449" lon="7.12624">
        <ele>452.6</ele>
        <time>2021-08-21T09:07:26.000Z</time>
      </trkpt>
      <trkpt lat="47.94451" lon="7.12624">
        <ele>452.4</ele>
        <time>2021-08-21T09:07:27.000Z</time>
      </trkpt>
      <trkpt lat="47.94452" lon="7.12625">
        <ele>452.4</ele>
        <time>2021-08-21T09:07:28.000Z</time>
      </trkpt>
      <trkpt lat="47.94456" lon="7.12626">
        <ele>452.2</ele>
        <time>2021-08-21T09:07:31.000Z</time>
      </trkpt>
      <trkpt lat="47.94468" lon="7.12639">
        <ele>451.8</ele>
        <time>2021-08-21T09:07:42.000Z</time>
      </trkpt>
      <trkpt lat="47.94469" lon="7.1264">
        <ele>451.8</ele>
        <time>2021-08-21T09:07:43.000Z</time>
      </trkpt>
      <trkpt lat="47.94481" lon="7.12658">
        <ele>451.2</ele>
        <time>2021-08-21T09:07:55.000Z</time>
      </trkpt>
      <trkpt lat="47.94482" lon="7.12663">
        <ele>451.2</ele>
        <time>2021-08-21T09:07:58.000Z</time>
      </trkpt>
      <trkpt lat="47.94483" lon="7.12665">
        <ele>451.2</ele>
        <time>2021-08-21T09:07:59.000Z</time>
      </trkpt>
      <trkpt lat="47.94484" lon="7.12667">
        <ele>451.2</ele>
        <time>2021-08-21T09:08:00.000Z</time>
      </trkpt>
      <trkpt lat="47.94484" lon="7.12668">
        <ele>451.2</ele>
        <time>2021-08-21T09:08:01.000Z</time>
      </trkpt>
      <trkpt lat="47.94486" lon="7.12671">
        <ele>451</ele>
        <time>2021-08-21T09:08:03.000Z</time>
      </trkpt>
      <trkpt lat="47.94487" lon="7.12672">
        <ele>451</ele>
        <time>2021-08-21T09:08:04.000Z</time>
      </trkpt>
      <trkpt lat="47.94489" lon="7.12674">
        <ele>451</ele>
        <time>2021-08-21T09:08:05.000Z</time>
      </trkpt>
      <trkpt lat="47.94489" lon="7.12675">
        <ele>451</ele>
        <time>2021-08-21T09:08:06.000Z</time>
      </trkpt>
      <trkpt lat="47.9449" lon="7.12677">
        <ele>450.8</ele>
        <time>2021-08-21T09:08:07.000Z</time>
      </trkpt>
      <trkpt lat="47.9449" lon="7.12679">
        <ele>450.8</ele>
        <time>2021-08-21T09:08:08.000Z</time>
      </trkpt>
      <trkpt lat="47.94493" lon="7.12696">
        <ele>450.6</ele>
        <time>2021-08-21T09:08:14.000Z</time>
      </trkpt>
      <trkpt lat="47.94493" lon="7.12699">
        <ele>450.6</ele>
        <time>2021-08-21T09:08:15.000Z</time>
      </trkpt>
      <trkpt lat="47.94494" lon="7.12705">
        <ele>450.4</ele>
        <time>2021-08-21T09:08:17.000Z</time>
      </trkpt>
      <trkpt lat="47.94494" lon="7.12708">
        <ele>450.4</ele>
        <time>2021-08-21T09:08:18.000Z</time>
      </trkpt>
      <trkpt lat="47.94494" lon="7.1271">
        <ele>450.4</ele>
        <time>2021-08-21T09:08:19.000Z</time>
      </trkpt>
      <trkpt lat="47.94495" lon="7.12713">
        <ele>450.4</ele>
        <time>2021-08-21T09:08:20.000Z</time>
      </trkpt>
      <trkpt lat="47.94496" lon="7.12715">
        <ele>450.4</ele>
        <time>2021-08-21T09:08:21.000Z</time>
      </trkpt>
      <trkpt lat="47.94496" lon="7.12717">
        <ele>450.4</ele>
        <time>2021-08-21T09:08:22.000Z</time>
      </trkpt>
      <trkpt lat="47.94497" lon="7.12719">
        <ele>450.4</ele>
        <time>2021-08-21T09:08:23.000Z</time>
      </trkpt>
      <trkpt lat="47.945" lon="7.12729">
        <ele>450.6</ele>
        <time>2021-08-21T09:08:28.000Z</time>
      </trkpt>
      <trkpt lat="47.94504" lon="7.12735">
        <ele>450.8</ele>
        <time>2021-08-21T09:08:33.000Z</time>
      </trkpt>
      <trkpt lat="47.94506" lon="7.12743">
        <ele>450.6</ele>
        <time>2021-08-21T09:08:37.000Z</time>
      </trkpt>
      <trkpt lat="47.9451" lon="7.12754">
        <ele>450.6</ele>
        <time>2021-08-21T09:08:43.000Z</time>
      </trkpt>
      <trkpt lat="47.9451" lon="7.12759">
        <ele>450.8</ele>
        <time>2021-08-21T09:08:45.000Z</time>
      </trkpt>
      <trkpt lat="47.94511" lon="7.12761">
        <ele>450.8</ele>
        <time>2021-08-21T09:08:46.000Z</time>
      </trkpt>
      <trkpt lat="47.94512" lon="7.12763">
        <ele>450.8</ele>
        <time>2021-08-21T09:08:47.000Z</time>
      </trkpt>
      <trkpt lat="47.94513" lon="7.12764">
        <ele>450.8</ele>
        <time>2021-08-21T09:08:48.000Z</time>
      </trkpt>
      <trkpt lat="47.94516" lon="7.12771">
        <ele>450.8</ele>
        <time>2021-08-21T09:08:53.000Z</time>
      </trkpt>
      <trkpt lat="47.94523" lon="7.12792">
        <ele>450.6</ele>
        <time>2021-08-21T09:09:04.000Z</time>
      </trkpt>
      <trkpt lat="47.94527" lon="7.1281">
        <ele>450.6</ele>
        <time>2021-08-21T09:09:14.000Z</time>
      </trkpt>
      <trkpt lat="47.94529" lon="7.12817">
        <ele>450.6</ele>
        <time>2021-08-21T09:09:18.000Z</time>
      </trkpt>
      <trkpt lat="47.9453" lon="7.12819">
        <ele>450.6</ele>
        <time>2021-08-21T09:09:19.000Z</time>
      </trkpt>
      <trkpt lat="47.94531" lon="7.12821">
        <ele>450.6</ele>
        <time>2021-08-21T09:09:20.000Z</time>
      </trkpt>
      <trkpt lat="47.94532" lon="7.12827">
        <ele>450.4</ele>
        <time>2021-08-21T09:09:23.000Z</time>
      </trkpt>
      <trkpt lat="47.94529" lon="7.12861">
        <ele>450.4</ele>
        <time>2021-08-21T09:09:35.000Z</time>
      </trkpt>
      <trkpt lat="47.94532" lon="7.12892">
        <ele>450.2</ele>
        <time>2021-08-21T09:09:50.000Z</time>
      </trkpt>
      <trkpt lat="47.94533" lon="7.12894">
        <ele>450.2</ele>
        <time>2021-08-21T09:09:51.000Z</time>
      </trkpt>
      <trkpt lat="47.94538" lon="7.129">
        <ele>450.4</ele>
        <time>2021-08-21T09:09:55.000Z</time>
      </trkpt>
      <trkpt lat="47.94538" lon="7.12902">
        <ele>450.4</ele>
        <time>2021-08-21T09:09:56.000Z</time>
      </trkpt>
      <trkpt lat="47.94539" lon="7.12903">
        <ele>450.4</ele>
        <time>2021-08-21T09:09:57.000Z</time>
      </trkpt>
      <trkpt lat="47.9454" lon="7.12904">
        <ele>450.4</ele>
        <time>2021-08-21T09:09:58.000Z</time>
      </trkpt>
      <trkpt lat="47.94546" lon="7.12919">
        <ele>450.4</ele>
        <time>2021-08-21T09:10:06.000Z</time>
      </trkpt>
      <trkpt lat="47.94554" lon="7.1293">
        <ele>451</ele>
        <time>2021-08-21T09:10:14.000Z</time>
      </trkpt>
      <trkpt lat="47.94555" lon="7.12931">
        <ele>451.2</ele>
        <time>2021-08-21T09:10:15.000Z</time>
      </trkpt>
      <trkpt lat="47.94556" lon="7.12932">
        <ele>451.2</ele>
        <time>2021-08-21T09:10:16.000Z</time>
      </trkpt>
      <trkpt lat="47.94559" lon="7.12934">
        <ele>451.4</ele>
        <time>2021-08-21T09:10:18.000Z</time>
      </trkpt>
      <trkpt lat="47.94559" lon="7.12939">
        <ele>451.4</ele>
        <time>2021-08-21T09:10:20.000Z</time>
      </trkpt>
      <trkpt lat="47.94559" lon="7.12941">
        <ele>451.4</ele>
        <time>2021-08-21T09:10:21.000Z</time>
      </trkpt>
      <trkpt lat="47.94559" lon="7.12942">
        <ele>451.4</ele>
        <time>2021-08-21T09:10:22.000Z</time>
      </trkpt>
      <trkpt lat="47.9456" lon="7.12944">
        <ele>451.4</ele>
        <time>2021-08-21T09:10:23.000Z</time>
      </trkpt>
      <trkpt lat="47.9457" lon="7.12954">
        <ele>451.4</ele>
        <time>2021-08-21T09:10:33.000Z</time>
      </trkpt>
      <trkpt lat="47.94571" lon="7.12963">
        <ele>451.2</ele>
        <time>2021-08-21T09:10:38.000Z</time>
      </trkpt>
      <trkpt lat="47.94572" lon="7.12967">
        <ele>451.2</ele>
        <time>2021-08-21T09:10:41.000Z</time>
      </trkpt>
      <trkpt lat="47.94578" lon="7.12991">
        <ele>451</ele>
        <time>2021-08-21T09:10:50.000Z</time>
      </trkpt>
      <trkpt lat="47.9458" lon="7.12992">
        <ele>451.4</ele>
        <time>2021-08-21T09:10:54.000Z</time>
      </trkpt>
      <trkpt lat="47.94581" lon="7.12992">
        <ele>451.4</ele>
        <time>2021-08-21T09:10:55.000Z</time>
      </trkpt>
      <trkpt lat="47.94584" lon="7.1298">
        <ele>452.6</ele>
        <time>2021-08-21T09:11:06.000Z</time>
      </trkpt>
      <trkpt lat="47.94588" lon="7.12966">
        <ele>453.8</ele>
        <time>2021-08-21T09:11:17.000Z</time>
      </trkpt>
      <trkpt lat="47.94609" lon="7.12948">
        <ele>456.4</ele>
        <time>2021-08-21T09:11:38.000Z</time>
      </trkpt>
      <trkpt lat="47.94617" lon="7.12942">
        <ele>457.8</ele>
        <time>2021-08-21T09:11:49.000Z</time>
      </trkpt>
      <trkpt lat="47.94618" lon="7.12941">
        <ele>458</ele>
        <time>2021-08-21T09:11:50.000Z</time>
      </trkpt>
      <trkpt lat="47.94636" lon="7.1293">
        <ele>459.2</ele>
        <time>2021-08-21T09:12:04.000Z</time>
      </trkpt>
      <trkpt lat="47.94651" lon="7.12923">
        <ele>460.2</ele>
        <time>2021-08-21T09:12:15.000Z</time>
      </trkpt>
      <trkpt lat="47.94657" lon="7.12918">
        <ele>461</ele>
        <time>2021-08-21T09:12:22.000Z</time>
      </trkpt>
      <trkpt lat="47.94663" lon="7.12916">
        <ele>461.6</ele>
        <time>2021-08-21T09:12:27.000Z</time>
      </trkpt>
      <trkpt lat="47.94665" lon="7.12913">
        <ele>461.8</ele>
        <time>2021-08-21T09:12:30.000Z</time>
      </trkpt>
      <trkpt lat="47.94675" lon="7.12901">
        <ele>463.2</ele>
        <time>2021-08-21T09:12:42.000Z</time>
      </trkpt>
      <trkpt lat="47.94694" lon="7.12887">
        <ele>464.6</ele>
        <time>2021-08-21T09:12:56.000Z</time>
      </trkpt>
      <trkpt lat="47.94695" lon="7.12885">
        <ele>464.8</ele>
        <time>2021-08-21T09:12:57.000Z</time>
      </trkpt>
      <trkpt lat="47.94713" lon="7.12872">
        <ele>466.2</ele>
        <time>2021-08-21T09:13:11.000Z</time>
      </trkpt>
      <trkpt lat="47.94713" lon="7.12871">
        <ele>466.4</ele>
        <time>2021-08-21T09:13:12.000Z</time>
      </trkpt>
      <trkpt lat="47.94716" lon="7.1287">
        <ele>466.6</ele>
        <time>2021-08-21T09:13:14.000Z</time>
      </trkpt>
      <trkpt lat="47.94717" lon="7.12869">
        <ele>466.8</ele>
        <time>2021-08-21T09:13:15.000Z</time>
      </trkpt>
      <trkpt lat="47.94718" lon="7.12869">
        <ele>467</ele>
        <time>2021-08-21T09:13:16.000Z</time>
      </trkpt>
      <trkpt lat="47.94719" lon="7.12868">
        <ele>467</ele>
        <time>2021-08-21T09:13:17.000Z</time>
      </trkpt>
      <trkpt lat="47.94724" lon="7.12866">
        <ele>467.6</ele>
        <time>2021-08-21T09:13:22.000Z</time>
      </trkpt>
      <trkpt lat="47.94725" lon="7.12865">
        <ele>467.8</ele>
        <time>2021-08-21T09:13:23.000Z</time>
      </trkpt>
      <trkpt lat="47.94733" lon="7.12859">
        <ele>468.8</ele>
        <time>2021-08-21T09:13:32.000Z</time>
      </trkpt>
      <trkpt lat="47.94746" lon="7.12851">
        <ele>470.2</ele>
        <time>2021-08-21T09:13:44.000Z</time>
      </trkpt>
      <trkpt lat="47.94747" lon="7.12849">
        <ele>470.4</ele>
        <time>2021-08-21T09:13:45.000Z</time>
      </trkpt>
      <trkpt lat="47.94754" lon="7.12843">
        <ele>470.8</ele>
        <time>2021-08-21T09:13:52.000Z</time>
      </trkpt>
      <trkpt lat="47.94767" lon="7.12834">
        <ele>471.8</ele>
        <time>2021-08-21T09:14:02.000Z</time>
      </trkpt>
      <trkpt lat="47.94782" lon="7.12826">
        <ele>472.4</ele>
        <time>2021-08-21T09:14:12.000Z</time>
      </trkpt>
      <trkpt lat="47.94794" lon="7.12818">
        <ele>472.8</ele>
        <time>2021-08-21T09:14:22.000Z</time>
      </trkpt>
      <trkpt lat="47.94806" lon="7.12811">
        <ele>473.6</ele>
        <time>2021-08-21T09:14:30.000Z</time>
      </trkpt>
      <trkpt lat="47.94815" lon="7.12798">
        <ele>474.6</ele>
        <time>2021-08-21T09:14:40.000Z</time>
      </trkpt>
      <trkpt lat="47.94826" lon="7.12765">
        <ele>475.4</ele>
        <time>2021-08-21T09:14:59.000Z</time>
      </trkpt>
      <trkpt lat="47.94838" lon="7.12769">
        <ele>476.4</ele>
        <time>2021-08-21T09:15:12.000Z</time>
      </trkpt>
      <trkpt lat="47.94852" lon="7.1278">
        <ele>476.6</ele>
        <time>2021-08-21T09:15:40.000Z</time>
      </trkpt>
      <trkpt lat="47.94851" lon="7.12787">
        <ele>476.6</ele>
        <time>2021-08-21T09:15:58.000Z</time>
      </trkpt>
      <trkpt lat="47.94851" lon="7.12787">
        <ele>476.2</ele>
        <time>2021-08-21T09:16:25.000Z</time>
      </trkpt>
      <trkpt lat="47.94852" lon="7.12778">
        <ele>476.2</ele>
        <time>2021-08-21T09:17:01.000Z</time>
      </trkpt>
      <trkpt lat="47.94868" lon="7.12778">
        <ele>477</ele>
        <time>2021-08-21T09:17:20.000Z</time>
      </trkpt>
      <trkpt lat="47.94873" lon="7.12773">
        <ele>477.6</ele>
        <time>2021-08-21T09:17:26.000Z</time>
      </trkpt>
      <trkpt lat="47.94881" lon="7.12767">
        <ele>478.4</ele>
        <time>2021-08-21T09:17:38.000Z</time>
      </trkpt>
      <trkpt lat="47.94885" lon="7.12765">
        <ele>478.8</ele>
        <time>2021-08-21T09:17:43.000Z</time>
      </trkpt>
      <trkpt lat="47.94898" lon="7.12757">
        <ele>479.6</ele>
        <time>2021-08-21T09:17:55.000Z</time>
      </trkpt>
      <trkpt lat="47.94903" lon="7.12754">
        <ele>479.6</ele>
        <time>2021-08-21T09:17:58.000Z</time>
      </trkpt>
      <trkpt lat="47.94904" lon="7.12752">
        <ele>479.8</ele>
        <time>2021-08-21T09:17:59.000Z</time>
      </trkpt>
      <trkpt lat="47.94922" lon="7.12731">
        <ele>482.2</ele>
        <time>2021-08-21T09:18:19.000Z</time>
      </trkpt>
      <trkpt lat="47.94929" lon="7.12719">
        <ele>483.2</ele>
        <time>2021-08-21T09:18:27.000Z</time>
      </trkpt>
      <trkpt lat="47.94929" lon="7.12717">
        <ele>483.2</ele>
        <time>2021-08-21T09:18:28.000Z</time>
      </trkpt>
      <trkpt lat="47.94938" lon="7.12706">
        <ele>484</ele>
        <time>2021-08-21T09:18:37.000Z</time>
      </trkpt>
      <trkpt lat="47.94939" lon="7.12705">
        <ele>484.2</ele>
        <time>2021-08-21T09:18:38.000Z</time>
      </trkpt>
      <trkpt lat="47.94941" lon="7.12703">
        <ele>484.2</ele>
        <time>2021-08-21T09:18:40.000Z</time>
      </trkpt>
      <trkpt lat="47.94942" lon="7.12702">
        <ele>484.4</ele>
        <time>2021-08-21T09:18:41.000Z</time>
      </trkpt>
      <trkpt lat="47.94943" lon="7.12702">
        <ele>484.4</ele>
        <time>2021-08-21T09:18:42.000Z</time>
      </trkpt>
      <trkpt lat="47.94945" lon="7.12701">
        <ele>484.4</ele>
        <time>2021-08-21T09:18:43.000Z</time>
      </trkpt>
      <trkpt lat="47.94946" lon="7.127">
        <ele>484.6</ele>
        <time>2021-08-21T09:18:44.000Z</time>
      </trkpt>
      <trkpt lat="47.94947" lon="7.12698">
        <ele>484.6</ele>
        <time>2021-08-21T09:18:45.000Z</time>
      </trkpt>
      <trkpt lat="47.94959" lon="7.12689">
        <ele>485.8</ele>
        <time>2021-08-21T09:18:57.000Z</time>
      </trkpt>
      <trkpt lat="47.94969" lon="7.12681">
        <ele>487.4</ele>
        <time>2021-08-21T09:19:08.000Z</time>
      </trkpt>
      <trkpt lat="47.94979" lon="7.12679">
        <ele>488.4</ele>
        <time>2021-08-21T09:19:16.000Z</time>
      </trkpt>
      <trkpt lat="47.94988" lon="7.12673">
        <ele>489.8</ele>
        <time>2021-08-21T09:19:26.000Z</time>
      </trkpt>
      <trkpt lat="47.9499" lon="7.12671">
        <ele>490</ele>
        <time>2021-08-21T09:19:28.000Z</time>
      </trkpt>
      <trkpt lat="47.94997" lon="7.12667">
        <ele>491</ele>
        <time>2021-08-21T09:19:37.000Z</time>
      </trkpt>
      <trkpt lat="47.94999" lon="7.12667">
        <ele>491.2</ele>
        <time>2021-08-21T09:19:39.000Z</time>
      </trkpt>
      <trkpt lat="47.95011" lon="7.12667">
        <ele>491.6</ele>
        <time>2021-08-21T09:19:49.000Z</time>
      </trkpt>
      <trkpt lat="47.95013" lon="7.12666">
        <ele>491.6</ele>
        <time>2021-08-21T09:19:50.000Z</time>
      </trkpt>
      <trkpt lat="47.95016" lon="7.12665">
        <ele>491.6</ele>
        <time>2021-08-21T09:19:52.000Z</time>
      </trkpt>
      <trkpt lat="47.95018" lon="7.12665">
        <ele>491.6</ele>
        <time>2021-08-21T09:19:53.000Z</time>
      </trkpt>
      <trkpt lat="47.9502" lon="7.12666">
        <ele>491.8</ele>
        <time>2021-08-21T09:19:54.000Z</time>
      </trkpt>
      <trkpt lat="47.95026" lon="7.12667">
        <ele>492</ele>
        <time>2021-08-21T09:19:59.000Z</time>
      </trkpt>
      <trkpt lat="47.95048" lon="7.12664">
        <ele>492.4</ele>
        <time>2021-08-21T09:20:13.000Z</time>
      </trkpt>
      <trkpt lat="47.95052" lon="7.12661">
        <ele>492.6</ele>
        <time>2021-08-21T09:20:19.000Z</time>
      </trkpt>
      <trkpt lat="47.95056" lon="7.12658">
        <ele>492.8</ele>
        <time>2021-08-21T09:20:22.000Z</time>
      </trkpt>
      <trkpt lat="47.95078" lon="7.12636">
        <ele>494.4</ele>
        <time>2021-08-21T09:20:40.000Z</time>
      </trkpt>
      <trkpt lat="47.95086" lon="7.12622">
        <ele>495.4</ele>
        <time>2021-08-21T09:20:50.000Z</time>
      </trkpt>
      <trkpt lat="47.95097" lon="7.12602">
        <ele>497</ele>
        <time>2021-08-21T09:21:04.000Z</time>
      </trkpt>
      <trkpt lat="47.95098" lon="7.12601">
        <ele>497.2</ele>
        <time>2021-08-21T09:21:05.000Z</time>
      </trkpt>
      <trkpt lat="47.95098" lon="7.12599">
        <ele>497.4</ele>
        <time>2021-08-21T09:21:06.000Z</time>
      </trkpt>
      <trkpt lat="47.951" lon="7.12596">
        <ele>497.6</ele>
        <time>2021-08-21T09:21:08.000Z</time>
      </trkpt>
      <trkpt lat="47.95105" lon="7.12591">
        <ele>498.2</ele>
        <time>2021-08-21T09:21:14.000Z</time>
      </trkpt>
      <trkpt lat="47.95109" lon="7.12586">
        <ele>499</ele>
        <time>2021-08-21T09:21:19.000Z</time>
      </trkpt>
      <trkpt lat="47.95123" lon="7.1257">
        <ele>501.2</ele>
        <time>2021-08-21T09:21:31.000Z</time>
      </trkpt>
      <trkpt lat="47.95124" lon="7.12569">
        <ele>501.4</ele>
        <time>2021-08-21T09:21:32.000Z</time>
      </trkpt>
      <trkpt lat="47.95126" lon="7.12567">
        <ele>501.8</ele>
        <time>2021-08-21T09:21:34.000Z</time>
      </trkpt>
      <trkpt lat="47.95127" lon="7.12566">
        <ele>501.8</ele>
        <time>2021-08-21T09:21:35.000Z</time>
      </trkpt>
      <trkpt lat="47.95128" lon="7.12564">
        <ele>502</ele>
        <time>2021-08-21T09:21:36.000Z</time>
      </trkpt>
      <trkpt lat="47.95129" lon="7.12563">
        <ele>502.2</ele>
        <time>2021-08-21T09:21:37.000Z</time>
      </trkpt>
      <trkpt lat="47.95131" lon="7.12562">
        <ele>502.4</ele>
        <time>2021-08-21T09:21:38.000Z</time>
      </trkpt>
      <trkpt lat="47.95146" lon="7.12551">
        <ele>504</ele>
        <time>2021-08-21T09:21:51.000Z</time>
      </trkpt>
      <trkpt lat="47.95163" lon="7.12538">
        <ele>506</ele>
        <time>2021-08-21T09:22:07.000Z</time>
      </trkpt>
      <trkpt lat="47.95179" lon="7.12522">
        <ele>508.2</ele>
        <time>2021-08-21T09:22:25.000Z</time>
      </trkpt>
      <trkpt lat="47.95197" lon="7.12507">
        <ele>509.6</ele>
        <time>2021-08-21T09:22:39.000Z</time>
      </trkpt>
      <trkpt lat="47.95213" lon="7.12495">
        <ele>511.2</ele>
        <time>2021-08-21T09:22:54.000Z</time>
      </trkpt>
      <trkpt lat="47.95213" lon="7.12494">
        <ele>511.4</ele>
        <time>2021-08-21T09:22:55.000Z</time>
      </trkpt>
      <trkpt lat="47.95232" lon="7.12478">
        <ele>513.4</ele>
        <time>2021-08-21T09:23:10.000Z</time>
      </trkpt>
      <trkpt lat="47.95245" lon="7.12469">
        <ele>514.8</ele>
        <time>2021-08-21T09:23:23.000Z</time>
      </trkpt>
      <trkpt lat="47.95264" lon="7.12456">
        <ele>516</ele>
        <time>2021-08-21T09:23:39.000Z</time>
      </trkpt>
      <trkpt lat="47.95279" lon="7.12442">
        <ele>517.2</ele>
        <time>2021-08-21T09:23:52.000Z</time>
      </trkpt>
      <trkpt lat="47.95294" lon="7.12431">
        <ele>518.4</ele>
        <time>2021-08-21T09:24:04.000Z</time>
      </trkpt>
      <trkpt lat="47.95297" lon="7.12425">
        <ele>519</ele>
        <time>2021-08-21T09:24:10.000Z</time>
      </trkpt>
      <trkpt lat="47.95298" lon="7.12424">
        <ele>519</ele>
        <time>2021-08-21T09:24:11.000Z</time>
      </trkpt>
      <trkpt lat="47.953" lon="7.1242">
        <ele>519.4</ele>
        <time>2021-08-21T09:24:14.000Z</time>
      </trkpt>
      <trkpt lat="47.953" lon="7.12419">
        <ele>519.6</ele>
        <time>2021-08-21T09:24:15.000Z</time>
      </trkpt>
      <trkpt lat="47.95305" lon="7.12414">
        <ele>520</ele>
        <time>2021-08-21T09:24:21.000Z</time>
      </trkpt>
      <trkpt lat="47.95316" lon="7.12403">
        <ele>521.4</ele>
        <time>2021-08-21T09:24:31.000Z</time>
      </trkpt>
      <trkpt lat="47.9533" lon="7.12391">
        <ele>523.2</ele>
        <time>2021-08-21T09:24:44.000Z</time>
      </trkpt>
      <trkpt lat="47.95342" lon="7.12379">
        <ele>524.2</ele>
        <time>2021-08-21T09:24:55.000Z</time>
      </trkpt>
      <trkpt lat="47.95344" lon="7.12378">
        <ele>524.2</ele>
        <time>2021-08-21T09:24:56.000Z</time>
      </trkpt>
      <trkpt lat="47.95345" lon="7.12377">
        <ele>524.4</ele>
        <time>2021-08-21T09:24:57.000Z</time>
      </trkpt>
      <trkpt lat="47.95347" lon="7.12376">
        <ele>524.4</ele>
        <time>2021-08-21T09:24:58.000Z</time>
      </trkpt>
      <trkpt lat="47.95348" lon="7.12375">
        <ele>524.6</ele>
        <time>2021-08-21T09:24:59.000Z</time>
      </trkpt>
      <trkpt lat="47.95349" lon="7.12374">
        <ele>524.6</ele>
        <time>2021-08-21T09:25:00.000Z</time>
      </trkpt>
      <trkpt lat="47.95357" lon="7.12366">
        <ele>525.2</ele>
        <time>2021-08-21T09:25:08.000Z</time>
      </trkpt>
      <trkpt lat="47.95363" lon="7.12364">
        <ele>525.4</ele>
        <time>2021-08-21T09:25:12.000Z</time>
      </trkpt>
      <trkpt lat="47.95373" lon="7.12364">
        <ele>526</ele>
        <time>2021-08-21T09:25:18.000Z</time>
      </trkpt>
      <trkpt lat="47.95374" lon="7.12364">
        <ele>526</ele>
        <time>2021-08-21T09:25:19.000Z</time>
      </trkpt>
      <trkpt lat="47.95376" lon="7.12364">
        <ele>526</ele>
        <time>2021-08-21T09:25:20.000Z</time>
      </trkpt>
      <trkpt lat="47.95377" lon="7.12363">
        <ele>526.2</ele>
        <time>2021-08-21T09:25:21.000Z</time>
      </trkpt>
      <trkpt lat="47.9538" lon="7.12363">
        <ele>526.2</ele>
        <time>2021-08-21T09:25:23.000Z</time>
      </trkpt>
      <trkpt lat="47.95381" lon="7.12363">
        <ele>526.4</ele>
        <time>2021-08-21T09:25:24.000Z</time>
      </trkpt>
      <trkpt lat="47.95393" lon="7.12361">
        <ele>527.4</ele>
        <time>2021-08-21T09:25:33.000Z</time>
      </trkpt>
      <trkpt lat="47.95397" lon="7.1235">
        <ele>528.4</ele>
        <time>2021-08-21T09:25:43.000Z</time>
      </trkpt>
      <trkpt lat="47.95409" lon="7.12343">
        <ele>529.8</ele>
        <time>2021-08-21T09:25:54.000Z</time>
      </trkpt>
      <trkpt lat="47.95412" lon="7.12341">
        <ele>530.2</ele>
        <time>2021-08-21T09:25:58.000Z</time>
      </trkpt>
      <trkpt lat="47.95419" lon="7.12332">
        <ele>530.8</ele>
        <time>2021-08-21T09:26:05.000Z</time>
      </trkpt>
      <trkpt lat="47.95423" lon="7.12325">
        <ele>531.6</ele>
        <time>2021-08-21T09:26:10.000Z</time>
      </trkpt>
      <trkpt lat="47.95444" lon="7.12297">
        <ele>534.6</ele>
        <time>2021-08-21T09:26:32.000Z</time>
      </trkpt>
      <trkpt lat="47.95445" lon="7.12295">
        <ele>534.8</ele>
        <time>2021-08-21T09:26:33.000Z</time>
      </trkpt>
      <trkpt lat="47.95446" lon="7.12293">
        <ele>534.8</ele>
        <time>2021-08-21T09:26:34.000Z</time>
      </trkpt>
      <trkpt lat="47.95448" lon="7.12291">
        <ele>535</ele>
        <time>2021-08-21T09:26:36.000Z</time>
      </trkpt>
      <trkpt lat="47.95449" lon="7.12289">
        <ele>535.2</ele>
        <time>2021-08-21T09:26:37.000Z</time>
      </trkpt>
      <trkpt lat="47.9545" lon="7.12288">
        <ele>535.2</ele>
        <time>2021-08-21T09:26:38.000Z</time>
      </trkpt>
      <trkpt lat="47.95456" lon="7.12278">
        <ele>536.8</ele>
        <time>2021-08-21T09:26:56.000Z</time>
      </trkpt>
      <trkpt lat="47.95466" lon="7.12269">
        <ele>537.6</ele>
        <time>2021-08-21T09:27:03.000Z</time>
      </trkpt>
      <trkpt lat="47.95479" lon="7.1225">
        <ele>538.8</ele>
        <time>2021-08-21T09:27:16.000Z</time>
      </trkpt>
      <trkpt lat="47.95494" lon="7.12238">
        <ele>539.8</ele>
        <time>2021-08-21T09:27:25.000Z</time>
      </trkpt>
      <trkpt lat="47.95496" lon="7.1223">
        <ele>540.4</ele>
        <time>2021-08-21T09:27:31.000Z</time>
      </trkpt>
      <trkpt lat="47.95502" lon="7.12222">
        <ele>540.8</ele>
        <time>2021-08-21T09:27:36.000Z</time>
      </trkpt>
      <trkpt lat="47.95503" lon="7.1222">
        <ele>540.8</ele>
        <time>2021-08-21T09:27:37.000Z</time>
      </trkpt>
      <trkpt lat="47.95504" lon="7.12218">
        <ele>540.8</ele>
        <time>2021-08-21T09:27:38.000Z</time>
      </trkpt>
      <trkpt lat="47.95505" lon="7.12217">
        <ele>541</ele>
        <time>2021-08-21T09:27:39.000Z</time>
      </trkpt>
      <trkpt lat="47.95507" lon="7.12215">
        <ele>541</ele>
        <time>2021-08-21T09:27:40.000Z</time>
      </trkpt>
      <trkpt lat="47.95509" lon="7.12213">
        <ele>541.2</ele>
        <time>2021-08-21T09:27:42.000Z</time>
      </trkpt>
      <trkpt lat="47.95513" lon="7.122">
        <ele>542.4</ele>
        <time>2021-08-21T09:27:53.000Z</time>
      </trkpt>
      <trkpt lat="47.95521" lon="7.12186">
        <ele>543.4</ele>
        <time>2021-08-21T09:28:03.000Z</time>
      </trkpt>
      <trkpt lat="47.95534" lon="7.12169">
        <ele>545</ele>
        <time>2021-08-21T09:28:16.000Z</time>
      </trkpt>
      <trkpt lat="47.95544" lon="7.12157">
        <ele>546.2</ele>
        <time>2021-08-21T09:28:26.000Z</time>
      </trkpt>
      <trkpt lat="47.95545" lon="7.12154">
        <ele>546.4</ele>
        <time>2021-08-21T09:28:28.000Z</time>
      </trkpt>
      <trkpt lat="47.95546" lon="7.12153">
        <ele>546.4</ele>
        <time>2021-08-21T09:28:29.000Z</time>
      </trkpt>
      <trkpt lat="47.95547" lon="7.12152">
        <ele>546.6</ele>
        <time>2021-08-21T09:28:30.000Z</time>
      </trkpt>
      <trkpt lat="47.95547" lon="7.12151">
        <ele>546.6</ele>
        <time>2021-08-21T09:28:31.000Z</time>
      </trkpt>
      <trkpt lat="47.9556" lon="7.12135">
        <ele>548</ele>
        <time>2021-08-21T09:28:41.000Z</time>
      </trkpt>
      <trkpt lat="47.95573" lon="7.12116">
        <ele>550</ele>
        <time>2021-08-21T09:28:57.000Z</time>
      </trkpt>
      <trkpt lat="47.95582" lon="7.12102">
        <ele>551.6</ele>
        <time>2021-08-21T09:29:10.000Z</time>
      </trkpt>
      <trkpt lat="47.95592" lon="7.12093">
        <ele>552.4</ele>
        <time>2021-08-21T09:29:17.000Z</time>
      </trkpt>
      <trkpt lat="47.95593" lon="7.12092">
        <ele>552.6</ele>
        <time>2021-08-21T09:29:18.000Z</time>
      </trkpt>
      <trkpt lat="47.95597" lon="7.12088">
        <ele>552.8</ele>
        <time>2021-08-21T09:29:21.000Z</time>
      </trkpt>
      <trkpt lat="47.95604" lon="7.12086">
        <ele>553.4</ele>
        <time>2021-08-21T09:29:27.000Z</time>
      </trkpt>
      <trkpt lat="47.95612" lon="7.12083">
        <ele>554.2</ele>
        <time>2021-08-21T09:29:36.000Z</time>
      </trkpt>
      <trkpt lat="47.95618" lon="7.1208">
        <ele>554.6</ele>
        <time>2021-08-21T09:29:40.000Z</time>
      </trkpt>
      <trkpt lat="47.95619" lon="7.12079">
        <ele>554.6</ele>
        <time>2021-08-21T09:29:41.000Z</time>
      </trkpt>
      <trkpt lat="47.95628" lon="7.12078">
        <ele>555</ele>
        <time>2021-08-21T09:29:47.000Z</time>
      </trkpt>
      <trkpt lat="47.95639" lon="7.12082">
        <ele>556.2</ele>
        <time>2021-08-21T09:29:59.000Z</time>
      </trkpt>
      <trkpt lat="47.95643" lon="7.1207">
        <ele>556.4</ele>
        <time>2021-08-21T09:30:20.000Z</time>
      </trkpt>
      <trkpt lat="47.95646" lon="7.12067">
        <ele>556.6</ele>
        <time>2021-08-21T09:30:24.000Z</time>
      </trkpt>
      <trkpt lat="47.95653" lon="7.1206">
        <ele>558</ele>
        <time>2021-08-21T09:30:38.000Z</time>
      </trkpt>
      <trkpt lat="47.95663" lon="7.12052">
        <ele>559</ele>
        <time>2021-08-21T09:30:46.000Z</time>
      </trkpt>
      <trkpt lat="47.9567" lon="7.12049">
        <ele>560</ele>
        <time>2021-08-21T09:30:51.000Z</time>
      </trkpt>
      <trkpt lat="47.95671" lon="7.12048">
        <ele>560.2</ele>
        <time>2021-08-21T09:30:52.000Z</time>
      </trkpt>
      <trkpt lat="47.95674" lon="7.12034">
        <ele>562.4</ele>
        <time>2021-08-21T09:31:06.000Z</time>
      </trkpt>
      <trkpt lat="47.95675" lon="7.12033">
        <ele>562.6</ele>
        <time>2021-08-21T09:31:07.000Z</time>
      </trkpt>
      <trkpt lat="47.95683" lon="7.12018">
        <ele>564.2</ele>
        <time>2021-08-21T09:31:18.000Z</time>
      </trkpt>
      <trkpt lat="47.95684" lon="7.12017">
        <ele>564.4</ele>
        <time>2021-08-21T09:31:19.000Z</time>
      </trkpt>
      <trkpt lat="47.95684" lon="7.12015">
        <ele>564.4</ele>
        <time>2021-08-21T09:31:20.000Z</time>
      </trkpt>
      <trkpt lat="47.95696" lon="7.11988">
        <ele>567.4</ele>
        <time>2021-08-21T09:31:39.000Z</time>
      </trkpt>
      <trkpt lat="47.957" lon="7.11984">
        <ele>568.2</ele>
        <time>2021-08-21T09:31:44.000Z</time>
      </trkpt>
      <trkpt lat="47.95702" lon="7.11982">
        <ele>568.6</ele>
        <time>2021-08-21T09:31:46.000Z</time>
      </trkpt>
      <trkpt lat="47.95705" lon="7.11973">
        <ele>569.6</ele>
        <time>2021-08-21T09:31:53.000Z</time>
      </trkpt>
      <trkpt lat="47.9572" lon="7.11958">
        <ele>572.2</ele>
        <time>2021-08-21T09:32:11.000Z</time>
      </trkpt>
      <trkpt lat="47.95721" lon="7.11953">
        <ele>572.8</ele>
        <time>2021-08-21T09:32:16.000Z</time>
      </trkpt>
      <trkpt lat="47.95725" lon="7.11941">
        <ele>574.2</ele>
        <time>2021-08-21T09:32:28.000Z</time>
      </trkpt>
      <trkpt lat="47.95746" lon="7.1193">
        <ele>575.8</ele>
        <time>2021-08-21T09:32:44.000Z</time>
      </trkpt>
      <trkpt lat="47.95768" lon="7.11912">
        <ele>577.2</ele>
        <time>2021-08-21T09:33:04.000Z</time>
      </trkpt>
      <trkpt lat="47.95776" lon="7.11908">
        <ele>578</ele>
        <time>2021-08-21T09:33:11.000Z</time>
      </trkpt>
      <trkpt lat="47.9578" lon="7.11904">
        <ele>578.6</ele>
        <time>2021-08-21T09:33:15.000Z</time>
      </trkpt>
      <trkpt lat="47.95781" lon="7.11903">
        <ele>578.6</ele>
        <time>2021-08-21T09:33:16.000Z</time>
      </trkpt>
      <trkpt lat="47.95782" lon="7.11903">
        <ele>578.8</ele>
        <time>2021-08-21T09:33:17.000Z</time>
      </trkpt>
      <trkpt lat="47.9579" lon="7.11891">
        <ele>580.6</ele>
        <time>2021-08-21T09:33:30.000Z</time>
      </trkpt>
      <trkpt lat="47.95795" lon="7.11887">
        <ele>581.2</ele>
        <time>2021-08-21T09:33:35.000Z</time>
      </trkpt>
      <trkpt lat="47.95796" lon="7.11886">
        <ele>581.4</ele>
        <time>2021-08-21T09:33:36.000Z</time>
      </trkpt>
      <trkpt lat="47.95802" lon="7.11885">
        <ele>582.8</ele>
        <time>2021-08-21T09:33:43.000Z</time>
      </trkpt>
      <trkpt lat="47.95817" lon="7.11882">
        <ele>585.6</ele>
        <time>2021-08-21T09:33:58.000Z</time>
      </trkpt>
      <trkpt lat="47.95825" lon="7.11877">
        <ele>587</ele>
        <time>2021-08-21T09:34:07.000Z</time>
      </trkpt>
      <trkpt lat="47.95836" lon="7.11874">
        <ele>589.4</ele>
        <time>2021-08-21T09:34:19.000Z</time>
      </trkpt>
      <trkpt lat="47.95837" lon="7.11874">
        <ele>589.6</ele>
        <time>2021-08-21T09:34:20.000Z</time>
      </trkpt>
      <trkpt lat="47.95846" lon="7.11871">
        <ele>591.6</ele>
        <time>2021-08-21T09:34:32.000Z</time>
      </trkpt>
      <trkpt lat="47.95856" lon="7.11868">
        <ele>593</ele>
        <time>2021-08-21T09:34:42.000Z</time>
      </trkpt>
      <trkpt lat="47.95857" lon="7.11867">
        <ele>593</ele>
        <time>2021-08-21T09:34:43.000Z</time>
      </trkpt>
      <trkpt lat="47.95862" lon="7.11866">
        <ele>594</ele>
        <time>2021-08-21T09:34:48.000Z</time>
      </trkpt>
      <trkpt lat="47.95866" lon="7.11864">
        <ele>594.4</ele>
        <time>2021-08-21T09:34:52.000Z</time>
      </trkpt>
      <trkpt lat="47.95866" lon="7.1186">
        <ele>594.4</ele>
        <time>2021-08-21T09:34:55.000Z</time>
      </trkpt>
      <trkpt lat="47.95872" lon="7.11851">
        <ele>595.2</ele>
        <time>2021-08-21T09:35:03.000Z</time>
      </trkpt>
      <trkpt lat="47.95881" lon="7.11842">
        <ele>597</ele>
        <time>2021-08-21T09:35:14.000Z</time>
      </trkpt>
      <trkpt lat="47.95887" lon="7.11837">
        <ele>597.8</ele>
        <time>2021-08-21T09:35:22.000Z</time>
      </trkpt>
      <trkpt lat="47.9589" lon="7.11833">
        <ele>598.4</ele>
        <time>2021-08-21T09:35:26.000Z</time>
      </trkpt>
      <trkpt lat="47.95904" lon="7.11828">
        <ele>601.4</ele>
        <time>2021-08-21T09:35:49.000Z</time>
      </trkpt>
      <trkpt lat="47.95917" lon="7.11831">
        <ele>604</ele>
        <time>2021-08-21T09:36:03.000Z</time>
      </trkpt>
      <trkpt lat="47.95932" lon="7.11837">
        <ele>606.8</ele>
        <time>2021-08-21T09:36:22.000Z</time>
      </trkpt>
      <trkpt lat="47.95933" lon="7.11838">
        <ele>607</ele>
        <time>2021-08-21T09:36:23.000Z</time>
      </trkpt>
      <trkpt lat="47.95937" lon="7.1184">
        <ele>608</ele>
        <time>2021-08-21T09:36:29.000Z</time>
      </trkpt>
      <trkpt lat="47.95948" lon="7.11844">
        <ele>609.2</ele>
        <time>2021-08-21T09:36:37.000Z</time>
      </trkpt>
      <trkpt lat="47.95957" lon="7.11851">
        <ele>611</ele>
        <time>2021-08-21T09:36:49.000Z</time>
      </trkpt>
      <trkpt lat="47.95971" lon="7.11854">
        <ele>614</ele>
        <time>2021-08-21T09:37:10.000Z</time>
      </trkpt>
      <trkpt lat="47.9598" lon="7.1186">
        <ele>617</ele>
        <time>2021-08-21T09:37:27.000Z</time>
      </trkpt>
      <trkpt lat="47.95987" lon="7.11865">
        <ele>618.4</ele>
        <time>2021-08-21T09:37:37.000Z</time>
      </trkpt>
      <trkpt lat="47.9599" lon="7.11868">
        <ele>618.8</ele>
        <time>2021-08-21T09:37:40.000Z</time>
      </trkpt>
      <trkpt lat="47.95998" lon="7.11879">
        <ele>620.8</ele>
        <time>2021-08-21T09:37:52.000Z</time>
      </trkpt>
      <trkpt lat="47.95999" lon="7.1188">
        <ele>621</ele>
        <time>2021-08-21T09:37:53.000Z</time>
      </trkpt>
      <trkpt lat="47.96" lon="7.1188">
        <ele>621.2</ele>
        <time>2021-08-21T09:37:54.000Z</time>
      </trkpt>
      <trkpt lat="47.96002" lon="7.11882">
        <ele>621.6</ele>
        <time>2021-08-21T09:37:57.000Z</time>
      </trkpt>
      <trkpt lat="47.96016" lon="7.11891">
        <ele>624.6</ele>
        <time>2021-08-21T09:38:20.000Z</time>
      </trkpt>
      <trkpt lat="47.96017" lon="7.11891">
        <ele>624.8</ele>
        <time>2021-08-21T09:38:22.000Z</time>
      </trkpt>
      <trkpt lat="47.96034" lon="7.11907">
        <ele>628</ele>
        <time>2021-08-21T09:38:45.000Z</time>
      </trkpt>
      <trkpt lat="47.96042" lon="7.11919">
        <ele>629.8</ele>
        <time>2021-08-21T09:38:56.000Z</time>
      </trkpt>
      <trkpt lat="47.96051" lon="7.11927">
        <ele>631.8</ele>
        <time>2021-08-21T09:39:11.000Z</time>
      </trkpt>
      <trkpt lat="47.96059" lon="7.11929">
        <ele>633.2</ele>
        <time>2021-08-21T09:39:20.000Z</time>
      </trkpt>
      <trkpt lat="47.96068" lon="7.11935">
        <ele>634.8</ele>
        <time>2021-08-21T09:39:34.000Z</time>
      </trkpt>
      <trkpt lat="47.96082" lon="7.11951">
        <ele>637</ele>
        <time>2021-08-21T09:39:51.000Z</time>
      </trkpt>
      <trkpt lat="47.9609" lon="7.11955">
        <ele>638.2</ele>
        <time>2021-08-21T09:39:58.000Z</time>
      </trkpt>
      <trkpt lat="47.96095" lon="7.1196">
        <ele>639.4</ele>
        <time>2021-08-21T09:40:05.000Z</time>
      </trkpt>
      <trkpt lat="47.96099" lon="7.11962">
        <ele>639.8</ele>
        <time>2021-08-21T09:40:09.000Z</time>
      </trkpt>
      <trkpt lat="47.96104" lon="7.11969">
        <ele>641</ele>
        <time>2021-08-21T09:40:17.000Z</time>
      </trkpt>
      <trkpt lat="47.96104" lon="7.11971">
        <ele>641</ele>
        <time>2021-08-21T09:40:18.000Z</time>
      </trkpt>
      <trkpt lat="47.96105" lon="7.11972">
        <ele>641.2</ele>
        <time>2021-08-21T09:40:19.000Z</time>
      </trkpt>
      <trkpt lat="47.96111" lon="7.11993">
        <ele>643.6</ele>
        <time>2021-08-21T09:40:36.000Z</time>
      </trkpt>
      <trkpt lat="47.96118" lon="7.12003">
        <ele>645.4</ele>
        <time>2021-08-21T09:40:53.000Z</time>
      </trkpt>
      <trkpt lat="47.96118" lon="7.12002">
        <ele>645.6</ele>
        <time>2021-08-21T09:40:54.000Z</time>
      </trkpt>
      <trkpt lat="47.9612" lon="7.11994">
        <ele>646</ele>
        <time>2021-08-21T09:41:00.000Z</time>
      </trkpt>
      <trkpt lat="47.96122" lon="7.11985">
        <ele>646.4</ele>
        <time>2021-08-21T09:41:05.000Z</time>
      </trkpt>
      <trkpt lat="47.96118" lon="7.1197">
        <ele>647.4</ele>
        <time>2021-08-21T09:41:14.000Z</time>
      </trkpt>
      <trkpt lat="47.96115" lon="7.11959">
        <ele>648.4</ele>
        <time>2021-08-21T09:41:22.000Z</time>
      </trkpt>
      <trkpt lat="47.96105" lon="7.11927">
        <ele>651</ele>
        <time>2021-08-21T09:41:45.000Z</time>
      </trkpt>
      <trkpt lat="47.96104" lon="7.11926">
        <ele>651.2</ele>
        <time>2021-08-21T09:41:46.000Z</time>
      </trkpt>
      <trkpt lat="47.96095" lon="7.119">
        <ele>652.4</ele>
        <time>2021-08-21T09:42:02.000Z</time>
      </trkpt>
      <trkpt lat="47.9609" lon="7.11875">
        <ele>653.8</ele>
        <time>2021-08-21T09:42:17.000Z</time>
      </trkpt>
      <trkpt lat="47.96096" lon="7.11867">
        <ele>654.2</ele>
        <time>2021-08-21T09:42:24.000Z</time>
      </trkpt>
      <trkpt lat="47.96097" lon="7.11866">
        <ele>654.4</ele>
        <time>2021-08-21T09:42:25.000Z</time>
      </trkpt>
      <trkpt lat="47.96106" lon="7.11878">
        <ele>655</ele>
        <time>2021-08-21T09:42:34.000Z</time>
      </trkpt>
      <trkpt lat="47.96108" lon="7.11894">
        <ele>656.2</ele>
        <time>2021-08-21T09:42:45.000Z</time>
      </trkpt>
      <trkpt lat="47.9611" lon="7.11904">
        <ele>657</ele>
        <time>2021-08-21T09:42:52.000Z</time>
      </trkpt>
      <trkpt lat="47.96118" lon="7.11926">
        <ele>659.4</ele>
        <time>2021-08-21T09:43:12.000Z</time>
      </trkpt>
      <trkpt lat="47.96124" lon="7.11934">
        <ele>660.6</ele>
        <time>2021-08-21T09:43:20.000Z</time>
      </trkpt>
      <trkpt lat="47.96128" lon="7.1194">
        <ele>661.2</ele>
        <time>2021-08-21T09:43:26.000Z</time>
      </trkpt>
      <trkpt lat="47.96134" lon="7.11946">
        <ele>662.2</ele>
        <time>2021-08-21T09:43:33.000Z</time>
      </trkpt>
      <trkpt lat="47.96134" lon="7.11948">
        <ele>662.4</ele>
        <time>2021-08-21T09:43:34.000Z</time>
      </trkpt>
      <trkpt lat="47.9614" lon="7.11955">
        <ele>663.8</ele>
        <time>2021-08-21T09:43:45.000Z</time>
      </trkpt>
      <trkpt lat="47.96149" lon="7.11968">
        <ele>665.8</ele>
        <time>2021-08-21T09:44:00.000Z</time>
      </trkpt>
      <trkpt lat="47.96163" lon="7.1199">
        <ele>668.2</ele>
        <time>2021-08-21T09:44:19.000Z</time>
      </trkpt>
      <trkpt lat="47.9617" lon="7.12">
        <ele>669.4</ele>
        <time>2021-08-21T09:44:28.000Z</time>
      </trkpt>
      <trkpt lat="47.96184" lon="7.12013">
        <ele>671.8</ele>
        <time>2021-08-21T09:44:46.000Z</time>
      </trkpt>
      <trkpt lat="47.96188" lon="7.12017">
        <ele>672.4</ele>
        <time>2021-08-21T09:44:51.000Z</time>
      </trkpt>
      <trkpt lat="47.96193" lon="7.1202">
        <ele>673.2</ele>
        <time>2021-08-21T09:44:56.000Z</time>
      </trkpt>
      <trkpt lat="47.96195" lon="7.1202">
        <ele>673.4</ele>
        <time>2021-08-21T09:44:57.000Z</time>
      </trkpt>
      <trkpt lat="47.96196" lon="7.1202">
        <ele>673.8</ele>
        <time>2021-08-21T09:44:59.000Z</time>
      </trkpt>
      <trkpt lat="47.96202" lon="7.12023">
        <ele>674.4</ele>
        <time>2021-08-21T09:45:04.000Z</time>
      </trkpt>
      <trkpt lat="47.96212" lon="7.12031">
        <ele>676.6</ele>
        <time>2021-08-21T09:45:15.000Z</time>
      </trkpt>
      <trkpt lat="47.96216" lon="7.12031">
        <ele>677.2</ele>
        <time>2021-08-21T09:45:19.000Z</time>
      </trkpt>
      <trkpt lat="47.96236" lon="7.12029">
        <ele>680.2</ele>
        <time>2021-08-21T09:45:41.000Z</time>
      </trkpt>
      <trkpt lat="47.96247" lon="7.12026">
        <ele>682.2</ele>
        <time>2021-08-21T09:45:54.000Z</time>
      </trkpt>
      <trkpt lat="47.9626" lon="7.1202">
        <ele>684</ele>
        <time>2021-08-21T09:46:07.000Z</time>
      </trkpt>
      <trkpt lat="47.9627" lon="7.12022">
        <ele>685.6</ele>
        <time>2021-08-21T09:46:18.000Z</time>
      </trkpt>
      <trkpt lat="47.96275" lon="7.12022">
        <ele>686.2</ele>
        <time>2021-08-21T09:46:24.000Z</time>
      </trkpt>
      <trkpt lat="47.96289" lon="7.12018">
        <ele>688.4</ele>
        <time>2021-08-21T09:46:39.000Z</time>
      </trkpt>
      <trkpt lat="47.96303" lon="7.1202">
        <ele>690.6</ele>
        <time>2021-08-21T09:46:56.000Z</time>
      </trkpt>
      <trkpt lat="47.96305" lon="7.12019">
        <ele>691</ele>
        <time>2021-08-21T09:46:58.000Z</time>
      </trkpt>
      <trkpt lat="47.96317" lon="7.12018">
        <ele>692.2</ele>
        <time>2021-08-21T09:47:07.000Z</time>
      </trkpt>
      <trkpt lat="47.96318" lon="7.12017">
        <ele>692.4</ele>
        <time>2021-08-21T09:47:08.000Z</time>
      </trkpt>
      <trkpt lat="47.96327" lon="7.12016">
        <ele>694</ele>
        <time>2021-08-21T09:47:20.000Z</time>
      </trkpt>
      <trkpt lat="47.96328" lon="7.12016">
        <ele>694.2</ele>
        <time>2021-08-21T09:47:21.000Z</time>
      </trkpt>
      <trkpt lat="47.96346" lon="7.12023">
        <ele>697.4</ele>
        <time>2021-08-21T09:47:44.000Z</time>
      </trkpt>
      <trkpt lat="47.96352" lon="7.12025">
        <ele>698.2</ele>
        <time>2021-08-21T09:47:50.000Z</time>
      </trkpt>
      <trkpt lat="47.96356" lon="7.12027">
        <ele>698.8</ele>
        <time>2021-08-21T09:47:54.000Z</time>
      </trkpt>
      <trkpt lat="47.96358" lon="7.12028">
        <ele>699</ele>
        <time>2021-08-21T09:47:56.000Z</time>
      </trkpt>
      <trkpt lat="47.96362" lon="7.1203">
        <ele>699.2</ele>
        <time>2021-08-21T09:47:59.000Z</time>
      </trkpt>
      <trkpt lat="47.96371" lon="7.12033">
        <ele>700.4</ele>
        <time>2021-08-21T09:48:07.000Z</time>
      </trkpt>
      <trkpt lat="47.96377" lon="7.12035">
        <ele>701.6</ele>
        <time>2021-08-21T09:48:16.000Z</time>
      </trkpt>
      <trkpt lat="47.96389" lon="7.12039">
        <ele>703.4</ele>
        <time>2021-08-21T09:48:29.000Z</time>
      </trkpt>
      <trkpt lat="47.96398" lon="7.12046">
        <ele>705</ele>
        <time>2021-08-21T09:48:40.000Z</time>
      </trkpt>
      <trkpt lat="47.96418" lon="7.12066">
        <ele>708.2</ele>
        <time>2021-08-21T09:49:03.000Z</time>
      </trkpt>
      <trkpt lat="47.96426" lon="7.12069">
        <ele>709.4</ele>
        <time>2021-08-21T09:49:10.000Z</time>
      </trkpt>
      <trkpt lat="47.96428" lon="7.12068">
        <ele>709.6</ele>
        <time>2021-08-21T09:49:12.000Z</time>
      </trkpt>
      <trkpt lat="47.96444" lon="7.12072">
        <ele>711.4</ele>
        <time>2021-08-21T09:49:29.000Z</time>
      </trkpt>
      <trkpt lat="47.96453" lon="7.12091">
        <ele>714.6</ele>
        <time>2021-08-21T09:49:49.000Z</time>
      </trkpt>
      <trkpt lat="47.96458" lon="7.12097">
        <ele>715.4</ele>
        <time>2021-08-21T09:49:55.000Z</time>
      </trkpt>
      <trkpt lat="47.96469" lon="7.12097">
        <ele>717.2</ele>
        <time>2021-08-21T09:50:08.000Z</time>
      </trkpt>
      <trkpt lat="47.96476" lon="7.1211">
        <ele>720.4</ele>
        <time>2021-08-21T09:50:28.000Z</time>
      </trkpt>
      <trkpt lat="47.96476" lon="7.12121">
        <ele>723.4</ele>
        <time>2021-08-21T09:50:50.000Z</time>
      </trkpt>
      <trkpt lat="47.96465" lon="7.12124">
        <ele>726</ele>
        <time>2021-08-21T09:51:07.000Z</time>
      </trkpt>
      <trkpt lat="47.96453" lon="7.1213">
        <ele>727.4</ele>
        <time>2021-08-21T09:51:17.000Z</time>
      </trkpt>
      <trkpt lat="47.96449" lon="7.12132">
        <ele>728</ele>
        <time>2021-08-21T09:51:21.000Z</time>
      </trkpt>
      <trkpt lat="47.96437" lon="7.12141">
        <ele>731</ele>
        <time>2021-08-21T09:51:42.000Z</time>
      </trkpt>
      <trkpt lat="47.96429" lon="7.12146">
        <ele>732.4</ele>
        <time>2021-08-21T09:51:53.000Z</time>
      </trkpt>
      <trkpt lat="47.96417" lon="7.1215">
        <ele>734.2</ele>
        <time>2021-08-21T09:52:07.000Z</time>
      </trkpt>
      <trkpt lat="47.96414" lon="7.12154">
        <ele>735.2</ele>
        <time>2021-08-21T09:52:13.000Z</time>
      </trkpt>
      <trkpt lat="47.96408" lon="7.12156">
        <ele>736.2</ele>
        <time>2021-08-21T09:52:20.000Z</time>
      </trkpt>
      <trkpt lat="47.964" lon="7.12161">
        <ele>737.6</ele>
        <time>2021-08-21T09:52:30.000Z</time>
      </trkpt>
      <trkpt lat="47.96388" lon="7.12165">
        <ele>740.4</ele>
        <time>2021-08-21T09:52:47.000Z</time>
      </trkpt>
      <trkpt lat="47.96378" lon="7.12178">
        <ele>742.2</ele>
        <time>2021-08-21T09:52:59.000Z</time>
      </trkpt>
      <trkpt lat="47.96371" lon="7.12184">
        <ele>743.6</ele>
        <time>2021-08-21T09:53:09.000Z</time>
      </trkpt>
      <trkpt lat="47.96364" lon="7.12193">
        <ele>745</ele>
        <time>2021-08-21T09:53:20.000Z</time>
      </trkpt>
      <trkpt lat="47.96358" lon="7.12203">
        <ele>746.6</ele>
        <time>2021-08-21T09:53:30.000Z</time>
      </trkpt>
      <trkpt lat="47.96351" lon="7.12211">
        <ele>748</ele>
        <time>2021-08-21T09:53:41.000Z</time>
      </trkpt>
      <trkpt lat="47.96364" lon="7.12219">
        <ele>752</ele>
        <time>2021-08-21T09:54:07.000Z</time>
      </trkpt>
      <trkpt lat="47.96369" lon="7.1222">
        <ele>752.8</ele>
        <time>2021-08-21T09:54:13.000Z</time>
      </trkpt>
      <trkpt lat="47.96372" lon="7.12219">
        <ele>753</ele>
        <time>2021-08-21T09:54:15.000Z</time>
      </trkpt>
      <trkpt lat="47.96385" lon="7.12223">
        <ele>754.8</ele>
        <time>2021-08-21T09:54:29.000Z</time>
      </trkpt>
      <trkpt lat="47.96408" lon="7.12226">
        <ele>758.6</ele>
        <time>2021-08-21T09:54:57.000Z</time>
      </trkpt>
      <trkpt lat="47.96409" lon="7.12226">
        <ele>758.6</ele>
        <time>2021-08-21T09:54:58.000Z</time>
      </trkpt>
      <trkpt lat="47.96422" lon="7.12229">
        <ele>760.8</ele>
        <time>2021-08-21T09:55:12.000Z</time>
      </trkpt>
      <trkpt lat="47.96429" lon="7.1223">
        <ele>761.6</ele>
        <time>2021-08-21T09:55:17.000Z</time>
      </trkpt>
      <trkpt lat="47.96441" lon="7.12235">
        <ele>764.2</ele>
        <time>2021-08-21T09:55:36.000Z</time>
      </trkpt>
      <trkpt lat="47.96446" lon="7.12234">
        <ele>764.8</ele>
        <time>2021-08-21T09:55:40.000Z</time>
      </trkpt>
      <trkpt lat="47.96464" lon="7.1224">
        <ele>767.8</ele>
        <time>2021-08-21T09:56:01.000Z</time>
      </trkpt>
      <trkpt lat="47.96466" lon="7.12243">
        <ele>768.2</ele>
        <time>2021-08-21T09:56:04.000Z</time>
      </trkpt>
      <trkpt lat="47.96469" lon="7.12244">
        <ele>769</ele>
        <time>2021-08-21T09:56:09.000Z</time>
      </trkpt>
      <trkpt lat="47.96478" lon="7.12253">
        <ele>772.2</ele>
        <time>2021-08-21T09:56:26.000Z</time>
      </trkpt>
      <trkpt lat="47.96502" lon="7.12254">
        <ele>775.2</ele>
        <time>2021-08-21T09:56:52.000Z</time>
      </trkpt>
      <trkpt lat="47.96534" lon="7.12265">
        <ele>778.6</ele>
        <time>2021-08-21T09:57:22.000Z</time>
      </trkpt>
      <trkpt lat="47.96538" lon="7.12286">
        <ele>779.8</ele>
        <time>2021-08-21T09:57:34.000Z</time>
      </trkpt>
      <trkpt lat="47.9654" lon="7.12288">
        <ele>780</ele>
        <time>2021-08-21T09:57:36.000Z</time>
      </trkpt>
      <trkpt lat="47.96547" lon="7.123">
        <ele>783.2</ele>
        <time>2021-08-21T09:57:56.000Z</time>
      </trkpt>
      <trkpt lat="47.9656" lon="7.1232">
        <ele>786.4</ele>
        <time>2021-08-21T09:58:16.000Z</time>
      </trkpt>
      <trkpt lat="47.96572" lon="7.12339">
        <ele>789.6</ele>
        <time>2021-08-21T09:58:41.000Z</time>
      </trkpt>
      <trkpt lat="47.96587" lon="7.12355">
        <ele>792.6</ele>
        <time>2021-08-21T09:59:04.000Z</time>
      </trkpt>
      <trkpt lat="47.96602" lon="7.12376">
        <ele>795.8</ele>
        <time>2021-08-21T09:59:26.000Z</time>
      </trkpt>
      <trkpt lat="47.96613" lon="7.12389">
        <ele>799</ele>
        <time>2021-08-21T09:59:48.000Z</time>
      </trkpt>
      <trkpt lat="47.96622" lon="7.12403">
        <ele>802</ele>
        <time>2021-08-21T10:00:07.000Z</time>
      </trkpt>
      <trkpt lat="47.96621" lon="7.12407">
        <ele>804.6</ele>
        <time>2021-08-21T10:00:23.000Z</time>
      </trkpt>
      <trkpt lat="47.9662" lon="7.12408">
        <ele>804.8</ele>
        <time>2021-08-21T10:00:25.000Z</time>
      </trkpt>
      <trkpt lat="47.96618" lon="7.12408">
        <ele>805.2</ele>
        <time>2021-08-21T10:00:28.000Z</time>
      </trkpt>
      <trkpt lat="47.96604" lon="7.12407">
        <ele>807.6</ele>
        <time>2021-08-21T10:00:45.000Z</time>
      </trkpt>
      <trkpt lat="47.96603" lon="7.12406">
        <ele>807.8</ele>
        <time>2021-08-21T10:00:46.000Z</time>
      </trkpt>
      <trkpt lat="47.96598" lon="7.12405">
        <ele>808.4</ele>
        <time>2021-08-21T10:00:50.000Z</time>
      </trkpt>
      <trkpt lat="47.9659" lon="7.12407">
        <ele>811.4</ele>
        <time>2021-08-21T10:01:09.000Z</time>
      </trkpt>
      <trkpt lat="47.96578" lon="7.12409">
        <ele>814.2</ele>
        <time>2021-08-21T10:01:26.000Z</time>
      </trkpt>
      <trkpt lat="47.96572" lon="7.12411">
        <ele>815.6</ele>
        <time>2021-08-21T10:01:34.000Z</time>
      </trkpt>
      <trkpt lat="47.9656" lon="7.12412">
        <ele>818.2</ele>
        <time>2021-08-21T10:01:51.000Z</time>
      </trkpt>
      <trkpt lat="47.96553" lon="7.1241">
        <ele>819.4</ele>
        <time>2021-08-21T10:01:57.000Z</time>
      </trkpt>
      <trkpt lat="47.96552" lon="7.1241">
        <ele>819.4</ele>
        <time>2021-08-21T10:01:58.000Z</time>
      </trkpt>
      <trkpt lat="47.96548" lon="7.1241">
        <ele>819.8</ele>
        <time>2021-08-21T10:02:02.000Z</time>
      </trkpt>
      <trkpt lat="47.96539" lon="7.1241">
        <ele>820.8</ele>
        <time>2021-08-21T10:02:12.000Z</time>
      </trkpt>
      <trkpt lat="47.96527" lon="7.12409">
        <ele>822.4</ele>
        <time>2021-08-21T10:02:23.000Z</time>
      </trkpt>
      <trkpt lat="47.96525" lon="7.1241">
        <ele>822.6</ele>
        <time>2021-08-21T10:02:25.000Z</time>
      </trkpt>
      <trkpt lat="47.96521" lon="7.12411">
        <ele>823.2</ele>
        <time>2021-08-21T10:02:30.000Z</time>
      </trkpt>
      <trkpt lat="47.96511" lon="7.12414">
        <ele>824.6</ele>
        <time>2021-08-21T10:02:42.000Z</time>
      </trkpt>
      <trkpt lat="47.96501" lon="7.1242">
        <ele>827</ele>
        <time>2021-08-21T10:02:56.000Z</time>
      </trkpt>
      <trkpt lat="47.96497" lon="7.1242">
        <ele>828.8</ele>
        <time>2021-08-21T10:03:12.000Z</time>
      </trkpt>
      <trkpt lat="47.96499" lon="7.12421">
        <ele>829.2</ele>
        <time>2021-08-21T10:03:15.000Z</time>
      </trkpt>
      <trkpt lat="47.96516" lon="7.12436">
        <ele>830.8</ele>
        <time>2021-08-21T10:03:30.000Z</time>
      </trkpt>
      <trkpt lat="47.96535" lon="7.12455">
        <ele>834.2</ele>
        <time>2021-08-21T10:03:55.000Z</time>
      </trkpt>
      <trkpt lat="47.9654" lon="7.1246">
        <ele>835.6</ele>
        <time>2021-08-21T10:04:04.000Z</time>
      </trkpt>
      <trkpt lat="47.96559" lon="7.12478">
        <ele>838.8</ele>
        <time>2021-08-21T10:04:31.000Z</time>
      </trkpt>
      <trkpt lat="47.96566" lon="7.12484">
        <ele>839.8</ele>
        <time>2021-08-21T10:04:39.000Z</time>
      </trkpt>
      <trkpt lat="47.96576" lon="7.12496">
        <ele>841.4</ele>
        <time>2021-08-21T10:04:53.000Z</time>
      </trkpt>
      <trkpt lat="47.96578" lon="7.12499">
        <ele>841.6</ele>
        <time>2021-08-21T10:04:56.000Z</time>
      </trkpt>
      <trkpt lat="47.96581" lon="7.12503">
        <ele>842.2</ele>
        <time>2021-08-21T10:04:59.000Z</time>
      </trkpt>
      <trkpt lat="47.96585" lon="7.12506">
        <ele>842.8</ele>
        <time>2021-08-21T10:05:04.000Z</time>
      </trkpt>
      <trkpt lat="47.96594" lon="7.12512">
        <ele>844.6</ele>
        <time>2021-08-21T10:05:16.000Z</time>
      </trkpt>
      <trkpt lat="47.96596" lon="7.12513">
        <ele>844.8</ele>
        <time>2021-08-21T10:05:18.000Z</time>
      </trkpt>
      <trkpt lat="47.96603" lon="7.12519">
        <ele>845.8</ele>
        <time>2021-08-21T10:05:27.000Z</time>
      </trkpt>
      <trkpt lat="47.96619" lon="7.12534">
        <ele>848.8</ele>
        <time>2021-08-21T10:05:48.000Z</time>
      </trkpt>
      <trkpt lat="47.96622" lon="7.12539">
        <ele>849.4</ele>
        <time>2021-08-21T10:05:53.000Z</time>
      </trkpt>
      <trkpt lat="47.96642" lon="7.1256">
        <ele>852</ele>
        <time>2021-08-21T10:06:15.000Z</time>
      </trkpt>
      <trkpt lat="47.96655" lon="7.12566">
        <ele>855</ele>
        <time>2021-08-21T10:06:39.000Z</time>
      </trkpt>
      <trkpt lat="47.96673" lon="7.12571">
        <ele>858</ele>
        <time>2021-08-21T10:07:03.000Z</time>
      </trkpt>
      <trkpt lat="47.96686" lon="7.12585">
        <ele>861</ele>
        <time>2021-08-21T10:07:26.000Z</time>
      </trkpt>
      <trkpt lat="47.96685" lon="7.12585">
        <ele>861.2</ele>
        <time>2021-08-21T10:07:27.000Z</time>
      </trkpt>
      <trkpt lat="47.96684" lon="7.12586">
        <ele>861.2</ele>
        <time>2021-08-21T10:07:28.000Z</time>
      </trkpt>
      <trkpt lat="47.96679" lon="7.12592">
        <ele>862.8</ele>
        <time>2021-08-21T10:07:41.000Z</time>
      </trkpt>
      <trkpt lat="47.96668" lon="7.12605">
        <ele>864.8</ele>
        <time>2021-08-21T10:08:00.000Z</time>
      </trkpt>
      <trkpt lat="47.96664" lon="7.12607">
        <ele>865.4</ele>
        <time>2021-08-21T10:08:05.000Z</time>
      </trkpt>
      <trkpt lat="47.96649" lon="7.1261">
        <ele>867.6</ele>
        <time>2021-08-21T10:08:18.000Z</time>
      </trkpt>
      <trkpt lat="47.96634" lon="7.12616">
        <ele>869.2</ele>
        <time>2021-08-21T10:08:31.000Z</time>
      </trkpt>
      <trkpt lat="47.9662" lon="7.12622">
        <ele>870.4</ele>
        <time>2021-08-21T10:08:42.000Z</time>
      </trkpt>
      <trkpt lat="47.96608" lon="7.12628">
        <ele>871.6</ele>
        <time>2021-08-21T10:08:53.000Z</time>
      </trkpt>
      <trkpt lat="47.96594" lon="7.12638">
        <ele>872.6</ele>
        <time>2021-08-21T10:09:05.000Z</time>
      </trkpt>
      <trkpt lat="47.96583" lon="7.12644">
        <ele>873.2</ele>
        <time>2021-08-21T10:09:14.000Z</time>
      </trkpt>
      <trkpt lat="47.96574" lon="7.12657">
        <ele>874.2</ele>
        <time>2021-08-21T10:09:27.000Z</time>
      </trkpt>
      <trkpt lat="47.96569" lon="7.1267">
        <ele>875.6</ele>
        <time>2021-08-21T10:09:38.000Z</time>
      </trkpt>
      <trkpt lat="47.96573" lon="7.12674">
        <ele>876.6</ele>
        <time>2021-08-21T10:09:45.000Z</time>
      </trkpt>
      <trkpt lat="47.96588" lon="7.12679">
        <ele>879.6</ele>
        <time>2021-08-21T10:10:05.000Z</time>
      </trkpt>
      <trkpt lat="47.9659" lon="7.1268">
        <ele>879.8</ele>
        <time>2021-08-21T10:10:07.000Z</time>
      </trkpt>
      <trkpt lat="47.96592" lon="7.12681">
        <ele>880.2</ele>
        <time>2021-08-21T10:10:09.000Z</time>
      </trkpt>
      <trkpt lat="47.9661" lon="7.12684">
        <ele>882</ele>
        <time>2021-08-21T10:10:23.000Z</time>
      </trkpt>
      <trkpt lat="47.96619" lon="7.12688">
        <ele>883.6</ele>
        <time>2021-08-21T10:10:32.000Z</time>
      </trkpt>
      <trkpt lat="47.96636" lon="7.12697">
        <ele>886.6</ele>
        <time>2021-08-21T10:10:54.000Z</time>
      </trkpt>
      <trkpt lat="47.96648" lon="7.12703">
        <ele>889</ele>
        <time>2021-08-21T10:11:11.000Z</time>
      </trkpt>
      <trkpt lat="47.96658" lon="7.12706">
        <ele>890.4</ele>
        <time>2021-08-21T10:11:22.000Z</time>
      </trkpt>
      <trkpt lat="47.96667" lon="7.12706">
        <ele>891.2</ele>
        <time>2021-08-21T10:11:30.000Z</time>
      </trkpt>
      <trkpt lat="47.96682" lon="7.12709">
        <ele>893.2</ele>
        <time>2021-08-21T10:11:45.000Z</time>
      </trkpt>
      <trkpt lat="47.96699" lon="7.12715">
        <ele>896.2</ele>
        <time>2021-08-21T10:12:09.000Z</time>
      </trkpt>
      <trkpt lat="47.96704" lon="7.12715">
        <ele>897.6</ele>
        <time>2021-08-21T10:12:17.000Z</time>
      </trkpt>
      <trkpt lat="47.96727" lon="7.12714">
        <ele>900.8</ele>
        <time>2021-08-21T10:12:38.000Z</time>
      </trkpt>
      <trkpt lat="47.96748" lon="7.12713">
        <ele>903.8</ele>
        <time>2021-08-21T10:12:57.000Z</time>
      </trkpt>
      <trkpt lat="47.96764" lon="7.12716">
        <ele>907</ele>
        <time>2021-08-21T10:13:17.000Z</time>
      </trkpt>
      <trkpt lat="47.96777" lon="7.12719">
        <ele>908.8</ele>
        <time>2021-08-21T10:13:32.000Z</time>
      </trkpt>
      <trkpt lat="47.96807" lon="7.12736">
        <ele>911.6</ele>
        <time>2021-08-21T10:14:00.000Z</time>
      </trkpt>
      <trkpt lat="47.96812" lon="7.12742">
        <ele>912.2</ele>
        <time>2021-08-21T10:14:06.000Z</time>
      </trkpt>
      <trkpt lat="47.96815" lon="7.12747">
        <ele>912.8</ele>
        <time>2021-08-21T10:14:10.000Z</time>
      </trkpt>
      <trkpt lat="47.96816" lon="7.12748">
        <ele>912.8</ele>
        <time>2021-08-21T10:14:11.000Z</time>
      </trkpt>
      <trkpt lat="47.96816" lon="7.12749">
        <ele>913</ele>
        <time>2021-08-21T10:14:12.000Z</time>
      </trkpt>
      <trkpt lat="47.9682" lon="7.12754">
        <ele>913.4</ele>
        <time>2021-08-21T10:14:17.000Z</time>
      </trkpt>
      <trkpt lat="47.96823" lon="7.12757">
        <ele>913.8</ele>
        <time>2021-08-21T10:14:20.000Z</time>
      </trkpt>
      <trkpt lat="47.96824" lon="7.12758">
        <ele>914</ele>
        <time>2021-08-21T10:14:21.000Z</time>
      </trkpt>
      <trkpt lat="47.96825" lon="7.1276">
        <ele>914</ele>
        <time>2021-08-21T10:14:22.000Z</time>
      </trkpt>
      <trkpt lat="47.96835" lon="7.12775">
        <ele>915.6</ele>
        <time>2021-08-21T10:14:37.000Z</time>
      </trkpt>
      <trkpt lat="47.96851" lon="7.12791">
        <ele>918.4</ele>
        <time>2021-08-21T10:15:00.000Z</time>
      </trkpt>
      <trkpt lat="47.96875" lon="7.12817">
        <ele>921.4</ele>
        <time>2021-08-21T10:15:27.000Z</time>
      </trkpt>
      <trkpt lat="47.96894" lon="7.12833">
        <ele>923.6</ele>
        <time>2021-08-21T10:15:45.000Z</time>
      </trkpt>
      <trkpt lat="47.96896" lon="7.12837">
        <ele>924</ele>
        <time>2021-08-21T10:15:48.000Z</time>
      </trkpt>
      <trkpt lat="47.96905" lon="7.12865">
        <ele>927</ele>
        <time>2021-08-21T10:16:14.000Z</time>
      </trkpt>
      <trkpt lat="47.96916" lon="7.12874">
        <ele>930</ele>
        <time>2021-08-21T10:16:35.000Z</time>
      </trkpt>
      <trkpt lat="47.96921" lon="7.12879">
        <ele>930.8</ele>
        <time>2021-08-21T10:16:40.000Z</time>
      </trkpt>
      <trkpt lat="47.96926" lon="7.12884">
        <ele>931.4</ele>
        <time>2021-08-21T10:16:45.000Z</time>
      </trkpt>
      <trkpt lat="47.96943" lon="7.12894">
        <ele>934.4</ele>
        <time>2021-08-21T10:17:09.000Z</time>
      </trkpt>
      <trkpt lat="47.96957" lon="7.12902">
        <ele>936.4</ele>
        <time>2021-08-21T10:17:20.000Z</time>
      </trkpt>
      <trkpt lat="47.96979" lon="7.12905">
        <ele>938</ele>
        <time>2021-08-21T10:17:36.000Z</time>
      </trkpt>
      <trkpt lat="47.96984" lon="7.12908">
        <ele>938.6</ele>
        <time>2021-08-21T10:17:40.000Z</time>
      </trkpt>
      <trkpt lat="47.97004" lon="7.12915">
        <ele>941.6</ele>
        <time>2021-08-21T10:18:07.000Z</time>
      </trkpt>
      <trkpt lat="47.97006" lon="7.12915">
        <ele>941.8</ele>
        <time>2021-08-21T10:18:08.000Z</time>
      </trkpt>
      <trkpt lat="47.9701" lon="7.12914">
        <ele>942.4</ele>
        <time>2021-08-21T10:18:12.000Z</time>
      </trkpt>
      <trkpt lat="47.9703" lon="7.12914">
        <ele>945.2</ele>
        <time>2021-08-21T10:18:31.000Z</time>
      </trkpt>
      <trkpt lat="47.97031" lon="7.12913">
        <ele>945.4</ele>
        <time>2021-08-21T10:18:32.000Z</time>
      </trkpt>
      <trkpt lat="47.97032" lon="7.12913">
        <ele>945.4</ele>
        <time>2021-08-21T10:18:33.000Z</time>
      </trkpt>
      <trkpt lat="47.97042" lon="7.12906">
        <ele>947.2</ele>
        <time>2021-08-21T10:18:46.000Z</time>
      </trkpt>
      <trkpt lat="47.97049" lon="7.12904">
        <ele>948</ele>
        <time>2021-08-21T10:18:53.000Z</time>
      </trkpt>
      <trkpt lat="47.97054" lon="7.12907">
        <ele>948.6</ele>
        <time>2021-08-21T10:18:58.000Z</time>
      </trkpt>
      <trkpt lat="47.97057" lon="7.12908">
        <ele>949</ele>
        <time>2021-08-21T10:19:01.000Z</time>
      </trkpt>
      <trkpt lat="47.97063" lon="7.12915">
        <ele>950.4</ele>
        <time>2021-08-21T10:19:09.000Z</time>
      </trkpt>
      <trkpt lat="47.97067" lon="7.12922">
        <ele>953.4</ele>
        <time>2021-08-21T10:19:24.000Z</time>
      </trkpt>
      <trkpt lat="47.97074" lon="7.12925">
        <ele>954.4</ele>
        <time>2021-08-21T10:19:30.000Z</time>
      </trkpt>
      <trkpt lat="47.9709" lon="7.12924">
        <ele>957.4</ele>
        <time>2021-08-21T10:19:48.000Z</time>
      </trkpt>
      <trkpt lat="47.97105" lon="7.12927">
        <ele>960.4</ele>
        <time>2021-08-21T10:20:09.000Z</time>
      </trkpt>
      <trkpt lat="47.9711" lon="7.1293">
        <ele>963.4</ele>
        <time>2021-08-21T10:20:29.000Z</time>
      </trkpt>
      <trkpt lat="47.97133" lon="7.12927">
        <ele>966.6</ele>
        <time>2021-08-21T10:20:52.000Z</time>
      </trkpt>
      <trkpt lat="47.97141" lon="7.12928">
        <ele>969.6</ele>
        <time>2021-08-21T10:21:10.000Z</time>
      </trkpt>
      <trkpt lat="47.97145" lon="7.12931">
        <ele>972.6</ele>
        <time>2021-08-21T10:21:30.000Z</time>
      </trkpt>
      <trkpt lat="47.9716" lon="7.12942">
        <ele>975.8</ele>
        <time>2021-08-21T10:21:50.000Z</time>
      </trkpt>
      <trkpt lat="47.97164" lon="7.12949">
        <ele>978.8</ele>
        <time>2021-08-21T10:22:09.000Z</time>
      </trkpt>
      <trkpt lat="47.9717" lon="7.1295">
        <ele>982</ele>
        <time>2021-08-21T10:22:27.000Z</time>
      </trkpt>
      <trkpt lat="47.97174" lon="7.12949">
        <ele>984</ele>
        <time>2021-08-21T10:22:37.000Z</time>
      </trkpt>
      <trkpt lat="47.97212" lon="7.12945">
        <ele>989</ele>
        <time>2021-08-21T10:23:15.000Z</time>
      </trkpt>
      <trkpt lat="47.97229" lon="7.12935">
        <ele>992.2</ele>
        <time>2021-08-21T10:23:35.000Z</time>
      </trkpt>
      <trkpt lat="47.97251" lon="7.12929">
        <ele>995.2</ele>
        <time>2021-08-21T10:24:03.000Z</time>
      </trkpt>
      <trkpt lat="47.97258" lon="7.1294">
        <ele>998.2</ele>
        <time>2021-08-21T10:24:23.000Z</time>
      </trkpt>
      <trkpt lat="47.97265" lon="7.12942">
        <ele>1001.4</ele>
        <time>2021-08-21T10:24:40.000Z</time>
      </trkpt>
      <trkpt lat="47.97271" lon="7.12939">
        <ele>1002.8</ele>
        <time>2021-08-21T10:24:51.000Z</time>
      </trkpt>
      <trkpt lat="47.97279" lon="7.12944">
        <ele>1006</ele>
        <time>2021-08-21T10:25:13.000Z</time>
      </trkpt>
      <trkpt lat="47.97291" lon="7.12945">
        <ele>1007.6</ele>
        <time>2021-08-21T10:25:25.000Z</time>
      </trkpt>
      <trkpt lat="47.97307" lon="7.12949">
        <ele>1011</ele>
        <time>2021-08-21T10:25:45.000Z</time>
      </trkpt>
      <trkpt lat="47.97315" lon="7.1295">
        <ele>1014</ele>
        <time>2021-08-21T10:26:04.000Z</time>
      </trkpt>
      <trkpt lat="47.97327" lon="7.12953">
        <ele>1017</ele>
        <time>2021-08-21T10:26:20.000Z</time>
      </trkpt>
      <trkpt lat="47.97336" lon="7.12954">
        <ele>1020.2</ele>
        <time>2021-08-21T10:26:39.000Z</time>
      </trkpt>
      <trkpt lat="47.9735" lon="7.12956">
        <ele>1023.2</ele>
        <time>2021-08-21T10:26:59.000Z</time>
      </trkpt>
      <trkpt lat="47.97363" lon="7.12953">
        <ele>1026.2</ele>
        <time>2021-08-21T10:27:19.000Z</time>
      </trkpt>
      <trkpt lat="47.97374" lon="7.12962">
        <ele>1029.4</ele>
        <time>2021-08-21T10:27:38.000Z</time>
      </trkpt>
      <trkpt lat="47.97385" lon="7.12969">
        <ele>1032.4</ele>
        <time>2021-08-21T10:27:57.000Z</time>
      </trkpt>
      <trkpt lat="47.97398" lon="7.12971">
        <ele>1035.4</ele>
        <time>2021-08-21T10:28:18.000Z</time>
      </trkpt>
      <trkpt lat="47.97408" lon="7.12973">
        <ele>1038.6</ele>
        <time>2021-08-21T10:28:36.000Z</time>
      </trkpt>
      <trkpt lat="47.9742" lon="7.12973">
        <ele>1041.6</ele>
        <time>2021-08-21T10:28:57.000Z</time>
      </trkpt>
      <trkpt lat="47.97428" lon="7.12976">
        <ele>1044.6</ele>
        <time>2021-08-21T10:29:15.000Z</time>
      </trkpt>
      <trkpt lat="47.97433" lon="7.12978">
        <ele>1047.6</ele>
        <time>2021-08-21T10:29:29.000Z</time>
      </trkpt>
      <trkpt lat="47.9744" lon="7.12982">
        <ele>1049.4</ele>
        <time>2021-08-21T10:29:41.000Z</time>
      </trkpt>
      <trkpt lat="47.97448" lon="7.12988">
        <ele>1052.4</ele>
        <time>2021-08-21T10:29:59.000Z</time>
      </trkpt>
      <trkpt lat="47.97458" lon="7.12996">
        <ele>1055.4</ele>
        <time>2021-08-21T10:30:18.000Z</time>
      </trkpt>
      <trkpt lat="47.97465" lon="7.12997">
        <ele>1058.6</ele>
        <time>2021-08-21T10:30:39.000Z</time>
      </trkpt>
      <trkpt lat="47.97473" lon="7.13001">
        <ele>1061.6</ele>
        <time>2021-08-21T10:30:59.000Z</time>
      </trkpt>
      <trkpt lat="47.97477" lon="7.13001">
        <ele>1062.8</ele>
        <time>2021-08-21T10:31:05.000Z</time>
      </trkpt>
      <trkpt lat="47.97483" lon="7.13003">
        <ele>1064.2</ele>
        <time>2021-08-21T10:31:14.000Z</time>
      </trkpt>
      <trkpt lat="47.97488" lon="7.13005">
        <ele>1067.2</ele>
        <time>2021-08-21T10:31:35.000Z</time>
      </trkpt>
      <trkpt lat="47.97491" lon="7.12998">
        <ele>1068.2</ele>
        <time>2021-08-21T10:31:54.000Z</time>
      </trkpt>
      <trkpt lat="47.97491" lon="7.13">
        <ele>1068</ele>
        <time>2021-08-21T10:32:23.000Z</time>
      </trkpt>
      <trkpt lat="47.97493" lon="7.13">
        <ele>1067.8</ele>
        <time>2021-08-21T10:32:29.000Z</time>
      </trkpt>
      <trkpt lat="47.97495" lon="7.13001">
        <ele>1068.2</ele>
        <time>2021-08-21T10:32:58.000Z</time>
      </trkpt>
      <trkpt lat="47.97498" lon="7.13006">
        <ele>1071.4</ele>
        <time>2021-08-21T10:33:27.000Z</time>
      </trkpt>
      <trkpt lat="47.97502" lon="7.13006">
        <ele>1072.6</ele>
        <time>2021-08-21T10:33:33.000Z</time>
      </trkpt>
      <trkpt lat="47.97509" lon="7.13008">
        <ele>1075.8</ele>
        <time>2021-08-21T10:33:52.000Z</time>
      </trkpt>
      <trkpt lat="47.97513" lon="7.13011">
        <ele>1077.6</ele>
        <time>2021-08-21T10:34:01.000Z</time>
      </trkpt>
      <trkpt lat="47.97523" lon="7.13018">
        <ele>1080.6</ele>
        <time>2021-08-21T10:34:20.000Z</time>
      </trkpt>
      <trkpt lat="47.97532" lon="7.13025">
        <ele>1083.8</ele>
        <time>2021-08-21T10:34:39.000Z</time>
      </trkpt>
      <trkpt lat="47.97538" lon="7.13032">
        <ele>1086.2</ele>
        <time>2021-08-21T10:34:54.000Z</time>
      </trkpt>
      <trkpt lat="47.97546" lon="7.13041">
        <ele>1088.2</ele>
        <time>2021-08-21T10:35:08.000Z</time>
      </trkpt>
      <trkpt lat="47.97553" lon="7.1305">
        <ele>1090.4</ele>
        <time>2021-08-21T10:35:22.000Z</time>
      </trkpt>
      <trkpt lat="47.97562" lon="7.13062">
        <ele>1092.8</ele>
        <time>2021-08-21T10:35:41.000Z</time>
      </trkpt>
      <trkpt lat="47.97573" lon="7.13071">
        <ele>1095.6</ele>
        <time>2021-08-21T10:35:57.000Z</time>
      </trkpt>
      <trkpt lat="47.97582" lon="7.13079">
        <ele>1098.8</ele>
        <time>2021-08-21T10:36:17.000Z</time>
      </trkpt>
      <trkpt lat="47.97595" lon="7.13083">
        <ele>1101.8</ele>
        <time>2021-08-21T10:36:36.000Z</time>
      </trkpt>
      <trkpt lat="47.97604" lon="7.13093">
        <ele>1103.8</ele>
        <time>2021-08-21T10:36:52.000Z</time>
      </trkpt>
      <trkpt lat="47.97614" lon="7.131">
        <ele>1106</ele>
        <time>2021-08-21T10:37:06.000Z</time>
      </trkpt>
      <trkpt lat="47.97624" lon="7.13109">
        <ele>1108.8</ele>
        <time>2021-08-21T10:37:25.000Z</time>
      </trkpt>
      <trkpt lat="47.97631" lon="7.13113">
        <ele>1110</ele>
        <time>2021-08-21T10:37:42.000Z</time>
      </trkpt>
      <trkpt lat="47.97635" lon="7.13109">
        <ele>1110.2</ele>
        <time>2021-08-21T10:38:04.000Z</time>
      </trkpt>
      <trkpt lat="47.97644" lon="7.13112">
        <ele>1110.8</ele>
        <time>2021-08-21T10:38:26.000Z</time>
      </trkpt>
      <trkpt lat="47.9766" lon="7.13121">
        <ele>1113.8</ele>
        <time>2021-08-21T10:38:47.000Z</time>
      </trkpt>
      <trkpt lat="47.97677" lon="7.13129">
        <ele>1116.2</ele>
        <time>2021-08-21T10:39:07.000Z</time>
      </trkpt>
      <trkpt lat="47.97691" lon="7.13135">
        <ele>1118.8</ele>
        <time>2021-08-21T10:39:26.000Z</time>
      </trkpt>
      <trkpt lat="47.97704" lon="7.13137">
        <ele>1120.8</ele>
        <time>2021-08-21T10:39:42.000Z</time>
      </trkpt>
      <trkpt lat="47.97712" lon="7.13142">
        <ele>1123.2</ele>
        <time>2021-08-21T10:39:55.000Z</time>
      </trkpt>
      <trkpt lat="47.97754" lon="7.13104">
        <ele>1129</ele>
        <time>2021-08-21T10:40:49.000Z</time>
      </trkpt>
      <trkpt lat="47.97757" lon="7.13095">
        <ele>1130</ele>
        <time>2021-08-21T10:40:56.000Z</time>
      </trkpt>
      <trkpt lat="47.97757" lon="7.13094">
        <ele>1130</ele>
        <time>2021-08-21T10:40:57.000Z</time>
      </trkpt>
      <trkpt lat="47.97758" lon="7.13092">
        <ele>1130.2</ele>
        <time>2021-08-21T10:40:58.000Z</time>
      </trkpt>
      <trkpt lat="47.97758" lon="7.13091">
        <ele>1130.4</ele>
        <time>2021-08-21T10:40:59.000Z</time>
      </trkpt>
      <trkpt lat="47.97764" lon="7.13064">
        <ele>1132.4</ele>
        <time>2021-08-21T10:41:19.000Z</time>
      </trkpt>
      <trkpt lat="47.97766" lon="7.13039">
        <ele>1135</ele>
        <time>2021-08-21T10:41:37.000Z</time>
      </trkpt>
      <trkpt lat="47.97767" lon="7.13017">
        <ele>1137.2</ele>
        <time>2021-08-21T10:41:55.000Z</time>
      </trkpt>
      <trkpt lat="47.97768" lon="7.13">
        <ele>1139.2</ele>
        <time>2021-08-21T10:42:09.000Z</time>
      </trkpt>
      <trkpt lat="47.97769" lon="7.12988">
        <ele>1140.2</ele>
        <time>2021-08-21T10:42:18.000Z</time>
      </trkpt>
      <trkpt lat="47.97772" lon="7.12966">
        <ele>1142.6</ele>
        <time>2021-08-21T10:42:37.000Z</time>
      </trkpt>
      <trkpt lat="47.97772" lon="7.12951">
        <ele>1143.6</ele>
        <time>2021-08-21T10:42:57.000Z</time>
      </trkpt>
      <trkpt lat="47.97776" lon="7.12928">
        <ele>1146</ele>
        <time>2021-08-21T10:43:16.000Z</time>
      </trkpt>
      <trkpt lat="47.97782" lon="7.12908">
        <ele>1149</ele>
        <time>2021-08-21T10:43:33.000Z</time>
      </trkpt>
      <trkpt lat="47.97787" lon="7.12885">
        <ele>1151.2</ele>
        <time>2021-08-21T10:43:53.000Z</time>
      </trkpt>
      <trkpt lat="47.97789" lon="7.12881">
        <ele>1151.4</ele>
        <time>2021-08-21T10:43:56.000Z</time>
      </trkpt>
      <trkpt lat="47.97795" lon="7.12861">
        <ele>1153.8</ele>
        <time>2021-08-21T10:44:14.000Z</time>
      </trkpt>
      <trkpt lat="47.97798" lon="7.12843">
        <ele>1156</ele>
        <time>2021-08-21T10:44:29.000Z</time>
      </trkpt>
      <trkpt lat="47.97802" lon="7.12822">
        <ele>1159</ele>
        <time>2021-08-21T10:44:51.000Z</time>
      </trkpt>
      <trkpt lat="47.97807" lon="7.12802">
        <ele>1161.8</ele>
        <time>2021-08-21T10:45:10.000Z</time>
      </trkpt>
      <trkpt lat="47.97816" lon="7.12773">
        <ele>1164.6</ele>
        <time>2021-08-21T10:45:33.000Z</time>
      </trkpt>
      <trkpt lat="47.97821" lon="7.12746">
        <ele>1167.4</ele>
        <time>2021-08-21T10:45:54.000Z</time>
      </trkpt>
      <trkpt lat="47.9783" lon="7.12719">
        <ele>1170.2</ele>
        <time>2021-08-21T10:46:17.000Z</time>
      </trkpt>
      <trkpt lat="47.97835" lon="7.12698">
        <ele>1172.2</ele>
        <time>2021-08-21T10:46:34.000Z</time>
      </trkpt>
      <trkpt lat="47.97842" lon="7.12677">
        <ele>1174.2</ele>
        <time>2021-08-21T10:46:52.000Z</time>
      </trkpt>
      <trkpt lat="47.9785" lon="7.12652">
        <ele>1176.8</ele>
        <time>2021-08-21T10:47:14.000Z</time>
      </trkpt>
      <trkpt lat="47.97854" lon="7.12643">
        <ele>1177.8</ele>
        <time>2021-08-21T10:47:22.000Z</time>
      </trkpt>
      <trkpt lat="47.97861" lon="7.12622">
        <ele>1180</ele>
        <time>2021-08-21T10:47:41.000Z</time>
      </trkpt>
      <trkpt lat="47.97869" lon="7.12603">
        <ele>1182.4</ele>
        <time>2021-08-21T10:47:59.000Z</time>
      </trkpt>
      <trkpt lat="47.97875" lon="7.12581">
        <ele>1185.4</ele>
        <time>2021-08-21T10:48:20.000Z</time>
      </trkpt>
      <trkpt lat="47.97882" lon="7.12578">
        <ele>1187.6</ele>
        <time>2021-08-21T10:48:36.000Z</time>
      </trkpt>
      <trkpt lat="47.97893" lon="7.12609">
        <ele>1190.6</ele>
        <time>2021-08-21T10:49:01.000Z</time>
      </trkpt>
      <trkpt lat="47.97895" lon="7.12616">
        <ele>1191</ele>
        <time>2021-08-21T10:49:06.000Z</time>
      </trkpt>
      <trkpt lat="47.97901" lon="7.12629">
        <ele>1192.4</ele>
        <time>2021-08-21T10:49:18.000Z</time>
      </trkpt>
      <trkpt lat="47.97903" lon="7.12635">
        <ele>1193</ele>
        <time>2021-08-21T10:49:23.000Z</time>
      </trkpt>
      <trkpt lat="47.97911" lon="7.12656">
        <ele>1195.4</ele>
        <time>2021-08-21T10:49:42.000Z</time>
      </trkpt>
      <trkpt lat="47.97916" lon="7.12675">
        <ele>1197.2</ele>
        <time>2021-08-21T10:49:57.000Z</time>
      </trkpt>
      <trkpt lat="47.97922" lon="7.1269">
        <ele>1199.2</ele>
        <time>2021-08-21T10:50:12.000Z</time>
      </trkpt>
      <trkpt lat="47.97929" lon="7.12716">
        <ele>1202.2</ele>
        <time>2021-08-21T10:50:36.000Z</time>
      </trkpt>
      <trkpt lat="47.97941" lon="7.12742">
        <ele>1205</ele>
        <time>2021-08-21T10:51:01.000Z</time>
      </trkpt>
      <trkpt lat="47.97947" lon="7.12752">
        <ele>1206.4</ele>
        <time>2021-08-21T10:51:13.000Z</time>
      </trkpt>
      <trkpt lat="47.97957" lon="7.12772">
        <ele>1209.6</ele>
        <time>2021-08-21T10:51:35.000Z</time>
      </trkpt>
      <trkpt lat="47.97967" lon="7.12794">
        <ele>1212.6</ele>
        <time>2021-08-21T10:51:57.000Z</time>
      </trkpt>
      <trkpt lat="47.97975" lon="7.1281">
        <ele>1214.6</ele>
        <time>2021-08-21T10:52:13.000Z</time>
      </trkpt>
      <trkpt lat="47.97981" lon="7.12817">
        <ele>1216.6</ele>
        <time>2021-08-21T10:52:27.000Z</time>
      </trkpt>
      <trkpt lat="47.97991" lon="7.12822">
        <ele>1218.8</ele>
        <time>2021-08-21T10:52:39.000Z</time>
      </trkpt>
      <trkpt lat="47.97992" lon="7.12822">
        <ele>1218.8</ele>
        <time>2021-08-21T10:52:40.000Z</time>
      </trkpt>
      <trkpt lat="47.97997" lon="7.12824">
        <ele>1219.6</ele>
        <time>2021-08-21T10:52:45.000Z</time>
      </trkpt>
      <trkpt lat="47.98004" lon="7.12829">
        <ele>1221</ele>
        <time>2021-08-21T10:52:53.000Z</time>
      </trkpt>
      <trkpt lat="47.98009" lon="7.12831">
        <ele>1221.8</ele>
        <time>2021-08-21T10:52:58.000Z</time>
      </trkpt>
      <trkpt lat="47.98014" lon="7.12832">
        <ele>1222.4</ele>
        <time>2021-08-21T10:53:03.000Z</time>
      </trkpt>
      <trkpt lat="47.98016" lon="7.12832">
        <ele>1222.6</ele>
        <time>2021-08-21T10:53:05.000Z</time>
      </trkpt>
      <trkpt lat="47.98034" lon="7.12826">
        <ele>1225.8</ele>
        <time>2021-08-21T10:53:26.000Z</time>
      </trkpt>
      <trkpt lat="47.98039" lon="7.12822">
        <ele>1227.6</ele>
        <time>2021-08-21T10:53:48.000Z</time>
      </trkpt>
      <trkpt lat="47.98043" lon="7.12817">
        <ele>1227.4</ele>
        <time>2021-08-21T10:54:13.000Z</time>
      </trkpt>
      <trkpt lat="47.98044" lon="7.12813">
        <ele>1227.6</ele>
        <time>2021-08-21T10:54:16.000Z</time>
      </trkpt>
      <trkpt lat="47.98047" lon="7.12787">
        <ele>1230</ele>
        <time>2021-08-21T10:54:34.000Z</time>
      </trkpt>
      <trkpt lat="47.98052" lon="7.12761">
        <ele>1232.6</ele>
        <time>2021-08-21T10:54:52.000Z</time>
      </trkpt>
      <trkpt lat="47.98055" lon="7.12753">
        <ele>1233.4</ele>
        <time>2021-08-21T10:54:58.000Z</time>
      </trkpt>
      <trkpt lat="47.98059" lon="7.12728">
        <ele>1236</ele>
        <time>2021-08-21T10:55:14.000Z</time>
      </trkpt>
      <trkpt lat="47.98061" lon="7.12723">
        <ele>1236.4</ele>
        <time>2021-08-21T10:55:17.000Z</time>
      </trkpt>
      <trkpt lat="47.98061" lon="7.12722">
        <ele>1236.6</ele>
        <time>2021-08-21T10:55:18.000Z</time>
      </trkpt>
      <trkpt lat="47.98061" lon="7.1272">
        <ele>1236.6</ele>
        <time>2021-08-21T10:55:19.000Z</time>
      </trkpt>
      <trkpt lat="47.98061" lon="7.12718">
        <ele>1236.6</ele>
        <time>2021-08-21T10:55:20.000Z</time>
      </trkpt>
      <trkpt lat="47.98061" lon="7.12717">
        <ele>1236.8</ele>
        <time>2021-08-21T10:55:21.000Z</time>
      </trkpt>
      <trkpt lat="47.98063" lon="7.12687">
        <ele>1237.4</ele>
        <time>2021-08-21T10:55:39.000Z</time>
      </trkpt>
      <trkpt lat="47.98072" lon="7.12667">
        <ele>1238.2</ele>
        <time>2021-08-21T10:55:56.000Z</time>
      </trkpt>
      <trkpt lat="47.98071" lon="7.1266">
        <ele>1238.6</ele>
        <time>2021-08-21T10:56:01.000Z</time>
      </trkpt>
      <trkpt lat="47.98068" lon="7.12633">
        <ele>1239.8</ele>
        <time>2021-08-21T10:56:21.000Z</time>
      </trkpt>
      <trkpt lat="47.98066" lon="7.12613">
        <ele>1240.8</ele>
        <time>2021-08-21T10:56:37.000Z</time>
      </trkpt>
      <trkpt lat="47.98071" lon="7.12603">
        <ele>1241</ele>
        <time>2021-08-21T10:56:52.000Z</time>
      </trkpt>
      <trkpt lat="47.98081" lon="7.12594">
        <ele>1240.6</ele>
        <time>2021-08-21T10:57:08.000Z</time>
      </trkpt>
      <trkpt lat="47.9808" lon="7.12593">
        <ele>1240.4</ele>
        <time>2021-08-21T10:57:32.000Z</time>
      </trkpt>
      <trkpt lat="47.98069" lon="7.126">
        <ele>1240.6</ele>
        <time>2021-08-21T10:58:07.000Z</time>
      </trkpt>
      <trkpt lat="47.98068" lon="7.12601">
        <ele>1240.6</ele>
        <time>2021-08-21T10:58:08.000Z</time>
      </trkpt>
      <trkpt lat="47.98062" lon="7.12596">
        <ele>1241</ele>
        <time>2021-08-21T10:58:23.000Z</time>
      </trkpt>
      <trkpt lat="47.98061" lon="7.12594">
        <ele>1241</ele>
        <time>2021-08-21T10:58:24.000Z</time>
      </trkpt>
      <trkpt lat="47.9806" lon="7.12593">
        <ele>1241</ele>
        <time>2021-08-21T10:58:25.000Z</time>
      </trkpt>
      <trkpt lat="47.98049" lon="7.12569">
        <ele>1239.6</ele>
        <time>2021-08-21T10:58:42.000Z</time>
      </trkpt>
      <trkpt lat="47.9804" lon="7.12553">
        <ele>1237.8</ele>
        <time>2021-08-21T10:58:58.000Z</time>
      </trkpt>
      <trkpt lat="47.98037" lon="7.12548">
        <ele>1235.6</ele>
        <time>2021-08-21T10:59:18.000Z</time>
      </trkpt>
      <trkpt lat="47.98036" lon="7.1254">
        <ele>1236</ele>
        <time>2021-08-21T10:59:29.000Z</time>
      </trkpt>
      <trkpt lat="47.98036" lon="7.12539">
        <ele>1236</ele>
        <time>2021-08-21T10:59:30.000Z</time>
      </trkpt>
      <trkpt lat="47.98035" lon="7.12538">
        <ele>1235.8</ele>
        <time>2021-08-21T10:59:31.000Z</time>
      </trkpt>
      <trkpt lat="47.98028" lon="7.12527">
        <ele>1233.4</ele>
        <time>2021-08-21T10:59:46.000Z</time>
      </trkpt>
      <trkpt lat="47.98029" lon="7.1252">
        <ele>1233.2</ele>
        <time>2021-08-21T11:00:05.000Z</time>
      </trkpt>
      <trkpt lat="47.98028" lon="7.12518">
        <ele>1233.2</ele>
        <time>2021-08-21T11:00:06.000Z</time>
      </trkpt>
      <trkpt lat="47.98024" lon="7.12509">
        <ele>1230.2</ele>
        <time>2021-08-21T11:00:14.000Z</time>
      </trkpt>
      <trkpt lat="47.98018" lon="7.12499">
        <ele>1227.2</ele>
        <time>2021-08-21T11:00:22.000Z</time>
      </trkpt>
      <trkpt lat="47.98012" lon="7.12492">
        <ele>1223.8</ele>
        <time>2021-08-21T11:00:29.000Z</time>
      </trkpt>
      <trkpt lat="47.9796" lon="7.12408">
        <ele>1202.8</ele>
        <time>2021-08-21T11:01:16.000Z</time>
      </trkpt>
      <trkpt lat="47.97952" lon="7.12396">
        <ele>1200.4</ele>
        <time>2021-08-21T11:01:24.000Z</time>
      </trkpt>
      <trkpt lat="47.97951" lon="7.12394">
        <ele>1200</ele>
        <time>2021-08-21T11:01:25.000Z</time>
      </trkpt>
      <trkpt lat="47.97946" lon="7.12386">
        <ele>1198.6</ele>
        <time>2021-08-21T11:01:29.000Z</time>
      </trkpt>
      <trkpt lat="47.97934" lon="7.12363">
        <ele>1195.4</ele>
        <time>2021-08-21T11:01:43.000Z</time>
      </trkpt>
      <trkpt lat="47.97917" lon="7.12342">
        <ele>1192.6</ele>
        <time>2021-08-21T11:02:00.000Z</time>
      </trkpt>
      <trkpt lat="47.97911" lon="7.12349">
        <ele>1191.8</ele>
        <time>2021-08-21T11:02:13.000Z</time>
      </trkpt>
      <trkpt lat="47.97907" lon="7.12358">
        <ele>1191.6</ele>
        <time>2021-08-21T11:02:19.000Z</time>
      </trkpt>
      <trkpt lat="47.97901" lon="7.12373">
        <ele>1191.4</ele>
        <time>2021-08-21T11:02:29.000Z</time>
      </trkpt>
      <trkpt lat="47.979" lon="7.12402">
        <ele>1190.2</ele>
        <time>2021-08-21T11:02:45.000Z</time>
      </trkpt>
      <trkpt lat="47.97898" lon="7.12412">
        <ele>1190</ele>
        <time>2021-08-21T11:02:50.000Z</time>
      </trkpt>
      <trkpt lat="47.97898" lon="7.12413">
        <ele>1190</ele>
        <time>2021-08-21T11:02:51.000Z</time>
      </trkpt>
      <trkpt lat="47.97893" lon="7.12442">
        <ele>1189.4</ele>
        <time>2021-08-21T11:03:03.000Z</time>
      </trkpt>
      <trkpt lat="47.97893" lon="7.12444">
        <ele>1189.2</ele>
        <time>2021-08-21T11:03:04.000Z</time>
      </trkpt>
      <trkpt lat="47.97887" lon="7.12488">
        <ele>1188</ele>
        <time>2021-08-21T11:03:23.000Z</time>
      </trkpt>
      <trkpt lat="47.9788" lon="7.1253">
        <ele>1186.8</ele>
        <time>2021-08-21T11:03:43.000Z</time>
      </trkpt>
      <trkpt lat="47.97878" lon="7.12545">
        <ele>1186.6</ele>
        <time>2021-08-21T11:03:50.000Z</time>
      </trkpt>
      <trkpt lat="47.97877" lon="7.12546">
        <ele>1186.6</ele>
        <time>2021-08-21T11:03:51.000Z</time>
      </trkpt>
      <trkpt lat="47.97877" lon="7.12548">
        <ele>1186.6</ele>
        <time>2021-08-21T11:03:52.000Z</time>
      </trkpt>
      <trkpt lat="47.97877" lon="7.1255">
        <ele>1186.6</ele>
        <time>2021-08-21T11:03:53.000Z</time>
      </trkpt>
      <trkpt lat="47.97877" lon="7.12552">
        <ele>1186.6</ele>
        <time>2021-08-21T11:03:54.000Z</time>
      </trkpt>
      <trkpt lat="47.97877" lon="7.12554">
        <ele>1186.4</ele>
        <time>2021-08-21T11:03:55.000Z</time>
      </trkpt>
      <trkpt lat="47.97878" lon="7.12565">
        <ele>1186</ele>
        <time>2021-08-21T11:04:01.000Z</time>
      </trkpt>
      <trkpt lat="47.97878" lon="7.12567">
        <ele>1186</ele>
        <time>2021-08-21T11:04:02.000Z</time>
      </trkpt>
      <trkpt lat="47.97879" lon="7.1257">
        <ele>1186</ele>
        <time>2021-08-21T11:04:04.000Z</time>
      </trkpt>
      <trkpt lat="47.97879" lon="7.12572">
        <ele>1186</ele>
        <time>2021-08-21T11:04:05.000Z</time>
      </trkpt>
      <trkpt lat="47.97878" lon="7.12574">
        <ele>1186</ele>
        <time>2021-08-21T11:04:06.000Z</time>
      </trkpt>
      <trkpt lat="47.97878" lon="7.12575">
        <ele>1186</ele>
        <time>2021-08-21T11:04:07.000Z</time>
      </trkpt>
      <trkpt lat="47.97878" lon="7.12578">
        <ele>1185.8</ele>
        <time>2021-08-21T11:04:08.000Z</time>
      </trkpt>
      <trkpt lat="47.97868" lon="7.12612">
        <ele>1182.8</ele>
        <time>2021-08-21T11:04:26.000Z</time>
      </trkpt>
      <trkpt lat="47.97859" lon="7.12639">
        <ele>1179.6</ele>
        <time>2021-08-21T11:04:42.000Z</time>
      </trkpt>
      <trkpt lat="47.97851" lon="7.12664">
        <ele>1176.6</ele>
        <time>2021-08-21T11:04:55.000Z</time>
      </trkpt>
      <trkpt lat="47.97843" lon="7.12686">
        <ele>1173.6</ele>
        <time>2021-08-21T11:05:09.000Z</time>
      </trkpt>
      <trkpt lat="47.97843" lon="7.12687">
        <ele>1173.4</ele>
        <time>2021-08-21T11:05:10.000Z</time>
      </trkpt>
      <trkpt lat="47.97842" lon="7.12689">
        <ele>1173.4</ele>
        <time>2021-08-21T11:05:11.000Z</time>
      </trkpt>
      <trkpt lat="47.97842" lon="7.12691">
        <ele>1173.2</ele>
        <time>2021-08-21T11:05:12.000Z</time>
      </trkpt>
      <trkpt lat="47.97841" lon="7.12693">
        <ele>1173</ele>
        <time>2021-08-21T11:05:13.000Z</time>
      </trkpt>
      <trkpt lat="47.97841" lon="7.12695">
        <ele>1173</ele>
        <time>2021-08-21T11:05:14.000Z</time>
      </trkpt>
      <trkpt lat="47.97837" lon="7.12709">
        <ele>1171.6</ele>
        <time>2021-08-21T11:05:22.000Z</time>
      </trkpt>
      <trkpt lat="47.9783" lon="7.12732">
        <ele>1169.6</ele>
        <time>2021-08-21T11:05:35.000Z</time>
      </trkpt>
      <trkpt lat="47.9783" lon="7.12734">
        <ele>1169.4</ele>
        <time>2021-08-21T11:05:36.000Z</time>
      </trkpt>
      <trkpt lat="47.9783" lon="7.12736">
        <ele>1169.2</ele>
        <time>2021-08-21T11:05:37.000Z</time>
      </trkpt>
      <trkpt lat="47.97821" lon="7.12765">
        <ele>1166.2</ele>
        <time>2021-08-21T11:05:53.000Z</time>
      </trkpt>
      <trkpt lat="47.97814" lon="7.12797">
        <ele>1162.8</ele>
        <time>2021-08-21T11:06:11.000Z</time>
      </trkpt>
      <trkpt lat="47.97807" lon="7.12824">
        <ele>1159.6</ele>
        <time>2021-08-21T11:06:26.000Z</time>
      </trkpt>
      <trkpt lat="47.97804" lon="7.12844">
        <ele>1156.6</ele>
        <time>2021-08-21T11:06:38.000Z</time>
      </trkpt>
      <trkpt lat="47.97797" lon="7.12867">
        <ele>1153.4</ele>
        <time>2021-08-21T11:06:51.000Z</time>
      </trkpt>
      <trkpt lat="47.97791" lon="7.12893">
        <ele>1150.2</ele>
        <time>2021-08-21T11:07:05.000Z</time>
      </trkpt>
      <trkpt lat="47.97783" lon="7.12921">
        <ele>1147.8</ele>
        <time>2021-08-21T11:07:20.000Z</time>
      </trkpt>
      <trkpt lat="47.97777" lon="7.12945">
        <ele>1145</ele>
        <time>2021-08-21T11:07:34.000Z</time>
      </trkpt>
      <trkpt lat="47.97777" lon="7.12947">
        <ele>1144.8</ele>
        <time>2021-08-21T11:07:35.000Z</time>
      </trkpt>
      <trkpt lat="47.97777" lon="7.12948">
        <ele>1144.6</ele>
        <time>2021-08-21T11:07:36.000Z</time>
      </trkpt>
      <trkpt lat="47.97776" lon="7.12966">
        <ele>1142.4</ele>
        <time>2021-08-21T11:07:47.000Z</time>
      </trkpt>
      <trkpt lat="47.97776" lon="7.12967">
        <ele>1141.8</ele>
        <time>2021-08-21T11:07:48.000Z</time>
      </trkpt>
      <trkpt lat="47.97776" lon="7.12969">
        <ele>1141.6</ele>
        <time>2021-08-21T11:07:49.000Z</time>
      </trkpt>
      <trkpt lat="47.97776" lon="7.1297">
        <ele>1141.4</ele>
        <time>2021-08-21T11:07:50.000Z</time>
      </trkpt>
      <trkpt lat="47.97776" lon="7.12972">
        <ele>1141</ele>
        <time>2021-08-21T11:07:51.000Z</time>
      </trkpt>
      <trkpt lat="47.97775" lon="7.12999">
        <ele>1139.4</ele>
        <time>2021-08-21T11:08:06.000Z</time>
      </trkpt>
      <trkpt lat="47.97772" lon="7.1303">
        <ele>1136</ele>
        <time>2021-08-21T11:08:20.000Z</time>
      </trkpt>
      <trkpt lat="47.97768" lon="7.13066">
        <ele>1133</ele>
        <time>2021-08-21T11:08:38.000Z</time>
      </trkpt>
      <trkpt lat="47.97757" lon="7.13097">
        <ele>1130</ele>
        <time>2021-08-21T11:08:55.000Z</time>
      </trkpt>
      <trkpt lat="47.97746" lon="7.13122">
        <ele>1128</ele>
        <time>2021-08-21T11:09:10.000Z</time>
      </trkpt>
      <trkpt lat="47.97729" lon="7.13144">
        <ele>1125.4</ele>
        <time>2021-08-21T11:09:26.000Z</time>
      </trkpt>
      <trkpt lat="47.97723" lon="7.13153">
        <ele>1124</ele>
        <time>2021-08-21T11:09:34.000Z</time>
      </trkpt>
      <trkpt lat="47.97721" lon="7.13156">
        <ele>1123.8</ele>
        <time>2021-08-21T11:09:36.000Z</time>
      </trkpt>
      <trkpt lat="47.977" lon="7.1317">
        <ele>1122.2</ele>
        <time>2021-08-21T11:09:52.000Z</time>
      </trkpt>
      <trkpt lat="47.97689" lon="7.13174">
        <ele>1121.2</ele>
        <time>2021-08-21T11:10:00.000Z</time>
      </trkpt>
      <trkpt lat="47.97687" lon="7.13174">
        <ele>1121.2</ele>
        <time>2021-08-21T11:10:01.000Z</time>
      </trkpt>
      <trkpt lat="47.97686" lon="7.13175">
        <ele>1121</ele>
        <time>2021-08-21T11:10:02.000Z</time>
      </trkpt>
      <trkpt lat="47.97685" lon="7.13175">
        <ele>1120.8</ele>
        <time>2021-08-21T11:10:03.000Z</time>
      </trkpt>
      <trkpt lat="47.97684" lon="7.13176">
        <ele>1120.8</ele>
        <time>2021-08-21T11:10:04.000Z</time>
      </trkpt>
      <trkpt lat="47.97676" lon="7.13183">
        <ele>1120</ele>
        <time>2021-08-21T11:10:12.000Z</time>
      </trkpt>
      <trkpt lat="47.9766" lon="7.13181">
        <ele>1119.2</ele>
        <time>2021-08-21T11:10:24.000Z</time>
      </trkpt>
      <trkpt lat="47.97644" lon="7.13188">
        <ele>1117.6</ele>
        <time>2021-08-21T11:10:40.000Z</time>
      </trkpt>
      <trkpt lat="47.97632" lon="7.1319">
        <ele>1117</ele>
        <time>2021-08-21T11:10:47.000Z</time>
      </trkpt>
      <trkpt lat="47.9763" lon="7.1319">
        <ele>1116.8</ele>
        <time>2021-08-21T11:10:48.000Z</time>
      </trkpt>
      <trkpt lat="47.97629" lon="7.1319">
        <ele>1116.8</ele>
        <time>2021-08-21T11:10:49.000Z</time>
      </trkpt>
      <trkpt lat="47.97627" lon="7.1319">
        <ele>1116.8</ele>
        <time>2021-08-21T11:10:50.000Z</time>
      </trkpt>
      <trkpt lat="47.97615" lon="7.13192">
        <ele>1115</ele>
        <time>2021-08-21T11:11:01.000Z</time>
      </trkpt>
      <trkpt lat="47.97597" lon="7.13198">
        <ele>1112.4</ele>
        <time>2021-08-21T11:11:18.000Z</time>
      </trkpt>
      <trkpt lat="47.97567" lon="7.13201">
        <ele>1110</ele>
        <time>2021-08-21T11:11:37.000Z</time>
      </trkpt>
      <trkpt lat="47.97535" lon="7.13204">
        <ele>1107.8</ele>
        <time>2021-08-21T11:11:57.000Z</time>
      </trkpt>
      <trkpt lat="47.97532" lon="7.13205">
        <ele>1107.6</ele>
        <time>2021-08-21T11:11:59.000Z</time>
      </trkpt>
      <trkpt lat="47.97531" lon="7.13205">
        <ele>1107.6</ele>
        <time>2021-08-21T11:12:00.000Z</time>
      </trkpt>
      <trkpt lat="47.9753" lon="7.13206">
        <ele>1107.6</ele>
        <time>2021-08-21T11:12:01.000Z</time>
      </trkpt>
      <trkpt lat="47.97522" lon="7.1321">
        <ele>1107.2</ele>
        <time>2021-08-21T11:12:07.000Z</time>
      </trkpt>
      <trkpt lat="47.97498" lon="7.13232">
        <ele>1106.6</ele>
        <time>2021-08-21T11:12:26.000Z</time>
      </trkpt>
      <trkpt lat="47.97475" lon="7.13251">
        <ele>1106.8</ele>
        <time>2021-08-21T11:12:44.000Z</time>
      </trkpt>
      <trkpt lat="47.97457" lon="7.13271">
        <ele>1106.6</ele>
        <time>2021-08-21T11:13:00.000Z</time>
      </trkpt>
      <trkpt lat="47.97441" lon="7.13295">
        <ele>1106</ele>
        <time>2021-08-21T11:13:16.000Z</time>
      </trkpt>
      <trkpt lat="47.97433" lon="7.13304">
        <ele>1105.6</ele>
        <time>2021-08-21T11:14:09.000Z</time>
      </trkpt>
      <trkpt lat="47.97431" lon="7.13308">
        <ele>1105.2</ele>
        <time>2021-08-21T11:14:23.000Z</time>
      </trkpt>
      <trkpt lat="47.97422" lon="7.13332">
        <ele>1105.4</ele>
        <time>2021-08-21T11:14:41.000Z</time>
      </trkpt>
      <trkpt lat="47.97424" lon="7.13364">
        <ele>1104.6</ele>
        <time>2021-08-21T11:14:57.000Z</time>
      </trkpt>
      <trkpt lat="47.97429" lon="7.13376">
        <ele>1104.2</ele>
        <time>2021-08-21T11:15:10.000Z</time>
      </trkpt>
      <trkpt lat="47.97431" lon="7.13385">
        <ele>1104.8</ele>
        <time>2021-08-21T11:15:36.000Z</time>
      </trkpt>
      <trkpt lat="47.9743" lon="7.13399">
        <ele>1104.8</ele>
        <time>2021-08-21T11:15:53.000Z</time>
      </trkpt>
      <trkpt lat="47.97433" lon="7.13418">
        <ele>1104.2</ele>
        <time>2021-08-21T11:16:04.000Z</time>
      </trkpt>
      <trkpt lat="47.97433" lon="7.13425">
        <ele>1104.2</ele>
        <time>2021-08-21T11:16:07.000Z</time>
      </trkpt>
      <trkpt lat="47.97435" lon="7.13431">
        <ele>1104.2</ele>
        <time>2021-08-21T11:16:10.000Z</time>
      </trkpt>
      <trkpt lat="47.97432" lon="7.13451">
        <ele>1103.6</ele>
        <time>2021-08-21T11:16:24.000Z</time>
      </trkpt>
      <trkpt lat="47.97427" lon="7.13467">
        <ele>1104.4</ele>
        <time>2021-08-21T11:16:38.000Z</time>
      </trkpt>
      <trkpt lat="47.97431" lon="7.13482">
        <ele>1102.8</ele>
        <time>2021-08-21T11:16:54.000Z</time>
      </trkpt>
      <trkpt lat="47.97429" lon="7.13498">
        <ele>1099.4</ele>
        <time>2021-08-21T11:17:06.000Z</time>
      </trkpt>
      <trkpt lat="47.97432" lon="7.13505">
        <ele>1097.4</ele>
        <time>2021-08-21T11:17:18.000Z</time>
      </trkpt>
      <trkpt lat="47.97431" lon="7.13519">
        <ele>1095.2</ele>
        <time>2021-08-21T11:17:29.000Z</time>
      </trkpt>
      <trkpt lat="47.97411" lon="7.13515">
        <ele>1091.4</ele>
        <time>2021-08-21T11:17:49.000Z</time>
      </trkpt>
      <trkpt lat="47.97406" lon="7.13512">
        <ele>1088.4</ele>
        <time>2021-08-21T11:18:06.000Z</time>
      </trkpt>
      <trkpt lat="47.97393" lon="7.13483">
        <ele>1089</ele>
        <time>2021-08-21T11:18:31.000Z</time>
      </trkpt>
      <trkpt lat="47.97395" lon="7.13482">
        <ele>1088.8</ele>
        <time>2021-08-21T11:18:44.000Z</time>
      </trkpt>
      <trkpt lat="47.97395" lon="7.13484">
        <ele>1088.8</ele>
        <time>2021-08-21T11:18:45.000Z</time>
      </trkpt>
      <trkpt lat="47.97401" lon="7.13522">
        <ele>1084.6</ele>
        <time>2021-08-21T11:19:12.000Z</time>
      </trkpt>
      <trkpt lat="47.97395" lon="7.13526">
        <ele>1081.6</ele>
        <time>2021-08-21T11:19:21.000Z</time>
      </trkpt>
      <trkpt lat="47.97391" lon="7.13527">
        <ele>1078.4</ele>
        <time>2021-08-21T11:19:33.000Z</time>
      </trkpt>
      <trkpt lat="47.97388" lon="7.13522">
        <ele>1077.4</ele>
        <time>2021-08-21T11:19:59.000Z</time>
      </trkpt>
      <trkpt lat="47.97391" lon="7.13521">
        <ele>1077.6</ele>
        <time>2021-08-21T11:20:21.000Z</time>
      </trkpt>
      <trkpt lat="47.97389" lon="7.13517">
        <ele>1077.4</ele>
        <time>2021-08-21T11:20:51.000Z</time>
      </trkpt>
      <trkpt lat="47.97383" lon="7.13529">
        <ele>1077.4</ele>
        <time>2021-08-21T11:21:23.000Z</time>
      </trkpt>
      <trkpt lat="47.97381" lon="7.13532">
        <ele>1077.4</ele>
        <time>2021-08-21T11:21:27.000Z</time>
      </trkpt>
      <trkpt lat="47.97376" lon="7.13534">
        <ele>1077.6</ele>
        <time>2021-08-21T11:22:00.000Z</time>
      </trkpt>
      <trkpt lat="47.97377" lon="7.13533">
        <ele>1078.2</ele>
        <time>2021-08-21T11:22:39.000Z</time>
      </trkpt>
      <trkpt lat="47.97379" lon="7.13537">
        <ele>1077</ele>
        <time>2021-08-21T11:23:03.000Z</time>
      </trkpt>
      <trkpt lat="47.97382" lon="7.13546">
        <ele>1075.6</ele>
        <time>2021-08-21T11:23:10.000Z</time>
      </trkpt>
      <trkpt lat="47.97392" lon="7.13571">
        <ele>1072.6</ele>
        <time>2021-08-21T11:23:33.000Z</time>
      </trkpt>
      <trkpt lat="47.97392" lon="7.13576">
        <ele>1072.4</ele>
        <time>2021-08-21T11:23:36.000Z</time>
      </trkpt>
      <trkpt lat="47.97396" lon="7.13584">
        <ele>1071.2</ele>
        <time>2021-08-21T11:23:46.000Z</time>
      </trkpt>
      <trkpt lat="47.97406" lon="7.13597">
        <ele>1068.6</ele>
        <time>2021-08-21T11:24:00.000Z</time>
      </trkpt>
      <trkpt lat="47.97411" lon="7.13598">
        <ele>1068</ele>
        <time>2021-08-21T11:24:05.000Z</time>
      </trkpt>
      <trkpt lat="47.97412" lon="7.13598">
        <ele>1068</ele>
        <time>2021-08-21T11:24:06.000Z</time>
      </trkpt>
      <trkpt lat="47.97426" lon="7.13606">
        <ele>1065.8</ele>
        <time>2021-08-21T11:24:40.000Z</time>
      </trkpt>
      <trkpt lat="47.97419" lon="7.13608">
        <ele>1063.2</ele>
        <time>2021-08-21T11:24:52.000Z</time>
      </trkpt>
      <trkpt lat="47.9741" lon="7.13615">
        <ele>1061.2</ele>
        <time>2021-08-21T11:25:03.000Z</time>
      </trkpt>
      <trkpt lat="47.97409" lon="7.13616">
        <ele>1061</ele>
        <time>2021-08-21T11:25:04.000Z</time>
      </trkpt>
      <trkpt lat="47.97408" lon="7.13617">
        <ele>1060.8</ele>
        <time>2021-08-21T11:25:05.000Z</time>
      </trkpt>
      <trkpt lat="47.97405" lon="7.13618">
        <ele>1060.6</ele>
        <time>2021-08-21T11:25:07.000Z</time>
      </trkpt>
      <trkpt lat="47.97397" lon="7.13623">
        <ele>1059.4</ele>
        <time>2021-08-21T11:25:20.000Z</time>
      </trkpt>
      <trkpt lat="47.97391" lon="7.13629">
        <ele>1058.6</ele>
        <time>2021-08-21T11:25:25.000Z</time>
      </trkpt>
      <trkpt lat="47.97385" lon="7.13631">
        <ele>1057.8</ele>
        <time>2021-08-21T11:25:31.000Z</time>
      </trkpt>
      <trkpt lat="47.97383" lon="7.13631">
        <ele>1057.4</ele>
        <time>2021-08-21T11:25:32.000Z</time>
      </trkpt>
      <trkpt lat="47.97365" lon="7.13615">
        <ele>1054.6</ele>
        <time>2021-08-21T11:25:52.000Z</time>
      </trkpt>
      <trkpt lat="47.97355" lon="7.13611">
        <ele>1052.2</ele>
        <time>2021-08-21T11:26:02.000Z</time>
      </trkpt>
      <trkpt lat="47.97353" lon="7.13611">
        <ele>1051.8</ele>
        <time>2021-08-21T11:26:03.000Z</time>
      </trkpt>
      <trkpt lat="47.97352" lon="7.1361">
        <ele>1051.4</ele>
        <time>2021-08-21T11:26:04.000Z</time>
      </trkpt>
      <trkpt lat="47.9735" lon="7.1361">
        <ele>1051</ele>
        <time>2021-08-21T11:26:06.000Z</time>
      </trkpt>
      <trkpt lat="47.97342" lon="7.13614">
        <ele>1048</ele>
        <time>2021-08-21T11:26:21.000Z</time>
      </trkpt>
      <trkpt lat="47.97345" lon="7.1362">
        <ele>1046.4</ele>
        <time>2021-08-21T11:26:26.000Z</time>
      </trkpt>
      <trkpt lat="47.97347" lon="7.1363">
        <ele>1045.4</ele>
        <time>2021-08-21T11:26:32.000Z</time>
      </trkpt>
      <trkpt lat="47.97347" lon="7.13631">
        <ele>1045.2</ele>
        <time>2021-08-21T11:26:33.000Z</time>
      </trkpt>
      <trkpt lat="47.97348" lon="7.13632">
        <ele>1045</ele>
        <time>2021-08-21T11:26:34.000Z</time>
      </trkpt>
      <trkpt lat="47.97351" lon="7.13643">
        <ele>1043.2</ele>
        <time>2021-08-21T11:26:43.000Z</time>
      </trkpt>
      <trkpt lat="47.97352" lon="7.13649">
        <ele>1042.4</ele>
        <time>2021-08-21T11:26:47.000Z</time>
      </trkpt>
      <trkpt lat="47.97353" lon="7.13655">
        <ele>1041.8</ele>
        <time>2021-08-21T11:26:50.000Z</time>
      </trkpt>
      <trkpt lat="47.97353" lon="7.13656">
        <ele>1041.6</ele>
        <time>2021-08-21T11:26:51.000Z</time>
      </trkpt>
      <trkpt lat="47.97355" lon="7.13662">
        <ele>1040.6</ele>
        <time>2021-08-21T11:27:03.000Z</time>
      </trkpt>
      <trkpt lat="47.97359" lon="7.13674">
        <ele>1037.4</ele>
        <time>2021-08-21T11:27:16.000Z</time>
      </trkpt>
      <trkpt lat="47.97365" lon="7.13687">
        <ele>1034.4</ele>
        <time>2021-08-21T11:27:35.000Z</time>
      </trkpt>
      <trkpt lat="47.97375" lon="7.13694">
        <ele>1031.8</ele>
        <time>2021-08-21T11:27:52.000Z</time>
      </trkpt>
      <trkpt lat="47.9739" lon="7.13698">
        <ele>1030</ele>
        <time>2021-08-21T11:28:07.000Z</time>
      </trkpt>
      <trkpt lat="47.97394" lon="7.13698">
        <ele>1029.6</ele>
        <time>2021-08-21T11:28:10.000Z</time>
      </trkpt>
      <trkpt lat="47.97395" lon="7.13698">
        <ele>1029.6</ele>
        <time>2021-08-21T11:28:11.000Z</time>
      </trkpt>
      <trkpt lat="47.97413" lon="7.13702">
        <ele>1027.2</ele>
        <time>2021-08-21T11:28:26.000Z</time>
      </trkpt>
      <trkpt lat="47.97423" lon="7.13706">
        <ele>1025.4</ele>
        <time>2021-08-21T11:28:38.000Z</time>
      </trkpt>
      <trkpt lat="47.97469" lon="7.13697">
        <ele>1019.4</ele>
        <time>2021-08-21T11:29:17.000Z</time>
      </trkpt>
      <trkpt lat="47.97485" lon="7.13687">
        <ele>1019</ele>
        <time>2021-08-21T11:29:39.000Z</time>
      </trkpt>
      <trkpt lat="47.97487" lon="7.13686">
        <ele>1019.2</ele>
        <time>2021-08-21T11:29:42.000Z</time>
      </trkpt>
      <trkpt lat="47.97493" lon="7.1369">
        <ele>1018.6</ele>
        <time>2021-08-21T11:30:11.000Z</time>
      </trkpt>
      <trkpt lat="47.975" lon="7.13689">
        <ele>1018.2</ele>
        <time>2021-08-21T11:30:19.000Z</time>
      </trkpt>
      <trkpt lat="47.97503" lon="7.13688">
        <ele>1018</ele>
        <time>2021-08-21T11:30:22.000Z</time>
      </trkpt>
      <trkpt lat="47.97515" lon="7.13689">
        <ele>1017.4</ele>
        <time>2021-08-21T11:30:32.000Z</time>
      </trkpt>
      <trkpt lat="47.97528" lon="7.13698">
        <ele>1016.4</ele>
        <time>2021-08-21T11:30:42.000Z</time>
      </trkpt>
      <trkpt lat="47.97534" lon="7.13701">
        <ele>1016</ele>
        <time>2021-08-21T11:30:58.000Z</time>
      </trkpt>
      <trkpt lat="47.97536" lon="7.13704">
        <ele>1015.8</ele>
        <time>2021-08-21T11:31:00.000Z</time>
      </trkpt>
      <trkpt lat="47.97547" lon="7.13731">
        <ele>1012.8</ele>
        <time>2021-08-21T11:31:18.000Z</time>
      </trkpt>
      <trkpt lat="47.9755" lon="7.13735">
        <ele>1012.6</ele>
        <time>2021-08-21T11:31:23.000Z</time>
      </trkpt>
      <trkpt lat="47.9755" lon="7.13736">
        <ele>1012.4</ele>
        <time>2021-08-21T11:31:24.000Z</time>
      </trkpt>
      <trkpt lat="47.97551" lon="7.13737">
        <ele>1012.4</ele>
        <time>2021-08-21T11:31:25.000Z</time>
      </trkpt>
      <trkpt lat="47.97559" lon="7.1377">
        <ele>1010.6</ele>
        <time>2021-08-21T11:31:41.000Z</time>
      </trkpt>
      <trkpt lat="47.97564" lon="7.1378">
        <ele>1009.8</ele>
        <time>2021-08-21T11:31:47.000Z</time>
      </trkpt>
      <trkpt lat="47.97564" lon="7.13782">
        <ele>1009.6</ele>
        <time>2021-08-21T11:31:48.000Z</time>
      </trkpt>
      <trkpt lat="47.97566" lon="7.13785">
        <ele>1009.4</ele>
        <time>2021-08-21T11:31:50.000Z</time>
      </trkpt>
      <trkpt lat="47.97566" lon="7.13786">
        <ele>1009.4</ele>
        <time>2021-08-21T11:31:51.000Z</time>
      </trkpt>
      <trkpt lat="47.97568" lon="7.13793">
        <ele>1008.8</ele>
        <time>2021-08-21T11:31:54.000Z</time>
      </trkpt>
      <trkpt lat="47.97569" lon="7.13799">
        <ele>1008.2</ele>
        <time>2021-08-21T11:31:57.000Z</time>
      </trkpt>
      <trkpt lat="47.9757" lon="7.13801">
        <ele>1008</ele>
        <time>2021-08-21T11:31:58.000Z</time>
      </trkpt>
      <trkpt lat="47.9757" lon="7.13803">
        <ele>1007.8</ele>
        <time>2021-08-21T11:31:59.000Z</time>
      </trkpt>
      <trkpt lat="47.97572" lon="7.1381">
        <ele>1006.6</ele>
        <time>2021-08-21T11:32:03.000Z</time>
      </trkpt>
      <trkpt lat="47.97572" lon="7.13812">
        <ele>1006.4</ele>
        <time>2021-08-21T11:32:04.000Z</time>
      </trkpt>
      <trkpt lat="47.97575" lon="7.13824">
        <ele>1004.8</ele>
        <time>2021-08-21T11:32:12.000Z</time>
      </trkpt>
      <trkpt lat="47.97575" lon="7.13827">
        <ele>1004.4</ele>
        <time>2021-08-21T11:32:14.000Z</time>
      </trkpt>
      <trkpt lat="47.97576" lon="7.13831">
        <ele>1004.2</ele>
        <time>2021-08-21T11:32:16.000Z</time>
      </trkpt>
      <trkpt lat="47.97576" lon="7.13832">
        <ele>1004</ele>
        <time>2021-08-21T11:32:17.000Z</time>
      </trkpt>
      <trkpt lat="47.97577" lon="7.13833">
        <ele>1003.8</ele>
        <time>2021-08-21T11:32:18.000Z</time>
      </trkpt>
      <trkpt lat="47.97578" lon="7.13837">
        <ele>1003.4</ele>
        <time>2021-08-21T11:32:20.000Z</time>
      </trkpt>
      <trkpt lat="47.97578" lon="7.13844">
        <ele>1003</ele>
        <time>2021-08-21T11:32:23.000Z</time>
      </trkpt>
      <trkpt lat="47.97582" lon="7.13873">
        <ele>1000</ele>
        <time>2021-08-21T11:32:39.000Z</time>
      </trkpt>
      <trkpt lat="47.97581" lon="7.13898">
        <ele>998.6</ele>
        <time>2021-08-21T11:32:50.000Z</time>
      </trkpt>
      <trkpt lat="47.97581" lon="7.13901">
        <ele>998.6</ele>
        <time>2021-08-21T11:32:51.000Z</time>
      </trkpt>
      <trkpt lat="47.97582" lon="7.13922">
        <ele>997.4</ele>
        <time>2021-08-21T11:33:02.000Z</time>
      </trkpt>
      <trkpt lat="47.97585" lon="7.13955">
        <ele>995.8</ele>
        <time>2021-08-21T11:33:19.000Z</time>
      </trkpt>
      <trkpt lat="47.97584" lon="7.13957">
        <ele>995</ele>
        <time>2021-08-21T11:33:33.000Z</time>
      </trkpt>
      <trkpt lat="47.97578" lon="7.13963">
        <ele>995</ele>
        <time>2021-08-21T11:33:40.000Z</time>
      </trkpt>
      <trkpt lat="47.97578" lon="7.13964">
        <ele>994.8</ele>
        <time>2021-08-21T11:33:41.000Z</time>
      </trkpt>
      <trkpt lat="47.97577" lon="7.13966">
        <ele>994.8</ele>
        <time>2021-08-21T11:33:42.000Z</time>
      </trkpt>
      <trkpt lat="47.97577" lon="7.1399">
        <ele>992.8</ele>
        <time>2021-08-21T11:33:54.000Z</time>
      </trkpt>
      <trkpt lat="47.97577" lon="7.13993">
        <ele>992.6</ele>
        <time>2021-08-21T11:33:55.000Z</time>
      </trkpt>
      <trkpt lat="47.97578" lon="7.14">
        <ele>992.4</ele>
        <time>2021-08-21T11:33:58.000Z</time>
      </trkpt>
      <trkpt lat="47.97579" lon="7.14002">
        <ele>992.2</ele>
        <time>2021-08-21T11:33:59.000Z</time>
      </trkpt>
      <trkpt lat="47.9758" lon="7.14008">
        <ele>991.8</ele>
        <time>2021-08-21T11:34:02.000Z</time>
      </trkpt>
      <trkpt lat="47.97586" lon="7.14032">
        <ele>990</ele>
        <time>2021-08-21T11:34:15.000Z</time>
      </trkpt>
      <trkpt lat="47.97587" lon="7.14035">
        <ele>990</ele>
        <time>2021-08-21T11:34:17.000Z</time>
      </trkpt>
      <trkpt lat="47.97588" lon="7.1404">
        <ele>989.2</ele>
        <time>2021-08-21T11:34:28.000Z</time>
      </trkpt>
      <trkpt lat="47.9758" lon="7.14037">
        <ele>988.6</ele>
        <time>2021-08-21T11:34:48.000Z</time>
      </trkpt>
      <trkpt lat="47.97578" lon="7.14029">
        <ele>987.6</ele>
        <time>2021-08-21T11:34:53.000Z</time>
      </trkpt>
      <trkpt lat="47.97578" lon="7.14028">
        <ele>987.4</ele>
        <time>2021-08-21T11:34:54.000Z</time>
      </trkpt>
      <trkpt lat="47.97576" lon="7.14026">
        <ele>987.2</ele>
        <time>2021-08-21T11:34:56.000Z</time>
      </trkpt>
      <trkpt lat="47.97574" lon="7.14022">
        <ele>986.8</ele>
        <time>2021-08-21T11:34:59.000Z</time>
      </trkpt>
      <trkpt lat="47.97573" lon="7.14017">
        <ele>986</ele>
        <time>2021-08-21T11:35:02.000Z</time>
      </trkpt>
      <trkpt lat="47.97572" lon="7.14015">
        <ele>985.8</ele>
        <time>2021-08-21T11:35:03.000Z</time>
      </trkpt>
      <trkpt lat="47.97572" lon="7.14014">
        <ele>985.6</ele>
        <time>2021-08-21T11:35:04.000Z</time>
      </trkpt>
      <trkpt lat="47.9757" lon="7.14011">
        <ele>985.2</ele>
        <time>2021-08-21T11:35:06.000Z</time>
      </trkpt>
      <trkpt lat="47.9757" lon="7.1401">
        <ele>985</ele>
        <time>2021-08-21T11:35:07.000Z</time>
      </trkpt>
      <trkpt lat="47.97567" lon="7.13997">
        <ele>984.2</ele>
        <time>2021-08-21T11:35:13.000Z</time>
      </trkpt>
      <trkpt lat="47.97564" lon="7.13989">
        <ele>983.8</ele>
        <time>2021-08-21T11:35:17.000Z</time>
      </trkpt>
      <trkpt lat="47.97564" lon="7.13973">
        <ele>982.8</ele>
        <time>2021-08-21T11:35:26.000Z</time>
      </trkpt>
      <trkpt lat="47.97562" lon="7.13965">
        <ele>982.2</ele>
        <time>2021-08-21T11:35:30.000Z</time>
      </trkpt>
      <trkpt lat="47.97562" lon="7.13963">
        <ele>982</ele>
        <time>2021-08-21T11:35:31.000Z</time>
      </trkpt>
      <trkpt lat="47.97561" lon="7.1396">
        <ele>981.6</ele>
        <time>2021-08-21T11:35:33.000Z</time>
      </trkpt>
      <trkpt lat="47.97557" lon="7.13946">
        <ele>979.8</ele>
        <time>2021-08-21T11:35:44.000Z</time>
      </trkpt>
      <trkpt lat="47.97556" lon="7.13942">
        <ele>979.6</ele>
        <time>2021-08-21T11:35:46.000Z</time>
      </trkpt>
      <trkpt lat="47.97546" lon="7.13912">
        <ele>978</ele>
        <time>2021-08-21T11:36:02.000Z</time>
      </trkpt>
      <trkpt lat="47.97537" lon="7.13892">
        <ele>976.6</ele>
        <time>2021-08-21T11:36:13.000Z</time>
      </trkpt>
      <trkpt lat="47.97536" lon="7.13889">
        <ele>976.2</ele>
        <time>2021-08-21T11:36:14.000Z</time>
      </trkpt>
      <trkpt lat="47.97536" lon="7.13887">
        <ele>976</ele>
        <time>2021-08-21T11:36:15.000Z</time>
      </trkpt>
      <trkpt lat="47.97535" lon="7.13884">
        <ele>975.8</ele>
        <time>2021-08-21T11:36:17.000Z</time>
      </trkpt>
      <trkpt lat="47.97534" lon="7.13881">
        <ele>975.8</ele>
        <time>2021-08-21T11:36:18.000Z</time>
      </trkpt>
      <trkpt lat="47.97533" lon="7.13876">
        <ele>975.4</ele>
        <time>2021-08-21T11:36:21.000Z</time>
      </trkpt>
      <trkpt lat="47.97533" lon="7.13874">
        <ele>975.4</ele>
        <time>2021-08-21T11:36:22.000Z</time>
      </trkpt>
      <trkpt lat="47.97532" lon="7.13871">
        <ele>975</ele>
        <time>2021-08-21T11:36:24.000Z</time>
      </trkpt>
      <trkpt lat="47.97527" lon="7.1386">
        <ele>974.2</ele>
        <time>2021-08-21T11:36:32.000Z</time>
      </trkpt>
      <trkpt lat="47.97525" lon="7.13854">
        <ele>973.8</ele>
        <time>2021-08-21T11:36:35.000Z</time>
      </trkpt>
      <trkpt lat="47.97521" lon="7.13845">
        <ele>973</ele>
        <time>2021-08-21T11:36:41.000Z</time>
      </trkpt>
      <trkpt lat="47.97521" lon="7.13843">
        <ele>972.8</ele>
        <time>2021-08-21T11:36:42.000Z</time>
      </trkpt>
      <trkpt lat="47.9752" lon="7.13842">
        <ele>972.8</ele>
        <time>2021-08-21T11:36:43.000Z</time>
      </trkpt>
      <trkpt lat="47.97514" lon="7.13832">
        <ele>971.8</ele>
        <time>2021-08-21T11:36:50.000Z</time>
      </trkpt>
      <trkpt lat="47.97513" lon="7.1383">
        <ele>971.6</ele>
        <time>2021-08-21T11:36:51.000Z</time>
      </trkpt>
      <trkpt lat="47.9751" lon="7.13827">
        <ele>970.2</ele>
        <time>2021-08-21T11:37:02.000Z</time>
      </trkpt>
      <trkpt lat="47.97513" lon="7.13836">
        <ele>969.6</ele>
        <time>2021-08-21T11:37:10.000Z</time>
      </trkpt>
      <trkpt lat="47.97517" lon="7.13854">
        <ele>968</ele>
        <time>2021-08-21T11:37:20.000Z</time>
      </trkpt>
      <trkpt lat="47.97521" lon="7.13866">
        <ele>966.6</ele>
        <time>2021-08-21T11:37:27.000Z</time>
      </trkpt>
      <trkpt lat="47.97525" lon="7.13899">
        <ele>963.8</ele>
        <time>2021-08-21T11:37:42.000Z</time>
      </trkpt>
      <trkpt lat="47.97531" lon="7.13926">
        <ele>961.6</ele>
        <time>2021-08-21T11:37:57.000Z</time>
      </trkpt>
      <trkpt lat="47.97532" lon="7.13928">
        <ele>961.6</ele>
        <time>2021-08-21T11:37:58.000Z</time>
      </trkpt>
      <trkpt lat="47.97533" lon="7.13931">
        <ele>961.4</ele>
        <time>2021-08-21T11:38:00.000Z</time>
      </trkpt>
      <trkpt lat="47.97532" lon="7.13933">
        <ele>961.2</ele>
        <time>2021-08-21T11:38:01.000Z</time>
      </trkpt>
      <trkpt lat="47.97533" lon="7.13951">
        <ele>959.6</ele>
        <time>2021-08-21T11:38:13.000Z</time>
      </trkpt>
      <trkpt lat="47.97533" lon="7.13955">
        <ele>959.4</ele>
        <time>2021-08-21T11:38:15.000Z</time>
      </trkpt>
      <trkpt lat="47.97531" lon="7.13965">
        <ele>958.6</ele>
        <time>2021-08-21T11:38:20.000Z</time>
      </trkpt>
      <trkpt lat="47.97531" lon="7.13994">
        <ele>957.2</ele>
        <time>2021-08-21T11:38:32.000Z</time>
      </trkpt>
      <trkpt lat="47.97531" lon="7.14015">
        <ele>955.8</ele>
        <time>2021-08-21T11:38:44.000Z</time>
      </trkpt>
      <trkpt lat="47.97531" lon="7.14022">
        <ele>954.8</ele>
        <time>2021-08-21T11:38:51.000Z</time>
      </trkpt>
      <trkpt lat="47.97531" lon="7.14028">
        <ele>954</ele>
        <time>2021-08-21T11:38:55.000Z</time>
      </trkpt>
      <trkpt lat="47.97528" lon="7.14059">
        <ele>951.4</ele>
        <time>2021-08-21T11:39:11.000Z</time>
      </trkpt>
      <trkpt lat="47.97525" lon="7.14072">
        <ele>950.8</ele>
        <time>2021-08-21T11:39:17.000Z</time>
      </trkpt>
      <trkpt lat="47.97523" lon="7.14088">
        <ele>949.2</ele>
        <time>2021-08-21T11:39:27.000Z</time>
      </trkpt>
      <trkpt lat="47.97522" lon="7.14116">
        <ele>947.2</ele>
        <time>2021-08-21T11:39:40.000Z</time>
      </trkpt>
      <trkpt lat="47.97515" lon="7.14135">
        <ele>945.4</ele>
        <time>2021-08-21T11:39:51.000Z</time>
      </trkpt>
      <trkpt lat="47.97508" lon="7.14162">
        <ele>943.2</ele>
        <time>2021-08-21T11:40:04.000Z</time>
      </trkpt>
      <trkpt lat="47.97506" lon="7.14169">
        <ele>942.2</ele>
        <time>2021-08-21T11:40:08.000Z</time>
      </trkpt>
      <trkpt lat="47.975" lon="7.14187">
        <ele>939</ele>
        <time>2021-08-21T11:40:21.000Z</time>
      </trkpt>
      <trkpt lat="47.97496" lon="7.14199">
        <ele>937.8</ele>
        <time>2021-08-21T11:40:27.000Z</time>
      </trkpt>
      <trkpt lat="47.97493" lon="7.14215">
        <ele>935.2</ele>
        <time>2021-08-21T11:40:37.000Z</time>
      </trkpt>
      <trkpt lat="47.97491" lon="7.14225">
        <ele>933</ele>
        <time>2021-08-21T11:40:46.000Z</time>
      </trkpt>
      <trkpt lat="47.97481" lon="7.14249">
        <ele>930</ele>
        <time>2021-08-21T11:41:02.000Z</time>
      </trkpt>
      <trkpt lat="47.9748" lon="7.14268">
        <ele>927.4</ele>
        <time>2021-08-21T11:41:15.000Z</time>
      </trkpt>
      <trkpt lat="47.97483" lon="7.14274">
        <ele>926.2</ele>
        <time>2021-08-21T11:41:22.000Z</time>
      </trkpt>
      <trkpt lat="47.97489" lon="7.14292">
        <ele>923.6</ele>
        <time>2021-08-21T11:41:34.000Z</time>
      </trkpt>
      <trkpt lat="47.97493" lon="7.1431">
        <ele>920.8</ele>
        <time>2021-08-21T11:41:44.000Z</time>
      </trkpt>
      <trkpt lat="47.97505" lon="7.14371">
        <ele>913.8</ele>
        <time>2021-08-21T11:42:13.000Z</time>
      </trkpt>
      <trkpt lat="47.97506" lon="7.14373">
        <ele>913.6</ele>
        <time>2021-08-21T11:42:14.000Z</time>
      </trkpt>
      <trkpt lat="47.97506" lon="7.14375">
        <ele>913.6</ele>
        <time>2021-08-21T11:42:15.000Z</time>
      </trkpt>
      <trkpt lat="47.97509" lon="7.14397">
        <ele>910.8</ele>
        <time>2021-08-21T11:42:28.000Z</time>
      </trkpt>
      <trkpt lat="47.97509" lon="7.14403">
        <ele>909.4</ele>
        <time>2021-08-21T11:42:34.000Z</time>
      </trkpt>
      <trkpt lat="47.97519" lon="7.14417">
        <ele>906.2</ele>
        <time>2021-08-21T11:42:46.000Z</time>
      </trkpt>
      <trkpt lat="47.97526" lon="7.14433">
        <ele>903</ele>
        <time>2021-08-21T11:42:59.000Z</time>
      </trkpt>
      <trkpt lat="47.97527" lon="7.14436">
        <ele>902.2</ele>
        <time>2021-08-21T11:43:02.000Z</time>
      </trkpt>
      <trkpt lat="47.97528" lon="7.14437">
        <ele>902</ele>
        <time>2021-08-21T11:43:03.000Z</time>
      </trkpt>
      <trkpt lat="47.97535" lon="7.14444">
        <ele>900.2</ele>
        <time>2021-08-21T11:43:11.000Z</time>
      </trkpt>
      <trkpt lat="47.9754" lon="7.14461">
        <ele>898</ele>
        <time>2021-08-21T11:43:20.000Z</time>
      </trkpt>
      <trkpt lat="47.97544" lon="7.14479">
        <ele>895.8</ele>
        <time>2021-08-21T11:43:29.000Z</time>
      </trkpt>
      <trkpt lat="47.97546" lon="7.14483">
        <ele>895</ele>
        <time>2021-08-21T11:43:32.000Z</time>
      </trkpt>
      <trkpt lat="47.97548" lon="7.14484">
        <ele>894.8</ele>
        <time>2021-08-21T11:43:33.000Z</time>
      </trkpt>
      <trkpt lat="47.97558" lon="7.14496">
        <ele>893</ele>
        <time>2021-08-21T11:43:43.000Z</time>
      </trkpt>
      <trkpt lat="47.97564" lon="7.14513">
        <ele>891.4</ele>
        <time>2021-08-21T11:43:52.000Z</time>
      </trkpt>
      <trkpt lat="47.97565" lon="7.14516">
        <ele>891.2</ele>
        <time>2021-08-21T11:43:54.000Z</time>
      </trkpt>
      <trkpt lat="47.97567" lon="7.14524">
        <ele>890.2</ele>
        <time>2021-08-21T11:44:01.000Z</time>
      </trkpt>
      <trkpt lat="47.97563" lon="7.14546">
        <ele>888.4</ele>
        <time>2021-08-21T11:44:13.000Z</time>
      </trkpt>
      <trkpt lat="47.97563" lon="7.14547">
        <ele>888.2</ele>
        <time>2021-08-21T11:44:14.000Z</time>
      </trkpt>
      <trkpt lat="47.97559" lon="7.14566">
        <ele>885.2</ele>
        <time>2021-08-21T11:44:31.000Z</time>
      </trkpt>
      <trkpt lat="47.97565" lon="7.1459">
        <ele>882.8</ele>
        <time>2021-08-21T11:44:44.000Z</time>
      </trkpt>
      <trkpt lat="47.9757" lon="7.14608">
        <ele>879.8</ele>
        <time>2021-08-21T11:44:56.000Z</time>
      </trkpt>
      <trkpt lat="47.97574" lon="7.14623">
        <ele>876.8</ele>
        <time>2021-08-21T11:45:10.000Z</time>
      </trkpt>
      <trkpt lat="47.97579" lon="7.14646">
        <ele>874.4</ele>
        <time>2021-08-21T11:45:24.000Z</time>
      </trkpt>
      <trkpt lat="47.97582" lon="7.14668">
        <ele>872</ele>
        <time>2021-08-21T11:45:37.000Z</time>
      </trkpt>
      <trkpt lat="47.97582" lon="7.14669">
        <ele>871.6</ele>
        <time>2021-08-21T11:45:38.000Z</time>
      </trkpt>
      <trkpt lat="47.97582" lon="7.14681">
        <ele>869.6</ele>
        <time>2021-08-21T11:45:44.000Z</time>
      </trkpt>
      <trkpt lat="47.97584" lon="7.14696">
        <ele>866.6</ele>
        <time>2021-08-21T11:45:55.000Z</time>
      </trkpt>
      <trkpt lat="47.97587" lon="7.14715">
        <ele>863.4</ele>
        <time>2021-08-21T11:46:07.000Z</time>
      </trkpt>
      <trkpt lat="47.9759" lon="7.14731">
        <ele>860.8</ele>
        <time>2021-08-21T11:46:18.000Z</time>
      </trkpt>
      <trkpt lat="47.97595" lon="7.14746">
        <ele>857.6</ele>
        <time>2021-08-21T11:46:30.000Z</time>
      </trkpt>
      <trkpt lat="47.97596" lon="7.14757">
        <ele>856.2</ele>
        <time>2021-08-21T11:46:36.000Z</time>
      </trkpt>
      <trkpt lat="47.97598" lon="7.14783">
        <ele>852.8</ele>
        <time>2021-08-21T11:46:49.000Z</time>
      </trkpt>
      <trkpt lat="47.976" lon="7.14798">
        <ele>851.6</ele>
        <time>2021-08-21T11:46:55.000Z</time>
      </trkpt>
      <trkpt lat="47.97601" lon="7.148">
        <ele>851.6</ele>
        <time>2021-08-21T11:46:56.000Z</time>
      </trkpt>
      <trkpt lat="47.97601" lon="7.14802">
        <ele>851.4</ele>
        <time>2021-08-21T11:46:57.000Z</time>
      </trkpt>
      <trkpt lat="47.97602" lon="7.14808">
        <ele>851.2</ele>
        <time>2021-08-21T11:47:00.000Z</time>
      </trkpt>
      <trkpt lat="47.97603" lon="7.1481">
        <ele>851.2</ele>
        <time>2021-08-21T11:47:01.000Z</time>
      </trkpt>
      <trkpt lat="47.97609" lon="7.14824">
        <ele>851</ele>
        <time>2021-08-21T11:47:21.000Z</time>
      </trkpt>
      <trkpt lat="47.97604" lon="7.14819">
        <ele>851.2</ele>
        <time>2021-08-21T11:47:42.000Z</time>
      </trkpt>
      <trkpt lat="47.97602" lon="7.14815">
        <ele>851.2</ele>
        <time>2021-08-21T11:47:55.000Z</time>
      </trkpt>
      <trkpt lat="47.97581" lon="7.14815">
        <ele>850.6</ele>
        <time>2021-08-21T11:48:17.000Z</time>
      </trkpt>
      <trkpt lat="47.97566" lon="7.14816">
        <ele>848.8</ele>
        <time>2021-08-21T11:48:38.000Z</time>
      </trkpt>
      <trkpt lat="47.97559" lon="7.1482">
        <ele>848.4</ele>
        <time>2021-08-21T11:48:43.000Z</time>
      </trkpt>
      <trkpt lat="47.97546" lon="7.1482">
        <ele>847.6</ele>
        <time>2021-08-21T11:48:53.000Z</time>
      </trkpt>
      <trkpt lat="47.97522" lon="7.14815">
        <ele>845</ele>
        <time>2021-08-21T11:49:14.000Z</time>
      </trkpt>
      <trkpt lat="47.97518" lon="7.14816">
        <ele>844.6</ele>
        <time>2021-08-21T11:49:17.000Z</time>
      </trkpt>
      <trkpt lat="47.97503" lon="7.14822">
        <ele>842.4</ele>
        <time>2021-08-21T11:49:32.000Z</time>
      </trkpt>
      <trkpt lat="47.97485" lon="7.14832">
        <ele>841.4</ele>
        <time>2021-08-21T11:49:44.000Z</time>
      </trkpt>
      <trkpt lat="47.97479" lon="7.14835">
        <ele>841</ele>
        <time>2021-08-21T11:49:49.000Z</time>
      </trkpt>
      <trkpt lat="47.9747" lon="7.14837">
        <ele>840.6</ele>
        <time>2021-08-21T11:49:54.000Z</time>
      </trkpt>
      <trkpt lat="47.97463" lon="7.1484">
        <ele>840</ele>
        <time>2021-08-21T11:49:59.000Z</time>
      </trkpt>
      <trkpt lat="47.97459" lon="7.14842">
        <ele>839.8</ele>
        <time>2021-08-21T11:50:02.000Z</time>
      </trkpt>
      <trkpt lat="47.97443" lon="7.14849">
        <ele>838.4</ele>
        <time>2021-08-21T11:50:15.000Z</time>
      </trkpt>
      <trkpt lat="47.97429" lon="7.1485">
        <ele>837</ele>
        <time>2021-08-21T11:50:25.000Z</time>
      </trkpt>
      <trkpt lat="47.97428" lon="7.1485">
        <ele>836.8</ele>
        <time>2021-08-21T11:50:26.000Z</time>
      </trkpt>
      <trkpt lat="47.97425" lon="7.1485">
        <ele>836.6</ele>
        <time>2021-08-21T11:50:28.000Z</time>
      </trkpt>
      <trkpt lat="47.97403" lon="7.14846">
        <ele>834.4</ele>
        <time>2021-08-21T11:50:45.000Z</time>
      </trkpt>
      <trkpt lat="47.97373" lon="7.14862">
        <ele>832.8</ele>
        <time>2021-08-21T11:51:07.000Z</time>
      </trkpt>
      <trkpt lat="47.97365" lon="7.14867">
        <ele>833.4</ele>
        <time>2021-08-21T11:51:13.000Z</time>
      </trkpt>
      <trkpt lat="47.97363" lon="7.14867">
        <ele>833.4</ele>
        <time>2021-08-21T11:51:14.000Z</time>
      </trkpt>
      <trkpt lat="47.97362" lon="7.14868">
        <ele>833.6</ele>
        <time>2021-08-21T11:51:15.000Z</time>
      </trkpt>
      <trkpt lat="47.97361" lon="7.14868">
        <ele>833.6</ele>
        <time>2021-08-21T11:51:16.000Z</time>
      </trkpt>
      <trkpt lat="47.97348" lon="7.14866">
        <ele>834.2</ele>
        <time>2021-08-21T11:51:27.000Z</time>
      </trkpt>
      <trkpt lat="47.97342" lon="7.14871">
        <ele>834.8</ele>
        <time>2021-08-21T11:51:33.000Z</time>
      </trkpt>
      <trkpt lat="47.97329" lon="7.14884">
        <ele>835.2</ele>
        <time>2021-08-21T11:51:44.000Z</time>
      </trkpt>
      <trkpt lat="47.97326" lon="7.14889">
        <ele>835.4</ele>
        <time>2021-08-21T11:51:47.000Z</time>
      </trkpt>
      <trkpt lat="47.97325" lon="7.14891">
        <ele>835.4</ele>
        <time>2021-08-21T11:51:48.000Z</time>
      </trkpt>
      <trkpt lat="47.97324" lon="7.14892">
        <ele>835.4</ele>
        <time>2021-08-21T11:51:49.000Z</time>
      </trkpt>
      <trkpt lat="47.97318" lon="7.14899">
        <ele>836.2</ele>
        <time>2021-08-21T11:51:56.000Z</time>
      </trkpt>
      <trkpt lat="47.97306" lon="7.14927">
        <ele>837.8</ele>
        <time>2021-08-21T11:52:13.000Z</time>
      </trkpt>
      <trkpt lat="47.97294" lon="7.14961">
        <ele>840.4</ele>
        <time>2021-08-21T11:52:37.000Z</time>
      </trkpt>
      <trkpt lat="47.97294" lon="7.14963">
        <ele>840.4</ele>
        <time>2021-08-21T11:52:38.000Z</time>
      </trkpt>
      <trkpt lat="47.97287" lon="7.14985">
        <ele>842.2</ele>
        <time>2021-08-21T11:52:51.000Z</time>
      </trkpt>
      <trkpt lat="47.97275" lon="7.15016">
        <ele>844.4</ele>
        <time>2021-08-21T11:53:14.000Z</time>
      </trkpt>
      <trkpt lat="47.97272" lon="7.15022">
        <ele>845</ele>
        <time>2021-08-21T11:53:19.000Z</time>
      </trkpt>
      <trkpt lat="47.97266" lon="7.15042">
        <ele>846.4</ele>
        <time>2021-08-21T11:53:32.000Z</time>
      </trkpt>
      <trkpt lat="47.97264" lon="7.15055">
        <ele>847.6</ele>
        <time>2021-08-21T11:53:41.000Z</time>
      </trkpt>
      <trkpt lat="47.9724" lon="7.15106">
        <ele>850</ele>
        <time>2021-08-21T11:54:07.000Z</time>
      </trkpt>
      <trkpt lat="47.9724" lon="7.15107">
        <ele>850.2</ele>
        <time>2021-08-21T11:54:08.000Z</time>
      </trkpt>
      <trkpt lat="47.97232" lon="7.15118">
        <ele>851</ele>
        <time>2021-08-21T11:54:17.000Z</time>
      </trkpt>
      <trkpt lat="47.97231" lon="7.15119">
        <ele>851.2</ele>
        <time>2021-08-21T11:54:18.000Z</time>
      </trkpt>
      <trkpt lat="47.97217" lon="7.15124">
        <ele>852.6</ele>
        <time>2021-08-21T11:54:33.000Z</time>
      </trkpt>
      <trkpt lat="47.97202" lon="7.15125">
        <ele>853.6</ele>
        <time>2021-08-21T11:54:44.000Z</time>
      </trkpt>
      <trkpt lat="47.9717" lon="7.15118">
        <ele>856</ele>
        <time>2021-08-21T11:55:09.000Z</time>
      </trkpt>
      <trkpt lat="47.97154" lon="7.15129">
        <ele>857.4</ele>
        <time>2021-08-21T11:55:28.000Z</time>
      </trkpt>
      <trkpt lat="47.97144" lon="7.15134">
        <ele>858.2</ele>
        <time>2021-08-21T11:55:39.000Z</time>
      </trkpt>
      <trkpt lat="47.97132" lon="7.15142">
        <ele>859.2</ele>
        <time>2021-08-21T11:55:56.000Z</time>
      </trkpt>
      <trkpt lat="47.97119" lon="7.15138">
        <ele>859</ele>
        <time>2021-08-21T11:56:19.000Z</time>
      </trkpt>
      <trkpt lat="47.97102" lon="7.15141">
        <ele>856.2</ele>
        <time>2021-08-21T11:56:35.000Z</time>
      </trkpt>
      <trkpt lat="47.97092" lon="7.15143">
        <ele>853</ele>
        <time>2021-08-21T11:56:49.000Z</time>
      </trkpt>
      <trkpt lat="47.97079" lon="7.15148">
        <ele>850</ele>
        <time>2021-08-21T11:57:01.000Z</time>
      </trkpt>
      <trkpt lat="47.97076" lon="7.15147">
        <ele>849.4</ele>
        <time>2021-08-21T11:57:03.000Z</time>
      </trkpt>
      <trkpt lat="47.97059" lon="7.15144">
        <ele>846.4</ele>
        <time>2021-08-21T11:57:18.000Z</time>
      </trkpt>
      <trkpt lat="47.97049" lon="7.1514">
        <ele>844</ele>
        <time>2021-08-21T11:57:31.000Z</time>
      </trkpt>
      <trkpt lat="47.97039" lon="7.15145">
        <ele>842.8</ele>
        <time>2021-08-21T11:57:46.000Z</time>
      </trkpt>
      <trkpt lat="47.97024" lon="7.15151">
        <ele>842.2</ele>
        <time>2021-08-21T11:57:57.000Z</time>
      </trkpt>
      <trkpt lat="47.9702" lon="7.15151">
        <ele>842</ele>
        <time>2021-08-21T11:58:01.000Z</time>
      </trkpt>
      <trkpt lat="47.97006" lon="7.15153">
        <ele>841.4</ele>
        <time>2021-08-21T11:58:11.000Z</time>
      </trkpt>
      <trkpt lat="47.96993" lon="7.15158">
        <ele>840.8</ele>
        <time>2021-08-21T11:58:22.000Z</time>
      </trkpt>
      <trkpt lat="47.96985" lon="7.15161">
        <ele>840.6</ele>
        <time>2021-08-21T11:58:28.000Z</time>
      </trkpt>
      <trkpt lat="47.96983" lon="7.15162">
        <ele>840.6</ele>
        <time>2021-08-21T11:58:30.000Z</time>
      </trkpt>
      <trkpt lat="47.96978" lon="7.15162">
        <ele>840.4</ele>
        <time>2021-08-21T11:58:35.000Z</time>
      </trkpt>
      <trkpt lat="47.96968" lon="7.15169">
        <ele>839.4</ele>
        <time>2021-08-21T11:58:45.000Z</time>
      </trkpt>
      <trkpt lat="47.96951" lon="7.1518">
        <ele>837.2</ele>
        <time>2021-08-21T11:58:59.000Z</time>
      </trkpt>
      <trkpt lat="47.96941" lon="7.15198">
        <ele>835</ele>
        <time>2021-08-21T11:59:10.000Z</time>
      </trkpt>
      <trkpt lat="47.96928" lon="7.15212">
        <ele>832.6</ele>
        <time>2021-08-21T11:59:22.000Z</time>
      </trkpt>
      <trkpt lat="47.96926" lon="7.15217">
        <ele>832</ele>
        <time>2021-08-21T11:59:25.000Z</time>
      </trkpt>
      <trkpt lat="47.96923" lon="7.15225">
        <ele>830.6</ele>
        <time>2021-08-21T11:59:31.000Z</time>
      </trkpt>
      <trkpt lat="47.9692" lon="7.15231">
        <ele>830.2</ele>
        <time>2021-08-21T11:59:35.000Z</time>
      </trkpt>
      <trkpt lat="47.9691" lon="7.15243">
        <ele>828.8</ele>
        <time>2021-08-21T11:59:45.000Z</time>
      </trkpt>
      <trkpt lat="47.96906" lon="7.15249">
        <ele>827</ele>
        <time>2021-08-21T11:59:51.000Z</time>
      </trkpt>
      <trkpt lat="47.96899" lon="7.15254">
        <ele>824</ele>
        <time>2021-08-21T12:00:00.000Z</time>
      </trkpt>
      <trkpt lat="47.9689" lon="7.15258">
        <ele>820.8</ele>
        <time>2021-08-21T12:00:12.000Z</time>
      </trkpt>
      <trkpt lat="47.96858" lon="7.15275">
        <ele>815.8</ele>
        <time>2021-08-21T12:00:35.000Z</time>
      </trkpt>
      <trkpt lat="47.96838" lon="7.15268">
        <ele>812.8</ele>
        <time>2021-08-21T12:00:49.000Z</time>
      </trkpt>
      <trkpt lat="47.96812" lon="7.15265">
        <ele>810.4</ele>
        <time>2021-08-21T12:01:07.000Z</time>
      </trkpt>
      <trkpt lat="47.96791" lon="7.15252">
        <ele>808</ele>
        <time>2021-08-21T12:01:23.000Z</time>
      </trkpt>
      <trkpt lat="47.96773" lon="7.15245">
        <ele>805.8</ele>
        <time>2021-08-21T12:01:35.000Z</time>
      </trkpt>
      <trkpt lat="47.96766" lon="7.15242">
        <ele>804.4</ele>
        <time>2021-08-21T12:01:43.000Z</time>
      </trkpt>
      <trkpt lat="47.96753" lon="7.15238">
        <ele>802.4</ele>
        <time>2021-08-21T12:01:55.000Z</time>
      </trkpt>
      <trkpt lat="47.96752" lon="7.15237">
        <ele>802</ele>
        <time>2021-08-21T12:01:57.000Z</time>
      </trkpt>
      <trkpt lat="47.96742" lon="7.15235">
        <ele>800.4</ele>
        <time>2021-08-21T12:02:06.000Z</time>
      </trkpt>
      <trkpt lat="47.96737" lon="7.15233">
        <ele>799.4</ele>
        <time>2021-08-21T12:02:11.000Z</time>
      </trkpt>
      <trkpt lat="47.9672" lon="7.1522">
        <ele>796.6</ele>
        <time>2021-08-21T12:02:24.000Z</time>
      </trkpt>
      <trkpt lat="47.96706" lon="7.15211">
        <ele>794.2</ele>
        <time>2021-08-21T12:02:38.000Z</time>
      </trkpt>
      <trkpt lat="47.96693" lon="7.152">
        <ele>792.2</ele>
        <time>2021-08-21T12:02:50.000Z</time>
      </trkpt>
      <trkpt lat="47.96683" lon="7.15197">
        <ele>790.8</ele>
        <time>2021-08-21T12:02:57.000Z</time>
      </trkpt>
      <trkpt lat="47.96679" lon="7.15195">
        <ele>790.2</ele>
        <time>2021-08-21T12:03:01.000Z</time>
      </trkpt>
      <trkpt lat="47.96673" lon="7.15194">
        <ele>789.4</ele>
        <time>2021-08-21T12:03:05.000Z</time>
      </trkpt>
      <trkpt lat="47.9667" lon="7.15194">
        <ele>788.8</ele>
        <time>2021-08-21T12:03:09.000Z</time>
      </trkpt>
      <trkpt lat="47.96659" lon="7.15192">
        <ele>787</ele>
        <time>2021-08-21T12:03:18.000Z</time>
      </trkpt>
      <trkpt lat="47.96649" lon="7.15188">
        <ele>785.6</ele>
        <time>2021-08-21T12:03:25.000Z</time>
      </trkpt>
      <trkpt lat="47.96631" lon="7.15185">
        <ele>782.4</ele>
        <time>2021-08-21T12:03:40.000Z</time>
      </trkpt>
      <trkpt lat="47.96625" lon="7.15194">
        <ele>780</ele>
        <time>2021-08-21T12:03:51.000Z</time>
      </trkpt>
      <trkpt lat="47.96612" lon="7.15203">
        <ele>777</ele>
        <time>2021-08-21T12:04:07.000Z</time>
      </trkpt>
      <trkpt lat="47.96611" lon="7.15206">
        <ele>776.6</ele>
        <time>2021-08-21T12:04:09.000Z</time>
      </trkpt>
      <trkpt lat="47.96602" lon="7.15206">
        <ele>774.8</ele>
        <time>2021-08-21T12:04:16.000Z</time>
      </trkpt>
      <trkpt lat="47.96583" lon="7.15215">
        <ele>772</ele>
        <time>2021-08-21T12:04:33.000Z</time>
      </trkpt>
      <trkpt lat="47.96563" lon="7.15216">
        <ele>770.8</ele>
        <time>2021-08-21T12:04:48.000Z</time>
      </trkpt>
      <trkpt lat="47.96544" lon="7.15218">
        <ele>769.6</ele>
        <time>2021-08-21T12:05:01.000Z</time>
      </trkpt>
      <trkpt lat="47.96521" lon="7.15213">
        <ele>767.8</ele>
        <time>2021-08-21T12:05:19.000Z</time>
      </trkpt>
      <trkpt lat="47.96507" lon="7.15211">
        <ele>766.2</ele>
        <time>2021-08-21T12:05:30.000Z</time>
      </trkpt>
      <trkpt lat="47.96497" lon="7.15209">
        <ele>764.6</ele>
        <time>2021-08-21T12:05:41.000Z</time>
      </trkpt>
      <trkpt lat="47.96488" lon="7.15212">
        <ele>763.4</ele>
        <time>2021-08-21T12:05:50.000Z</time>
      </trkpt>
      <trkpt lat="47.96474" lon="7.1522">
        <ele>761.4</ele>
        <time>2021-08-21T12:06:05.000Z</time>
      </trkpt>
      <trkpt lat="47.96464" lon="7.1523">
        <ele>759.8</ele>
        <time>2021-08-21T12:06:16.000Z</time>
      </trkpt>
      <trkpt lat="47.96462" lon="7.15231">
        <ele>759.6</ele>
        <time>2021-08-21T12:06:17.000Z</time>
      </trkpt>
      <trkpt lat="47.96461" lon="7.15232">
        <ele>759.4</ele>
        <time>2021-08-21T12:06:18.000Z</time>
      </trkpt>
      <trkpt lat="47.96455" lon="7.15243">
        <ele>758.4</ele>
        <time>2021-08-21T12:06:25.000Z</time>
      </trkpt>
      <trkpt lat="47.96439" lon="7.15266">
        <ele>756.8</ele>
        <time>2021-08-21T12:06:39.000Z</time>
      </trkpt>
      <trkpt lat="47.96435" lon="7.15271">
        <ele>754.4</ele>
        <time>2021-08-21T12:06:50.000Z</time>
      </trkpt>
      <trkpt lat="47.96408" lon="7.15272">
        <ele>750.8</ele>
        <time>2021-08-21T12:07:06.000Z</time>
      </trkpt>
      <trkpt lat="47.9639" lon="7.15264">
        <ele>748.4</ele>
        <time>2021-08-21T12:07:17.000Z</time>
      </trkpt>
      <trkpt lat="47.96371" lon="7.15253">
        <ele>745.4</ele>
        <time>2021-08-21T12:07:32.000Z</time>
      </trkpt>
      <trkpt lat="47.96351" lon="7.15233">
        <ele>742.8</ele>
        <time>2021-08-21T12:07:47.000Z</time>
      </trkpt>
      <trkpt lat="47.96349" lon="7.1523">
        <ele>742.4</ele>
        <time>2021-08-21T12:07:49.000Z</time>
      </trkpt>
      <trkpt lat="47.96332" lon="7.15213">
        <ele>740.6</ele>
        <time>2021-08-21T12:08:07.000Z</time>
      </trkpt>
      <trkpt lat="47.96329" lon="7.1521">
        <ele>740.2</ele>
        <time>2021-08-21T12:08:10.000Z</time>
      </trkpt>
      <trkpt lat="47.96317" lon="7.15198">
        <ele>738.6</ele>
        <time>2021-08-21T12:08:21.000Z</time>
      </trkpt>
      <trkpt lat="47.96305" lon="7.15178">
        <ele>735.4</ele>
        <time>2021-08-21T12:08:35.000Z</time>
      </trkpt>
      <trkpt lat="47.96293" lon="7.15161">
        <ele>734.6</ele>
        <time>2021-08-21T12:08:48.000Z</time>
      </trkpt>
      <trkpt lat="47.96284" lon="7.15153">
        <ele>733.8</ele>
        <time>2021-08-21T12:08:58.000Z</time>
      </trkpt>
      <trkpt lat="47.96274" lon="7.15148">
        <ele>731.8</ele>
        <time>2021-08-21T12:09:08.000Z</time>
      </trkpt>
      <trkpt lat="47.9626" lon="7.15133">
        <ele>729.6</ele>
        <time>2021-08-21T12:09:21.000Z</time>
      </trkpt>
      <trkpt lat="47.96259" lon="7.15132">
        <ele>729.4</ele>
        <time>2021-08-21T12:09:22.000Z</time>
      </trkpt>
      <trkpt lat="47.96249" lon="7.15128">
        <ele>727</ele>
        <time>2021-08-21T12:09:34.000Z</time>
      </trkpt>
      <trkpt lat="47.96236" lon="7.15119">
        <ele>723.6</ele>
        <time>2021-08-21T12:09:47.000Z</time>
      </trkpt>
      <trkpt lat="47.96219" lon="7.15098">
        <ele>720.8</ele>
        <time>2021-08-21T12:10:01.000Z</time>
      </trkpt>
      <trkpt lat="47.96216" lon="7.15098">
        <ele>720.6</ele>
        <time>2021-08-21T12:10:03.000Z</time>
      </trkpt>
      <trkpt lat="47.96214" lon="7.15098">
        <ele>720.4</ele>
        <time>2021-08-21T12:10:04.000Z</time>
      </trkpt>
      <trkpt lat="47.962" lon="7.15096">
        <ele>718.6</ele>
        <time>2021-08-21T12:10:16.000Z</time>
      </trkpt>
      <trkpt lat="47.96196" lon="7.15097">
        <ele>718.2</ele>
        <time>2021-08-21T12:10:19.000Z</time>
      </trkpt>
      <trkpt lat="47.96192" lon="7.15096">
        <ele>717.8</ele>
        <time>2021-08-21T12:10:22.000Z</time>
      </trkpt>
      <trkpt lat="47.9619" lon="7.15095">
        <ele>717.8</ele>
        <time>2021-08-21T12:10:23.000Z</time>
      </trkpt>
      <trkpt lat="47.96189" lon="7.15095">
        <ele>717.6</ele>
        <time>2021-08-21T12:10:24.000Z</time>
      </trkpt>
      <trkpt lat="47.96172" lon="7.15089">
        <ele>716.2</ele>
        <time>2021-08-21T12:10:38.000Z</time>
      </trkpt>
      <trkpt lat="47.96159" lon="7.15079">
        <ele>713</ele>
        <time>2021-08-21T12:10:52.000Z</time>
      </trkpt>
      <trkpt lat="47.9614" lon="7.15071">
        <ele>710.4</ele>
        <time>2021-08-21T12:11:11.000Z</time>
      </trkpt>
      <trkpt lat="47.96139" lon="7.15072">
        <ele>710.2</ele>
        <time>2021-08-21T12:11:12.000Z</time>
      </trkpt>
      <trkpt lat="47.96125" lon="7.15069">
        <ele>708.8</ele>
        <time>2021-08-21T12:11:25.000Z</time>
      </trkpt>
      <trkpt lat="47.96114" lon="7.15069">
        <ele>706.2</ele>
        <time>2021-08-21T12:11:38.000Z</time>
      </trkpt>
      <trkpt lat="47.96115" lon="7.1508">
        <ele>704.4</ele>
        <time>2021-08-21T12:11:49.000Z</time>
      </trkpt>
      <trkpt lat="47.96117" lon="7.15111">
        <ele>700.6</ele>
        <time>2021-08-21T12:12:12.000Z</time>
      </trkpt>
      <trkpt lat="47.96108" lon="7.15131">
        <ele>697.4</ele>
        <time>2021-08-21T12:12:28.000Z</time>
      </trkpt>
      <trkpt lat="47.96078" lon="7.15143">
        <ele>694.2</ele>
        <time>2021-08-21T12:12:57.000Z</time>
      </trkpt>
      <trkpt lat="47.96058" lon="7.15151">
        <ele>691</ele>
        <time>2021-08-21T12:13:16.000Z</time>
      </trkpt>
      <trkpt lat="47.96057" lon="7.15151">
        <ele>690.8</ele>
        <time>2021-08-21T12:13:17.000Z</time>
      </trkpt>
      <trkpt lat="47.96041" lon="7.15153">
        <ele>689</ele>
        <time>2021-08-21T12:13:27.000Z</time>
      </trkpt>
      <trkpt lat="47.96027" lon="7.15146">
        <ele>687</ele>
        <time>2021-08-21T12:13:40.000Z</time>
      </trkpt>
      <trkpt lat="47.96015" lon="7.15137">
        <ele>685</ele>
        <time>2021-08-21T12:13:50.000Z</time>
      </trkpt>
      <trkpt lat="47.96012" lon="7.15134">
        <ele>684.4</ele>
        <time>2021-08-21T12:13:54.000Z</time>
      </trkpt>
      <trkpt lat="47.96" lon="7.15121">
        <ele>683</ele>
        <time>2021-08-21T12:14:04.000Z</time>
      </trkpt>
      <trkpt lat="47.95993" lon="7.15113">
        <ele>682.2</ele>
        <time>2021-08-21T12:14:10.000Z</time>
      </trkpt>
      <trkpt lat="47.95983" lon="7.15105">
        <ele>680.6</ele>
        <time>2021-08-21T12:14:20.000Z</time>
      </trkpt>
      <trkpt lat="47.95973" lon="7.15091">
        <ele>678</ele>
        <time>2021-08-21T12:14:34.000Z</time>
      </trkpt>
      <trkpt lat="47.95958" lon="7.15078">
        <ele>675.8</ele>
        <time>2021-08-21T12:14:47.000Z</time>
      </trkpt>
      <trkpt lat="47.95947" lon="7.15063">
        <ele>674</ele>
        <time>2021-08-21T12:14:58.000Z</time>
      </trkpt>
      <trkpt lat="47.95936" lon="7.15053">
        <ele>671</ele>
        <time>2021-08-21T12:15:07.000Z</time>
      </trkpt>
      <trkpt lat="47.95931" lon="7.15041">
        <ele>669.6</ele>
        <time>2021-08-21T12:15:15.000Z</time>
      </trkpt>
      <trkpt lat="47.95915" lon="7.15017">
        <ele>667</ele>
        <time>2021-08-21T12:15:33.000Z</time>
      </trkpt>
      <trkpt lat="47.95905" lon="7.14997">
        <ele>665.2</ele>
        <time>2021-08-21T12:15:48.000Z</time>
      </trkpt>
      <trkpt lat="47.95891" lon="7.14982">
        <ele>662.6</ele>
        <time>2021-08-21T12:16:04.000Z</time>
      </trkpt>
      <trkpt lat="47.95879" lon="7.14966">
        <ele>661.2</ele>
        <time>2021-08-21T12:16:18.000Z</time>
      </trkpt>
      <trkpt lat="47.95866" lon="7.14953">
        <ele>658.8</ele>
        <time>2021-08-21T12:16:35.000Z</time>
      </trkpt>
      <trkpt lat="47.95865" lon="7.14953">
        <ele>658.8</ele>
        <time>2021-08-21T12:16:36.000Z</time>
      </trkpt>
      <trkpt lat="47.95846" lon="7.14934">
        <ele>657.4</ele>
        <time>2021-08-21T12:16:53.000Z</time>
      </trkpt>
      <trkpt lat="47.95832" lon="7.14924">
        <ele>655.4</ele>
        <time>2021-08-21T12:17:06.000Z</time>
      </trkpt>
      <trkpt lat="47.95819" lon="7.14914">
        <ele>652.4</ele>
        <time>2021-08-21T12:17:19.000Z</time>
      </trkpt>
      <trkpt lat="47.95803" lon="7.14896">
        <ele>649</ele>
        <time>2021-08-21T12:17:35.000Z</time>
      </trkpt>
      <trkpt lat="47.95791" lon="7.14885">
        <ele>648.8</ele>
        <time>2021-08-21T12:17:49.000Z</time>
      </trkpt>
      <trkpt lat="47.95779" lon="7.14868">
        <ele>645.8</ele>
        <time>2021-08-21T12:18:05.000Z</time>
      </trkpt>
      <trkpt lat="47.9577" lon="7.14861">
        <ele>643.8</ele>
        <time>2021-08-21T12:18:14.000Z</time>
      </trkpt>
      <trkpt lat="47.95765" lon="7.14857">
        <ele>642.2</ele>
        <time>2021-08-21T12:18:21.000Z</time>
      </trkpt>
      <trkpt lat="47.95764" lon="7.14856">
        <ele>642</ele>
        <time>2021-08-21T12:18:22.000Z</time>
      </trkpt>
      <trkpt lat="47.95761" lon="7.14853">
        <ele>641.4</ele>
        <time>2021-08-21T12:18:25.000Z</time>
      </trkpt>
      <trkpt lat="47.95757" lon="7.14851">
        <ele>640.6</ele>
        <time>2021-08-21T12:18:28.000Z</time>
      </trkpt>
      <trkpt lat="47.95756" lon="7.1485">
        <ele>640.4</ele>
        <time>2021-08-21T12:18:29.000Z</time>
      </trkpt>
      <trkpt lat="47.95755" lon="7.14849">
        <ele>640</ele>
        <time>2021-08-21T12:18:31.000Z</time>
      </trkpt>
      <trkpt lat="47.95733" lon="7.14832">
        <ele>636.8</ele>
        <time>2021-08-21T12:18:47.000Z</time>
      </trkpt>
      <trkpt lat="47.95732" lon="7.14831">
        <ele>636.8</ele>
        <time>2021-08-21T12:18:48.000Z</time>
      </trkpt>
      <trkpt lat="47.95729" lon="7.14829">
        <ele>636.2</ele>
        <time>2021-08-21T12:18:51.000Z</time>
      </trkpt>
      <trkpt lat="47.9572" lon="7.14826">
        <ele>635.2</ele>
        <time>2021-08-21T12:18:58.000Z</time>
      </trkpt>
      <trkpt lat="47.95707" lon="7.14822">
        <ele>633</ele>
        <time>2021-08-21T12:19:07.000Z</time>
      </trkpt>
      <trkpt lat="47.95696" lon="7.14814">
        <ele>630</ele>
        <time>2021-08-21T12:19:30.000Z</time>
      </trkpt>
      <trkpt lat="47.95685" lon="7.14814">
        <ele>628.2</ele>
        <time>2021-08-21T12:19:38.000Z</time>
      </trkpt>
      <trkpt lat="47.95675" lon="7.14811">
        <ele>625.2</ele>
        <time>2021-08-21T12:19:47.000Z</time>
      </trkpt>
      <trkpt lat="47.95668" lon="7.14812">
        <ele>622.2</ele>
        <time>2021-08-21T12:19:56.000Z</time>
      </trkpt>
      <trkpt lat="47.95664" lon="7.14794">
        <ele>621.4</ele>
        <time>2021-08-21T12:20:27.000Z</time>
      </trkpt>
      <trkpt lat="47.95649" lon="7.14789">
        <ele>620.4</ele>
        <time>2021-08-21T12:20:56.000Z</time>
      </trkpt>
      <trkpt lat="47.95639" lon="7.14781">
        <ele>618</ele>
        <time>2021-08-21T12:21:08.000Z</time>
      </trkpt>
      <trkpt lat="47.95628" lon="7.14773">
        <ele>615</ele>
        <time>2021-08-21T12:21:21.000Z</time>
      </trkpt>
      <trkpt lat="47.95624" lon="7.1477">
        <ele>614</ele>
        <time>2021-08-21T12:21:24.000Z</time>
      </trkpt>
      <trkpt lat="47.95611" lon="7.14763">
        <ele>611</ele>
        <time>2021-08-21T12:21:35.000Z</time>
      </trkpt>
      <trkpt lat="47.95594" lon="7.1476">
        <ele>608</ele>
        <time>2021-08-21T12:21:49.000Z</time>
      </trkpt>
      <trkpt lat="47.95585" lon="7.1476">
        <ele>606</ele>
        <time>2021-08-21T12:21:57.000Z</time>
      </trkpt>
      <trkpt lat="47.95577" lon="7.14757">
        <ele>603.8</ele>
        <time>2021-08-21T12:22:07.000Z</time>
      </trkpt>
      <trkpt lat="47.95573" lon="7.14757">
        <ele>603.2</ele>
        <time>2021-08-21T12:22:11.000Z</time>
      </trkpt>
      <trkpt lat="47.95562" lon="7.14754">
        <ele>601</ele>
        <time>2021-08-21T12:22:21.000Z</time>
      </trkpt>
      <trkpt lat="47.95556" lon="7.14752">
        <ele>600.2</ele>
        <time>2021-08-21T12:22:25.000Z</time>
      </trkpt>
      <trkpt lat="47.95554" lon="7.14752">
        <ele>600</ele>
        <time>2021-08-21T12:22:26.000Z</time>
      </trkpt>
      <trkpt lat="47.9553" lon="7.14756">
        <ele>597.8</ele>
        <time>2021-08-21T12:22:47.000Z</time>
      </trkpt>
      <trkpt lat="47.95511" lon="7.14753">
        <ele>596</ele>
        <time>2021-08-21T12:23:05.000Z</time>
      </trkpt>
      <trkpt lat="47.95496" lon="7.14745">
        <ele>595</ele>
        <time>2021-08-21T12:23:20.000Z</time>
      </trkpt>
      <trkpt lat="47.95492" lon="7.14743">
        <ele>594.8</ele>
        <time>2021-08-21T12:23:23.000Z</time>
      </trkpt>
      <trkpt lat="47.95477" lon="7.14737">
        <ele>593.8</ele>
        <time>2021-08-21T12:23:34.000Z</time>
      </trkpt>
      <trkpt lat="47.95456" lon="7.14721">
        <ele>591.4</ele>
        <time>2021-08-21T12:23:54.000Z</time>
      </trkpt>
      <trkpt lat="47.95453" lon="7.14718">
        <ele>591</ele>
        <time>2021-08-21T12:23:56.000Z</time>
      </trkpt>
      <trkpt lat="47.95443" lon="7.14709">
        <ele>590</ele>
        <time>2021-08-21T12:24:04.000Z</time>
      </trkpt>
      <trkpt lat="47.95436" lon="7.14703">
        <ele>588.8</ele>
        <time>2021-08-21T12:24:12.000Z</time>
      </trkpt>
      <trkpt lat="47.95427" lon="7.14698">
        <ele>588</ele>
        <time>2021-08-21T12:24:20.000Z</time>
      </trkpt>
      <trkpt lat="47.95419" lon="7.1469">
        <ele>586.6</ele>
        <time>2021-08-21T12:24:27.000Z</time>
      </trkpt>
      <trkpt lat="47.95418" lon="7.14689">
        <ele>586.4</ele>
        <time>2021-08-21T12:24:28.000Z</time>
      </trkpt>
      <trkpt lat="47.95409" lon="7.14685">
        <ele>585.6</ele>
        <time>2021-08-21T12:24:35.000Z</time>
      </trkpt>
      <trkpt lat="47.95395" lon="7.14671">
        <ele>584.4</ele>
        <time>2021-08-21T12:24:46.000Z</time>
      </trkpt>
      <trkpt lat="47.95392" lon="7.14669">
        <ele>584</ele>
        <time>2021-08-21T12:24:48.000Z</time>
      </trkpt>
      <trkpt lat="47.95387" lon="7.14662">
        <ele>583.8</ele>
        <time>2021-08-21T12:24:52.000Z</time>
      </trkpt>
      <trkpt lat="47.95387" lon="7.1466">
        <ele>583.8</ele>
        <time>2021-08-21T12:24:53.000Z</time>
      </trkpt>
      <trkpt lat="47.95384" lon="7.14657">
        <ele>583.6</ele>
        <time>2021-08-21T12:24:55.000Z</time>
      </trkpt>
      <trkpt lat="47.95373" lon="7.14643">
        <ele>582.6</ele>
        <time>2021-08-21T12:25:06.000Z</time>
      </trkpt>
      <trkpt lat="47.95369" lon="7.14641">
        <ele>582.4</ele>
        <time>2021-08-21T12:25:09.000Z</time>
      </trkpt>
      <trkpt lat="47.95365" lon="7.14639">
        <ele>581.8</ele>
        <time>2021-08-21T12:25:13.000Z</time>
      </trkpt>
      <trkpt lat="47.9535" lon="7.14629">
        <ele>580.8</ele>
        <time>2021-08-21T12:25:25.000Z</time>
      </trkpt>
      <trkpt lat="47.95327" lon="7.14613">
        <ele>579.8</ele>
        <time>2021-08-21T12:25:43.000Z</time>
      </trkpt>
      <trkpt lat="47.95315" lon="7.14601">
        <ele>578.8</ele>
        <time>2021-08-21T12:25:56.000Z</time>
      </trkpt>
      <trkpt lat="47.95257" lon="7.14551">
        <ele>570.6</ele>
        <time>2021-08-21T12:30:00.000Z</time>
      </trkpt>
      <trkpt lat="47.9524" lon="7.1456">
        <ele>570.6</ele>
        <time>2021-08-21T12:30:25.000Z</time>
      </trkpt>
      <trkpt lat="47.95255" lon="7.14547">
        <ele>570.6</ele>
        <time>2021-08-21T12:30:27.000Z</time>
      </trkpt>
      <trkpt lat="47.95254" lon="7.14547">
        <ele>570.6</ele>
        <time>2021-08-21T12:30:46.000Z</time>
      </trkpt>
      <trkpt lat="47.95248" lon="7.14532">
        <ele>570.6</ele>
        <time>2021-08-21T12:31:20.000Z</time>
      </trkpt>
      <trkpt lat="47.95233" lon="7.14531">
        <ele>570.2</ele>
        <time>2021-08-21T12:31:31.000Z</time>
      </trkpt>
      <trkpt lat="47.9523" lon="7.14531">
        <ele>567.6</ele>
        <time>2021-08-21T12:31:35.000Z</time>
      </trkpt>
      <trkpt lat="47.95218" lon="7.14529">
        <ele>564.6</ele>
        <time>2021-08-21T12:31:47.000Z</time>
      </trkpt>
      <trkpt lat="47.95208" lon="7.14526">
        <ele>563.2</ele>
        <time>2021-08-21T12:31:57.000Z</time>
      </trkpt>
      <trkpt lat="47.95202" lon="7.14524">
        <ele>561.8</ele>
        <time>2021-08-21T12:32:02.000Z</time>
      </trkpt>
      <trkpt lat="47.95188" lon="7.14528">
        <ele>560</ele>
        <time>2021-08-21T12:32:14.000Z</time>
      </trkpt>
      <trkpt lat="47.95178" lon="7.14525">
        <ele>558.2</ele>
        <time>2021-08-21T12:32:23.000Z</time>
      </trkpt>
      <trkpt lat="47.95169" lon="7.14519">
        <ele>556.8</ele>
        <time>2021-08-21T12:32:30.000Z</time>
      </trkpt>
      <trkpt lat="47.95159" lon="7.14518">
        <ele>554.6</ele>
        <time>2021-08-21T12:32:42.000Z</time>
      </trkpt>
      <trkpt lat="47.95148" lon="7.14517">
        <ele>551.6</ele>
        <time>2021-08-21T12:32:58.000Z</time>
      </trkpt>
      <trkpt lat="47.95126" lon="7.14507">
        <ele>548.4</ele>
        <time>2021-08-21T12:33:16.000Z</time>
      </trkpt>
      <trkpt lat="47.9511" lon="7.14498">
        <ele>545.6</ele>
        <time>2021-08-21T12:33:28.000Z</time>
      </trkpt>
      <trkpt lat="47.95098" lon="7.1449">
        <ele>543.8</ele>
        <time>2021-08-21T12:33:36.000Z</time>
      </trkpt>
      <trkpt lat="47.95085" lon="7.14487">
        <ele>542.8</ele>
        <time>2021-08-21T12:33:47.000Z</time>
      </trkpt>
      <trkpt lat="47.95068" lon="7.14494">
        <ele>541.6</ele>
        <time>2021-08-21T12:34:02.000Z</time>
      </trkpt>
      <trkpt lat="47.95047" lon="7.145">
        <ele>538.4</ele>
        <time>2021-08-21T12:34:25.000Z</time>
      </trkpt>
      <trkpt lat="47.95032" lon="7.14482">
        <ele>535.4</ele>
        <time>2021-08-21T12:34:40.000Z</time>
      </trkpt>
      <trkpt lat="47.9503" lon="7.14476">
        <ele>534.6</ele>
        <time>2021-08-21T12:34:43.000Z</time>
      </trkpt>
      <trkpt lat="47.95022" lon="7.14457">
        <ele>532.8</ele>
        <time>2021-08-21T12:34:54.000Z</time>
      </trkpt>
      <trkpt lat="47.95013" lon="7.14444">
        <ele>530.2</ele>
        <time>2021-08-21T12:35:06.000Z</time>
      </trkpt>
      <trkpt lat="47.95003" lon="7.1443">
        <ele>528</ele>
        <time>2021-08-21T12:35:18.000Z</time>
      </trkpt>
      <trkpt lat="47.94985" lon="7.14419">
        <ele>525.2</ele>
        <time>2021-08-21T12:35:34.000Z</time>
      </trkpt>
      <trkpt lat="47.94974" lon="7.14409">
        <ele>523</ele>
        <time>2021-08-21T12:35:45.000Z</time>
      </trkpt>
      <trkpt lat="47.9497" lon="7.14405">
        <ele>522.4</ele>
        <time>2021-08-21T12:35:49.000Z</time>
      </trkpt>
      <trkpt lat="47.94969" lon="7.14404">
        <ele>522.2</ele>
        <time>2021-08-21T12:35:50.000Z</time>
      </trkpt>
      <trkpt lat="47.94962" lon="7.14399">
        <ele>521.6</ele>
        <time>2021-08-21T12:35:55.000Z</time>
      </trkpt>
      <trkpt lat="47.94939" lon="7.1438">
        <ele>519</ele>
        <time>2021-08-21T12:36:12.000Z</time>
      </trkpt>
      <trkpt lat="47.94937" lon="7.14379">
        <ele>518.8</ele>
        <time>2021-08-21T12:36:14.000Z</time>
      </trkpt>
      <trkpt lat="47.94921" lon="7.14372">
        <ele>517</ele>
        <time>2021-08-21T12:36:28.000Z</time>
      </trkpt>
      <trkpt lat="47.9492" lon="7.14372">
        <ele>516.8</ele>
        <time>2021-08-21T12:36:29.000Z</time>
      </trkpt>
      <trkpt lat="47.94904" lon="7.14368">
        <ele>513.6</ele>
        <time>2021-08-21T12:36:44.000Z</time>
      </trkpt>
      <trkpt lat="47.94885" lon="7.14362">
        <ele>510.6</ele>
        <time>2021-08-21T12:37:00.000Z</time>
      </trkpt>
      <trkpt lat="47.94883" lon="7.1436">
        <ele>510.2</ele>
        <time>2021-08-21T12:37:02.000Z</time>
      </trkpt>
      <trkpt lat="47.94867" lon="7.14353">
        <ele>507.2</ele>
        <time>2021-08-21T12:37:18.000Z</time>
      </trkpt>
      <trkpt lat="47.94848" lon="7.1434">
        <ele>505.2</ele>
        <time>2021-08-21T12:37:32.000Z</time>
      </trkpt>
      <trkpt lat="47.94825" lon="7.14329">
        <ele>502.2</ele>
        <time>2021-08-21T12:37:50.000Z</time>
      </trkpt>
      <trkpt lat="47.94814" lon="7.14326">
        <ele>500</ele>
        <time>2021-08-21T12:38:00.000Z</time>
      </trkpt>
      <trkpt lat="47.94804" lon="7.14327">
        <ele>498.2</ele>
        <time>2021-08-21T12:38:09.000Z</time>
      </trkpt>
      <trkpt lat="47.9479" lon="7.14321">
        <ele>495.2</ele>
        <time>2021-08-21T12:38:24.000Z</time>
      </trkpt>
      <trkpt lat="47.94778" lon="7.14335">
        <ele>492</ele>
        <time>2021-08-21T12:38:41.000Z</time>
      </trkpt>
      <trkpt lat="47.94775" lon="7.14337">
        <ele>491.6</ele>
        <time>2021-08-21T12:38:43.000Z</time>
      </trkpt>
      <trkpt lat="47.94774" lon="7.14336">
        <ele>491.4</ele>
        <time>2021-08-21T12:38:44.000Z</time>
      </trkpt>
      <trkpt lat="47.94757" lon="7.14338">
        <ele>488.4</ele>
        <time>2021-08-21T12:38:56.000Z</time>
      </trkpt>
      <trkpt lat="47.94756" lon="7.14339">
        <ele>488.2</ele>
        <time>2021-08-21T12:38:57.000Z</time>
      </trkpt>
      <trkpt lat="47.94752" lon="7.14339">
        <ele>487</ele>
        <time>2021-08-21T12:39:01.000Z</time>
      </trkpt>
      <trkpt lat="47.94737" lon="7.14329">
        <ele>484</ele>
        <time>2021-08-21T12:39:14.000Z</time>
      </trkpt>
      <trkpt lat="47.94722" lon="7.14327">
        <ele>481.2</ele>
        <time>2021-08-21T12:39:27.000Z</time>
      </trkpt>
      <trkpt lat="47.94718" lon="7.14327">
        <ele>480.4</ele>
        <time>2021-08-21T12:39:31.000Z</time>
      </trkpt>
      <trkpt lat="47.94706" lon="7.14326">
        <ele>478.2</ele>
        <time>2021-08-21T12:39:42.000Z</time>
      </trkpt>
      <trkpt lat="47.94703" lon="7.14325">
        <ele>477.4</ele>
        <time>2021-08-21T12:39:45.000Z</time>
      </trkpt>
      <trkpt lat="47.94702" lon="7.14325">
        <ele>477.2</ele>
        <time>2021-08-21T12:39:46.000Z</time>
      </trkpt>
      <trkpt lat="47.94699" lon="7.14322">
        <ele>476.4</ele>
        <time>2021-08-21T12:39:49.000Z</time>
      </trkpt>
      <trkpt lat="47.94686" lon="7.14323">
        <ele>474.2</ele>
        <time>2021-08-21T12:40:02.000Z</time>
      </trkpt>
      <trkpt lat="47.94672" lon="7.14326">
        <ele>471.2</ele>
        <time>2021-08-21T12:40:15.000Z</time>
      </trkpt>
      <trkpt lat="47.94671" lon="7.14325">
        <ele>471</ele>
        <time>2021-08-21T12:40:16.000Z</time>
      </trkpt>
      <trkpt lat="47.94656" lon="7.14328">
        <ele>467.6</ele>
        <time>2021-08-21T12:40:30.000Z</time>
      </trkpt>
      <trkpt lat="47.94642" lon="7.14338">
        <ele>465.6</ele>
        <time>2021-08-21T12:40:43.000Z</time>
      </trkpt>
      <trkpt lat="47.94632" lon="7.14346">
        <ele>462.6</ele>
        <time>2021-08-21T12:40:56.000Z</time>
      </trkpt>
      <trkpt lat="47.94626" lon="7.14347">
        <ele>461.8</ele>
        <time>2021-08-21T12:41:00.000Z</time>
      </trkpt>
      <trkpt lat="47.94622" lon="7.14351">
        <ele>460.8</ele>
        <time>2021-08-21T12:41:04.000Z</time>
      </trkpt>
      <trkpt lat="47.94609" lon="7.14356">
        <ele>457.8</ele>
        <time>2021-08-21T12:41:16.000Z</time>
      </trkpt>
      <trkpt lat="47.94594" lon="7.14362">
        <ele>454.8</ele>
        <time>2021-08-21T12:41:29.000Z</time>
      </trkpt>
      <trkpt lat="47.94583" lon="7.14364">
        <ele>452.4</ele>
        <time>2021-08-21T12:41:39.000Z</time>
      </trkpt>
      <trkpt lat="47.94572" lon="7.14359">
        <ele>449.4</ele>
        <time>2021-08-21T12:41:53.000Z</time>
      </trkpt>
      <trkpt lat="47.9457" lon="7.14359">
        <ele>449</ele>
        <time>2021-08-21T12:41:55.000Z</time>
      </trkpt>
      <trkpt lat="47.94566" lon="7.14356">
        <ele>448</ele>
        <time>2021-08-21T12:42:00.000Z</time>
      </trkpt>
      <trkpt lat="47.94552" lon="7.14353">
        <ele>445.4</ele>
        <time>2021-08-21T12:42:13.000Z</time>
      </trkpt>
      <trkpt lat="47.94546" lon="7.14358">
        <ele>442.6</ele>
        <time>2021-08-21T12:42:26.000Z</time>
      </trkpt>
      <trkpt lat="47.94541" lon="7.14364">
        <ele>439.6</ele>
        <time>2021-08-21T12:42:41.000Z</time>
      </trkpt>
      <trkpt lat="47.94534" lon="7.14363">
        <ele>436.6</ele>
        <time>2021-08-21T12:42:54.000Z</time>
      </trkpt>
      <trkpt lat="47.94531" lon="7.14365">
        <ele>435.6</ele>
        <time>2021-08-21T12:42:57.000Z</time>
      </trkpt>
      <trkpt lat="47.94504" lon="7.14382">
        <ele>429.8</ele>
        <time>2021-08-21T12:43:22.000Z</time>
      </trkpt>
      <trkpt lat="47.94498" lon="7.14386">
        <ele>428.6</ele>
        <time>2021-08-21T12:43:32.000Z</time>
      </trkpt>
      <trkpt lat="47.94499" lon="7.14394">
        <ele>428.4</ele>
        <time>2021-08-21T12:43:36.000Z</time>
      </trkpt>
      <trkpt lat="47.94499" lon="7.14395">
        <ele>428.6</ele>
        <time>2021-08-21T12:43:37.000Z</time>
      </trkpt>
      <trkpt lat="47.94493" lon="7.14399">
        <ele>427.6</ele>
        <time>2021-08-21T12:43:52.000Z</time>
      </trkpt>
      <trkpt lat="47.94492" lon="7.14397">
        <ele>427.6</ele>
        <time>2021-08-21T12:43:53.000Z</time>
      </trkpt>
      <trkpt lat="47.94492" lon="7.14396">
        <ele>427.6</ele>
        <time>2021-08-21T12:43:54.000Z</time>
      </trkpt>
      <trkpt lat="47.94492" lon="7.14394">
        <ele>427.6</ele>
        <time>2021-08-21T12:43:55.000Z</time>
      </trkpt>
      <trkpt lat="47.94492" lon="7.14391">
        <ele>427.6</ele>
        <time>2021-08-21T12:43:56.000Z</time>
      </trkpt>
      <trkpt lat="47.94492" lon="7.14372">
        <ele>428</ele>
        <time>2021-08-21T12:44:05.000Z</time>
      </trkpt>
      <trkpt lat="47.94491" lon="7.1437">
        <ele>428</ele>
        <time>2021-08-21T12:44:06.000Z</time>
      </trkpt>
      <trkpt lat="47.94491" lon="7.14369">
        <ele>428</ele>
        <time>2021-08-21T12:44:07.000Z</time>
      </trkpt>
      <trkpt lat="47.9449" lon="7.14367">
        <ele>428</ele>
        <time>2021-08-21T12:44:08.000Z</time>
      </trkpt>
      <trkpt lat="47.9449" lon="7.14365">
        <ele>428</ele>
        <time>2021-08-21T12:44:09.000Z</time>
      </trkpt>
      <trkpt lat="47.94489" lon="7.14362">
        <ele>428</ele>
        <time>2021-08-21T12:44:10.000Z</time>
      </trkpt>
      <trkpt lat="47.94485" lon="7.1433">
        <ele>428.4</ele>
        <time>2021-08-21T12:44:28.000Z</time>
      </trkpt>
      <trkpt lat="47.94485" lon="7.14306">
        <ele>428.4</ele>
        <time>2021-08-21T12:44:39.000Z</time>
      </trkpt>
      <trkpt lat="47.94486" lon="7.14304">
        <ele>428.6</ele>
        <time>2021-08-21T12:44:40.000Z</time>
      </trkpt>
      <trkpt lat="47.94488" lon="7.1429">
        <ele>428.6</ele>
        <time>2021-08-21T12:44:47.000Z</time>
      </trkpt>
      <trkpt lat="47.94488" lon="7.14287">
        <ele>428.8</ele>
        <time>2021-08-21T12:44:48.000Z</time>
      </trkpt>
      <trkpt lat="47.94488" lon="7.14285">
        <ele>428.8</ele>
        <time>2021-08-21T12:44:49.000Z</time>
      </trkpt>
      <trkpt lat="47.94487" lon="7.14283">
        <ele>428.8</ele>
        <time>2021-08-21T12:44:50.000Z</time>
      </trkpt>
      <trkpt lat="47.94487" lon="7.14278">
        <ele>428.8</ele>
        <time>2021-08-21T12:44:52.000Z</time>
      </trkpt>
      <trkpt lat="47.94488" lon="7.14271">
        <ele>429.2</ele>
        <time>2021-08-21T12:44:58.000Z</time>
      </trkpt>
      <trkpt lat="47.94484" lon="7.1427">
        <ele>429.2</ele>
        <time>2021-08-21T12:45:01.000Z</time>
      </trkpt>
      <trkpt lat="47.94482" lon="7.1427">
        <ele>429.2</ele>
        <time>2021-08-21T12:45:02.000Z</time>
      </trkpt>
      <trkpt lat="47.94481" lon="7.1427">
        <ele>429.2</ele>
        <time>2021-08-21T12:45:03.000Z</time>
      </trkpt>
      <trkpt lat="47.9448" lon="7.1427">
        <ele>429.2</ele>
        <time>2021-08-21T12:45:04.000Z</time>
      </trkpt>
      <trkpt lat="47.94478" lon="7.1427">
        <ele>429.2</ele>
        <time>2021-08-21T12:45:05.000Z</time>
      </trkpt>
      <trkpt lat="47.94477" lon="7.1427">
        <ele>429.2</ele>
        <time>2021-08-21T12:45:06.000Z</time>
      </trkpt>
      <trkpt lat="47.94476" lon="7.1427">
        <ele>429.2</ele>
        <time>2021-08-21T12:45:07.000Z</time>
      </trkpt>
      <trkpt lat="47.9447" lon="7.14268">
        <ele>429.2</ele>
        <time>2021-08-21T12:45:11.000Z</time>
      </trkpt>
      <trkpt lat="47.94469" lon="7.14267">
        <ele>429.2</ele>
        <time>2021-08-21T12:45:12.000Z</time>
      </trkpt>
      <trkpt lat="47.94468" lon="7.14267">
        <ele>429.2</ele>
        <time>2021-08-21T12:45:13.000Z</time>
      </trkpt>
      <trkpt lat="47.94457" lon="7.14262">
        <ele>429.6</ele>
        <time>2021-08-21T12:45:24.000Z</time>
      </trkpt>
      <trkpt lat="47.94442" lon="7.14253">
        <ele>429.6</ele>
        <time>2021-08-21T12:45:34.000Z</time>
      </trkpt>
      <trkpt lat="47.9444" lon="7.14253">
        <ele>429.6</ele>
        <time>2021-08-21T12:45:35.000Z</time>
      </trkpt>
      <trkpt lat="47.94438" lon="7.14252">
        <ele>429.6</ele>
        <time>2021-08-21T12:45:37.000Z</time>
      </trkpt>
      <trkpt lat="47.94426" lon="7.14234">
        <ele>429.6</ele>
        <time>2021-08-21T12:45:49.000Z</time>
      </trkpt>
      <trkpt lat="47.94419" lon="7.14231">
        <ele>429.8</ele>
        <time>2021-08-21T12:45:55.000Z</time>
      </trkpt>
      <trkpt lat="47.94417" lon="7.1423">
        <ele>429.8</ele>
        <time>2021-08-21T12:45:56.000Z</time>
      </trkpt>
      <trkpt lat="47.94415" lon="7.14228">
        <ele>429.8</ele>
        <time>2021-08-21T12:45:57.000Z</time>
      </trkpt>
      <trkpt lat="47.94414" lon="7.14228">
        <ele>429.8</ele>
        <time>2021-08-21T12:45:58.000Z</time>
      </trkpt>
      <trkpt lat="47.94407" lon="7.14226">
        <ele>429.8</ele>
        <time>2021-08-21T12:46:03.000Z</time>
      </trkpt>
      <trkpt lat="47.94387" lon="7.14232">
        <ele>430.4</ele>
        <time>2021-08-21T12:46:20.000Z</time>
      </trkpt>
      <trkpt lat="47.94368" lon="7.14251">
        <ele>431</ele>
        <time>2021-08-21T12:46:39.000Z</time>
      </trkpt>
      <trkpt lat="47.94366" lon="7.14253">
        <ele>431</ele>
        <time>2021-08-21T12:46:41.000Z</time>
      </trkpt>
      <trkpt lat="47.94362" lon="7.14258">
        <ele>431.2</ele>
        <time>2021-08-21T12:46:44.000Z</time>
      </trkpt>
      <trkpt lat="47.94361" lon="7.14259">
        <ele>431.2</ele>
        <time>2021-08-21T12:46:45.000Z</time>
      </trkpt>
      <trkpt lat="47.94353" lon="7.14266">
        <ele>431.4</ele>
        <time>2021-08-21T12:46:52.000Z</time>
      </trkpt>
      <trkpt lat="47.94352" lon="7.14267">
        <ele>431.4</ele>
        <time>2021-08-21T12:46:53.000Z</time>
      </trkpt>
      <trkpt lat="47.9435" lon="7.14268">
        <ele>431.4</ele>
        <time>2021-08-21T12:46:54.000Z</time>
      </trkpt>
      <trkpt lat="47.9433" lon="7.14279">
        <ele>432.2</ele>
        <time>2021-08-21T12:47:09.000Z</time>
      </trkpt>
      <trkpt lat="47.94322" lon="7.14279">
        <ele>432.6</ele>
        <time>2021-08-21T12:47:16.000Z</time>
      </trkpt>
      <trkpt lat="47.94315" lon="7.14285">
        <ele>433</ele>
        <time>2021-08-21T12:47:21.000Z</time>
      </trkpt>
      <trkpt lat="47.94307" lon="7.14293">
        <ele>433.2</ele>
        <time>2021-08-21T12:47:30.000Z</time>
      </trkpt>
      <trkpt lat="47.94302" lon="7.14305">
        <ele>433</ele>
        <time>2021-08-21T12:47:38.000Z</time>
      </trkpt>
      <trkpt lat="47.943" lon="7.14309">
        <ele>433</ele>
        <time>2021-08-21T12:47:41.000Z</time>
      </trkpt>
      <trkpt lat="47.94291" lon="7.14342">
        <ele>432.6</ele>
        <time>2021-08-21T12:47:58.000Z</time>
      </trkpt>
      <trkpt lat="47.94277" lon="7.14378">
        <ele>431.8</ele>
        <time>2021-08-21T12:48:17.000Z</time>
      </trkpt>
      <trkpt lat="47.94264" lon="7.14406">
        <ele>431.4</ele>
        <time>2021-08-21T12:48:33.000Z</time>
      </trkpt>
      <trkpt lat="47.94264" lon="7.14407">
        <ele>431.4</ele>
        <time>2021-08-21T12:48:34.000Z</time>
      </trkpt>
      <trkpt lat="47.9425" lon="7.14432">
        <ele>431</ele>
        <time>2021-08-21T12:48:51.000Z</time>
      </trkpt>
      <trkpt lat="47.94248" lon="7.14439">
        <ele>431.2</ele>
        <time>2021-08-21T12:49:08.000Z</time>
      </trkpt>
      <trkpt lat="47.94246" lon="7.14442">
        <ele>431</ele>
        <time>2021-08-21T12:49:10.000Z</time>
      </trkpt>
      <trkpt lat="47.94245" lon="7.14448">
        <ele>431</ele>
        <time>2021-08-21T12:49:13.000Z</time>
      </trkpt>
      <trkpt lat="47.94242" lon="7.14452">
        <ele>431</ele>
        <time>2021-08-21T12:49:16.000Z</time>
      </trkpt>
      <trkpt lat="47.94241" lon="7.14454">
        <ele>431</ele>
        <time>2021-08-21T12:49:17.000Z</time>
      </trkpt>
      <trkpt lat="47.94225" lon="7.14479">
        <ele>431.2</ele>
        <time>2021-08-21T12:49:33.000Z</time>
      </trkpt>
      <trkpt lat="47.94224" lon="7.14481">
        <ele>431.2</ele>
        <time>2021-08-21T12:49:34.000Z</time>
      </trkpt>
      <trkpt lat="47.9422" lon="7.14491">
        <ele>431</ele>
        <time>2021-08-21T12:49:40.000Z</time>
      </trkpt>
      <trkpt lat="47.94218" lon="7.14494">
        <ele>431.2</ele>
        <time>2021-08-21T12:49:43.000Z</time>
      </trkpt>
      <trkpt lat="47.94217" lon="7.14495">
        <ele>431.2</ele>
        <time>2021-08-21T12:49:44.000Z</time>
      </trkpt>
      <trkpt lat="47.94201" lon="7.1453">
        <ele>430.8</ele>
        <time>2021-08-21T12:50:05.000Z</time>
      </trkpt>
      <trkpt lat="47.94201" lon="7.14532">
        <ele>430.8</ele>
        <time>2021-08-21T12:50:06.000Z</time>
      </trkpt>
      <trkpt lat="47.94198" lon="7.14536">
        <ele>430.8</ele>
        <time>2021-08-21T12:50:09.000Z</time>
      </trkpt>
      <trkpt lat="47.94185" lon="7.14555">
        <ele>430.8</ele>
        <time>2021-08-21T12:50:22.000Z</time>
      </trkpt>
      <trkpt lat="47.9417" lon="7.14575">
        <ele>430.4</ele>
        <time>2021-08-21T12:50:37.000Z</time>
      </trkpt>
      <trkpt lat="47.94153" lon="7.14597">
        <ele>429.6</ele>
        <time>2021-08-21T12:50:54.000Z</time>
      </trkpt>
      <trkpt lat="47.9415" lon="7.14599">
        <ele>429.6</ele>
        <time>2021-08-21T12:50:56.000Z</time>
      </trkpt>
      <trkpt lat="47.94143" lon="7.14606">
        <ele>429.2</ele>
        <time>2021-08-21T12:51:04.000Z</time>
      </trkpt>
      <trkpt lat="47.9414" lon="7.14613">
        <ele>429</ele>
        <time>2021-08-21T12:51:11.000Z</time>
      </trkpt>
      <trkpt lat="47.94126" lon="7.14633">
        <ele>428.8</ele>
        <time>2021-08-21T12:51:25.000Z</time>
      </trkpt>
      <trkpt lat="47.94125" lon="7.14634">
        <ele>428.8</ele>
        <time>2021-08-21T12:51:26.000Z</time>
      </trkpt>
      <trkpt lat="47.94124" lon="7.14636">
        <ele>428.8</ele>
        <time>2021-08-21T12:51:27.000Z</time>
      </trkpt>
      <trkpt lat="47.94122" lon="7.14637">
        <ele>428.8</ele>
        <time>2021-08-21T12:51:28.000Z</time>
      </trkpt>
      <trkpt lat="47.94121" lon="7.14639">
        <ele>428.6</ele>
        <time>2021-08-21T12:51:29.000Z</time>
      </trkpt>
      <trkpt lat="47.94113" lon="7.14651">
        <ele>428.4</ele>
        <time>2021-08-21T12:51:38.000Z</time>
      </trkpt>
      <trkpt lat="47.94113" lon="7.14654">
        <ele>428.4</ele>
        <time>2021-08-21T12:51:39.000Z</time>
      </trkpt>
      <trkpt lat="47.94112" lon="7.14656">
        <ele>428.4</ele>
        <time>2021-08-21T12:51:40.000Z</time>
      </trkpt>
      <trkpt lat="47.94094" lon="7.14675">
        <ele>428.8</ele>
        <time>2021-08-21T12:51:55.000Z</time>
      </trkpt>
      <trkpt lat="47.94093" lon="7.14675">
        <ele>429</ele>
        <time>2021-08-21T12:51:56.000Z</time>
      </trkpt>
      <trkpt lat="47.94086" lon="7.14672">
        <ele>429.6</ele>
        <time>2021-08-21T12:52:04.000Z</time>
      </trkpt>
      <trkpt lat="47.94077" lon="7.1467">
        <ele>430.6</ele>
        <time>2021-08-21T12:52:15.000Z</time>
      </trkpt>
      <trkpt lat="47.94067" lon="7.14662">
        <ele>431.8</ele>
        <time>2021-08-21T12:52:27.000Z</time>
      </trkpt>
      <trkpt lat="47.94065" lon="7.14662">
        <ele>432</ele>
        <time>2021-08-21T12:52:28.000Z</time>
      </trkpt>
      <trkpt lat="47.94064" lon="7.14662">
        <ele>432</ele>
        <time>2021-08-21T12:52:29.000Z</time>
      </trkpt>
      <trkpt lat="47.94052" lon="7.14661">
        <ele>432.8</ele>
        <time>2021-08-21T12:52:39.000Z</time>
      </trkpt>
      <trkpt lat="47.94049" lon="7.14661">
        <ele>433</ele>
        <time>2021-08-21T12:52:42.000Z</time>
      </trkpt>
      <trkpt lat="47.94048" lon="7.14661">
        <ele>433.2</ele>
        <time>2021-08-21T12:52:43.000Z</time>
      </trkpt>
      <trkpt lat="47.94046" lon="7.14661">
        <ele>433.2</ele>
        <time>2021-08-21T12:52:44.000Z</time>
      </trkpt>
      <trkpt lat="47.94042" lon="7.14661">
        <ele>433.4</ele>
        <time>2021-08-21T12:52:47.000Z</time>
      </trkpt>
      <trkpt lat="47.94039" lon="7.1466">
        <ele>433.6</ele>
        <time>2021-08-21T12:52:50.000Z</time>
      </trkpt>
      <trkpt lat="47.9403" lon="7.14656">
        <ele>434.2</ele>
        <time>2021-08-21T12:52:57.000Z</time>
      </trkpt>
      <trkpt lat="47.94029" lon="7.14655">
        <ele>434.2</ele>
        <time>2021-08-21T12:52:58.000Z</time>
      </trkpt>
      <trkpt lat="47.94026" lon="7.14653">
        <ele>434.6</ele>
        <time>2021-08-21T12:53:01.000Z</time>
      </trkpt>
      <trkpt lat="47.94014" lon="7.14642">
        <ele>435.8</ele>
        <time>2021-08-21T12:53:12.000Z</time>
      </trkpt>
      <trkpt lat="47.94013" lon="7.14641">
        <ele>436</ele>
        <time>2021-08-21T12:53:13.000Z</time>
      </trkpt>
      <trkpt lat="47.94008" lon="7.14635">
        <ele>436.6</ele>
        <time>2021-08-21T12:53:18.000Z</time>
      </trkpt>
      <trkpt lat="47.93997" lon="7.14621">
        <ele>438</ele>
        <time>2021-08-21T12:53:31.000Z</time>
      </trkpt>
      <trkpt lat="47.93983" lon="7.14614">
        <ele>439.4</ele>
        <time>2021-08-21T12:53:43.000Z</time>
      </trkpt>
      <trkpt lat="47.93983" lon="7.14613">
        <ele>439.4</ele>
        <time>2021-08-21T12:53:44.000Z</time>
      </trkpt>
      <trkpt lat="47.9397" lon="7.14598">
        <ele>440.8</ele>
        <time>2021-08-21T12:53:57.000Z</time>
      </trkpt>
      <trkpt lat="47.93969" lon="7.14596">
        <ele>441</ele>
        <time>2021-08-21T12:53:59.000Z</time>
      </trkpt>
      <trkpt lat="47.93968" lon="7.14595">
        <ele>441.2</ele>
        <time>2021-08-21T12:54:00.000Z</time>
      </trkpt>
      <trkpt lat="47.93962" lon="7.14591">
        <ele>441.8</ele>
        <time>2021-08-21T12:54:06.000Z</time>
      </trkpt>
      <trkpt lat="47.93961" lon="7.1459">
        <ele>442</ele>
        <time>2021-08-21T12:54:07.000Z</time>
      </trkpt>
      <trkpt lat="47.9396" lon="7.14588">
        <ele>442</ele>
        <time>2021-08-21T12:54:09.000Z</time>
      </trkpt>
      <trkpt lat="47.93945" lon="7.14579">
        <ele>443.4</ele>
        <time>2021-08-21T12:54:19.000Z</time>
      </trkpt>
      <trkpt lat="47.93935" lon="7.14568">
        <ele>444.2</ele>
        <time>2021-08-21T12:54:28.000Z</time>
      </trkpt>
      <trkpt lat="47.93923" lon="7.14556">
        <ele>445.4</ele>
        <time>2021-08-21T12:54:39.000Z</time>
      </trkpt>
      <trkpt lat="47.93914" lon="7.1455">
        <ele>446</ele>
        <time>2021-08-21T12:54:47.000Z</time>
      </trkpt>
      <trkpt lat="47.93913" lon="7.14548">
        <ele>446.2</ele>
        <time>2021-08-21T12:54:49.000Z</time>
      </trkpt>
      <trkpt lat="47.93898" lon="7.14535">
        <ele>447.4</ele>
        <time>2021-08-21T12:55:02.000Z</time>
      </trkpt>
      <trkpt lat="47.93891" lon="7.14533">
        <ele>448</ele>
        <time>2021-08-21T12:55:07.000Z</time>
      </trkpt>
      <trkpt lat="47.93884" lon="7.14527">
        <ele>448.4</ele>
        <time>2021-08-21T12:55:13.000Z</time>
      </trkpt>
      <trkpt lat="47.93883" lon="7.14526">
        <ele>448.4</ele>
        <time>2021-08-21T12:55:14.000Z</time>
      </trkpt>
      <trkpt lat="47.93882" lon="7.14525">
        <ele>448.6</ele>
        <time>2021-08-21T12:55:15.000Z</time>
      </trkpt>
      <trkpt lat="47.93881" lon="7.14524">
        <ele>448.6</ele>
        <time>2021-08-21T12:55:16.000Z</time>
      </trkpt>
      <trkpt lat="47.93879" lon="7.14524">
        <ele>448.8</ele>
        <time>2021-08-21T12:55:17.000Z</time>
      </trkpt>
      <trkpt lat="47.93878" lon="7.14523">
        <ele>449</ele>
        <time>2021-08-21T12:55:18.000Z</time>
      </trkpt>
      <trkpt lat="47.93877" lon="7.14522">
        <ele>449</ele>
        <time>2021-08-21T12:55:19.000Z</time>
      </trkpt>
      <trkpt lat="47.93863" lon="7.14512">
        <ele>450.4</ele>
        <time>2021-08-21T12:55:31.000Z</time>
      </trkpt>
      <trkpt lat="47.93853" lon="7.14513">
        <ele>451</ele>
        <time>2021-08-21T12:55:41.000Z</time>
      </trkpt>
      <trkpt lat="47.93837" lon="7.14519">
        <ele>450.6</ele>
        <time>2021-08-21T12:55:56.000Z</time>
      </trkpt>
      <trkpt lat="47.93824" lon="7.14515">
        <ele>450.4</ele>
        <time>2021-08-21T12:56:05.000Z</time>
      </trkpt>
      <trkpt lat="47.93822" lon="7.14515">
        <ele>450.4</ele>
        <time>2021-08-21T12:56:07.000Z</time>
      </trkpt>
      <trkpt lat="47.93805" lon="7.14515">
        <ele>450.6</ele>
        <time>2021-08-21T12:56:19.000Z</time>
      </trkpt>
      <trkpt lat="47.93798" lon="7.14517">
        <ele>450.8</ele>
        <time>2021-08-21T12:56:24.000Z</time>
      </trkpt>
      <trkpt lat="47.93787" lon="7.14516">
        <ele>451.4</ele>
        <time>2021-08-21T12:56:32.000Z</time>
      </trkpt>
      <trkpt lat="47.93775" lon="7.14515">
        <ele>452.2</ele>
        <time>2021-08-21T12:56:41.000Z</time>
      </trkpt>
      <trkpt lat="47.93763" lon="7.14513">
        <ele>453</ele>
        <time>2021-08-21T12:56:51.000Z</time>
      </trkpt>
      <trkpt lat="47.9375" lon="7.14522">
        <ele>454.8</ele>
        <time>2021-08-21T12:57:06.000Z</time>
      </trkpt>
      <trkpt lat="47.93731" lon="7.14526">
        <ele>457.2</ele>
        <time>2021-08-21T12:57:25.000Z</time>
      </trkpt>
      <trkpt lat="47.9372" lon="7.14521">
        <ele>458.2</ele>
        <time>2021-08-21T12:57:33.000Z</time>
      </trkpt>
      <trkpt lat="47.93713" lon="7.14521">
        <ele>459</ele>
        <time>2021-08-21T12:57:39.000Z</time>
      </trkpt>
      <trkpt lat="47.93708" lon="7.14518">
        <ele>460</ele>
        <time>2021-08-21T12:57:47.000Z</time>
      </trkpt>
      <trkpt lat="47.93707" lon="7.14518">
        <ele>460.2</ele>
        <time>2021-08-21T12:57:48.000Z</time>
      </trkpt>
      <trkpt lat="47.93696" lon="7.14514">
        <ele>461.6</ele>
        <time>2021-08-21T12:57:58.000Z</time>
      </trkpt>
      <trkpt lat="47.93691" lon="7.14511">
        <ele>462</ele>
        <time>2021-08-21T12:58:02.000Z</time>
      </trkpt>
      <trkpt lat="47.93685" lon="7.1451">
        <ele>462.8</ele>
        <time>2021-08-21T12:58:09.000Z</time>
      </trkpt>
      <trkpt lat="47.9368" lon="7.14507">
        <ele>463.2</ele>
        <time>2021-08-21T12:58:13.000Z</time>
      </trkpt>
      <trkpt lat="47.93679" lon="7.14507">
        <ele>463.2</ele>
        <time>2021-08-21T12:58:14.000Z</time>
      </trkpt>
      <trkpt lat="47.93662" lon="7.14508">
        <ele>465.4</ele>
        <time>2021-08-21T12:58:36.000Z</time>
      </trkpt>
      <trkpt lat="47.93657" lon="7.14507">
        <ele>466</ele>
        <time>2021-08-21T12:58:41.000Z</time>
      </trkpt>
      <trkpt lat="47.93656" lon="7.14506">
        <ele>466.2</ele>
        <time>2021-08-21T12:58:42.000Z</time>
      </trkpt>
      <trkpt lat="47.93655" lon="7.14505">
        <ele>466.4</ele>
        <time>2021-08-21T12:58:43.000Z</time>
      </trkpt>
      <trkpt lat="47.93648" lon="7.14499">
        <ele>467</ele>
        <time>2021-08-21T12:58:49.000Z</time>
      </trkpt>
      <trkpt lat="47.93647" lon="7.14498">
        <ele>467.2</ele>
        <time>2021-08-21T12:58:50.000Z</time>
      </trkpt>
      <trkpt lat="47.93635" lon="7.14501">
        <ele>468.6</ele>
        <time>2021-08-21T12:59:07.000Z</time>
      </trkpt>
      <trkpt lat="47.93619" lon="7.14497">
        <ele>469.8</ele>
        <time>2021-08-21T12:59:19.000Z</time>
      </trkpt>
      <trkpt lat="47.93605" lon="7.14489">
        <ele>471</ele>
        <time>2021-08-21T12:59:31.000Z</time>
      </trkpt>
      <trkpt lat="47.93601" lon="7.14487">
        <ele>471.2</ele>
        <time>2021-08-21T12:59:35.000Z</time>
      </trkpt>
      <trkpt lat="47.93576" lon="7.14473">
        <ele>473.8</ele>
        <time>2021-08-21T13:00:02.000Z</time>
      </trkpt>
      <trkpt lat="47.93568" lon="7.14468">
        <ele>474.8</ele>
        <time>2021-08-21T13:00:10.000Z</time>
      </trkpt>
      <trkpt lat="47.93552" lon="7.14456">
        <ele>476.4</ele>
        <time>2021-08-21T13:00:26.000Z</time>
      </trkpt>
      <trkpt lat="47.93538" lon="7.14451">
        <ele>477.8</ele>
        <time>2021-08-21T13:00:38.000Z</time>
      </trkpt>
      <trkpt lat="47.93528" lon="7.14445">
        <ele>479</ele>
        <time>2021-08-21T13:00:47.000Z</time>
      </trkpt>
      <trkpt lat="47.9352" lon="7.14442">
        <ele>480</ele>
        <time>2021-08-21T13:00:54.000Z</time>
      </trkpt>
      <trkpt lat="47.93519" lon="7.14442">
        <ele>480</ele>
        <time>2021-08-21T13:00:55.000Z</time>
      </trkpt>
      <trkpt lat="47.93515" lon="7.14441">
        <ele>480.4</ele>
        <time>2021-08-21T13:00:59.000Z</time>
      </trkpt>
      <trkpt lat="47.93501" lon="7.14442">
        <ele>483</ele>
        <time>2021-08-21T13:01:19.000Z</time>
      </trkpt>
      <trkpt lat="47.935" lon="7.14442">
        <ele>483</ele>
        <time>2021-08-21T13:01:20.000Z</time>
      </trkpt>
      <trkpt lat="47.93486" lon="7.1444">
        <ele>485.6</ele>
        <time>2021-08-21T13:01:37.000Z</time>
      </trkpt>
      <trkpt lat="47.93458" lon="7.1442">
        <ele>488.6</ele>
        <time>2021-08-21T13:01:59.000Z</time>
      </trkpt>
      <trkpt lat="47.93451" lon="7.14412">
        <ele>489.8</ele>
        <time>2021-08-21T13:02:07.000Z</time>
      </trkpt>
      <trkpt lat="47.93449" lon="7.1441">
        <ele>490</ele>
        <time>2021-08-21T13:02:09.000Z</time>
      </trkpt>
      <trkpt lat="47.93437" lon="7.14403">
        <ele>491.4</ele>
        <time>2021-08-21T13:02:20.000Z</time>
      </trkpt>
      <trkpt lat="47.93419" lon="7.14395">
        <ele>492.8</ele>
        <time>2021-08-21T13:02:36.000Z</time>
      </trkpt>
      <trkpt lat="47.93415" lon="7.14391">
        <ele>493.2</ele>
        <time>2021-08-21T13:02:40.000Z</time>
      </trkpt>
      <trkpt lat="47.93414" lon="7.14391">
        <ele>493.2</ele>
        <time>2021-08-21T13:02:41.000Z</time>
      </trkpt>
      <trkpt lat="47.93408" lon="7.14386">
        <ele>493.8</ele>
        <time>2021-08-21T13:02:47.000Z</time>
      </trkpt>
      <trkpt lat="47.934" lon="7.1438">
        <ele>494.2</ele>
        <time>2021-08-21T13:02:54.000Z</time>
      </trkpt>
      <trkpt lat="47.93392" lon="7.14382">
        <ele>495</ele>
        <time>2021-08-21T13:03:02.000Z</time>
      </trkpt>
      <trkpt lat="47.93379" lon="7.14377">
        <ele>496</ele>
        <time>2021-08-21T13:03:13.000Z</time>
      </trkpt>
      <trkpt lat="47.93361" lon="7.14366">
        <ele>498.4</ele>
        <time>2021-08-21T13:03:39.000Z</time>
      </trkpt>
      <trkpt lat="47.93315" lon="7.14337">
        <ele>502.8</ele>
        <time>2021-08-21T13:04:20.000Z</time>
      </trkpt>
      <trkpt lat="47.93287" lon="7.14329">
        <ele>505.2</ele>
        <time>2021-08-21T13:04:40.000Z</time>
      </trkpt>
      <trkpt lat="47.93277" lon="7.14325">
        <ele>506.6</ele>
        <time>2021-08-21T13:04:50.000Z</time>
      </trkpt>
      <trkpt lat="47.93272" lon="7.14323">
        <ele>507.4</ele>
        <time>2021-08-21T13:04:55.000Z</time>
      </trkpt>
      <trkpt lat="47.9327" lon="7.14322">
        <ele>507.6</ele>
        <time>2021-08-21T13:04:57.000Z</time>
      </trkpt>
      <trkpt lat="47.93259" lon="7.14319">
        <ele>509</ele>
        <time>2021-08-21T13:05:07.000Z</time>
      </trkpt>
      <trkpt lat="47.93257" lon="7.14318">
        <ele>509.4</ele>
        <time>2021-08-21T13:05:09.000Z</time>
      </trkpt>
      <trkpt lat="47.93251" lon="7.14314">
        <ele>510.2</ele>
        <time>2021-08-21T13:05:15.000Z</time>
      </trkpt>
      <trkpt lat="47.9325" lon="7.14313">
        <ele>510.4</ele>
        <time>2021-08-21T13:05:16.000Z</time>
      </trkpt>
      <trkpt lat="47.9324" lon="7.1431">
        <ele>512.4</ele>
        <time>2021-08-21T13:05:32.000Z</time>
      </trkpt>
      <trkpt lat="47.93239" lon="7.14309">
        <ele>512.8</ele>
        <time>2021-08-21T13:05:34.000Z</time>
      </trkpt>
      <trkpt lat="47.93225" lon="7.14299">
        <ele>515.8</ele>
        <time>2021-08-21T13:05:58.000Z</time>
      </trkpt>
      <trkpt lat="47.93212" lon="7.1428">
        <ele>517.6</ele>
        <time>2021-08-21T13:06:14.000Z</time>
      </trkpt>
      <trkpt lat="47.93201" lon="7.14264">
        <ele>519.6</ele>
        <time>2021-08-21T13:06:28.000Z</time>
      </trkpt>
      <trkpt lat="47.9317" lon="7.14232">
        <ele>523.2</ele>
        <time>2021-08-21T13:06:59.000Z</time>
      </trkpt>
      <trkpt lat="47.93153" lon="7.14214">
        <ele>524.8</ele>
        <time>2021-08-21T13:07:18.000Z</time>
      </trkpt>
      <trkpt lat="47.93143" lon="7.14203">
        <ele>525.8</ele>
        <time>2021-08-21T13:07:27.000Z</time>
      </trkpt>
      <trkpt lat="47.93127" lon="7.14185">
        <ele>527.8</ele>
        <time>2021-08-21T13:07:48.000Z</time>
      </trkpt>
      <trkpt lat="47.93119" lon="7.14174">
        <ele>529</ele>
        <time>2021-08-21T13:07:59.000Z</time>
      </trkpt>
      <trkpt lat="47.93101" lon="7.14153">
        <ele>531.2</ele>
        <time>2021-08-21T13:08:19.000Z</time>
      </trkpt>
      <trkpt lat="47.9309" lon="7.1414">
        <ele>532.2</ele>
        <time>2021-08-21T13:08:28.000Z</time>
      </trkpt>
      <trkpt lat="47.93087" lon="7.14137">
        <ele>532.4</ele>
        <time>2021-08-21T13:08:30.000Z</time>
      </trkpt>
      <trkpt lat="47.93086" lon="7.14136">
        <ele>532.6</ele>
        <time>2021-08-21T13:08:31.000Z</time>
      </trkpt>
      <trkpt lat="47.93083" lon="7.14133">
        <ele>532.8</ele>
        <time>2021-08-21T13:08:33.000Z</time>
      </trkpt>
      <trkpt lat="47.93079" lon="7.14129">
        <ele>533.2</ele>
        <time>2021-08-21T13:08:38.000Z</time>
      </trkpt>
      <trkpt lat="47.93065" lon="7.14121">
        <ele>535</ele>
        <time>2021-08-21T13:08:57.000Z</time>
      </trkpt>
      <trkpt lat="47.93058" lon="7.14104">
        <ele>536.4</ele>
        <time>2021-08-21T13:09:12.000Z</time>
      </trkpt>
      <trkpt lat="47.93058" lon="7.14102">
        <ele>536.6</ele>
        <time>2021-08-21T13:09:13.000Z</time>
      </trkpt>
      <trkpt lat="47.93069" lon="7.14089">
        <ele>537.6</ele>
        <time>2021-08-21T13:09:27.000Z</time>
      </trkpt>
      <trkpt lat="47.93075" lon="7.14087">
        <ele>538.2</ele>
        <time>2021-08-21T13:09:32.000Z</time>
      </trkpt>
      <trkpt lat="47.93076" lon="7.14086">
        <ele>538.2</ele>
        <time>2021-08-21T13:09:33.000Z</time>
      </trkpt>
      <trkpt lat="47.93078" lon="7.14086">
        <ele>538.4</ele>
        <time>2021-08-21T13:09:34.000Z</time>
      </trkpt>
      <trkpt lat="47.93084" lon="7.1408">
        <ele>538.8</ele>
        <time>2021-08-21T13:09:39.000Z</time>
      </trkpt>
      <trkpt lat="47.93084" lon="7.14079">
        <ele>539</ele>
        <time>2021-08-21T13:09:40.000Z</time>
      </trkpt>
      <trkpt lat="47.93084" lon="7.14061">
        <ele>540.2</ele>
        <time>2021-08-21T13:09:53.000Z</time>
      </trkpt>
      <trkpt lat="47.93083" lon="7.14046">
        <ele>541.2</ele>
        <time>2021-08-21T13:10:03.000Z</time>
      </trkpt>
      <trkpt lat="47.93076" lon="7.14022">
        <ele>542.6</ele>
        <time>2021-08-21T13:10:22.000Z</time>
      </trkpt>
      <trkpt lat="47.93066" lon="7.14">
        <ele>543.6</ele>
        <time>2021-08-21T13:10:36.000Z</time>
      </trkpt>
      <trkpt lat="47.93065" lon="7.13996">
        <ele>543.8</ele>
        <time>2021-08-21T13:10:39.000Z</time>
      </trkpt>
      <trkpt lat="47.93064" lon="7.13994">
        <ele>543.8</ele>
        <time>2021-08-21T13:10:40.000Z</time>
      </trkpt>
      <trkpt lat="47.93064" lon="7.13946">
        <ele>545.2</ele>
        <time>2021-08-21T13:11:07.000Z</time>
      </trkpt>
      <trkpt lat="47.93065" lon="7.13939">
        <ele>545.4</ele>
        <time>2021-08-21T13:11:12.000Z</time>
      </trkpt>
      <trkpt lat="47.93059" lon="7.13933">
        <ele>546.2</ele>
        <time>2021-08-21T13:12:01.000Z</time>
      </trkpt>
      <trkpt lat="47.93042" lon="7.13915">
        <ele>548.6</ele>
        <time>2021-08-21T13:12:30.000Z</time>
      </trkpt>
      <trkpt lat="47.93042" lon="7.13956">
        <ele>550</ele>
        <time>2021-08-21T13:12:47.000Z</time>
      </trkpt>
      <trkpt lat="47.93043" lon="7.13978">
        <ele>551</ele>
        <time>2021-08-21T13:12:59.000Z</time>
      </trkpt>
      <trkpt lat="47.93043" lon="7.13983">
        <ele>551.4</ele>
        <time>2021-08-21T13:13:02.000Z</time>
      </trkpt>
      <trkpt lat="47.93045" lon="7.14001">
        <ele>552.8</ele>
        <time>2021-08-21T13:13:16.000Z</time>
      </trkpt>
      <trkpt lat="47.93045" lon="7.1402">
        <ele>553.8</ele>
        <time>2021-08-21T13:13:28.000Z</time>
      </trkpt>
      <trkpt lat="47.93042" lon="7.14033">
        <ele>554.6</ele>
        <time>2021-08-21T13:13:37.000Z</time>
      </trkpt>
      <trkpt lat="47.93032" lon="7.14045">
        <ele>555.8</ele>
        <time>2021-08-21T13:13:48.000Z</time>
      </trkpt>
      <trkpt lat="47.9302" lon="7.14047">
        <ele>556.8</ele>
        <time>2021-08-21T13:13:59.000Z</time>
      </trkpt>
      <trkpt lat="47.93008" lon="7.14049">
        <ele>557.8</ele>
        <time>2021-08-21T13:14:11.000Z</time>
      </trkpt>
      <trkpt lat="47.93001" lon="7.14049">
        <ele>558.8</ele>
        <time>2021-08-21T13:14:19.000Z</time>
      </trkpt>
      <trkpt lat="47.93" lon="7.14049">
        <ele>559</ele>
        <time>2021-08-21T13:14:20.000Z</time>
      </trkpt>
      <trkpt lat="47.92998" lon="7.14049">
        <ele>559</ele>
        <time>2021-08-21T13:14:21.000Z</time>
      </trkpt>
      <trkpt lat="47.92989" lon="7.14051">
        <ele>560</ele>
        <time>2021-08-21T13:14:31.000Z</time>
      </trkpt>
      <trkpt lat="47.92968" lon="7.14056">
        <ele>561.6</ele>
        <time>2021-08-21T13:14:49.000Z</time>
      </trkpt>
      <trkpt lat="47.9296" lon="7.14055">
        <ele>562.2</ele>
        <time>2021-08-21T13:14:55.000Z</time>
      </trkpt>
      <trkpt lat="47.92947" lon="7.14063">
        <ele>563.8</ele>
        <time>2021-08-21T13:15:14.000Z</time>
      </trkpt>
      <trkpt lat="47.92949" lon="7.14079">
        <ele>565</ele>
        <time>2021-08-21T13:15:32.000Z</time>
      </trkpt>
      <trkpt lat="47.92947" lon="7.14115">
        <ele>566.6</ele>
        <time>2021-08-21T13:16:21.000Z</time>
      </trkpt>
      <trkpt lat="47.92948" lon="7.14116">
        <ele>566.6</ele>
        <time>2021-08-21T13:16:22.000Z</time>
      </trkpt>
      <trkpt lat="47.92953" lon="7.1412">
        <ele>566.6</ele>
        <time>2021-08-21T13:16:48.000Z</time>
      </trkpt>
      <trkpt lat="47.92951" lon="7.14151">
        <ele>568.2</ele>
        <time>2021-08-21T13:17:04.000Z</time>
      </trkpt>
      <trkpt lat="47.92952" lon="7.14158">
        <ele>568.2</ele>
        <time>2021-08-21T13:17:08.000Z</time>
      </trkpt>
      <trkpt lat="47.92952" lon="7.14159">
        <ele>568.2</ele>
        <time>2021-08-21T13:17:09.000Z</time>
      </trkpt>
      <trkpt lat="47.92958" lon="7.14173">
        <ele>569.2</ele>
        <time>2021-08-21T13:17:19.000Z</time>
      </trkpt>
      <trkpt lat="47.92964" lon="7.14188">
        <ele>570.4</ele>
        <time>2021-08-21T13:17:32.000Z</time>
      </trkpt>
      <trkpt lat="47.92962" lon="7.14201">
        <ele>572</ele>
        <time>2021-08-21T13:17:42.000Z</time>
      </trkpt>
      <trkpt lat="47.92955" lon="7.14199">
        <ele>572.6</ele>
        <time>2021-08-21T13:17:49.000Z</time>
      </trkpt>
      <trkpt lat="47.92951" lon="7.14194">
        <ele>573.6</ele>
        <time>2021-08-21T13:17:56.000Z</time>
      </trkpt>
      <trkpt lat="47.92943" lon="7.14162">
        <ele>575.4</ele>
        <time>2021-08-21T13:18:15.000Z</time>
      </trkpt>
      <trkpt lat="47.92941" lon="7.14157">
        <ele>575.8</ele>
        <time>2021-08-21T13:18:19.000Z</time>
      </trkpt>
      <trkpt lat="47.92924" lon="7.14138">
        <ele>577.6</ele>
        <time>2021-08-21T13:18:37.000Z</time>
      </trkpt>
      <trkpt lat="47.92891" lon="7.14095">
        <ele>580.6</ele>
        <time>2021-08-21T13:19:09.000Z</time>
      </trkpt>
      <trkpt lat="47.92882" lon="7.14075">
        <ele>582.2</ele>
        <time>2021-08-21T13:19:24.000Z</time>
      </trkpt>
      <trkpt lat="47.92882" lon="7.14073">
        <ele>582.4</ele>
        <time>2021-08-21T13:19:25.000Z</time>
      </trkpt>
      <trkpt lat="47.92882" lon="7.14071">
        <ele>582.4</ele>
        <time>2021-08-21T13:19:26.000Z</time>
      </trkpt>
      <trkpt lat="47.92881" lon="7.14044">
        <ele>584</ele>
        <time>2021-08-21T13:19:42.000Z</time>
      </trkpt>
      <trkpt lat="47.92882" lon="7.14042">
        <ele>584.2</ele>
        <time>2021-08-21T13:19:43.000Z</time>
      </trkpt>
      <trkpt lat="47.92895" lon="7.14027">
        <ele>586</ele>
        <time>2021-08-21T13:20:00.000Z</time>
      </trkpt>
      <trkpt lat="47.92896" lon="7.14026">
        <ele>586.2</ele>
        <time>2021-08-21T13:20:01.000Z</time>
      </trkpt>
      <trkpt lat="47.929" lon="7.14022">
        <ele>586.4</ele>
        <time>2021-08-21T13:20:04.000Z</time>
      </trkpt>
      <trkpt lat="47.92909" lon="7.14016">
        <ele>587</ele>
        <time>2021-08-21T13:20:10.000Z</time>
      </trkpt>
      <trkpt lat="47.9291" lon="7.14015">
        <ele>587.2</ele>
        <time>2021-08-21T13:20:11.000Z</time>
      </trkpt>
      <trkpt lat="47.92912" lon="7.14014">
        <ele>587.2</ele>
        <time>2021-08-21T13:20:12.000Z</time>
      </trkpt>
      <trkpt lat="47.92913" lon="7.14014">
        <ele>587.2</ele>
        <time>2021-08-21T13:20:13.000Z</time>
      </trkpt>
      <trkpt lat="47.92921" lon="7.14009">
        <ele>588</ele>
        <time>2021-08-21T13:20:19.000Z</time>
      </trkpt>
      <trkpt lat="47.92923" lon="7.14008">
        <ele>588</ele>
        <time>2021-08-21T13:20:20.000Z</time>
      </trkpt>
      <trkpt lat="47.92924" lon="7.14007">
        <ele>588</ele>
        <time>2021-08-21T13:20:21.000Z</time>
      </trkpt>
      <trkpt lat="47.92925" lon="7.14006">
        <ele>588.2</ele>
        <time>2021-08-21T13:20:22.000Z</time>
      </trkpt>
      <trkpt lat="47.92934" lon="7.13997">
        <ele>589.2</ele>
        <time>2021-08-21T13:20:31.000Z</time>
      </trkpt>
      <trkpt lat="47.92937" lon="7.13959">
        <ele>591.8</ele>
        <time>2021-08-21T13:20:53.000Z</time>
      </trkpt>
      <trkpt lat="47.92778" lon="7.13725">
        <ele>636.2</ele>
        <time>2021-08-21T13:28:11.000Z</time>
      </trkpt>
      <trkpt lat="47.92773" lon="7.13735">
        <ele>636.4</ele>
        <time>2021-08-21T13:28:25.000Z</time>
      </trkpt>
      <trkpt lat="47.9276" lon="7.13745">
        <ele>639.4</ele>
        <time>2021-08-21T13:28:42.000Z</time>
      </trkpt>
      <trkpt lat="47.92752" lon="7.13749">
        <ele>640.2</ele>
        <time>2021-08-21T13:28:48.000Z</time>
      </trkpt>
      <trkpt lat="47.92749" lon="7.13762">
        <ele>641.2</ele>
        <time>2021-08-21T13:28:57.000Z</time>
      </trkpt>
      <trkpt lat="47.92751" lon="7.13782">
        <ele>643</ele>
        <time>2021-08-21T13:29:09.000Z</time>
      </trkpt>
      <trkpt lat="47.92756" lon="7.13794">
        <ele>644.6</ele>
        <time>2021-08-21T13:29:19.000Z</time>
      </trkpt>
      <trkpt lat="47.9276" lon="7.13811">
        <ele>646.6</ele>
        <time>2021-08-21T13:29:30.000Z</time>
      </trkpt>
      <trkpt lat="47.92761" lon="7.13823">
        <ele>648.6</ele>
        <time>2021-08-21T13:29:40.000Z</time>
      </trkpt>
      <trkpt lat="47.92767" lon="7.13849">
        <ele>651.6</ele>
        <time>2021-08-21T13:29:58.000Z</time>
      </trkpt>
      <trkpt lat="47.92777" lon="7.13866">
        <ele>653.6</ele>
        <time>2021-08-21T13:30:10.000Z</time>
      </trkpt>
      <trkpt lat="47.92784" lon="7.13876">
        <ele>654.4</ele>
        <time>2021-08-21T13:30:17.000Z</time>
      </trkpt>
      <trkpt lat="47.92792" lon="7.1389">
        <ele>655.4</ele>
        <time>2021-08-21T13:30:28.000Z</time>
      </trkpt>
      <trkpt lat="47.92797" lon="7.13906">
        <ele>657</ele>
        <time>2021-08-21T13:30:39.000Z</time>
      </trkpt>
      <trkpt lat="47.92793" lon="7.1392">
        <ele>658</ele>
        <time>2021-08-21T13:30:46.000Z</time>
      </trkpt>
      <trkpt lat="47.92771" lon="7.13945">
        <ele>659.8</ele>
        <time>2021-08-21T13:31:08.000Z</time>
      </trkpt>
      <trkpt lat="47.92763" lon="7.13949">
        <ele>660</ele>
        <time>2021-08-21T13:31:15.000Z</time>
      </trkpt>
      <trkpt lat="47.92762" lon="7.1395">
        <ele>660.2</ele>
        <time>2021-08-21T13:31:16.000Z</time>
      </trkpt>
      <trkpt lat="47.92761" lon="7.13951">
        <ele>660.2</ele>
        <time>2021-08-21T13:31:17.000Z</time>
      </trkpt>
      <trkpt lat="47.92746" lon="7.13964">
        <ele>661.4</ele>
        <time>2021-08-21T13:31:30.000Z</time>
      </trkpt>
      <trkpt lat="47.92744" lon="7.13965">
        <ele>661.6</ele>
        <time>2021-08-21T13:31:31.000Z</time>
      </trkpt>
      <trkpt lat="47.92743" lon="7.13967">
        <ele>661.6</ele>
        <time>2021-08-21T13:31:32.000Z</time>
      </trkpt>
      <trkpt lat="47.92738" lon="7.13974">
        <ele>662</ele>
        <time>2021-08-21T13:31:36.000Z</time>
      </trkpt>
      <trkpt lat="47.92735" lon="7.13976">
        <ele>662.2</ele>
        <time>2021-08-21T13:31:39.000Z</time>
      </trkpt>
      <trkpt lat="47.92729" lon="7.13985">
        <ele>662.8</ele>
        <time>2021-08-21T13:31:45.000Z</time>
      </trkpt>
      <trkpt lat="47.92728" lon="7.13986">
        <ele>662.8</ele>
        <time>2021-08-21T13:31:46.000Z</time>
      </trkpt>
      <trkpt lat="47.92718" lon="7.13996">
        <ele>664</ele>
        <time>2021-08-21T13:31:56.000Z</time>
      </trkpt>
      <trkpt lat="47.92717" lon="7.13998">
        <ele>664.2</ele>
        <time>2021-08-21T13:31:57.000Z</time>
      </trkpt>
      <trkpt lat="47.9271" lon="7.1401">
        <ele>664.8</ele>
        <time>2021-08-21T13:32:05.000Z</time>
      </trkpt>
      <trkpt lat="47.92704" lon="7.14023">
        <ele>665.4</ele>
        <time>2021-08-21T13:32:12.000Z</time>
      </trkpt>
      <trkpt lat="47.92702" lon="7.1403">
        <ele>665.6</ele>
        <time>2021-08-21T13:32:16.000Z</time>
      </trkpt>
      <trkpt lat="47.92701" lon="7.14032">
        <ele>665.6</ele>
        <time>2021-08-21T13:32:17.000Z</time>
      </trkpt>
      <trkpt lat="47.927" lon="7.14034">
        <ele>665.6</ele>
        <time>2021-08-21T13:32:18.000Z</time>
      </trkpt>
      <trkpt lat="47.92696" lon="7.14045">
        <ele>666.2</ele>
        <time>2021-08-21T13:32:26.000Z</time>
      </trkpt>
      <trkpt lat="47.92691" lon="7.1405">
        <ele>666.4</ele>
        <time>2021-08-21T13:32:30.000Z</time>
      </trkpt>
      <trkpt lat="47.92682" lon="7.14061">
        <ele>667.4</ele>
        <time>2021-08-21T13:32:39.000Z</time>
      </trkpt>
      <trkpt lat="47.92673" lon="7.1407">
        <ele>668</ele>
        <time>2021-08-21T13:32:47.000Z</time>
      </trkpt>
      <trkpt lat="47.92668" lon="7.14077">
        <ele>668.4</ele>
        <time>2021-08-21T13:32:52.000Z</time>
      </trkpt>
      <trkpt lat="47.92667" lon="7.14078">
        <ele>668.4</ele>
        <time>2021-08-21T13:32:53.000Z</time>
      </trkpt>
      <trkpt lat="47.92666" lon="7.14079">
        <ele>668.6</ele>
        <time>2021-08-21T13:32:54.000Z</time>
      </trkpt>
      <trkpt lat="47.92659" lon="7.14094">
        <ele>668.4</ele>
        <time>2021-08-21T13:33:02.000Z</time>
      </trkpt>
      <trkpt lat="47.92651" lon="7.14119">
        <ele>668</ele>
        <time>2021-08-21T13:33:17.000Z</time>
      </trkpt>
      <trkpt lat="47.92648" lon="7.14121">
        <ele>668</ele>
        <time>2021-08-21T13:33:20.000Z</time>
      </trkpt>
      <trkpt lat="47.92641" lon="7.14123">
        <ele>668</ele>
        <time>2021-08-21T13:33:25.000Z</time>
      </trkpt>
      <trkpt lat="47.92634" lon="7.14125">
        <ele>668</ele>
        <time>2021-08-21T13:33:40.000Z</time>
      </trkpt>
      <trkpt lat="47.92637" lon="7.14125">
        <ele>667.8</ele>
        <time>2021-08-21T13:34:05.000Z</time>
      </trkpt>
      <trkpt lat="47.92621" lon="7.14139">
        <ele>667.6</ele>
        <time>2021-08-21T13:34:30.000Z</time>
      </trkpt>
      <trkpt lat="47.92601" lon="7.14151">
        <ele>667.4</ele>
        <time>2021-08-21T13:34:45.000Z</time>
      </trkpt>
      <trkpt lat="47.92599" lon="7.14151">
        <ele>667.4</ele>
        <time>2021-08-21T13:34:46.000Z</time>
      </trkpt>
      <trkpt lat="47.92594" lon="7.14153">
        <ele>667.2</ele>
        <time>2021-08-21T13:34:49.000Z</time>
      </trkpt>
      <trkpt lat="47.92564" lon="7.14173">
        <ele>667</ele>
        <time>2021-08-21T13:35:10.000Z</time>
      </trkpt>
      <trkpt lat="47.9256" lon="7.14175">
        <ele>667</ele>
        <time>2021-08-21T13:35:12.000Z</time>
      </trkpt>
      <trkpt lat="47.92559" lon="7.14177">
        <ele>667</ele>
        <time>2021-08-21T13:35:13.000Z</time>
      </trkpt>
      <trkpt lat="47.92557" lon="7.14177">
        <ele>667</ele>
        <time>2021-08-21T13:35:14.000Z</time>
      </trkpt>
      <trkpt lat="47.92556" lon="7.14178">
        <ele>667</ele>
        <time>2021-08-21T13:35:15.000Z</time>
      </trkpt>
      <trkpt lat="47.92552" lon="7.1418">
        <ele>667</ele>
        <time>2021-08-21T13:35:17.000Z</time>
      </trkpt>
      <trkpt lat="47.92545" lon="7.14193">
        <ele>667</ele>
        <time>2021-08-21T13:35:25.000Z</time>
      </trkpt>
      <trkpt lat="47.92541" lon="7.14198">
        <ele>667</ele>
        <time>2021-08-21T13:35:28.000Z</time>
      </trkpt>
      <trkpt lat="47.92522" lon="7.14222">
        <ele>666.4</ele>
        <time>2021-08-21T13:35:45.000Z</time>
      </trkpt>
      <trkpt lat="47.92517" lon="7.14229">
        <ele>666.4</ele>
        <time>2021-08-21T13:35:49.000Z</time>
      </trkpt>
      <trkpt lat="47.92516" lon="7.14231">
        <ele>666.2</ele>
        <time>2021-08-21T13:35:50.000Z</time>
      </trkpt>
      <trkpt lat="47.92516" lon="7.14233">
        <ele>666.2</ele>
        <time>2021-08-21T13:35:51.000Z</time>
      </trkpt>
      <trkpt lat="47.92514" lon="7.14235">
        <ele>666.2</ele>
        <time>2021-08-21T13:35:52.000Z</time>
      </trkpt>
      <trkpt lat="47.92514" lon="7.14236">
        <ele>666.2</ele>
        <time>2021-08-21T13:35:53.000Z</time>
      </trkpt>
      <trkpt lat="47.92512" lon="7.1424">
        <ele>666.2</ele>
        <time>2021-08-21T13:35:55.000Z</time>
      </trkpt>
      <trkpt lat="47.92505" lon="7.14247">
        <ele>666.2</ele>
        <time>2021-08-21T13:36:00.000Z</time>
      </trkpt>
      <trkpt lat="47.92495" lon="7.14258">
        <ele>666</ele>
        <time>2021-08-21T13:36:08.000Z</time>
      </trkpt>
      <trkpt lat="47.9249" lon="7.1427">
        <ele>665.6</ele>
        <time>2021-08-21T13:36:15.000Z</time>
      </trkpt>
      <trkpt lat="47.92489" lon="7.14272">
        <ele>665.6</ele>
        <time>2021-08-21T13:36:16.000Z</time>
      </trkpt>
      <trkpt lat="47.92489" lon="7.14274">
        <ele>665.6</ele>
        <time>2021-08-21T13:36:17.000Z</time>
      </trkpt>
      <trkpt lat="47.92483" lon="7.1429">
        <ele>665.4</ele>
        <time>2021-08-21T13:36:26.000Z</time>
      </trkpt>
      <trkpt lat="47.92482" lon="7.14292">
        <ele>665.4</ele>
        <time>2021-08-21T13:36:27.000Z</time>
      </trkpt>
      <trkpt lat="47.92482" lon="7.14294">
        <ele>665.4</ele>
        <time>2021-08-21T13:36:28.000Z</time>
      </trkpt>
      <trkpt lat="47.92479" lon="7.14303">
        <ele>665.2</ele>
        <time>2021-08-21T13:36:33.000Z</time>
      </trkpt>
      <trkpt lat="47.92476" lon="7.14309">
        <ele>665.2</ele>
        <time>2021-08-21T13:36:36.000Z</time>
      </trkpt>
      <trkpt lat="47.92469" lon="7.14329">
        <ele>664.6</ele>
        <time>2021-08-21T13:36:43.000Z</time>
      </trkpt>
      <trkpt lat="47.92468" lon="7.14332">
        <ele>664.4</ele>
        <time>2021-08-21T13:36:44.000Z</time>
      </trkpt>
      <trkpt lat="47.92466" lon="7.14338">
        <ele>664.4</ele>
        <time>2021-08-21T13:36:46.000Z</time>
      </trkpt>
      <trkpt lat="47.92465" lon="7.14341">
        <ele>664.4</ele>
        <time>2021-08-21T13:36:47.000Z</time>
      </trkpt>
      <trkpt lat="47.92464" lon="7.14346">
        <ele>664.4</ele>
        <time>2021-08-21T13:36:49.000Z</time>
      </trkpt>
      <trkpt lat="47.92463" lon="7.14349">
        <ele>664.4</ele>
        <time>2021-08-21T13:36:50.000Z</time>
      </trkpt>
      <trkpt lat="47.92463" lon="7.14353">
        <ele>664.4</ele>
        <time>2021-08-21T13:36:51.000Z</time>
      </trkpt>
      <trkpt lat="47.92462" lon="7.14356">
        <ele>664.2</ele>
        <time>2021-08-21T13:36:52.000Z</time>
      </trkpt>
      <trkpt lat="47.92461" lon="7.14358">
        <ele>664.2</ele>
        <time>2021-08-21T13:36:53.000Z</time>
      </trkpt>
      <trkpt lat="47.92461" lon="7.14361">
        <ele>664.2</ele>
        <time>2021-08-21T13:36:54.000Z</time>
      </trkpt>
      <trkpt lat="47.9246" lon="7.14364">
        <ele>664.2</ele>
        <time>2021-08-21T13:36:55.000Z</time>
      </trkpt>
      <trkpt lat="47.92459" lon="7.14367">
        <ele>664.2</ele>
        <time>2021-08-21T13:36:56.000Z</time>
      </trkpt>
      <trkpt lat="47.92453" lon="7.14417">
        <ele>663.6</ele>
        <time>2021-08-21T13:37:10.000Z</time>
      </trkpt>
      <trkpt lat="47.92457" lon="7.14444">
        <ele>663.2</ele>
        <time>2021-08-21T13:37:19.000Z</time>
      </trkpt>
      <trkpt lat="47.9246" lon="7.1445">
        <ele>663</ele>
        <time>2021-08-21T13:37:22.000Z</time>
      </trkpt>
      <trkpt lat="47.92462" lon="7.14454">
        <ele>663</ele>
        <time>2021-08-21T13:37:25.000Z</time>
      </trkpt>
      <trkpt lat="47.92465" lon="7.14458">
        <ele>662.8</ele>
        <time>2021-08-21T13:37:28.000Z</time>
      </trkpt>
      <trkpt lat="47.92468" lon="7.14466">
        <ele>662.8</ele>
        <time>2021-08-21T13:37:32.000Z</time>
      </trkpt>
      <trkpt lat="47.92469" lon="7.14468">
        <ele>662.8</ele>
        <time>2021-08-21T13:37:33.000Z</time>
      </trkpt>
      <trkpt lat="47.92472" lon="7.14473">
        <ele>662.6</ele>
        <time>2021-08-21T13:37:37.000Z</time>
      </trkpt>
      <trkpt lat="47.92475" lon="7.1448">
        <ele>662.6</ele>
        <time>2021-08-21T13:37:40.000Z</time>
      </trkpt>
      <trkpt lat="47.92475" lon="7.14482">
        <ele>662.6</ele>
        <time>2021-08-21T13:37:42.000Z</time>
      </trkpt>
      <trkpt lat="47.92478" lon="7.14504">
        <ele>662.4</ele>
        <time>2021-08-21T13:37:52.000Z</time>
      </trkpt>
      <trkpt lat="47.9248" lon="7.14506">
        <ele>662.4</ele>
        <time>2021-08-21T13:37:53.000Z</time>
      </trkpt>
      <trkpt lat="47.92487" lon="7.14511">
        <ele>662.2</ele>
        <time>2021-08-21T13:37:59.000Z</time>
      </trkpt>
      <trkpt lat="47.92488" lon="7.14512">
        <ele>662.2</ele>
        <time>2021-08-21T13:38:00.000Z</time>
      </trkpt>
      <trkpt lat="47.92509" lon="7.14533">
        <ele>661.2</ele>
        <time>2021-08-21T13:38:17.000Z</time>
      </trkpt>
      <trkpt lat="47.92535" lon="7.14537">
        <ele>660.8</ele>
        <time>2021-08-21T13:38:34.000Z</time>
      </trkpt>
      <trkpt lat="47.92566" lon="7.1454">
        <ele>660.2</ele>
        <time>2021-08-21T13:38:52.000Z</time>
      </trkpt>
      <trkpt lat="47.92576" lon="7.14551">
        <ele>660</ele>
        <time>2021-08-21T13:39:00.000Z</time>
      </trkpt>
      <trkpt lat="47.92588" lon="7.14595">
        <ele>659.4</ele>
        <time>2021-08-21T13:39:15.000Z</time>
      </trkpt>
      <trkpt lat="47.92588" lon="7.14599">
        <ele>659.2</ele>
        <time>2021-08-21T13:39:16.000Z</time>
      </trkpt>
      <trkpt lat="47.92585" lon="7.14634">
        <ele>658.6</ele>
        <time>2021-08-21T13:39:31.000Z</time>
      </trkpt>
      <trkpt lat="47.92584" lon="7.14637">
        <ele>658.4</ele>
        <time>2021-08-21T13:39:32.000Z</time>
      </trkpt>
      <trkpt lat="47.92583" lon="7.1464">
        <ele>658.4</ele>
        <time>2021-08-21T13:39:33.000Z</time>
      </trkpt>
      <trkpt lat="47.92583" lon="7.14642">
        <ele>658.4</ele>
        <time>2021-08-21T13:39:34.000Z</time>
      </trkpt>
      <trkpt lat="47.92593" lon="7.14679">
        <ele>657.4</ele>
        <time>2021-08-21T13:39:51.000Z</time>
      </trkpt>
      <trkpt lat="47.92616" lon="7.14694">
        <ele>656.6</ele>
        <time>2021-08-21T13:40:07.000Z</time>
      </trkpt>
      <trkpt lat="47.92622" lon="7.14695">
        <ele>656.2</ele>
        <time>2021-08-21T13:40:12.000Z</time>
      </trkpt>
      <trkpt lat="47.92626" lon="7.14695">
        <ele>656.2</ele>
        <time>2021-08-21T13:40:14.000Z</time>
      </trkpt>
      <trkpt lat="47.92628" lon="7.14695">
        <ele>656.2</ele>
        <time>2021-08-21T13:40:15.000Z</time>
      </trkpt>
      <trkpt lat="47.92629" lon="7.14695">
        <ele>656.2</ele>
        <time>2021-08-21T13:40:16.000Z</time>
      </trkpt>
      <trkpt lat="47.92642" lon="7.14696">
        <ele>655.4</ele>
        <time>2021-08-21T13:40:26.000Z</time>
      </trkpt>
      <trkpt lat="47.92644" lon="7.14695">
        <ele>655.2</ele>
        <time>2021-08-21T13:40:28.000Z</time>
      </trkpt>
      <trkpt lat="47.92645" lon="7.14695">
        <ele>655.2</ele>
        <time>2021-08-21T13:40:29.000Z</time>
      </trkpt>
      <trkpt lat="47.92646" lon="7.14696">
        <ele>655.2</ele>
        <time>2021-08-21T13:40:30.000Z</time>
      </trkpt>
      <trkpt lat="47.92648" lon="7.14696">
        <ele>655.2</ele>
        <time>2021-08-21T13:40:31.000Z</time>
      </trkpt>
      <trkpt lat="47.92649" lon="7.14696">
        <ele>655</ele>
        <time>2021-08-21T13:40:32.000Z</time>
      </trkpt>
      <trkpt lat="47.92655" lon="7.14695">
        <ele>654.6</ele>
        <time>2021-08-21T13:40:36.000Z</time>
      </trkpt>
      <trkpt lat="47.92658" lon="7.14693">
        <ele>654.4</ele>
        <time>2021-08-21T13:40:37.000Z</time>
      </trkpt>
      <trkpt lat="47.92664" lon="7.14694">
        <ele>654.2</ele>
        <time>2021-08-21T13:40:40.000Z</time>
      </trkpt>
      <trkpt lat="47.92667" lon="7.14694">
        <ele>654.2</ele>
        <time>2021-08-21T13:40:41.000Z</time>
      </trkpt>
      <trkpt lat="47.9267" lon="7.14693">
        <ele>653.8</ele>
        <time>2021-08-21T13:40:42.000Z</time>
      </trkpt>
      <trkpt lat="47.92673" lon="7.14693">
        <ele>653.8</ele>
        <time>2021-08-21T13:40:43.000Z</time>
      </trkpt>
      <trkpt lat="47.92675" lon="7.14694">
        <ele>653.6</ele>
        <time>2021-08-21T13:40:44.000Z</time>
      </trkpt>
      <trkpt lat="47.92707" lon="7.14697">
        <ele>652.2</ele>
        <time>2021-08-21T13:40:57.000Z</time>
      </trkpt>
      <trkpt lat="47.92739" lon="7.14697">
        <ele>650.4</ele>
        <time>2021-08-21T13:41:11.000Z</time>
      </trkpt>
      <trkpt lat="47.9275" lon="7.14712">
        <ele>650.4</ele>
        <time>2021-08-21T13:41:17.000Z</time>
      </trkpt>
      <trkpt lat="47.92754" lon="7.14767">
        <ele>648.8</ele>
        <time>2021-08-21T13:41:28.000Z</time>
      </trkpt>
      <trkpt lat="47.9275" lon="7.1482">
        <ele>647.4</ele>
        <time>2021-08-21T13:41:41.000Z</time>
      </trkpt>
      <trkpt lat="47.92751" lon="7.1485">
        <ele>646</ele>
        <time>2021-08-21T13:41:55.000Z</time>
      </trkpt>
      <trkpt lat="47.92755" lon="7.14874">
        <ele>645</ele>
        <time>2021-08-21T13:42:06.000Z</time>
      </trkpt>
      <trkpt lat="47.92755" lon="7.14876">
        <ele>644.8</ele>
        <time>2021-08-21T13:42:07.000Z</time>
      </trkpt>
      <trkpt lat="47.92756" lon="7.14878">
        <ele>644.8</ele>
        <time>2021-08-21T13:42:08.000Z</time>
      </trkpt>
      <trkpt lat="47.92756" lon="7.14881">
        <ele>644.8</ele>
        <time>2021-08-21T13:42:09.000Z</time>
      </trkpt>
      <trkpt lat="47.92758" lon="7.14896">
        <ele>644.2</ele>
        <time>2021-08-21T13:42:15.000Z</time>
      </trkpt>
      <trkpt lat="47.92758" lon="7.14898">
        <ele>644.2</ele>
        <time>2021-08-21T13:42:16.000Z</time>
      </trkpt>
      <trkpt lat="47.92758" lon="7.149">
        <ele>644</ele>
        <time>2021-08-21T13:42:17.000Z</time>
      </trkpt>
      <trkpt lat="47.92759" lon="7.14903">
        <ele>644</ele>
        <time>2021-08-21T13:42:18.000Z</time>
      </trkpt>
      <trkpt lat="47.92758" lon="7.14905">
        <ele>643.8</ele>
        <time>2021-08-21T13:42:19.000Z</time>
      </trkpt>
      <trkpt lat="47.92758" lon="7.1491">
        <ele>643.6</ele>
        <time>2021-08-21T13:42:21.000Z</time>
      </trkpt>
      <trkpt lat="47.92757" lon="7.14912">
        <ele>643.6</ele>
        <time>2021-08-21T13:42:22.000Z</time>
      </trkpt>
      <trkpt lat="47.92757" lon="7.14914">
        <ele>643.4</ele>
        <time>2021-08-21T13:42:23.000Z</time>
      </trkpt>
      <trkpt lat="47.92756" lon="7.14916">
        <ele>643.4</ele>
        <time>2021-08-21T13:42:24.000Z</time>
      </trkpt>
      <trkpt lat="47.92756" lon="7.14919">
        <ele>643.2</ele>
        <time>2021-08-21T13:42:25.000Z</time>
      </trkpt>
      <trkpt lat="47.92755" lon="7.14921">
        <ele>643</ele>
        <time>2021-08-21T13:42:26.000Z</time>
      </trkpt>
      <trkpt lat="47.92754" lon="7.14924">
        <ele>643</ele>
        <time>2021-08-21T13:42:27.000Z</time>
      </trkpt>
      <trkpt lat="47.92753" lon="7.14927">
        <ele>643</ele>
        <time>2021-08-21T13:42:28.000Z</time>
      </trkpt>
      <trkpt lat="47.92752" lon="7.14929">
        <ele>642.8</ele>
        <time>2021-08-21T13:42:29.000Z</time>
      </trkpt>
      <trkpt lat="47.9275" lon="7.14932">
        <ele>642.8</ele>
        <time>2021-08-21T13:42:30.000Z</time>
      </trkpt>
      <trkpt lat="47.92749" lon="7.14934">
        <ele>642.8</ele>
        <time>2021-08-21T13:42:31.000Z</time>
      </trkpt>
      <trkpt lat="47.92748" lon="7.14936">
        <ele>642.6</ele>
        <time>2021-08-21T13:42:32.000Z</time>
      </trkpt>
      <trkpt lat="47.92735" lon="7.14961">
        <ele>641.2</ele>
        <time>2021-08-21T13:42:46.000Z</time>
      </trkpt>
      <trkpt lat="47.92719" lon="7.14991">
        <ele>640</ele>
        <time>2021-08-21T13:43:01.000Z</time>
      </trkpt>
      <trkpt lat="47.92715" lon="7.14996">
        <ele>639.8</ele>
        <time>2021-08-21T13:43:04.000Z</time>
      </trkpt>
      <trkpt lat="47.92714" lon="7.14998">
        <ele>639.8</ele>
        <time>2021-08-21T13:43:05.000Z</time>
      </trkpt>
      <trkpt lat="47.92713" lon="7.15">
        <ele>639.8</ele>
        <time>2021-08-21T13:43:06.000Z</time>
      </trkpt>
      <trkpt lat="47.92711" lon="7.15001">
        <ele>639.6</ele>
        <time>2021-08-21T13:43:07.000Z</time>
      </trkpt>
      <trkpt lat="47.9271" lon="7.15003">
        <ele>639.6</ele>
        <time>2021-08-21T13:43:08.000Z</time>
      </trkpt>
      <trkpt lat="47.92709" lon="7.15005">
        <ele>639.6</ele>
        <time>2021-08-21T13:43:09.000Z</time>
      </trkpt>
      <trkpt lat="47.92707" lon="7.15011">
        <ele>639.4</ele>
        <time>2021-08-21T13:43:12.000Z</time>
      </trkpt>
      <trkpt lat="47.92706" lon="7.15013">
        <ele>639.2</ele>
        <time>2021-08-21T13:43:13.000Z</time>
      </trkpt>
      <trkpt lat="47.92704" lon="7.1503">
        <ele>638.4</ele>
        <time>2021-08-21T13:43:23.000Z</time>
      </trkpt>
      <trkpt lat="47.92704" lon="7.15032">
        <ele>638.4</ele>
        <time>2021-08-21T13:43:24.000Z</time>
      </trkpt>
      <trkpt lat="47.92706" lon="7.15042">
        <ele>638</ele>
        <time>2021-08-21T13:43:28.000Z</time>
      </trkpt>
      <trkpt lat="47.92706" lon="7.15044">
        <ele>638</ele>
        <time>2021-08-21T13:43:29.000Z</time>
      </trkpt>
      <trkpt lat="47.92706" lon="7.15047">
        <ele>638</ele>
        <time>2021-08-21T13:43:30.000Z</time>
      </trkpt>
      <trkpt lat="47.92705" lon="7.1505">
        <ele>637.8</ele>
        <time>2021-08-21T13:43:31.000Z</time>
      </trkpt>
      <trkpt lat="47.92705" lon="7.15053">
        <ele>637.6</ele>
        <time>2021-08-21T13:43:32.000Z</time>
      </trkpt>
      <trkpt lat="47.92704" lon="7.15056">
        <ele>637.6</ele>
        <time>2021-08-21T13:43:33.000Z</time>
      </trkpt>
      <trkpt lat="47.92695" lon="7.15081">
        <ele>636.8</ele>
        <time>2021-08-21T13:43:45.000Z</time>
      </trkpt>
      <trkpt lat="47.92691" lon="7.15085">
        <ele>636.4</ele>
        <time>2021-08-21T13:43:48.000Z</time>
      </trkpt>
      <trkpt lat="47.92688" lon="7.15118">
        <ele>635.2</ele>
        <time>2021-08-21T13:44:04.000Z</time>
      </trkpt>
      <trkpt lat="47.92691" lon="7.15159">
        <ele>633.8</ele>
        <time>2021-08-21T13:44:21.000Z</time>
      </trkpt>
      <trkpt lat="47.9269" lon="7.15176">
        <ele>633.2</ele>
        <time>2021-08-21T13:44:29.000Z</time>
      </trkpt>
      <trkpt lat="47.9269" lon="7.15178">
        <ele>633</ele>
        <time>2021-08-21T13:44:30.000Z</time>
      </trkpt>
      <trkpt lat="47.92691" lon="7.15179">
        <ele>633</ele>
        <time>2021-08-21T13:44:31.000Z</time>
      </trkpt>
      <trkpt lat="47.92691" lon="7.1518">
        <ele>633</ele>
        <time>2021-08-21T13:44:32.000Z</time>
      </trkpt>
      <trkpt lat="47.92692" lon="7.15182">
        <ele>632.8</ele>
        <time>2021-08-21T13:44:33.000Z</time>
      </trkpt>
      <trkpt lat="47.92693" lon="7.15185">
        <ele>632.8</ele>
        <time>2021-08-21T13:44:34.000Z</time>
      </trkpt>
      <trkpt lat="47.92694" lon="7.15187">
        <ele>632.8</ele>
        <time>2021-08-21T13:44:35.000Z</time>
      </trkpt>
      <trkpt lat="47.92695" lon="7.15189">
        <ele>632.6</ele>
        <time>2021-08-21T13:44:36.000Z</time>
      </trkpt>
      <trkpt lat="47.92696" lon="7.1519">
        <ele>632.6</ele>
        <time>2021-08-21T13:44:37.000Z</time>
      </trkpt>
      <trkpt lat="47.92705" lon="7.15203">
        <ele>631.4</ele>
        <time>2021-08-21T13:44:47.000Z</time>
      </trkpt>
      <trkpt lat="47.92708" lon="7.15209">
        <ele>631</ele>
        <time>2021-08-21T13:44:53.000Z</time>
      </trkpt>
      <trkpt lat="47.92708" lon="7.15217">
        <ele>630.8</ele>
        <time>2021-08-21T13:44:56.000Z</time>
      </trkpt>
      <trkpt lat="47.9271" lon="7.15229">
        <ele>630</ele>
        <time>2021-08-21T13:45:12.000Z</time>
      </trkpt>
      <trkpt lat="47.92705" lon="7.15241">
        <ele>629.6</ele>
        <time>2021-08-21T13:45:26.000Z</time>
      </trkpt>
      <trkpt lat="47.92703" lon="7.15241">
        <ele>629.2</ele>
        <time>2021-08-21T13:45:27.000Z</time>
      </trkpt>
      <trkpt lat="47.92702" lon="7.15242">
        <ele>628.8</ele>
        <time>2021-08-21T13:45:28.000Z</time>
      </trkpt>
      <trkpt lat="47.927" lon="7.1524">
        <ele>625.8</ele>
        <time>2021-08-21T13:45:34.000Z</time>
      </trkpt>
      <trkpt lat="47.92704" lon="7.15241">
        <ele>624.4</ele>
        <time>2021-08-21T13:45:38.000Z</time>
      </trkpt>
      <trkpt lat="47.92706" lon="7.15241">
        <ele>624.2</ele>
        <time>2021-08-21T13:45:39.000Z</time>
      </trkpt>
      <trkpt lat="47.92723" lon="7.15247">
        <ele>621.2</ele>
        <time>2021-08-21T13:45:50.000Z</time>
      </trkpt>
      <trkpt lat="47.92722" lon="7.15248">
        <ele>620.6</ele>
        <time>2021-08-21T13:45:52.000Z</time>
      </trkpt>
      <trkpt lat="47.92719" lon="7.15259">
        <ele>617.4</ele>
        <time>2021-08-21T13:45:59.000Z</time>
      </trkpt>
      <trkpt lat="47.92704" lon="7.15271">
        <ele>615</ele>
        <time>2021-08-21T13:46:08.000Z</time>
      </trkpt>
      <trkpt lat="47.92698" lon="7.15271">
        <ele>613.2</ele>
        <time>2021-08-21T13:46:12.000Z</time>
      </trkpt>
      <trkpt lat="47.92684" lon="7.15271">
        <ele>610.6</ele>
        <time>2021-08-21T13:46:19.000Z</time>
      </trkpt>
      <trkpt lat="47.92668" lon="7.15269">
        <ele>607.4</ele>
        <time>2021-08-21T13:46:28.000Z</time>
      </trkpt>
      <trkpt lat="47.92659" lon="7.15266">
        <ele>604.6</ele>
        <time>2021-08-21T13:46:35.000Z</time>
      </trkpt>
      <trkpt lat="47.92661" lon="7.15268">
        <ele>603.6</ele>
        <time>2021-08-21T13:46:38.000Z</time>
      </trkpt>
      <trkpt lat="47.92662" lon="7.15269">
        <ele>603.4</ele>
        <time>2021-08-21T13:46:39.000Z</time>
      </trkpt>
      <trkpt lat="47.92667" lon="7.15274">
        <ele>600.2</ele>
        <time>2021-08-21T13:46:45.000Z</time>
      </trkpt>
      <trkpt lat="47.92677" lon="7.15278">
        <ele>596.8</ele>
        <time>2021-08-21T13:46:53.000Z</time>
      </trkpt>
      <trkpt lat="47.92679" lon="7.15278">
        <ele>596.4</ele>
        <time>2021-08-21T13:46:54.000Z</time>
      </trkpt>
      <trkpt lat="47.92681" lon="7.15278">
        <ele>596</ele>
        <time>2021-08-21T13:46:55.000Z</time>
      </trkpt>
      <trkpt lat="47.92688" lon="7.15279">
        <ele>594.2</ele>
        <time>2021-08-21T13:47:00.000Z</time>
      </trkpt>
      <trkpt lat="47.9269" lon="7.15279">
        <ele>593.8</ele>
        <time>2021-08-21T13:47:01.000Z</time>
      </trkpt>
      <trkpt lat="47.92698" lon="7.1528">
        <ele>592.4</ele>
        <time>2021-08-21T13:47:05.000Z</time>
      </trkpt>
      <trkpt lat="47.927" lon="7.15285">
        <ele>591.4</ele>
        <time>2021-08-21T13:47:08.000Z</time>
      </trkpt>
      <trkpt lat="47.92698" lon="7.15294">
        <ele>589.6</ele>
        <time>2021-08-21T13:47:11.000Z</time>
      </trkpt>
      <trkpt lat="47.92689" lon="7.15315">
        <ele>586.4</ele>
        <time>2021-08-21T13:47:21.000Z</time>
      </trkpt>
      <trkpt lat="47.92686" lon="7.15316">
        <ele>585.6</ele>
        <time>2021-08-21T13:47:24.000Z</time>
      </trkpt>
      <trkpt lat="47.92659" lon="7.15325">
        <ele>579.4</ele>
        <time>2021-08-21T13:47:39.000Z</time>
      </trkpt>
      <trkpt lat="47.92657" lon="7.15327">
        <ele>579</ele>
        <time>2021-08-21T13:47:40.000Z</time>
      </trkpt>
      <trkpt lat="47.92639" lon="7.15334">
        <ele>575.8</ele>
        <time>2021-08-21T13:47:51.000Z</time>
      </trkpt>
      <trkpt lat="47.92637" lon="7.15335">
        <ele>572.4</ele>
        <time>2021-08-21T13:47:59.000Z</time>
      </trkpt>
      <trkpt lat="47.92639" lon="7.15332">
        <ele>569.6</ele>
        <time>2021-08-21T13:48:05.000Z</time>
      </trkpt>
      <trkpt lat="47.9264" lon="7.15332">
        <ele>569.4</ele>
        <time>2021-08-21T13:48:06.000Z</time>
      </trkpt>
      <trkpt lat="47.92644" lon="7.15331">
        <ele>568.6</ele>
        <time>2021-08-21T13:48:09.000Z</time>
      </trkpt>
      <trkpt lat="47.92646" lon="7.15332">
        <ele>568</ele>
        <time>2021-08-21T13:48:11.000Z</time>
      </trkpt>
      <trkpt lat="47.92647" lon="7.15332">
        <ele>567.8</ele>
        <time>2021-08-21T13:48:12.000Z</time>
      </trkpt>
      <trkpt lat="47.92648" lon="7.15332">
        <ele>567.4</ele>
        <time>2021-08-21T13:48:13.000Z</time>
      </trkpt>
      <trkpt lat="47.9265" lon="7.15334">
        <ele>567</ele>
        <time>2021-08-21T13:48:14.000Z</time>
      </trkpt>
      <trkpt lat="47.92654" lon="7.15336">
        <ele>566.4</ele>
        <time>2021-08-21T13:48:16.000Z</time>
      </trkpt>
      <trkpt lat="47.92664" lon="7.15339">
        <ele>564</ele>
        <time>2021-08-21T13:48:22.000Z</time>
      </trkpt>
      <trkpt lat="47.9267" lon="7.15343">
        <ele>562.6</ele>
        <time>2021-08-21T13:48:27.000Z</time>
      </trkpt>
      <trkpt lat="47.92672" lon="7.15346">
        <ele>562.2</ele>
        <time>2021-08-21T13:48:29.000Z</time>
      </trkpt>
      <trkpt lat="47.9267" lon="7.1536">
        <ele>560</ele>
        <time>2021-08-21T13:48:36.000Z</time>
      </trkpt>
      <trkpt lat="47.92666" lon="7.15368">
        <ele>558.2</ele>
        <time>2021-08-21T13:48:43.000Z</time>
      </trkpt>
      <trkpt lat="47.92664" lon="7.15369">
        <ele>558</ele>
        <time>2021-08-21T13:48:45.000Z</time>
      </trkpt>
      <trkpt lat="47.92663" lon="7.15369">
        <ele>557.8</ele>
        <time>2021-08-21T13:48:46.000Z</time>
      </trkpt>
      <trkpt lat="47.9266" lon="7.1537">
        <ele>557.2</ele>
        <time>2021-08-21T13:48:48.000Z</time>
      </trkpt>
      <trkpt lat="47.92643" lon="7.15374">
        <ele>554.4</ele>
        <time>2021-08-21T13:48:57.000Z</time>
      </trkpt>
      <trkpt lat="47.92625" lon="7.15381">
        <ele>551</ele>
        <time>2021-08-21T13:49:07.000Z</time>
      </trkpt>
      <trkpt lat="47.92611" lon="7.15392">
        <ele>548</ele>
        <time>2021-08-21T13:49:15.000Z</time>
      </trkpt>
      <trkpt lat="47.92588" lon="7.15403">
        <ele>544.8</ele>
        <time>2021-08-21T13:49:26.000Z</time>
      </trkpt>
      <trkpt lat="47.92584" lon="7.15406">
        <ele>544.4</ele>
        <time>2021-08-21T13:49:28.000Z</time>
      </trkpt>
      <trkpt lat="47.92582" lon="7.15409">
        <ele>544.2</ele>
        <time>2021-08-21T13:49:29.000Z</time>
      </trkpt>
      <trkpt lat="47.9258" lon="7.15411">
        <ele>543.8</ele>
        <time>2021-08-21T13:49:30.000Z</time>
      </trkpt>
      <trkpt lat="47.92579" lon="7.15413">
        <ele>543.4</ele>
        <time>2021-08-21T13:49:31.000Z</time>
      </trkpt>
      <trkpt lat="47.92577" lon="7.15415">
        <ele>543.2</ele>
        <time>2021-08-21T13:49:32.000Z</time>
      </trkpt>
      <trkpt lat="47.92573" lon="7.15418">
        <ele>542.2</ele>
        <time>2021-08-21T13:49:34.000Z</time>
      </trkpt>
      <trkpt lat="47.92566" lon="7.15427">
        <ele>541.2</ele>
        <time>2021-08-21T13:49:38.000Z</time>
      </trkpt>
      <trkpt lat="47.92563" lon="7.15429">
        <ele>540.8</ele>
        <time>2021-08-21T13:49:39.000Z</time>
      </trkpt>
      <trkpt lat="47.92561" lon="7.15431">
        <ele>540.6</ele>
        <time>2021-08-21T13:49:40.000Z</time>
      </trkpt>
      <trkpt lat="47.92556" lon="7.15436">
        <ele>539.8</ele>
        <time>2021-08-21T13:49:43.000Z</time>
      </trkpt>
      <trkpt lat="47.92553" lon="7.15438">
        <ele>539.2</ele>
        <time>2021-08-21T13:49:45.000Z</time>
      </trkpt>
      <trkpt lat="47.92548" lon="7.15441">
        <ele>538.2</ele>
        <time>2021-08-21T13:49:48.000Z</time>
      </trkpt>
      <trkpt lat="47.92542" lon="7.15446">
        <ele>537.8</ele>
        <time>2021-08-21T13:49:51.000Z</time>
      </trkpt>
      <trkpt lat="47.92535" lon="7.1545">
        <ele>537</ele>
        <time>2021-08-21T13:49:55.000Z</time>
      </trkpt>
      <trkpt lat="47.92525" lon="7.15455">
        <ele>535.6</ele>
        <time>2021-08-21T13:49:59.000Z</time>
      </trkpt>
      <trkpt lat="47.9251" lon="7.15459">
        <ele>533</ele>
        <time>2021-08-21T13:50:07.000Z</time>
      </trkpt>
      <trkpt lat="47.92508" lon="7.15458">
        <ele>532.8</ele>
        <time>2021-08-21T13:50:09.000Z</time>
      </trkpt>
      <trkpt lat="47.92504" lon="7.15457">
        <ele>532.2</ele>
        <time>2021-08-21T13:50:11.000Z</time>
      </trkpt>
      <trkpt lat="47.92503" lon="7.15455">
        <ele>532</ele>
        <time>2021-08-21T13:50:12.000Z</time>
      </trkpt>
      <trkpt lat="47.92501" lon="7.15454">
        <ele>531.8</ele>
        <time>2021-08-21T13:50:13.000Z</time>
      </trkpt>
      <trkpt lat="47.92488" lon="7.15451">
        <ele>529.6</ele>
        <time>2021-08-21T13:50:21.000Z</time>
      </trkpt>
      <trkpt lat="47.92488" lon="7.15452">
        <ele>529</ele>
        <time>2021-08-21T13:50:22.000Z</time>
      </trkpt>
      <trkpt lat="47.92486" lon="7.15453">
        <ele>528.2</ele>
        <time>2021-08-21T13:50:24.000Z</time>
      </trkpt>
      <trkpt lat="47.92487" lon="7.15457">
        <ele>527.2</ele>
        <time>2021-08-21T13:50:27.000Z</time>
      </trkpt>
      <trkpt lat="47.92488" lon="7.1546">
        <ele>526.2</ele>
        <time>2021-08-21T13:50:29.000Z</time>
      </trkpt>
      <trkpt lat="47.92485" lon="7.15467">
        <ele>523.2</ele>
        <time>2021-08-21T13:50:35.000Z</time>
      </trkpt>
      <trkpt lat="47.92488" lon="7.15471">
        <ele>521.6</ele>
        <time>2021-08-21T13:50:39.000Z</time>
      </trkpt>
      <trkpt lat="47.9249" lon="7.15471">
        <ele>521.4</ele>
        <time>2021-08-21T13:50:40.000Z</time>
      </trkpt>
      <trkpt lat="47.92493" lon="7.15472">
        <ele>520.6</ele>
        <time>2021-08-21T13:50:43.000Z</time>
      </trkpt>
      <trkpt lat="47.92499" lon="7.15471">
        <ele>519.6</ele>
        <time>2021-08-21T13:50:46.000Z</time>
      </trkpt>
      <trkpt lat="47.925" lon="7.15471">
        <ele>518.8</ele>
        <time>2021-08-21T13:50:47.000Z</time>
      </trkpt>
      <trkpt lat="47.92502" lon="7.15471">
        <ele>518.6</ele>
        <time>2021-08-21T13:50:48.000Z</time>
      </trkpt>
      <trkpt lat="47.92506" lon="7.15471">
        <ele>518</ele>
        <time>2021-08-21T13:50:50.000Z</time>
      </trkpt>
      <trkpt lat="47.92513" lon="7.15472">
        <ele>517</ele>
        <time>2021-08-21T13:50:54.000Z</time>
      </trkpt>
      <trkpt lat="47.92528" lon="7.15474">
        <ele>515</ele>
        <time>2021-08-21T13:51:07.000Z</time>
      </trkpt>
      <trkpt lat="47.92539" lon="7.15478">
        <ele>513.2</ele>
        <time>2021-08-21T13:51:16.000Z</time>
      </trkpt>
      <trkpt lat="47.92541" lon="7.15478">
        <ele>513</ele>
        <time>2021-08-21T13:51:17.000Z</time>
      </trkpt>
      <trkpt lat="47.92554" lon="7.15484">
        <ele>510.8</ele>
        <time>2021-08-21T13:51:26.000Z</time>
      </trkpt>
      <trkpt lat="47.92555" lon="7.15485">
        <ele>510.6</ele>
        <time>2021-08-21T13:51:27.000Z</time>
      </trkpt>
      <trkpt lat="47.92556" lon="7.15484">
        <ele>510.4</ele>
        <time>2021-08-21T13:51:28.000Z</time>
      </trkpt>
      <trkpt lat="47.92558" lon="7.15484">
        <ele>510.2</ele>
        <time>2021-08-21T13:51:29.000Z</time>
      </trkpt>
      <trkpt lat="47.92559" lon="7.15483">
        <ele>509.8</ele>
        <time>2021-08-21T13:51:30.000Z</time>
      </trkpt>
      <trkpt lat="47.9257" lon="7.15484">
        <ele>508.4</ele>
        <time>2021-08-21T13:51:37.000Z</time>
      </trkpt>
      <trkpt lat="47.92571" lon="7.15485">
        <ele>508.2</ele>
        <time>2021-08-21T13:51:38.000Z</time>
      </trkpt>
      <trkpt lat="47.92589" lon="7.15496">
        <ele>506</ele>
        <time>2021-08-21T13:51:48.000Z</time>
      </trkpt>
      <trkpt lat="47.92602" lon="7.15511">
        <ele>504.8</ele>
        <time>2021-08-21T13:51:57.000Z</time>
      </trkpt>
      <trkpt lat="47.92606" lon="7.1553">
        <ele>503.6</ele>
        <time>2021-08-21T13:52:02.000Z</time>
      </trkpt>
      <trkpt lat="47.92605" lon="7.15537">
        <ele>503.2</ele>
        <time>2021-08-21T13:52:04.000Z</time>
      </trkpt>
      <trkpt lat="47.92605" lon="7.1554">
        <ele>503</ele>
        <time>2021-08-21T13:52:05.000Z</time>
      </trkpt>
      <trkpt lat="47.92602" lon="7.15548">
        <ele>502.4</ele>
        <time>2021-08-21T13:52:08.000Z</time>
      </trkpt>
      <trkpt lat="47.926" lon="7.1555">
        <ele>502.2</ele>
        <time>2021-08-21T13:52:09.000Z</time>
      </trkpt>
      <trkpt lat="47.92598" lon="7.15551">
        <ele>502.2</ele>
        <time>2021-08-21T13:52:10.000Z</time>
      </trkpt>
      <trkpt lat="47.92596" lon="7.15553">
        <ele>502</ele>
        <time>2021-08-21T13:52:11.000Z</time>
      </trkpt>
      <trkpt lat="47.92595" lon="7.15556">
        <ele>501.6</ele>
        <time>2021-08-21T13:52:12.000Z</time>
      </trkpt>
      <trkpt lat="47.9259" lon="7.1556">
        <ele>501</ele>
        <time>2021-08-21T13:52:14.000Z</time>
      </trkpt>
      <trkpt lat="47.92588" lon="7.15563">
        <ele>500.8</ele>
        <time>2021-08-21T13:52:15.000Z</time>
      </trkpt>
      <trkpt lat="47.92574" lon="7.15583">
        <ele>498.4</ele>
        <time>2021-08-21T13:52:26.000Z</time>
      </trkpt>
      <trkpt lat="47.92572" lon="7.15585">
        <ele>498.2</ele>
        <time>2021-08-21T13:52:27.000Z</time>
      </trkpt>
      <trkpt lat="47.92571" lon="7.15587">
        <ele>498</ele>
        <time>2021-08-21T13:52:28.000Z</time>
      </trkpt>
      <trkpt lat="47.9257" lon="7.15589">
        <ele>497.8</ele>
        <time>2021-08-21T13:52:29.000Z</time>
      </trkpt>
      <trkpt lat="47.92569" lon="7.15591">
        <ele>497.6</ele>
        <time>2021-08-21T13:52:30.000Z</time>
      </trkpt>
      <trkpt lat="47.92553" lon="7.15608">
        <ele>495.4</ele>
        <time>2021-08-21T13:52:44.000Z</time>
      </trkpt>
      <trkpt lat="47.92551" lon="7.15609">
        <ele>495.2</ele>
        <time>2021-08-21T13:52:45.000Z</time>
      </trkpt>
      <trkpt lat="47.92538" lon="7.15614">
        <ele>493.8</ele>
        <time>2021-08-21T13:52:51.000Z</time>
      </trkpt>
      <trkpt lat="47.92537" lon="7.15615">
        <ele>493.6</ele>
        <time>2021-08-21T13:52:52.000Z</time>
      </trkpt>
      <trkpt lat="47.92536" lon="7.15616">
        <ele>493.4</ele>
        <time>2021-08-21T13:52:53.000Z</time>
      </trkpt>
      <trkpt lat="47.92513" lon="7.15628">
        <ele>491</ele>
        <time>2021-08-21T13:53:07.000Z</time>
      </trkpt>
      <trkpt lat="47.92512" lon="7.15629">
        <ele>490.8</ele>
        <time>2021-08-21T13:53:08.000Z</time>
      </trkpt>
      <trkpt lat="47.92511" lon="7.1563">
        <ele>490.8</ele>
        <time>2021-08-21T13:53:09.000Z</time>
      </trkpt>
      <trkpt lat="47.9251" lon="7.15632">
        <ele>490.6</ele>
        <time>2021-08-21T13:53:10.000Z</time>
      </trkpt>
      <trkpt lat="47.9251" lon="7.15634">
        <ele>490.4</ele>
        <time>2021-08-21T13:53:11.000Z</time>
      </trkpt>
      <trkpt lat="47.92509" lon="7.15636">
        <ele>490.4</ele>
        <time>2021-08-21T13:53:12.000Z</time>
      </trkpt>
      <trkpt lat="47.92508" lon="7.15638">
        <ele>490</ele>
        <time>2021-08-21T13:53:13.000Z</time>
      </trkpt>
      <trkpt lat="47.92508" lon="7.15641">
        <ele>489.8</ele>
        <time>2021-08-21T13:53:14.000Z</time>
      </trkpt>
      <trkpt lat="47.92507" lon="7.15643">
        <ele>489.8</ele>
        <time>2021-08-21T13:53:15.000Z</time>
      </trkpt>
      <trkpt lat="47.92506" lon="7.15647">
        <ele>489.4</ele>
        <time>2021-08-21T13:53:17.000Z</time>
      </trkpt>
      <trkpt lat="47.92506" lon="7.15649">
        <ele>489.2</ele>
        <time>2021-08-21T13:53:18.000Z</time>
      </trkpt>
      <trkpt lat="47.92506" lon="7.15651">
        <ele>489</ele>
        <time>2021-08-21T13:53:19.000Z</time>
      </trkpt>
      <trkpt lat="47.92505" lon="7.15673">
        <ele>487.2</ele>
        <time>2021-08-21T13:53:30.000Z</time>
      </trkpt>
      <trkpt lat="47.92504" lon="7.15675">
        <ele>487.2</ele>
        <time>2021-08-21T13:53:31.000Z</time>
      </trkpt>
      <trkpt lat="47.92493" lon="7.15701">
        <ele>484.8</ele>
        <time>2021-08-21T13:53:44.000Z</time>
      </trkpt>
      <trkpt lat="47.92491" lon="7.15705">
        <ele>484.4</ele>
        <time>2021-08-21T13:53:46.000Z</time>
      </trkpt>
      <trkpt lat="47.92491" lon="7.15707">
        <ele>484.4</ele>
        <time>2021-08-21T13:53:47.000Z</time>
      </trkpt>
      <trkpt lat="47.92485" lon="7.15731">
        <ele>482.4</ele>
        <time>2021-08-21T13:53:59.000Z</time>
      </trkpt>
      <trkpt lat="47.92484" lon="7.15733">
        <ele>482.2</ele>
        <time>2021-08-21T13:54:00.000Z</time>
      </trkpt>
      <trkpt lat="47.92483" lon="7.15736">
        <ele>481.8</ele>
        <time>2021-08-21T13:54:01.000Z</time>
      </trkpt>
      <trkpt lat="47.92482" lon="7.15738">
        <ele>481.6</ele>
        <time>2021-08-21T13:54:02.000Z</time>
      </trkpt>
      <trkpt lat="47.92481" lon="7.15741">
        <ele>481.4</ele>
        <time>2021-08-21T13:54:03.000Z</time>
      </trkpt>
      <trkpt lat="47.92478" lon="7.15744">
        <ele>481.2</ele>
        <time>2021-08-21T13:54:05.000Z</time>
      </trkpt>
      <trkpt lat="47.9247" lon="7.15759">
        <ele>480.2</ele>
        <time>2021-08-21T13:54:11.000Z</time>
      </trkpt>
      <trkpt lat="47.9247" lon="7.15761">
        <ele>480.2</ele>
        <time>2021-08-21T13:54:12.000Z</time>
      </trkpt>
      <trkpt lat="47.92457" lon="7.15778">
        <ele>478.2</ele>
        <time>2021-08-21T13:54:22.000Z</time>
      </trkpt>
      <trkpt lat="47.92454" lon="7.15779">
        <ele>477.6</ele>
        <time>2021-08-21T13:54:24.000Z</time>
      </trkpt>
      <trkpt lat="47.92444" lon="7.15779">
        <ele>476.4</ele>
        <time>2021-08-21T13:54:31.000Z</time>
      </trkpt>
      <trkpt lat="47.92436" lon="7.15778">
        <ele>475.6</ele>
        <time>2021-08-21T13:54:36.000Z</time>
      </trkpt>
      <trkpt lat="47.92435" lon="7.15778">
        <ele>475.4</ele>
        <time>2021-08-21T13:54:37.000Z</time>
      </trkpt>
      <trkpt lat="47.92433" lon="7.15779">
        <ele>475</ele>
        <time>2021-08-21T13:54:39.000Z</time>
      </trkpt>
      <trkpt lat="47.92432" lon="7.15779">
        <ele>474.8</ele>
        <time>2021-08-21T13:54:40.000Z</time>
      </trkpt>
      <trkpt lat="47.92432" lon="7.1578">
        <ele>474.6</ele>
        <time>2021-08-21T13:54:41.000Z</time>
      </trkpt>
      <trkpt lat="47.9243" lon="7.15783">
        <ele>473.8</ele>
        <time>2021-08-21T13:54:44.000Z</time>
      </trkpt>
      <trkpt lat="47.92429" lon="7.15785">
        <ele>473.8</ele>
        <time>2021-08-21T13:54:45.000Z</time>
      </trkpt>
      <trkpt lat="47.92428" lon="7.15787">
        <ele>473.6</ele>
        <time>2021-08-21T13:54:46.000Z</time>
      </trkpt>
      <trkpt lat="47.92427" lon="7.1579">
        <ele>473.4</ele>
        <time>2021-08-21T13:54:47.000Z</time>
      </trkpt>
      <trkpt lat="47.92427" lon="7.15795">
        <ele>472.8</ele>
        <time>2021-08-21T13:54:49.000Z</time>
      </trkpt>
      <trkpt lat="47.92425" lon="7.15805">
        <ele>472</ele>
        <time>2021-08-21T13:54:53.000Z</time>
      </trkpt>
      <trkpt lat="47.92424" lon="7.15806">
        <ele>471.8</ele>
        <time>2021-08-21T13:54:54.000Z</time>
      </trkpt>
      <trkpt lat="47.92424" lon="7.15807">
        <ele>471.4</ele>
        <time>2021-08-21T13:54:55.000Z</time>
      </trkpt>
      <trkpt lat="47.92424" lon="7.15809">
        <ele>471.2</ele>
        <time>2021-08-21T13:54:56.000Z</time>
      </trkpt>
      <trkpt lat="47.9242" lon="7.15813">
        <ele>470.8</ele>
        <time>2021-08-21T13:54:58.000Z</time>
      </trkpt>
      <trkpt lat="47.92409" lon="7.15822">
        <ele>468.4</ele>
        <time>2021-08-21T13:55:11.000Z</time>
      </trkpt>
      <trkpt lat="47.92409" lon="7.15821">
        <ele>468</ele>
        <time>2021-08-21T13:55:12.000Z</time>
      </trkpt>
      <trkpt lat="47.92406" lon="7.15817">
        <ele>467.2</ele>
        <time>2021-08-21T13:55:14.000Z</time>
      </trkpt>
      <trkpt lat="47.92405" lon="7.15814">
        <ele>466.8</ele>
        <time>2021-08-21T13:55:15.000Z</time>
      </trkpt>
      <trkpt lat="47.92399" lon="7.15801">
        <ele>464.4</ele>
        <time>2021-08-21T13:55:23.000Z</time>
      </trkpt>
      <trkpt lat="47.92396" lon="7.15786">
        <ele>462.2</ele>
        <time>2021-08-21T13:55:32.000Z</time>
      </trkpt>
      <trkpt lat="47.92395" lon="7.15783">
        <ele>461.8</ele>
        <time>2021-08-21T13:55:33.000Z</time>
      </trkpt>
      <trkpt lat="47.92395" lon="7.15781">
        <ele>461.6</ele>
        <time>2021-08-21T13:55:34.000Z</time>
      </trkpt>
      <trkpt lat="47.92394" lon="7.15778">
        <ele>461.2</ele>
        <time>2021-08-21T13:55:35.000Z</time>
      </trkpt>
      <trkpt lat="47.92393" lon="7.15776">
        <ele>461</ele>
        <time>2021-08-21T13:55:36.000Z</time>
      </trkpt>
      <trkpt lat="47.92394" lon="7.15771">
        <ele>460</ele>
        <time>2021-08-21T13:55:38.000Z</time>
      </trkpt>
      <trkpt lat="47.92394" lon="7.15769">
        <ele>459.6</ele>
        <time>2021-08-21T13:55:39.000Z</time>
      </trkpt>
      <trkpt lat="47.92395" lon="7.15754">
        <ele>457.6</ele>
        <time>2021-08-21T13:55:46.000Z</time>
      </trkpt>
      <trkpt lat="47.92395" lon="7.15752">
        <ele>457.2</ele>
        <time>2021-08-21T13:55:47.000Z</time>
      </trkpt>
      <trkpt lat="47.92394" lon="7.15745">
        <ele>456.6</ele>
        <time>2021-08-21T13:55:50.000Z</time>
      </trkpt>
      <trkpt lat="47.92395" lon="7.15731">
        <ele>455.2</ele>
        <time>2021-08-21T13:55:57.000Z</time>
      </trkpt>
      <trkpt lat="47.92394" lon="7.15727">
        <ele>454.8</ele>
        <time>2021-08-21T13:56:00.000Z</time>
      </trkpt>
      <trkpt lat="47.92393" lon="7.15726">
        <ele>454.6</ele>
        <time>2021-08-21T13:56:01.000Z</time>
      </trkpt>
      <trkpt lat="47.92392" lon="7.15724">
        <ele>454.4</ele>
        <time>2021-08-21T13:56:02.000Z</time>
      </trkpt>
      <trkpt lat="47.92391" lon="7.15724">
        <ele>454</ele>
        <time>2021-08-21T13:56:03.000Z</time>
      </trkpt>
      <trkpt lat="47.9239" lon="7.15722">
        <ele>454</ele>
        <time>2021-08-21T13:56:04.000Z</time>
      </trkpt>
      <trkpt lat="47.92377" lon="7.15718">
        <ele>452.8</ele>
        <time>2021-08-21T13:56:12.000Z</time>
      </trkpt>
      <trkpt lat="47.92375" lon="7.15717">
        <ele>452.6</ele>
        <time>2021-08-21T13:56:13.000Z</time>
      </trkpt>
      <trkpt lat="47.92373" lon="7.15717">
        <ele>452.4</ele>
        <time>2021-08-21T13:56:14.000Z</time>
      </trkpt>
      <trkpt lat="47.92372" lon="7.15717">
        <ele>452.2</ele>
        <time>2021-08-21T13:56:15.000Z</time>
      </trkpt>
      <trkpt lat="47.92368" lon="7.15713">
        <ele>451.6</ele>
        <time>2021-08-21T13:56:20.000Z</time>
      </trkpt>
      <trkpt lat="47.92368" lon="7.15711">
        <ele>451.4</ele>
        <time>2021-08-21T13:56:21.000Z</time>
      </trkpt>
      <trkpt lat="47.92368" lon="7.15708">
        <ele>451.4</ele>
        <time>2021-08-21T13:56:22.000Z</time>
      </trkpt>
      <trkpt lat="47.92367" lon="7.15706">
        <ele>451.4</ele>
        <time>2021-08-21T13:56:23.000Z</time>
      </trkpt>
      <trkpt lat="47.92366" lon="7.15704">
        <ele>451.4</ele>
        <time>2021-08-21T13:56:24.000Z</time>
      </trkpt>
      <trkpt lat="47.92365" lon="7.15702">
        <ele>451.4</ele>
        <time>2021-08-21T13:56:25.000Z</time>
      </trkpt>
      <trkpt lat="47.92364" lon="7.15699">
        <ele>451.4</ele>
        <time>2021-08-21T13:56:26.000Z</time>
      </trkpt>
      <trkpt lat="47.92364" lon="7.15697">
        <ele>451.4</ele>
        <time>2021-08-21T13:56:27.000Z</time>
      </trkpt>
      <trkpt lat="47.92363" lon="7.15697">
        <ele>451.6</ele>
        <time>2021-08-21T13:56:31.000Z</time>
      </trkpt>
      <trkpt lat="47.92364" lon="7.157">
        <ele>451.8</ele>
        <time>2021-08-21T13:56:33.000Z</time>
      </trkpt>
      <trkpt lat="47.92364" lon="7.15702">
        <ele>451.8</ele>
        <time>2021-08-21T13:56:34.000Z</time>
      </trkpt>
      <trkpt lat="47.92365" lon="7.15704">
        <ele>451.6</ele>
        <time>2021-08-21T13:56:35.000Z</time>
      </trkpt>
      <trkpt lat="47.92365" lon="7.15707">
        <ele>451.6</ele>
        <time>2021-08-21T13:56:36.000Z</time>
      </trkpt>
      <trkpt lat="47.92366" lon="7.15709">
        <ele>451.6</ele>
        <time>2021-08-21T13:56:37.000Z</time>
      </trkpt>
      <trkpt lat="47.92342" lon="7.15866">
        <ele>442.6</ele>
        <time>2021-08-21T13:57:23.000Z</time>
      </trkpt>
      <trkpt lat="47.92333" lon="7.1591">
        <ele>439.4</ele>
        <time>2021-08-21T13:57:36.000Z</time>
      </trkpt>
      <trkpt lat="47.92316" lon="7.15944">
        <ele>436.4</ele>
        <time>2021-08-21T13:57:48.000Z</time>
      </trkpt>
      <trkpt lat="47.92318" lon="7.15976">
        <ele>434.4</ele>
        <time>2021-08-21T13:58:01.000Z</time>
      </trkpt>
      <trkpt lat="47.92325" lon="7.16021">
        <ele>432</ele>
        <time>2021-08-21T13:58:19.000Z</time>
      </trkpt>
      <trkpt lat="47.92325" lon="7.16029">
        <ele>431.6</ele>
        <time>2021-08-21T13:58:22.000Z</time>
      </trkpt>
      <trkpt lat="47.92325" lon="7.16033">
        <ele>431.2</ele>
        <time>2021-08-21T13:58:24.000Z</time>
      </trkpt>
      <trkpt lat="47.92326" lon="7.16035">
        <ele>431</ele>
        <time>2021-08-21T13:58:25.000Z</time>
      </trkpt>
      <trkpt lat="47.9233" lon="7.16076">
        <ele>428.2</ele>
        <time>2021-08-21T13:58:43.000Z</time>
      </trkpt>
      <trkpt lat="47.92331" lon="7.1608">
        <ele>428.2</ele>
        <time>2021-08-21T13:58:44.000Z</time>
      </trkpt>
      <trkpt lat="47.92331" lon="7.16084">
        <ele>428</ele>
        <time>2021-08-21T13:58:45.000Z</time>
      </trkpt>
      <trkpt lat="47.92331" lon="7.16088">
        <ele>427.8</ele>
        <time>2021-08-21T13:58:46.000Z</time>
      </trkpt>
      <trkpt lat="47.92331" lon="7.16092">
        <ele>427.8</ele>
        <time>2021-08-21T13:58:47.000Z</time>
      </trkpt>
      <trkpt lat="47.92331" lon="7.16105">
        <ele>427</ele>
        <time>2021-08-21T13:58:50.000Z</time>
      </trkpt>
      <trkpt lat="47.92335" lon="7.16173">
        <ele>423.8</ele>
        <time>2021-08-21T13:59:08.000Z</time>
      </trkpt>
      <trkpt lat="47.92336" lon="7.16228">
        <ele>421.8</ele>
        <time>2021-08-21T13:59:22.000Z</time>
      </trkpt>
      <trkpt lat="47.92335" lon="7.1626">
        <ele>420.8</ele>
        <time>2021-08-21T13:59:33.000Z</time>
      </trkpt>
      <trkpt lat="47.92335" lon="7.16264">
        <ele>420.8</ele>
        <time>2021-08-21T13:59:34.000Z</time>
      </trkpt>
      <trkpt lat="47.92336" lon="7.16267">
        <ele>420.6</ele>
        <time>2021-08-21T13:59:35.000Z</time>
      </trkpt>
      <trkpt lat="47.92336" lon="7.1627">
        <ele>420.4</ele>
        <time>2021-08-21T13:59:36.000Z</time>
      </trkpt>
      <trkpt lat="47.92336" lon="7.16273">
        <ele>420.4</ele>
        <time>2021-08-21T13:59:37.000Z</time>
      </trkpt>
      <trkpt lat="47.92334" lon="7.16278">
        <ele>420.2</ele>
        <time>2021-08-21T13:59:39.000Z</time>
      </trkpt>
      <trkpt lat="47.92334" lon="7.16281">
        <ele>420.2</ele>
        <time>2021-08-21T13:59:40.000Z</time>
      </trkpt>
      <trkpt lat="47.92334" lon="7.16284">
        <ele>420.2</ele>
        <time>2021-08-21T13:59:41.000Z</time>
      </trkpt>
      <trkpt lat="47.92334" lon="7.16286">
        <ele>419.8</ele>
        <time>2021-08-21T13:59:42.000Z</time>
      </trkpt>
      <trkpt lat="47.92334" lon="7.16289">
        <ele>419.8</ele>
        <time>2021-08-21T13:59:43.000Z</time>
      </trkpt>
      <trkpt lat="47.92334" lon="7.16293">
        <ele>419.6</ele>
        <time>2021-08-21T13:59:45.000Z</time>
      </trkpt>
      <trkpt lat="47.92335" lon="7.16299">
        <ele>419.2</ele>
        <time>2021-08-21T13:59:48.000Z</time>
      </trkpt>
      <trkpt lat="47.92334" lon="7.16323">
        <ele>418.4</ele>
        <time>2021-08-21T13:59:57.000Z</time>
      </trkpt>
      <trkpt lat="47.92334" lon="7.16326">
        <ele>418.2</ele>
        <time>2021-08-21T13:59:58.000Z</time>
      </trkpt>
      <trkpt lat="47.9233" lon="7.16407">
        <ele>415.8</ele>
        <time>2021-08-21T14:00:17.000Z</time>
      </trkpt>
      <trkpt lat="47.92328" lon="7.16477">
        <ele>413.4</ele>
        <time>2021-08-21T14:00:34.000Z</time>
      </trkpt>
      <trkpt lat="47.92327" lon="7.16518">
        <ele>412.4</ele>
        <time>2021-08-21T14:00:51.000Z</time>
      </trkpt>
      <trkpt lat="47.92314" lon="7.16547">
        <ele>411.2</ele>
        <time>2021-08-21T14:01:06.000Z</time>
      </trkpt>
      <trkpt lat="47.92313" lon="7.16548">
        <ele>411.2</ele>
        <time>2021-08-21T14:01:07.000Z</time>
      </trkpt>
      <trkpt lat="47.92312" lon="7.16549">
        <ele>411</ele>
        <time>2021-08-21T14:01:08.000Z</time>
      </trkpt>
      <trkpt lat="47.92311" lon="7.16551">
        <ele>411</ele>
        <time>2021-08-21T14:01:09.000Z</time>
      </trkpt>
      <trkpt lat="47.92311" lon="7.16553">
        <ele>411</ele>
        <time>2021-08-21T14:01:10.000Z</time>
      </trkpt>
      <trkpt lat="47.92311" lon="7.16556">
        <ele>410.8</ele>
        <time>2021-08-21T14:01:11.000Z</time>
      </trkpt>
      <trkpt lat="47.92311" lon="7.16559">
        <ele>410.8</ele>
        <time>2021-08-21T14:01:12.000Z</time>
      </trkpt>
      <trkpt lat="47.92305" lon="7.16577">
        <ele>410.4</ele>
        <time>2021-08-21T14:01:20.000Z</time>
      </trkpt>
      <trkpt lat="47.92304" lon="7.16579">
        <ele>410.2</ele>
        <time>2021-08-21T14:01:21.000Z</time>
      </trkpt>
      <trkpt lat="47.92286" lon="7.16615">
        <ele>409.2</ele>
        <time>2021-08-21T14:01:39.000Z</time>
      </trkpt>
      <trkpt lat="47.92269" lon="7.1665">
        <ele>408</ele>
        <time>2021-08-21T14:01:54.000Z</time>
      </trkpt>
      <trkpt lat="47.92252" lon="7.16695">
        <ele>406.6</ele>
        <time>2021-08-21T14:02:09.000Z</time>
      </trkpt>
      <trkpt lat="47.92228" lon="7.16738">
        <ele>404.6</ele>
        <time>2021-08-21T14:02:22.000Z</time>
      </trkpt>
      <trkpt lat="47.92204" lon="7.16756">
        <ele>403.4</ele>
        <time>2021-08-21T14:02:35.000Z</time>
      </trkpt>
      <trkpt lat="47.92203" lon="7.16757">
        <ele>403.2</ele>
        <time>2021-08-21T14:02:36.000Z</time>
      </trkpt>
      <trkpt lat="47.92202" lon="7.16759">
        <ele>403.2</ele>
        <time>2021-08-21T14:02:37.000Z</time>
      </trkpt>
      <trkpt lat="47.92187" lon="7.16777">
        <ele>402</ele>
        <time>2021-08-21T14:02:49.000Z</time>
      </trkpt>
      <trkpt lat="47.92186" lon="7.16779">
        <ele>402</ele>
        <time>2021-08-21T14:02:50.000Z</time>
      </trkpt>
      <trkpt lat="47.92184" lon="7.1678">
        <ele>401.8</ele>
        <time>2021-08-21T14:02:51.000Z</time>
      </trkpt>
      <trkpt lat="47.92178" lon="7.16785">
        <ele>401.4</ele>
        <time>2021-08-21T14:02:55.000Z</time>
      </trkpt>
      <trkpt lat="47.92177" lon="7.16786">
        <ele>401.2</ele>
        <time>2021-08-21T14:02:56.000Z</time>
      </trkpt>
      <trkpt lat="47.92176" lon="7.16787">
        <ele>401.2</ele>
        <time>2021-08-21T14:02:57.000Z</time>
      </trkpt>
      <trkpt lat="47.92164" lon="7.16796">
        <ele>400.4</ele>
        <time>2021-08-21T14:03:05.000Z</time>
      </trkpt>
      <trkpt lat="47.92163" lon="7.16797">
        <ele>400.2</ele>
        <time>2021-08-21T14:03:06.000Z</time>
      </trkpt>
      <trkpt lat="47.92155" lon="7.16803">
        <ele>400</ele>
        <time>2021-08-21T14:03:09.000Z</time>
      </trkpt>
      <trkpt lat="47.92146" lon="7.16811">
        <ele>399.2</ele>
        <time>2021-08-21T14:03:13.000Z</time>
      </trkpt>
      <trkpt lat="47.92144" lon="7.16814">
        <ele>399.2</ele>
        <time>2021-08-21T14:03:14.000Z</time>
      </trkpt>
      <trkpt lat="47.92142" lon="7.16817">
        <ele>399.2</ele>
        <time>2021-08-21T14:03:15.000Z</time>
      </trkpt>
      <trkpt lat="47.92116" lon="7.16861">
        <ele>396</ele>
        <time>2021-08-21T14:03:29.000Z</time>
      </trkpt>
      <trkpt lat="47.92106" lon="7.16909">
        <ele>394</ele>
        <time>2021-08-21T14:03:43.000Z</time>
      </trkpt>
      <trkpt lat="47.92105" lon="7.16922">
        <ele>393.4</ele>
        <time>2021-08-21T14:03:48.000Z</time>
      </trkpt>
      <trkpt lat="47.92106" lon="7.16925">
        <ele>393.4</ele>
        <time>2021-08-21T14:03:49.000Z</time>
      </trkpt>
      <trkpt lat="47.92109" lon="7.16942">
        <ele>392.6</ele>
        <time>2021-08-21T14:03:58.000Z</time>
      </trkpt>
      <trkpt lat="47.92108" lon="7.16952">
        <ele>392.4</ele>
        <time>2021-08-21T14:04:02.000Z</time>
      </trkpt>
      <trkpt lat="47.9211" lon="7.16958">
        <ele>392</ele>
        <time>2021-08-21T14:04:05.000Z</time>
      </trkpt>
      <trkpt lat="47.92111" lon="7.16961">
        <ele>392</ele>
        <time>2021-08-21T14:04:06.000Z</time>
      </trkpt>
      <trkpt lat="47.92112" lon="7.16963">
        <ele>392</ele>
        <time>2021-08-21T14:04:07.000Z</time>
      </trkpt>
      <trkpt lat="47.92102" lon="7.17074">
        <ele>390.2</ele>
        <time>2021-08-21T14:04:34.000Z</time>
      </trkpt>
      <trkpt lat="47.921" lon="7.17107">
        <ele>389.8</ele>
        <time>2021-08-21T14:04:47.000Z</time>
      </trkpt>
    </trkseg>
  </trk>
</gpx>